<?xml version="1.0" encoding="UTF-8" standalone="no" ?>
<gpx xmlns="http://www.topografix.com/GPX/1/1" xmlns:xsi="http://www.w3.org/2001/XMLSchema-instance" xsi:schemaLocation="http://www.topografix.com/GPX/1/1 http://www.topografix.com/GPX/1/1/gpx.xsd" version="1.1" creator="VisuGPX - https://www.visugpx.com">
  <metadata>
    <name>Pte Bourdillon + col du Trou</name>
  </metadata>
  <trk>
    <name><![CDATA[2022-03-21 16:16:32-Course TT]]></name>
    <extensions>
      <line xmlns="http://www.topografix.com/GPX/gpx_style/0/2">
        <color>0000FF</color>
        <width>4</width>
      </line>
    </extensions>
    <trkseg>
      <trkpt lat="46.11257" lon="6.75128">
        <ele>1105.65</ele>
        <time>2022-03-21T08:50:40Z</time>
      </trkpt>
      <trkpt lat="46.11257" lon="6.75129">
        <ele>1110.46</ele>
        <time>2022-03-21T08:50:41Z</time>
      </trkpt>
      <trkpt lat="46.11257" lon="6.7513">
        <ele>1110.46</ele>
        <time>2022-03-21T08:50:42Z</time>
      </trkpt>
      <trkpt lat="46.11258" lon="6.75133">
        <ele>1106.61</ele>
        <time>2022-03-21T08:50:44Z</time>
      </trkpt>
      <trkpt lat="46.11259" lon="6.75134">
        <ele>1106.61</ele>
        <time>2022-03-21T08:50:45Z</time>
      </trkpt>
      <trkpt lat="46.11267" lon="6.75145">
        <ele>1109.98</ele>
        <time>2022-03-21T08:51:00Z</time>
      </trkpt>
      <trkpt lat="46.11271" lon="6.75152">
        <ele>1111.42</ele>
        <time>2022-03-21T08:51:19Z</time>
      </trkpt>
      <trkpt lat="46.11277" lon="6.75172">
        <ele>1114.79</ele>
        <time>2022-03-21T08:51:37Z</time>
      </trkpt>
      <trkpt lat="46.11286" lon="6.75188">
        <ele>1117.67</ele>
        <time>2022-03-21T08:51:55Z</time>
      </trkpt>
      <trkpt lat="46.11289" lon="6.75207">
        <ele>1121.03</ele>
        <time>2022-03-21T08:52:10Z</time>
      </trkpt>
      <trkpt lat="46.11291" lon="6.75216">
        <ele>1122</ele>
        <time>2022-03-21T08:52:15Z</time>
      </trkpt>
      <trkpt lat="46.11292" lon="6.75217">
        <ele>1122</ele>
        <time>2022-03-21T08:52:16Z</time>
      </trkpt>
      <trkpt lat="46.11292" lon="6.75218">
        <ele>1122.48</ele>
        <time>2022-03-21T08:52:17Z</time>
      </trkpt>
      <trkpt lat="46.11293" lon="6.7522">
        <ele>1122.96</ele>
        <time>2022-03-21T08:52:18Z</time>
      </trkpt>
      <trkpt lat="46.11295" lon="6.75223">
        <ele>1123.44</ele>
        <time>2022-03-21T08:52:21Z</time>
      </trkpt>
      <trkpt lat="46.11296" lon="6.75225">
        <ele>1123.92</ele>
        <time>2022-03-21T08:52:23Z</time>
      </trkpt>
      <trkpt lat="46.11296" lon="6.75227">
        <ele>1124.4</ele>
        <time>2022-03-21T08:52:24Z</time>
      </trkpt>
      <trkpt lat="46.11297" lon="6.75229">
        <ele>1124.4</ele>
        <time>2022-03-21T08:52:26Z</time>
      </trkpt>
      <trkpt lat="46.11297" lon="6.75232">
        <ele>1124.88</ele>
        <time>2022-03-21T08:52:28Z</time>
      </trkpt>
      <trkpt lat="46.11298" lon="6.75233">
        <ele>1124.88</ele>
        <time>2022-03-21T08:52:29Z</time>
      </trkpt>
      <trkpt lat="46.11303" lon="6.75246">
        <ele>1127.28</ele>
        <time>2022-03-21T08:52:39Z</time>
      </trkpt>
      <trkpt lat="46.11303" lon="6.75247">
        <ele>1127.28</ele>
        <time>2022-03-21T08:52:40Z</time>
      </trkpt>
      <trkpt lat="46.11303" lon="6.75249">
        <ele>1127.76</ele>
        <time>2022-03-21T08:52:42Z</time>
      </trkpt>
      <trkpt lat="46.11304" lon="6.75253">
        <ele>1128.24</ele>
        <time>2022-03-21T08:52:45Z</time>
      </trkpt>
      <trkpt lat="46.11305" lon="6.75254">
        <ele>1128.73</ele>
        <time>2022-03-21T08:52:46Z</time>
      </trkpt>
      <trkpt lat="46.11306" lon="6.75261">
        <ele>1129.69</ele>
        <time>2022-03-21T08:52:51Z</time>
      </trkpt>
      <trkpt lat="46.11306" lon="6.75263">
        <ele>1129.69</ele>
        <time>2022-03-21T08:52:52Z</time>
      </trkpt>
      <trkpt lat="46.11307" lon="6.75264">
        <ele>1130.17</ele>
        <time>2022-03-21T08:52:53Z</time>
      </trkpt>
      <trkpt lat="46.11308" lon="6.75267">
        <ele>1130.65</ele>
        <time>2022-03-21T08:52:56Z</time>
      </trkpt>
      <trkpt lat="46.11313" lon="6.75286">
        <ele>1133.53</ele>
        <time>2022-03-21T08:53:10Z</time>
      </trkpt>
      <trkpt lat="46.11314" lon="6.75291">
        <ele>1134.01</ele>
        <time>2022-03-21T08:53:13Z</time>
      </trkpt>
      <trkpt lat="46.11314" lon="6.75293">
        <ele>1134.01</ele>
        <time>2022-03-21T08:53:14Z</time>
      </trkpt>
      <trkpt lat="46.11316" lon="6.753">
        <ele>1134.97</ele>
        <time>2022-03-21T08:53:19Z</time>
      </trkpt>
      <trkpt lat="46.11316" lon="6.75301">
        <ele>1134.97</ele>
        <time>2022-03-21T08:53:20Z</time>
      </trkpt>
      <trkpt lat="46.11317" lon="6.75303">
        <ele>1134.97</ele>
        <time>2022-03-21T08:53:21Z</time>
      </trkpt>
      <trkpt lat="46.11319" lon="6.75303">
        <ele>1135.45</ele>
        <time>2022-03-21T08:53:22Z</time>
      </trkpt>
      <trkpt lat="46.1132" lon="6.75305">
        <ele>1135.45</ele>
        <time>2022-03-21T08:53:23Z</time>
      </trkpt>
      <trkpt lat="46.11321" lon="6.75306">
        <ele>1135.94</ele>
        <time>2022-03-21T08:53:24Z</time>
      </trkpt>
      <trkpt lat="46.11329" lon="6.75311">
        <ele>1136.9</ele>
        <time>2022-03-21T08:53:31Z</time>
      </trkpt>
      <trkpt lat="46.11331" lon="6.75312">
        <ele>1136.9</ele>
        <time>2022-03-21T08:53:32Z</time>
      </trkpt>
      <trkpt lat="46.11332" lon="6.75312">
        <ele>1136.9</ele>
        <time>2022-03-21T08:53:33Z</time>
      </trkpt>
      <trkpt lat="46.11333" lon="6.75313">
        <ele>1137.38</ele>
        <time>2022-03-21T08:53:34Z</time>
      </trkpt>
      <trkpt lat="46.11334" lon="6.75315">
        <ele>1137.38</ele>
        <time>2022-03-21T08:53:35Z</time>
      </trkpt>
      <trkpt lat="46.11334" lon="6.75316">
        <ele>1137.38</ele>
        <time>2022-03-21T08:53:36Z</time>
      </trkpt>
      <trkpt lat="46.11335" lon="6.75317">
        <ele>1137.38</ele>
        <time>2022-03-21T08:53:37Z</time>
      </trkpt>
      <trkpt lat="46.11336" lon="6.75318">
        <ele>1137.86</ele>
        <time>2022-03-21T08:53:38Z</time>
      </trkpt>
      <trkpt lat="46.11336" lon="6.75319">
        <ele>1137.86</ele>
        <time>2022-03-21T08:53:39Z</time>
      </trkpt>
      <trkpt lat="46.11337" lon="6.7532">
        <ele>1138.34</ele>
        <time>2022-03-21T08:53:40Z</time>
      </trkpt>
      <trkpt lat="46.11337" lon="6.75322">
        <ele>1138.34</ele>
        <time>2022-03-21T08:53:41Z</time>
      </trkpt>
      <trkpt lat="46.1134" lon="6.75324">
        <ele>1139.3</ele>
        <time>2022-03-21T08:53:45Z</time>
      </trkpt>
      <trkpt lat="46.11341" lon="6.75325">
        <ele>1139.3</ele>
        <time>2022-03-21T08:53:46Z</time>
      </trkpt>
      <trkpt lat="46.11355" lon="6.75334">
        <ele>1142.18</ele>
        <time>2022-03-21T08:54:00Z</time>
      </trkpt>
      <trkpt lat="46.11358" lon="6.75338">
        <ele>1143.14</ele>
        <time>2022-03-21T08:54:05Z</time>
      </trkpt>
      <trkpt lat="46.11359" lon="6.75338">
        <ele>1143.14</ele>
        <time>2022-03-21T08:54:06Z</time>
      </trkpt>
      <trkpt lat="46.11378" lon="6.75344">
        <ele>1145.55</ele>
        <time>2022-03-21T08:54:23Z</time>
      </trkpt>
      <trkpt lat="46.11385" lon="6.75342">
        <ele>1146.99</ele>
        <time>2022-03-21T08:54:31Z</time>
      </trkpt>
      <trkpt lat="46.11386" lon="6.75342">
        <ele>1146.99</ele>
        <time>2022-03-21T08:54:32Z</time>
      </trkpt>
      <trkpt lat="46.11403" lon="6.7534">
        <ele>1150.35</ele>
        <time>2022-03-21T08:54:48Z</time>
      </trkpt>
      <trkpt lat="46.11419" lon="6.75328">
        <ele>1153.24</ele>
        <time>2022-03-21T08:55:04Z</time>
      </trkpt>
      <trkpt lat="46.11421" lon="6.75325">
        <ele>1154.2</ele>
        <time>2022-03-21T08:55:08Z</time>
      </trkpt>
      <trkpt lat="46.11422" lon="6.75322">
        <ele>1154.68</ele>
        <time>2022-03-21T08:55:10Z</time>
      </trkpt>
      <trkpt lat="46.11424" lon="6.75321">
        <ele>1154.68</ele>
        <time>2022-03-21T08:55:11Z</time>
      </trkpt>
      <trkpt lat="46.11425" lon="6.7532">
        <ele>1155.16</ele>
        <time>2022-03-21T08:55:12Z</time>
      </trkpt>
      <trkpt lat="46.11426" lon="6.75319">
        <ele>1155.16</ele>
        <time>2022-03-21T08:55:13Z</time>
      </trkpt>
      <trkpt lat="46.11427" lon="6.75318">
        <ele>1155.16</ele>
        <time>2022-03-21T08:55:14Z</time>
      </trkpt>
      <trkpt lat="46.11428" lon="6.75317">
        <ele>1155.64</ele>
        <time>2022-03-21T08:55:15Z</time>
      </trkpt>
      <trkpt lat="46.11433" lon="6.75313">
        <ele>1156.6</ele>
        <time>2022-03-21T08:55:20Z</time>
      </trkpt>
      <trkpt lat="46.11434" lon="6.75311">
        <ele>1156.6</ele>
        <time>2022-03-21T08:55:22Z</time>
      </trkpt>
      <trkpt lat="46.11435" lon="6.7531">
        <ele>1156.6</ele>
        <time>2022-03-21T08:55:23Z</time>
      </trkpt>
      <trkpt lat="46.11436" lon="6.7531">
        <ele>1157.08</ele>
        <time>2022-03-21T08:55:24Z</time>
      </trkpt>
      <trkpt lat="46.11438" lon="6.7531">
        <ele>1157.08</ele>
        <time>2022-03-21T08:55:25Z</time>
      </trkpt>
      <trkpt lat="46.11439" lon="6.75309">
        <ele>1157.56</ele>
        <time>2022-03-21T08:55:26Z</time>
      </trkpt>
      <trkpt lat="46.1145" lon="6.75308">
        <ele>1159.49</ele>
        <time>2022-03-21T08:55:39Z</time>
      </trkpt>
      <trkpt lat="46.11451" lon="6.75309">
        <ele>1159.49</ele>
        <time>2022-03-21T08:55:40Z</time>
      </trkpt>
      <trkpt lat="46.11453" lon="6.7531">
        <ele>1159.97</ele>
        <time>2022-03-21T08:55:43Z</time>
      </trkpt>
      <trkpt lat="46.11455" lon="6.75314">
        <ele>1160.93</ele>
        <time>2022-03-21T08:55:46Z</time>
      </trkpt>
      <trkpt lat="46.11456" lon="6.75316">
        <ele>1160.93</ele>
        <time>2022-03-21T08:55:48Z</time>
      </trkpt>
      <trkpt lat="46.11456" lon="6.75317">
        <ele>1161.41</ele>
        <time>2022-03-21T08:55:49Z</time>
      </trkpt>
      <trkpt lat="46.11456" lon="6.75319">
        <ele>1161.41</ele>
        <time>2022-03-21T08:55:50Z</time>
      </trkpt>
      <trkpt lat="46.11457" lon="6.7532">
        <ele>1161.41</ele>
        <time>2022-03-21T08:55:51Z</time>
      </trkpt>
      <trkpt lat="46.11457" lon="6.75322">
        <ele>1161.89</ele>
        <time>2022-03-21T08:55:52Z</time>
      </trkpt>
      <trkpt lat="46.11458" lon="6.75324">
        <ele>1161.89</ele>
        <time>2022-03-21T08:55:53Z</time>
      </trkpt>
      <trkpt lat="46.11466" lon="6.75332">
        <ele>1162.85</ele>
        <time>2022-03-21T08:56:00Z</time>
      </trkpt>
      <trkpt lat="46.11469" lon="6.75334">
        <ele>1163.81</ele>
        <time>2022-03-21T08:56:02Z</time>
      </trkpt>
      <trkpt lat="46.1147" lon="6.75335">
        <ele>1163.81</ele>
        <time>2022-03-21T08:56:03Z</time>
      </trkpt>
      <trkpt lat="46.11475" lon="6.75341">
        <ele>1164.77</ele>
        <time>2022-03-21T08:56:08Z</time>
      </trkpt>
      <trkpt lat="46.11476" lon="6.75342">
        <ele>1165.26</ele>
        <time>2022-03-21T08:56:09Z</time>
      </trkpt>
      <trkpt lat="46.11477" lon="6.75344">
        <ele>1165.26</ele>
        <time>2022-03-21T08:56:10Z</time>
      </trkpt>
      <trkpt lat="46.11478" lon="6.75344">
        <ele>1165.26</ele>
        <time>2022-03-21T08:56:11Z</time>
      </trkpt>
      <trkpt lat="46.11479" lon="6.75345">
        <ele>1165.74</ele>
        <time>2022-03-21T08:56:12Z</time>
      </trkpt>
      <trkpt lat="46.1148" lon="6.75346">
        <ele>1165.74</ele>
        <time>2022-03-21T08:56:13Z</time>
      </trkpt>
      <trkpt lat="46.11481" lon="6.75347">
        <ele>1166.22</ele>
        <time>2022-03-21T08:56:14Z</time>
      </trkpt>
      <trkpt lat="46.11485" lon="6.75356">
        <ele>1167.18</ele>
        <time>2022-03-21T08:56:21Z</time>
      </trkpt>
      <trkpt lat="46.11485" lon="6.75357">
        <ele>1167.18</ele>
        <time>2022-03-21T08:56:22Z</time>
      </trkpt>
      <trkpt lat="46.11485" lon="6.75359">
        <ele>1167.18</ele>
        <time>2022-03-21T08:56:23Z</time>
      </trkpt>
      <trkpt lat="46.11485" lon="6.75361">
        <ele>1167.66</ele>
        <time>2022-03-21T08:56:24Z</time>
      </trkpt>
      <trkpt lat="46.11485" lon="6.75363">
        <ele>1167.66</ele>
        <time>2022-03-21T08:56:25Z</time>
      </trkpt>
      <trkpt lat="46.11485" lon="6.75365">
        <ele>1168.14</ele>
        <time>2022-03-21T08:56:26Z</time>
      </trkpt>
      <trkpt lat="46.11485" lon="6.75367">
        <ele>1168.14</ele>
        <time>2022-03-21T08:56:27Z</time>
      </trkpt>
      <trkpt lat="46.11485" lon="6.75369">
        <ele>1168.14</ele>
        <time>2022-03-21T08:56:28Z</time>
      </trkpt>
      <trkpt lat="46.11485" lon="6.7537">
        <ele>1168.14</ele>
        <time>2022-03-21T08:56:29Z</time>
      </trkpt>
      <trkpt lat="46.1149" lon="6.75378">
        <ele>1169.58</ele>
        <time>2022-03-21T08:56:37Z</time>
      </trkpt>
      <trkpt lat="46.11495" lon="6.75383">
        <ele>1170.06</ele>
        <time>2022-03-21T08:56:43Z</time>
      </trkpt>
      <trkpt lat="46.11498" lon="6.75386">
        <ele>1170.54</ele>
        <time>2022-03-21T08:56:46Z</time>
      </trkpt>
      <trkpt lat="46.11503" lon="6.75396">
        <ele>1171.5</ele>
        <time>2022-03-21T08:56:53Z</time>
      </trkpt>
      <trkpt lat="46.11504" lon="6.754">
        <ele>1171.98</ele>
        <time>2022-03-21T08:56:56Z</time>
      </trkpt>
      <trkpt lat="46.11505" lon="6.754">
        <ele>1172.47</ele>
        <time>2022-03-21T08:56:57Z</time>
      </trkpt>
      <trkpt lat="46.11505" lon="6.75401">
        <ele>1172.47</ele>
        <time>2022-03-21T08:56:58Z</time>
      </trkpt>
      <trkpt lat="46.11506" lon="6.75402">
        <ele>1172.47</ele>
        <time>2022-03-21T08:56:59Z</time>
      </trkpt>
      <trkpt lat="46.11507" lon="6.75403">
        <ele>1172.95</ele>
        <time>2022-03-21T08:57:00Z</time>
      </trkpt>
      <trkpt lat="46.11507" lon="6.75404">
        <ele>1172.95</ele>
        <time>2022-03-21T08:57:01Z</time>
      </trkpt>
      <trkpt lat="46.11509" lon="6.75404">
        <ele>1172.95</ele>
        <time>2022-03-21T08:57:02Z</time>
      </trkpt>
      <trkpt lat="46.1151" lon="6.75405">
        <ele>1173.43</ele>
        <time>2022-03-21T08:57:03Z</time>
      </trkpt>
      <trkpt lat="46.11517" lon="6.75416">
        <ele>1174.87</ele>
        <time>2022-03-21T08:57:16Z</time>
      </trkpt>
      <trkpt lat="46.11518" lon="6.75418">
        <ele>1175.35</ele>
        <time>2022-03-21T08:57:17Z</time>
      </trkpt>
      <trkpt lat="46.11519" lon="6.75419">
        <ele>1175.35</ele>
        <time>2022-03-21T08:57:18Z</time>
      </trkpt>
      <trkpt lat="46.11522" lon="6.75423">
        <ele>1175.83</ele>
        <time>2022-03-21T08:57:22Z</time>
      </trkpt>
      <trkpt lat="46.11524" lon="6.75424">
        <ele>1176.31</ele>
        <time>2022-03-21T08:57:23Z</time>
      </trkpt>
      <trkpt lat="46.11527" lon="6.75427">
        <ele>1176.79</ele>
        <time>2022-03-21T08:57:27Z</time>
      </trkpt>
      <trkpt lat="46.11528" lon="6.75428">
        <ele>1176.79</ele>
        <time>2022-03-21T08:57:28Z</time>
      </trkpt>
      <trkpt lat="46.11529" lon="6.7543">
        <ele>1177.27</ele>
        <time>2022-03-21T08:57:30Z</time>
      </trkpt>
      <trkpt lat="46.11532" lon="6.75431">
        <ele>1177.75</ele>
        <time>2022-03-21T08:57:33Z</time>
      </trkpt>
      <trkpt lat="46.11546" lon="6.75456">
        <ele>1180.16</ele>
        <time>2022-03-21T08:58:01Z</time>
      </trkpt>
      <trkpt lat="46.11553" lon="6.75486">
        <ele>1183.04</ele>
        <time>2022-03-21T08:58:21Z</time>
      </trkpt>
      <trkpt lat="46.1155" lon="6.75513">
        <ele>1185.92</ele>
        <time>2022-03-21T08:58:41Z</time>
      </trkpt>
      <trkpt lat="46.11541" lon="6.75525">
        <ele>1188.81</ele>
        <time>2022-03-21T08:58:55Z</time>
      </trkpt>
      <trkpt lat="46.11529" lon="6.75528">
        <ele>1192.17</ele>
        <time>2022-03-21T08:59:10Z</time>
      </trkpt>
      <trkpt lat="46.11519" lon="6.75534">
        <ele>1195.06</ele>
        <time>2022-03-21T08:59:26Z</time>
      </trkpt>
      <trkpt lat="46.11512" lon="6.75537">
        <ele>1198.42</ele>
        <time>2022-03-21T08:59:46Z</time>
      </trkpt>
      <trkpt lat="46.11495" lon="6.7554">
        <ele>1201.3</ele>
        <time>2022-03-21T09:00:02Z</time>
      </trkpt>
      <trkpt lat="46.11488" lon="6.75548">
        <ele>1204.67</ele>
        <time>2022-03-21T09:00:15Z</time>
      </trkpt>
      <trkpt lat="46.11482" lon="6.75551">
        <ele>1208.03</ele>
        <time>2022-03-21T09:00:28Z</time>
      </trkpt>
      <trkpt lat="46.1148" lon="6.75552">
        <ele>1209</ele>
        <time>2022-03-21T09:00:33Z</time>
      </trkpt>
      <trkpt lat="46.11471" lon="6.75557">
        <ele>1212.36</ele>
        <time>2022-03-21T09:00:49Z</time>
      </trkpt>
      <trkpt lat="46.11471" lon="6.7556">
        <ele>1212.84</ele>
        <time>2022-03-21T09:00:51Z</time>
      </trkpt>
      <trkpt lat="46.11469" lon="6.75562">
        <ele>1213.8</ele>
        <time>2022-03-21T09:00:57Z</time>
      </trkpt>
      <trkpt lat="46.11468" lon="6.75563">
        <ele>1214.28</ele>
        <time>2022-03-21T09:00:58Z</time>
      </trkpt>
      <trkpt lat="46.11467" lon="6.75564">
        <ele>1214.28</ele>
        <time>2022-03-21T09:00:59Z</time>
      </trkpt>
      <trkpt lat="46.11455" lon="6.75572">
        <ele>1217.17</ele>
        <time>2022-03-21T09:01:14Z</time>
      </trkpt>
      <trkpt lat="46.1145" lon="6.75573">
        <ele>1219.09</ele>
        <time>2022-03-21T09:01:22Z</time>
      </trkpt>
      <trkpt lat="46.11449" lon="6.75575">
        <ele>1219.57</ele>
        <time>2022-03-21T09:01:23Z</time>
      </trkpt>
      <trkpt lat="46.11447" lon="6.75577">
        <ele>1220.53</ele>
        <time>2022-03-21T09:01:28Z</time>
      </trkpt>
      <trkpt lat="46.11443" lon="6.75594">
        <ele>1223.42</ele>
        <time>2022-03-21T09:01:41Z</time>
      </trkpt>
      <trkpt lat="46.11436" lon="6.756">
        <ele>1226.78</ele>
        <time>2022-03-21T09:01:54Z</time>
      </trkpt>
      <trkpt lat="46.11434" lon="6.756">
        <ele>1228.7</ele>
        <time>2022-03-21T09:02:02Z</time>
      </trkpt>
      <trkpt lat="46.11432" lon="6.75601">
        <ele>1229.18</ele>
        <time>2022-03-21T09:02:06Z</time>
      </trkpt>
      <trkpt lat="46.11431" lon="6.75601">
        <ele>1229.18</ele>
        <time>2022-03-21T09:02:07Z</time>
      </trkpt>
      <trkpt lat="46.11428" lon="6.75605">
        <ele>1231.11</ele>
        <time>2022-03-21T09:02:14Z</time>
      </trkpt>
      <trkpt lat="46.11425" lon="6.75626">
        <ele>1233.99</ele>
        <time>2022-03-21T09:02:29Z</time>
      </trkpt>
      <trkpt lat="46.11426" lon="6.75635">
        <ele>1237.35</ele>
        <time>2022-03-21T09:02:42Z</time>
      </trkpt>
      <trkpt lat="46.11427" lon="6.75647">
        <ele>1240.24</ele>
        <time>2022-03-21T09:02:58Z</time>
      </trkpt>
      <trkpt lat="46.11429" lon="6.75654">
        <ele>1243.6</ele>
        <time>2022-03-21T09:03:12Z</time>
      </trkpt>
      <trkpt lat="46.11428" lon="6.75666">
        <ele>1246.49</ele>
        <time>2022-03-21T09:03:28Z</time>
      </trkpt>
      <trkpt lat="46.1143" lon="6.75681">
        <ele>1249.37</ele>
        <time>2022-03-21T09:03:41Z</time>
      </trkpt>
      <trkpt lat="46.11434" lon="6.75687">
        <ele>1252.25</ele>
        <time>2022-03-21T09:03:53Z</time>
      </trkpt>
      <trkpt lat="46.11438" lon="6.75697">
        <ele>1255.62</ele>
        <time>2022-03-21T09:04:07Z</time>
      </trkpt>
      <trkpt lat="46.11437" lon="6.75705">
        <ele>1258.02</ele>
        <time>2022-03-21T09:04:17Z</time>
      </trkpt>
      <trkpt lat="46.11438" lon="6.75715">
        <ele>1260.91</ele>
        <time>2022-03-21T09:04:31Z</time>
      </trkpt>
      <trkpt lat="46.11436" lon="6.75719">
        <ele>1262.35</ele>
        <time>2022-03-21T09:04:36Z</time>
      </trkpt>
      <trkpt lat="46.11439" lon="6.7573">
        <ele>1265.23</ele>
        <time>2022-03-21T09:04:53Z</time>
      </trkpt>
      <trkpt lat="46.11444" lon="6.75741">
        <ele>1268.6</ele>
        <time>2022-03-21T09:05:08Z</time>
      </trkpt>
      <trkpt lat="46.11443" lon="6.75755">
        <ele>1271.48</ele>
        <time>2022-03-21T09:05:25Z</time>
      </trkpt>
      <trkpt lat="46.11444" lon="6.75761">
        <ele>1273.4</ele>
        <time>2022-03-21T09:05:34Z</time>
      </trkpt>
      <trkpt lat="46.11445" lon="6.75761">
        <ele>1273.88</ele>
        <time>2022-03-21T09:05:35Z</time>
      </trkpt>
      <trkpt lat="46.11452" lon="6.75769">
        <ele>1277.25</ele>
        <time>2022-03-21T09:05:50Z</time>
      </trkpt>
      <trkpt lat="46.11454" lon="6.75783">
        <ele>1280.61</ele>
        <time>2022-03-21T09:06:05Z</time>
      </trkpt>
      <trkpt lat="46.1145" lon="6.75795">
        <ele>1283.5</ele>
        <time>2022-03-21T09:06:19Z</time>
      </trkpt>
      <trkpt lat="46.11449" lon="6.7581">
        <ele>1286.86</ele>
        <time>2022-03-21T09:06:34Z</time>
      </trkpt>
      <trkpt lat="46.11445" lon="6.75815">
        <ele>1287.34</ele>
        <time>2022-03-21T09:06:37Z</time>
      </trkpt>
      <trkpt lat="46.11442" lon="6.75823">
        <ele>1288.78</ele>
        <time>2022-03-21T09:06:45Z</time>
      </trkpt>
      <trkpt lat="46.11446" lon="6.75835">
        <ele>1292.15</ele>
        <time>2022-03-21T09:06:59Z</time>
      </trkpt>
      <trkpt lat="46.11457" lon="6.75844">
        <ele>1295.03</ele>
        <time>2022-03-21T09:07:15Z</time>
      </trkpt>
      <trkpt lat="46.11459" lon="6.75848">
        <ele>1295.51</ele>
        <time>2022-03-21T09:07:19Z</time>
      </trkpt>
      <trkpt lat="46.1146" lon="6.75849">
        <ele>1295.99</ele>
        <time>2022-03-21T09:07:20Z</time>
      </trkpt>
      <trkpt lat="46.11466" lon="6.75861">
        <ele>1298.88</ele>
        <time>2022-03-21T09:07:36Z</time>
      </trkpt>
      <trkpt lat="46.11466" lon="6.75869">
        <ele>1300.8</ele>
        <time>2022-03-21T09:07:45Z</time>
      </trkpt>
      <trkpt lat="46.11467" lon="6.7587">
        <ele>1300.8</ele>
        <time>2022-03-21T09:07:46Z</time>
      </trkpt>
      <trkpt lat="46.11468" lon="6.75871">
        <ele>1300.8</ele>
        <time>2022-03-21T09:07:47Z</time>
      </trkpt>
      <trkpt lat="46.11472" lon="6.75874">
        <ele>1301.76</ele>
        <time>2022-03-21T09:07:52Z</time>
      </trkpt>
      <trkpt lat="46.11473" lon="6.75874">
        <ele>1302.24</ele>
        <time>2022-03-21T09:07:53Z</time>
      </trkpt>
      <trkpt lat="46.11472" lon="6.75882">
        <ele>1303.2</ele>
        <time>2022-03-21T09:07:59Z</time>
      </trkpt>
      <trkpt lat="46.11472" lon="6.75884">
        <ele>1303.2</ele>
        <time>2022-03-21T09:08:00Z</time>
      </trkpt>
      <trkpt lat="46.11472" lon="6.75885">
        <ele>1303.2</ele>
        <time>2022-03-21T09:08:01Z</time>
      </trkpt>
      <trkpt lat="46.11471" lon="6.75887">
        <ele>1303.2</ele>
        <time>2022-03-21T09:08:02Z</time>
      </trkpt>
      <trkpt lat="46.11471" lon="6.75892">
        <ele>1304.17</ele>
        <time>2022-03-21T09:08:08Z</time>
      </trkpt>
      <trkpt lat="46.11472" lon="6.75894">
        <ele>1304.65</ele>
        <time>2022-03-21T09:08:10Z</time>
      </trkpt>
      <trkpt lat="46.11472" lon="6.75897">
        <ele>1305.13</ele>
        <time>2022-03-21T09:08:12Z</time>
      </trkpt>
      <trkpt lat="46.11471" lon="6.75898">
        <ele>1305.13</ele>
        <time>2022-03-21T09:08:13Z</time>
      </trkpt>
      <trkpt lat="46.11471" lon="6.75899">
        <ele>1305.61</ele>
        <time>2022-03-21T09:08:14Z</time>
      </trkpt>
      <trkpt lat="46.11473" lon="6.75901">
        <ele>1306.09</ele>
        <time>2022-03-21T09:08:17Z</time>
      </trkpt>
      <trkpt lat="46.11473" lon="6.75904">
        <ele>1307.05</ele>
        <time>2022-03-21T09:08:21Z</time>
      </trkpt>
      <trkpt lat="46.11474" lon="6.75908">
        <ele>1308.49</ele>
        <time>2022-03-21T09:08:28Z</time>
      </trkpt>
      <trkpt lat="46.11474" lon="6.75923">
        <ele>1310.9</ele>
        <time>2022-03-21T09:08:44Z</time>
      </trkpt>
      <trkpt lat="46.11477" lon="6.75925">
        <ele>1311.86</ele>
        <time>2022-03-21T09:08:48Z</time>
      </trkpt>
      <trkpt lat="46.11487" lon="6.7594">
        <ele>1313.78</ele>
        <time>2022-03-21T09:09:02Z</time>
      </trkpt>
      <trkpt lat="46.11487" lon="6.75942">
        <ele>1313.78</ele>
        <time>2022-03-21T09:09:03Z</time>
      </trkpt>
      <trkpt lat="46.11488" lon="6.75943">
        <ele>1314.26</ele>
        <time>2022-03-21T09:09:04Z</time>
      </trkpt>
      <trkpt lat="46.11489" lon="6.75944">
        <ele>1314.26</ele>
        <time>2022-03-21T09:09:05Z</time>
      </trkpt>
      <trkpt lat="46.11497" lon="6.75952">
        <ele>1316.18</ele>
        <time>2022-03-21T09:09:14Z</time>
      </trkpt>
      <trkpt lat="46.11501" lon="6.75952">
        <ele>1316.18</ele>
        <time>2022-03-21T09:09:16Z</time>
      </trkpt>
      <trkpt lat="46.11507" lon="6.75967">
        <ele>1319.55</ele>
        <time>2022-03-21T09:09:32Z</time>
      </trkpt>
      <trkpt lat="46.11506" lon="6.75968">
        <ele>1319.55</ele>
        <time>2022-03-21T09:09:33Z</time>
      </trkpt>
      <trkpt lat="46.11506" lon="6.75976">
        <ele>1320.03</ele>
        <time>2022-03-21T09:09:38Z</time>
      </trkpt>
      <trkpt lat="46.11507" lon="6.75977">
        <ele>1320.51</ele>
        <time>2022-03-21T09:09:39Z</time>
      </trkpt>
      <trkpt lat="46.11509" lon="6.75983">
        <ele>1322.43</ele>
        <time>2022-03-21T09:09:46Z</time>
      </trkpt>
      <trkpt lat="46.1151" lon="6.75984">
        <ele>1322.43</ele>
        <time>2022-03-21T09:09:47Z</time>
      </trkpt>
      <trkpt lat="46.11508" lon="6.75987">
        <ele>1322.91</ele>
        <time>2022-03-21T09:09:49Z</time>
      </trkpt>
      <trkpt lat="46.11506" lon="6.75992">
        <ele>1323.87</ele>
        <time>2022-03-21T09:09:54Z</time>
      </trkpt>
      <trkpt lat="46.11507" lon="6.75993">
        <ele>1324.35</ele>
        <time>2022-03-21T09:09:56Z</time>
      </trkpt>
      <trkpt lat="46.11506" lon="6.75995">
        <ele>1324.35</ele>
        <time>2022-03-21T09:09:57Z</time>
      </trkpt>
      <trkpt lat="46.11506" lon="6.75996">
        <ele>1324.83</ele>
        <time>2022-03-21T09:09:58Z</time>
      </trkpt>
      <trkpt lat="46.11505" lon="6.75998">
        <ele>1324.83</ele>
        <time>2022-03-21T09:10:00Z</time>
      </trkpt>
      <trkpt lat="46.11503" lon="6.76002">
        <ele>1325.8</ele>
        <time>2022-03-21T09:10:05Z</time>
      </trkpt>
      <trkpt lat="46.11502" lon="6.76003">
        <ele>1326.28</ele>
        <time>2022-03-21T09:10:06Z</time>
      </trkpt>
      <trkpt lat="46.11503" lon="6.76008">
        <ele>1328.2</ele>
        <time>2022-03-21T09:10:14Z</time>
      </trkpt>
      <trkpt lat="46.11505" lon="6.76008">
        <ele>1328.2</ele>
        <time>2022-03-21T09:10:15Z</time>
      </trkpt>
      <trkpt lat="46.11506" lon="6.76009">
        <ele>1328.2</ele>
        <time>2022-03-21T09:10:16Z</time>
      </trkpt>
      <trkpt lat="46.11513" lon="6.76021">
        <ele>1331.08</ele>
        <time>2022-03-21T09:10:31Z</time>
      </trkpt>
      <trkpt lat="46.11509" lon="6.76037">
        <ele>1333.97</ele>
        <time>2022-03-21T09:10:47Z</time>
      </trkpt>
      <trkpt lat="46.11512" lon="6.76046">
        <ele>1335.89</ele>
        <time>2022-03-21T09:10:56Z</time>
      </trkpt>
      <trkpt lat="46.11521" lon="6.76063">
        <ele>1338.77</ele>
        <time>2022-03-21T09:11:11Z</time>
      </trkpt>
      <trkpt lat="46.11521" lon="6.76065">
        <ele>1338.77</ele>
        <time>2022-03-21T09:11:12Z</time>
      </trkpt>
      <trkpt lat="46.11523" lon="6.76066">
        <ele>1339.25</ele>
        <time>2022-03-21T09:11:14Z</time>
      </trkpt>
      <trkpt lat="46.11525" lon="6.76075">
        <ele>1340.7</ele>
        <time>2022-03-21T09:11:23Z</time>
      </trkpt>
      <trkpt lat="46.11526" lon="6.76086">
        <ele>1343.58</ele>
        <time>2022-03-21T09:11:37Z</time>
      </trkpt>
      <trkpt lat="46.11525" lon="6.76093">
        <ele>1344.54</ele>
        <time>2022-03-21T09:11:41Z</time>
      </trkpt>
      <trkpt lat="46.11526" lon="6.76096">
        <ele>1345.02</ele>
        <time>2022-03-21T09:11:43Z</time>
      </trkpt>
      <trkpt lat="46.11526" lon="6.76097">
        <ele>1345.02</ele>
        <time>2022-03-21T09:11:44Z</time>
      </trkpt>
      <trkpt lat="46.11526" lon="6.761">
        <ele>1345.02</ele>
        <time>2022-03-21T09:11:46Z</time>
      </trkpt>
      <trkpt lat="46.11527" lon="6.76111">
        <ele>1348.39</ele>
        <time>2022-03-21T09:12:00Z</time>
      </trkpt>
      <trkpt lat="46.11527" lon="6.7612">
        <ele>1349.83</ele>
        <time>2022-03-21T09:12:10Z</time>
      </trkpt>
      <trkpt lat="46.1153" lon="6.76124">
        <ele>1351.75</ele>
        <time>2022-03-21T09:12:19Z</time>
      </trkpt>
      <trkpt lat="46.11532" lon="6.76132">
        <ele>1353.67</ele>
        <time>2022-03-21T09:12:30Z</time>
      </trkpt>
      <trkpt lat="46.11527" lon="6.76151">
        <ele>1355.6</ele>
        <time>2022-03-21T09:12:42Z</time>
      </trkpt>
      <trkpt lat="46.11531" lon="6.76161">
        <ele>1358</ele>
        <time>2022-03-21T09:12:55Z</time>
      </trkpt>
      <trkpt lat="46.11531" lon="6.76162">
        <ele>1358</ele>
        <time>2022-03-21T09:12:56Z</time>
      </trkpt>
      <trkpt lat="46.11533" lon="6.76168">
        <ele>1358.96</ele>
        <time>2022-03-21T09:13:01Z</time>
      </trkpt>
      <trkpt lat="46.11532" lon="6.76192">
        <ele>1361.84</ele>
        <time>2022-03-21T09:13:16Z</time>
      </trkpt>
      <trkpt lat="46.11534" lon="6.76192">
        <ele>1362.33</ele>
        <time>2022-03-21T09:13:17Z</time>
      </trkpt>
      <trkpt lat="46.11547" lon="6.7619">
        <ele>1363.77</ele>
        <time>2022-03-21T09:13:25Z</time>
      </trkpt>
      <trkpt lat="46.11547" lon="6.7619">
        <ele>1363.77</ele>
        <time>2022-03-21T09:13:26Z</time>
      </trkpt>
      <trkpt lat="46.11549" lon="6.7619">
        <ele>1363.77</ele>
        <time>2022-03-21T09:13:27Z</time>
      </trkpt>
      <trkpt lat="46.11548" lon="6.76192">
        <ele>1364.73</ele>
        <time>2022-03-21T09:13:29Z</time>
      </trkpt>
      <trkpt lat="46.11544" lon="6.76202">
        <ele>1366.65</ele>
        <time>2022-03-21T09:13:39Z</time>
      </trkpt>
      <trkpt lat="46.11546" lon="6.76205">
        <ele>1368.57</ele>
        <time>2022-03-21T09:13:46Z</time>
      </trkpt>
      <trkpt lat="46.11552" lon="6.76206">
        <ele>1369.05</ele>
        <time>2022-03-21T09:13:50Z</time>
      </trkpt>
      <trkpt lat="46.11554" lon="6.76206">
        <ele>1369.54</ele>
        <time>2022-03-21T09:13:51Z</time>
      </trkpt>
      <trkpt lat="46.11556" lon="6.76205">
        <ele>1370.02</ele>
        <time>2022-03-21T09:13:52Z</time>
      </trkpt>
      <trkpt lat="46.11559" lon="6.76205">
        <ele>1370.02</ele>
        <time>2022-03-21T09:13:53Z</time>
      </trkpt>
      <trkpt lat="46.11557" lon="6.76215">
        <ele>1373.38</ele>
        <time>2022-03-21T09:14:10Z</time>
      </trkpt>
      <trkpt lat="46.11558" lon="6.76218">
        <ele>1374.82</ele>
        <time>2022-03-21T09:14:16Z</time>
      </trkpt>
      <trkpt lat="46.11559" lon="6.7622">
        <ele>1375.3</ele>
        <time>2022-03-21T09:14:21Z</time>
      </trkpt>
      <trkpt lat="46.1156" lon="6.7622">
        <ele>1375.78</ele>
        <time>2022-03-21T09:14:22Z</time>
      </trkpt>
      <trkpt lat="46.11553" lon="6.7624">
        <ele>1378.67</ele>
        <time>2022-03-21T09:14:38Z</time>
      </trkpt>
      <trkpt lat="46.11553" lon="6.76241">
        <ele>1378.67</ele>
        <time>2022-03-21T09:14:39Z</time>
      </trkpt>
      <trkpt lat="46.11553" lon="6.76243">
        <ele>1378.67</ele>
        <time>2022-03-21T09:14:40Z</time>
      </trkpt>
      <trkpt lat="46.11552" lon="6.76247">
        <ele>1379.63</ele>
        <time>2022-03-21T09:14:43Z</time>
      </trkpt>
      <trkpt lat="46.1155" lon="6.7625">
        <ele>1380.11</ele>
        <time>2022-03-21T09:14:46Z</time>
      </trkpt>
      <trkpt lat="46.11548" lon="6.76258">
        <ele>1381.07</ele>
        <time>2022-03-21T09:14:53Z</time>
      </trkpt>
      <trkpt lat="46.11557" lon="6.76258">
        <ele>1382.99</ele>
        <time>2022-03-21T09:15:03Z</time>
      </trkpt>
      <trkpt lat="46.1156" lon="6.76258">
        <ele>1382.99</ele>
        <time>2022-03-21T09:15:04Z</time>
      </trkpt>
      <trkpt lat="46.11562" lon="6.76258">
        <ele>1382.99</ele>
        <time>2022-03-21T09:15:05Z</time>
      </trkpt>
      <trkpt lat="46.11566" lon="6.76257">
        <ele>1382.99</ele>
        <time>2022-03-21T09:15:09Z</time>
      </trkpt>
      <trkpt lat="46.11572" lon="6.76264">
        <ele>1386.36</ele>
        <time>2022-03-21T09:15:24Z</time>
      </trkpt>
      <trkpt lat="46.11571" lon="6.76274">
        <ele>1388.28</ele>
        <time>2022-03-21T09:15:37Z</time>
      </trkpt>
      <trkpt lat="46.11574" lon="6.76276">
        <ele>1390.2</ele>
        <time>2022-03-21T09:15:42Z</time>
      </trkpt>
      <trkpt lat="46.11577" lon="6.76278">
        <ele>1390.68</ele>
        <time>2022-03-21T09:15:46Z</time>
      </trkpt>
      <trkpt lat="46.11576" lon="6.76288">
        <ele>1393.57</ele>
        <time>2022-03-21T09:16:00Z</time>
      </trkpt>
      <trkpt lat="46.11576" lon="6.76293">
        <ele>1395.01</ele>
        <time>2022-03-21T09:16:07Z</time>
      </trkpt>
      <trkpt lat="46.11578" lon="6.76294">
        <ele>1395.49</ele>
        <time>2022-03-21T09:16:11Z</time>
      </trkpt>
      <trkpt lat="46.11585" lon="6.76303">
        <ele>1398.37</ele>
        <time>2022-03-21T09:16:29Z</time>
      </trkpt>
      <trkpt lat="46.11584" lon="6.76305">
        <ele>1398.37</ele>
        <time>2022-03-21T09:16:31Z</time>
      </trkpt>
      <trkpt lat="46.11582" lon="6.76309">
        <ele>1398.86</ele>
        <time>2022-03-21T09:16:34Z</time>
      </trkpt>
      <trkpt lat="46.11581" lon="6.76314">
        <ele>1400.78</ele>
        <time>2022-03-21T09:16:46Z</time>
      </trkpt>
      <trkpt lat="46.11585" lon="6.76315">
        <ele>1402.22</ele>
        <time>2022-03-21T09:16:54Z</time>
      </trkpt>
      <trkpt lat="46.11589" lon="6.76318">
        <ele>1404.14</ele>
        <time>2022-03-21T09:17:06Z</time>
      </trkpt>
      <trkpt lat="46.11596" lon="6.76322">
        <ele>1406.55</ele>
        <time>2022-03-21T09:17:19Z</time>
      </trkpt>
      <trkpt lat="46.11598" lon="6.76323">
        <ele>1407.03</ele>
        <time>2022-03-21T09:17:21Z</time>
      </trkpt>
      <trkpt lat="46.11599" lon="6.76329">
        <ele>1407.51</ele>
        <time>2022-03-21T09:17:26Z</time>
      </trkpt>
      <trkpt lat="46.11599" lon="6.76331">
        <ele>1407.51</ele>
        <time>2022-03-21T09:17:28Z</time>
      </trkpt>
      <trkpt lat="46.116" lon="6.76336">
        <ele>1408.47</ele>
        <time>2022-03-21T09:17:33Z</time>
      </trkpt>
      <trkpt lat="46.11604" lon="6.76345">
        <ele>1410.39</ele>
        <time>2022-03-21T09:17:42Z</time>
      </trkpt>
      <trkpt lat="46.11603" lon="6.76347">
        <ele>1410.87</ele>
        <time>2022-03-21T09:17:44Z</time>
      </trkpt>
      <trkpt lat="46.11604" lon="6.76349">
        <ele>1410.87</ele>
        <time>2022-03-21T09:17:46Z</time>
      </trkpt>
      <trkpt lat="46.11607" lon="6.76351">
        <ele>1411.83</ele>
        <time>2022-03-21T09:17:51Z</time>
      </trkpt>
      <trkpt lat="46.11608" lon="6.76352">
        <ele>1411.83</ele>
        <time>2022-03-21T09:17:52Z</time>
      </trkpt>
      <trkpt lat="46.11612" lon="6.76364">
        <ele>1413.76</ele>
        <time>2022-03-21T09:18:05Z</time>
      </trkpt>
      <trkpt lat="46.11609" lon="6.76371">
        <ele>1414.24</ele>
        <time>2022-03-21T09:18:09Z</time>
      </trkpt>
      <trkpt lat="46.11609" lon="6.76379">
        <ele>1415.2</ele>
        <time>2022-03-21T09:18:16Z</time>
      </trkpt>
      <trkpt lat="46.11609" lon="6.76381">
        <ele>1415.2</ele>
        <time>2022-03-21T09:18:17Z</time>
      </trkpt>
      <trkpt lat="46.11608" lon="6.764">
        <ele>1417.6</ele>
        <time>2022-03-21T09:18:32Z</time>
      </trkpt>
      <trkpt lat="46.11608" lon="6.76402">
        <ele>1418.08</ele>
        <time>2022-03-21T09:18:33Z</time>
      </trkpt>
      <trkpt lat="46.11609" lon="6.76402">
        <ele>1418.08</ele>
        <time>2022-03-21T09:18:34Z</time>
      </trkpt>
      <trkpt lat="46.11609" lon="6.76404">
        <ele>1418.08</ele>
        <time>2022-03-21T09:18:35Z</time>
      </trkpt>
      <trkpt lat="46.1161" lon="6.76405">
        <ele>1418.08</ele>
        <time>2022-03-21T09:18:36Z</time>
      </trkpt>
      <trkpt lat="46.11611" lon="6.76406">
        <ele>1418.56</ele>
        <time>2022-03-21T09:18:37Z</time>
      </trkpt>
      <trkpt lat="46.11611" lon="6.76407">
        <ele>1418.56</ele>
        <time>2022-03-21T09:18:38Z</time>
      </trkpt>
      <trkpt lat="46.11625" lon="6.76424">
        <ele>1419.52</ele>
        <time>2022-03-21T09:18:53Z</time>
      </trkpt>
      <trkpt lat="46.11615" lon="6.76458">
        <ele>1420.49</ele>
        <time>2022-03-21T09:19:12Z</time>
      </trkpt>
      <trkpt lat="46.11612" lon="6.76469">
        <ele>1421.45</ele>
        <time>2022-03-21T09:19:18Z</time>
      </trkpt>
      <trkpt lat="46.11603" lon="6.76496">
        <ele>1423.37</ele>
        <time>2022-03-21T09:19:34Z</time>
      </trkpt>
      <trkpt lat="46.11603" lon="6.76498">
        <ele>1423.37</ele>
        <time>2022-03-21T09:19:35Z</time>
      </trkpt>
      <trkpt lat="46.11602" lon="6.765">
        <ele>1423.37</ele>
        <time>2022-03-21T09:19:36Z</time>
      </trkpt>
      <trkpt lat="46.11606" lon="6.76515">
        <ele>1425.77</ele>
        <time>2022-03-21T09:19:49Z</time>
      </trkpt>
      <trkpt lat="46.11608" lon="6.76515">
        <ele>1426.25</ele>
        <time>2022-03-21T09:19:50Z</time>
      </trkpt>
      <trkpt lat="46.11617" lon="6.76518">
        <ele>1427.7</ele>
        <time>2022-03-21T09:19:57Z</time>
      </trkpt>
      <trkpt lat="46.11618" lon="6.76518">
        <ele>1428.18</ele>
        <time>2022-03-21T09:19:58Z</time>
      </trkpt>
      <trkpt lat="46.11619" lon="6.76519">
        <ele>1428.18</ele>
        <time>2022-03-21T09:19:59Z</time>
      </trkpt>
      <trkpt lat="46.1162" lon="6.76524">
        <ele>1429.14</ele>
        <time>2022-03-21T09:20:05Z</time>
      </trkpt>
      <trkpt lat="46.11621" lon="6.76524">
        <ele>1429.14</ele>
        <time>2022-03-21T09:20:06Z</time>
      </trkpt>
      <trkpt lat="46.11627" lon="6.76531">
        <ele>1432.5</ele>
        <time>2022-03-21T09:20:21Z</time>
      </trkpt>
      <trkpt lat="46.11627" lon="6.76535">
        <ele>1433.46</ele>
        <time>2022-03-21T09:20:27Z</time>
      </trkpt>
      <trkpt lat="46.11627" lon="6.76535">
        <ele>1433.94</ele>
        <time>2022-03-21T09:20:28Z</time>
      </trkpt>
      <trkpt lat="46.11634" lon="6.76539">
        <ele>1435.39</ele>
        <time>2022-03-21T09:20:37Z</time>
      </trkpt>
      <trkpt lat="46.11637" lon="6.76538">
        <ele>1435.39</ele>
        <time>2022-03-21T09:20:38Z</time>
      </trkpt>
      <trkpt lat="46.11638" lon="6.76539">
        <ele>1435.39</ele>
        <time>2022-03-21T09:20:39Z</time>
      </trkpt>
      <trkpt lat="46.1165" lon="6.76546">
        <ele>1437.79</ele>
        <time>2022-03-21T09:20:53Z</time>
      </trkpt>
      <trkpt lat="46.11654" lon="6.76549">
        <ele>1438.27</ele>
        <time>2022-03-21T09:20:57Z</time>
      </trkpt>
      <trkpt lat="46.11653" lon="6.76551">
        <ele>1438.27</ele>
        <time>2022-03-21T09:20:58Z</time>
      </trkpt>
      <trkpt lat="46.11655" lon="6.76551">
        <ele>1438.75</ele>
        <time>2022-03-21T09:20:59Z</time>
      </trkpt>
      <trkpt lat="46.11656" lon="6.76551">
        <ele>1438.75</ele>
        <time>2022-03-21T09:21:00Z</time>
      </trkpt>
      <trkpt lat="46.11655" lon="6.76553">
        <ele>1438.75</ele>
        <time>2022-03-21T09:21:01Z</time>
      </trkpt>
      <trkpt lat="46.11657" lon="6.76553">
        <ele>1439.23</ele>
        <time>2022-03-21T09:21:02Z</time>
      </trkpt>
      <trkpt lat="46.11658" lon="6.76553">
        <ele>1439.23</ele>
        <time>2022-03-21T09:21:03Z</time>
      </trkpt>
      <trkpt lat="46.11659" lon="6.76554">
        <ele>1439.23</ele>
        <time>2022-03-21T09:21:04Z</time>
      </trkpt>
      <trkpt lat="46.11657" lon="6.76557">
        <ele>1439.71</ele>
        <time>2022-03-21T09:21:05Z</time>
      </trkpt>
      <trkpt lat="46.11653" lon="6.76564">
        <ele>1441.15</ele>
        <time>2022-03-21T09:21:13Z</time>
      </trkpt>
      <trkpt lat="46.11653" lon="6.76565">
        <ele>1441.63</ele>
        <time>2022-03-21T09:21:14Z</time>
      </trkpt>
      <trkpt lat="46.11656" lon="6.76565">
        <ele>1442.11</ele>
        <time>2022-03-21T09:21:17Z</time>
      </trkpt>
      <trkpt lat="46.11657" lon="6.76566">
        <ele>1442.6</ele>
        <time>2022-03-21T09:21:18Z</time>
      </trkpt>
      <trkpt lat="46.11664" lon="6.76574">
        <ele>1445</ele>
        <time>2022-03-21T09:21:32Z</time>
      </trkpt>
      <trkpt lat="46.11665" lon="6.76575">
        <ele>1445</ele>
        <time>2022-03-21T09:21:33Z</time>
      </trkpt>
      <trkpt lat="46.1167" lon="6.7658">
        <ele>1446.92</ele>
        <time>2022-03-21T09:21:42Z</time>
      </trkpt>
      <trkpt lat="46.11675" lon="6.76585">
        <ele>1448.84</ele>
        <time>2022-03-21T09:21:53Z</time>
      </trkpt>
      <trkpt lat="46.11677" lon="6.76585">
        <ele>1449.32</ele>
        <time>2022-03-21T09:21:54Z</time>
      </trkpt>
      <trkpt lat="46.11677" lon="6.76585">
        <ele>1449.81</ele>
        <time>2022-03-21T09:21:55Z</time>
      </trkpt>
      <trkpt lat="46.11677" lon="6.7659">
        <ele>1450.29</ele>
        <time>2022-03-21T09:22:00Z</time>
      </trkpt>
      <trkpt lat="46.11677" lon="6.76592">
        <ele>1450.77</ele>
        <time>2022-03-21T09:22:01Z</time>
      </trkpt>
      <trkpt lat="46.11677" lon="6.76592">
        <ele>1450.77</ele>
        <time>2022-03-21T09:22:02Z</time>
      </trkpt>
      <trkpt lat="46.11679" lon="6.76592">
        <ele>1450.77</ele>
        <time>2022-03-21T09:22:03Z</time>
      </trkpt>
      <trkpt lat="46.11677" lon="6.76603">
        <ele>1454.13</ele>
        <time>2022-03-21T09:22:16Z</time>
      </trkpt>
      <trkpt lat="46.1168" lon="6.76614">
        <ele>1457.5</ele>
        <time>2022-03-21T09:22:32Z</time>
      </trkpt>
      <trkpt lat="46.11687" lon="6.76629">
        <ele>1460.38</ele>
        <time>2022-03-21T09:22:48Z</time>
      </trkpt>
      <trkpt lat="46.11695" lon="6.76629">
        <ele>1461.82</ele>
        <time>2022-03-21T09:22:56Z</time>
      </trkpt>
      <trkpt lat="46.1169" lon="6.76634">
        <ele>1462.3</ele>
        <time>2022-03-21T09:23:00Z</time>
      </trkpt>
      <trkpt lat="46.11698" lon="6.76625">
        <ele>1464.23</ele>
        <time>2022-03-21T09:23:09Z</time>
      </trkpt>
      <trkpt lat="46.11696" lon="6.76627">
        <ele>1467.11</ele>
        <time>2022-03-21T09:23:29Z</time>
      </trkpt>
      <trkpt lat="46.117" lon="6.76624">
        <ele>1467.59</ele>
        <time>2022-03-21T09:23:33Z</time>
      </trkpt>
      <trkpt lat="46.11706" lon="6.76618">
        <ele>1469.03</ele>
        <time>2022-03-21T09:23:39Z</time>
      </trkpt>
      <trkpt lat="46.11711" lon="6.76622">
        <ele>1469.03</ele>
        <time>2022-03-21T09:23:45Z</time>
      </trkpt>
      <trkpt lat="46.11713" lon="6.76623">
        <ele>1469.51</ele>
        <time>2022-03-21T09:23:47Z</time>
      </trkpt>
      <trkpt lat="46.11717" lon="6.76625">
        <ele>1469.99</ele>
        <time>2022-03-21T09:23:50Z</time>
      </trkpt>
      <trkpt lat="46.11725" lon="6.76627">
        <ele>1470.95</ele>
        <time>2022-03-21T09:23:56Z</time>
      </trkpt>
      <trkpt lat="46.11726" lon="6.76627">
        <ele>1471.44</ele>
        <time>2022-03-21T09:23:57Z</time>
      </trkpt>
      <trkpt lat="46.11727" lon="6.7663">
        <ele>1471.92</ele>
        <time>2022-03-21T09:24:00Z</time>
      </trkpt>
      <trkpt lat="46.11727" lon="6.76632">
        <ele>1472.4</ele>
        <time>2022-03-21T09:24:02Z</time>
      </trkpt>
      <trkpt lat="46.11732" lon="6.76636">
        <ele>1473.84</ele>
        <time>2022-03-21T09:24:09Z</time>
      </trkpt>
      <trkpt lat="46.11734" lon="6.76638">
        <ele>1473.84</ele>
        <time>2022-03-21T09:24:12Z</time>
      </trkpt>
      <trkpt lat="46.11734" lon="6.76641">
        <ele>1474.8</ele>
        <time>2022-03-21T09:24:15Z</time>
      </trkpt>
      <trkpt lat="46.11736" lon="6.76642">
        <ele>1474.8</ele>
        <time>2022-03-21T09:24:17Z</time>
      </trkpt>
      <trkpt lat="46.11736" lon="6.76646">
        <ele>1475.28</ele>
        <time>2022-03-21T09:24:22Z</time>
      </trkpt>
      <trkpt lat="46.11731" lon="6.76658">
        <ele>1478.65</ele>
        <time>2022-03-21T09:24:35Z</time>
      </trkpt>
      <trkpt lat="46.11736" lon="6.7666">
        <ele>1480.57</ele>
        <time>2022-03-21T09:24:51Z</time>
      </trkpt>
      <trkpt lat="46.11737" lon="6.7666">
        <ele>1480.57</ele>
        <time>2022-03-21T09:24:52Z</time>
      </trkpt>
      <trkpt lat="46.1174" lon="6.76661">
        <ele>1481.53</ele>
        <time>2022-03-21T09:24:58Z</time>
      </trkpt>
      <trkpt lat="46.11742" lon="6.76661">
        <ele>1481.53</ele>
        <time>2022-03-21T09:24:59Z</time>
      </trkpt>
      <trkpt lat="46.11742" lon="6.76661">
        <ele>1482.01</ele>
        <time>2022-03-21T09:25:00Z</time>
      </trkpt>
      <trkpt lat="46.11747" lon="6.76663">
        <ele>1482.97</ele>
        <time>2022-03-21T09:25:07Z</time>
      </trkpt>
      <trkpt lat="46.11747" lon="6.76664">
        <ele>1483.45</ele>
        <time>2022-03-21T09:25:08Z</time>
      </trkpt>
      <trkpt lat="46.11748" lon="6.7667">
        <ele>1483.93</ele>
        <time>2022-03-21T09:25:13Z</time>
      </trkpt>
      <trkpt lat="46.11754" lon="6.76678">
        <ele>1486.34</ele>
        <time>2022-03-21T09:25:27Z</time>
      </trkpt>
      <trkpt lat="46.11757" lon="6.76688">
        <ele>1489.22</ele>
        <time>2022-03-21T09:25:42Z</time>
      </trkpt>
      <trkpt lat="46.11758" lon="6.76703">
        <ele>1492.1</ele>
        <time>2022-03-21T09:25:57Z</time>
      </trkpt>
      <trkpt lat="46.11765" lon="6.76719">
        <ele>1495.47</ele>
        <time>2022-03-21T09:26:17Z</time>
      </trkpt>
      <trkpt lat="46.11765" lon="6.76722">
        <ele>1495.95</ele>
        <time>2022-03-21T09:26:51Z</time>
      </trkpt>
      <trkpt lat="46.11767" lon="6.76721">
        <ele>1496.43</ele>
        <time>2022-03-21T09:26:57Z</time>
      </trkpt>
      <trkpt lat="46.11769" lon="6.76722">
        <ele>1496.43</ele>
        <time>2022-03-21T09:27:03Z</time>
      </trkpt>
      <trkpt lat="46.11772" lon="6.76729">
        <ele>1497.87</ele>
        <time>2022-03-21T09:27:10Z</time>
      </trkpt>
      <trkpt lat="46.11772" lon="6.76731">
        <ele>1498.35</ele>
        <time>2022-03-21T09:27:12Z</time>
      </trkpt>
      <trkpt lat="46.11773" lon="6.76732">
        <ele>1498.35</ele>
        <time>2022-03-21T09:27:14Z</time>
      </trkpt>
      <trkpt lat="46.11779" lon="6.76749">
        <ele>1501.24</ele>
        <time>2022-03-21T09:27:32Z</time>
      </trkpt>
      <trkpt lat="46.11783" lon="6.76756">
        <ele>1502.68</ele>
        <time>2022-03-21T09:27:41Z</time>
      </trkpt>
      <trkpt lat="46.11788" lon="6.76776">
        <ele>1505.56</ele>
        <time>2022-03-21T09:27:59Z</time>
      </trkpt>
      <trkpt lat="46.11791" lon="6.76784">
        <ele>1507.48</ele>
        <time>2022-03-21T09:28:07Z</time>
      </trkpt>
      <trkpt lat="46.11793" lon="6.76788">
        <ele>1508.45</ele>
        <time>2022-03-21T09:28:12Z</time>
      </trkpt>
      <trkpt lat="46.11802" lon="6.76794">
        <ele>1510.85</ele>
        <time>2022-03-21T09:28:27Z</time>
      </trkpt>
      <trkpt lat="46.11803" lon="6.76794">
        <ele>1510.85</ele>
        <time>2022-03-21T09:28:28Z</time>
      </trkpt>
      <trkpt lat="46.11804" lon="6.76795">
        <ele>1511.33</ele>
        <time>2022-03-21T09:28:29Z</time>
      </trkpt>
      <trkpt lat="46.1181" lon="6.76804">
        <ele>1513.73</ele>
        <time>2022-03-21T09:28:42Z</time>
      </trkpt>
      <trkpt lat="46.11812" lon="6.76822">
        <ele>1516.62</ele>
        <time>2022-03-21T09:28:59Z</time>
      </trkpt>
      <trkpt lat="46.11813" lon="6.76837">
        <ele>1519.5</ele>
        <time>2022-03-21T09:29:14Z</time>
      </trkpt>
      <trkpt lat="46.11815" lon="6.76852">
        <ele>1522.39</ele>
        <time>2022-03-21T09:29:30Z</time>
      </trkpt>
      <trkpt lat="46.11815" lon="6.7686">
        <ele>1523.83</ele>
        <time>2022-03-21T09:29:38Z</time>
      </trkpt>
      <trkpt lat="46.11818" lon="6.76873">
        <ele>1526.71</ele>
        <time>2022-03-21T09:29:53Z</time>
      </trkpt>
      <trkpt lat="46.1182" lon="6.76888">
        <ele>1529.59</ele>
        <time>2022-03-21T09:30:11Z</time>
      </trkpt>
      <trkpt lat="46.11822" lon="6.76896">
        <ele>1532</ele>
        <time>2022-03-21T09:30:22Z</time>
      </trkpt>
      <trkpt lat="46.11823" lon="6.76898">
        <ele>1532.48</ele>
        <time>2022-03-21T09:30:24Z</time>
      </trkpt>
      <trkpt lat="46.11823" lon="6.76899">
        <ele>1532.48</ele>
        <time>2022-03-21T09:30:25Z</time>
      </trkpt>
      <trkpt lat="46.11823" lon="6.769">
        <ele>1532.96</ele>
        <time>2022-03-21T09:30:26Z</time>
      </trkpt>
      <trkpt lat="46.11823" lon="6.76902">
        <ele>1532.96</ele>
        <time>2022-03-21T09:30:27Z</time>
      </trkpt>
      <trkpt lat="46.11823" lon="6.76903">
        <ele>1532.96</ele>
        <time>2022-03-21T09:30:28Z</time>
      </trkpt>
      <trkpt lat="46.11823" lon="6.76907">
        <ele>1533.44</ele>
        <time>2022-03-21T09:30:31Z</time>
      </trkpt>
      <trkpt lat="46.11825" lon="6.76917">
        <ele>1534.88</ele>
        <time>2022-03-21T09:30:42Z</time>
      </trkpt>
      <trkpt lat="46.11833" lon="6.76925">
        <ele>1538.25</ele>
        <time>2022-03-21T09:30:58Z</time>
      </trkpt>
      <trkpt lat="46.11836" lon="6.76928">
        <ele>1538.73</ele>
        <time>2022-03-21T09:31:02Z</time>
      </trkpt>
      <trkpt lat="46.11842" lon="6.76937">
        <ele>1541.61</ele>
        <time>2022-03-21T09:31:17Z</time>
      </trkpt>
      <trkpt lat="46.11848" lon="6.76949">
        <ele>1544.98</ele>
        <time>2022-03-21T09:31:34Z</time>
      </trkpt>
      <trkpt lat="46.11859" lon="6.76957">
        <ele>1547.86</ele>
        <time>2022-03-21T09:31:52Z</time>
      </trkpt>
      <trkpt lat="46.11865" lon="6.76956">
        <ele>1549.78</ele>
        <time>2022-03-21T09:32:00Z</time>
      </trkpt>
      <trkpt lat="46.11875" lon="6.76961">
        <ele>1552.67</ele>
        <time>2022-03-21T09:32:16Z</time>
      </trkpt>
      <trkpt lat="46.11885" lon="6.7697">
        <ele>1555.55</ele>
        <time>2022-03-21T09:32:31Z</time>
      </trkpt>
      <trkpt lat="46.11887" lon="6.76994">
        <ele>1558.43</ele>
        <time>2022-03-21T09:32:51Z</time>
      </trkpt>
      <trkpt lat="46.11886" lon="6.77">
        <ele>1559.4</ele>
        <time>2022-03-21T09:32:56Z</time>
      </trkpt>
      <trkpt lat="46.11881" lon="6.77006">
        <ele>1562.76</ele>
        <time>2022-03-21T09:33:12Z</time>
      </trkpt>
      <trkpt lat="46.11887" lon="6.77014">
        <ele>1564.68</ele>
        <time>2022-03-21T09:33:23Z</time>
      </trkpt>
      <trkpt lat="46.11896" lon="6.77015">
        <ele>1567.57</ele>
        <time>2022-03-21T09:33:39Z</time>
      </trkpt>
      <trkpt lat="46.1191" lon="6.77018">
        <ele>1570.93</ele>
        <time>2022-03-21T09:34:00Z</time>
      </trkpt>
      <trkpt lat="46.11914" lon="6.77032">
        <ele>1573.82</ele>
        <time>2022-03-21T09:34:21Z</time>
      </trkpt>
      <trkpt lat="46.11913" lon="6.77037">
        <ele>1576.22</ele>
        <time>2022-03-21T09:34:32Z</time>
      </trkpt>
      <trkpt lat="46.11918" lon="6.77039">
        <ele>1577.18</ele>
        <time>2022-03-21T09:34:39Z</time>
      </trkpt>
      <trkpt lat="46.11929" lon="6.77047">
        <ele>1580.06</ele>
        <time>2022-03-21T09:34:56Z</time>
      </trkpt>
      <trkpt lat="46.11933" lon="6.77052">
        <ele>1581.03</ele>
        <time>2022-03-21T09:35:03Z</time>
      </trkpt>
      <trkpt lat="46.11935" lon="6.77055">
        <ele>1581.99</ele>
        <time>2022-03-21T09:35:07Z</time>
      </trkpt>
      <trkpt lat="46.11935" lon="6.77057">
        <ele>1582.47</ele>
        <time>2022-03-21T09:35:09Z</time>
      </trkpt>
      <trkpt lat="46.11936" lon="6.77059">
        <ele>1582.95</ele>
        <time>2022-03-21T09:35:11Z</time>
      </trkpt>
      <trkpt lat="46.11936" lon="6.77063">
        <ele>1583.43</ele>
        <time>2022-03-21T09:35:14Z</time>
      </trkpt>
      <trkpt lat="46.11937" lon="6.77071">
        <ele>1584.87</ele>
        <time>2022-03-21T09:35:23Z</time>
      </trkpt>
      <trkpt lat="46.11944" lon="6.77086">
        <ele>1586.79</ele>
        <time>2022-03-21T09:35:37Z</time>
      </trkpt>
      <trkpt lat="46.11944" lon="6.77087">
        <ele>1586.79</ele>
        <time>2022-03-21T09:35:38Z</time>
      </trkpt>
      <trkpt lat="46.11944" lon="6.77089">
        <ele>1587.27</ele>
        <time>2022-03-21T09:35:39Z</time>
      </trkpt>
      <trkpt lat="46.11945" lon="6.7709">
        <ele>1587.27</ele>
        <time>2022-03-21T09:35:40Z</time>
      </trkpt>
      <trkpt lat="46.11945" lon="6.77091">
        <ele>1587.27</ele>
        <time>2022-03-21T09:35:41Z</time>
      </trkpt>
      <trkpt lat="46.11944" lon="6.771">
        <ele>1588.72</ele>
        <time>2022-03-21T09:35:47Z</time>
      </trkpt>
      <trkpt lat="46.11944" lon="6.77102">
        <ele>1588.72</ele>
        <time>2022-03-21T09:35:49Z</time>
      </trkpt>
      <trkpt lat="46.11946" lon="6.77114">
        <ele>1590.16</ele>
        <time>2022-03-21T09:36:01Z</time>
      </trkpt>
      <trkpt lat="46.11946" lon="6.77116">
        <ele>1590.64</ele>
        <time>2022-03-21T09:36:03Z</time>
      </trkpt>
      <trkpt lat="46.11953" lon="6.77131">
        <ele>1593.52</ele>
        <time>2022-03-21T09:36:21Z</time>
      </trkpt>
      <trkpt lat="46.11955" lon="6.77132">
        <ele>1594</ele>
        <time>2022-03-21T09:36:24Z</time>
      </trkpt>
      <trkpt lat="46.11957" lon="6.77132">
        <ele>1594.48</ele>
        <time>2022-03-21T09:36:26Z</time>
      </trkpt>
      <trkpt lat="46.11963" lon="6.77133">
        <ele>1596.41</ele>
        <time>2022-03-21T09:36:35Z</time>
      </trkpt>
      <trkpt lat="46.11965" lon="6.77141">
        <ele>1597.85</ele>
        <time>2022-03-21T09:36:44Z</time>
      </trkpt>
      <trkpt lat="46.11962" lon="6.77152">
        <ele>1600.25</ele>
        <time>2022-03-21T09:36:57Z</time>
      </trkpt>
      <trkpt lat="46.11959" lon="6.77163">
        <ele>1603.62</ele>
        <time>2022-03-21T09:37:11Z</time>
      </trkpt>
      <trkpt lat="46.11958" lon="6.77166">
        <ele>1603.62</ele>
        <time>2022-03-21T09:37:14Z</time>
      </trkpt>
      <trkpt lat="46.11953" lon="6.77176">
        <ele>1606.5</ele>
        <time>2022-03-21T09:37:28Z</time>
      </trkpt>
      <trkpt lat="46.1196" lon="6.77183">
        <ele>1608.42</ele>
        <time>2022-03-21T09:37:40Z</time>
      </trkpt>
      <trkpt lat="46.11969" lon="6.77187">
        <ele>1610.83</ele>
        <time>2022-03-21T09:37:53Z</time>
      </trkpt>
      <trkpt lat="46.1197" lon="6.77187">
        <ele>1611.31</ele>
        <time>2022-03-21T09:37:54Z</time>
      </trkpt>
      <trkpt lat="46.11984" lon="6.77193">
        <ele>1614.19</ele>
        <time>2022-03-21T09:38:16Z</time>
      </trkpt>
      <trkpt lat="46.1199" lon="6.77196">
        <ele>1615.63</ele>
        <time>2022-03-21T09:38:25Z</time>
      </trkpt>
      <trkpt lat="46.11998" lon="6.77194">
        <ele>1617.56</ele>
        <time>2022-03-21T09:38:38Z</time>
      </trkpt>
      <trkpt lat="46.12004" lon="6.77189">
        <ele>1619.48</ele>
        <time>2022-03-21T09:38:49Z</time>
      </trkpt>
      <trkpt lat="46.12006" lon="6.77188">
        <ele>1619.96</ele>
        <time>2022-03-21T09:38:51Z</time>
      </trkpt>
      <trkpt lat="46.1201" lon="6.77188">
        <ele>1620.92</ele>
        <time>2022-03-21T09:38:57Z</time>
      </trkpt>
      <trkpt lat="46.12011" lon="6.77189">
        <ele>1621.4</ele>
        <time>2022-03-21T09:38:58Z</time>
      </trkpt>
      <trkpt lat="46.12011" lon="6.7719">
        <ele>1621.4</ele>
        <time>2022-03-21T09:38:59Z</time>
      </trkpt>
      <trkpt lat="46.12011" lon="6.77192">
        <ele>1621.4</ele>
        <time>2022-03-21T09:39:00Z</time>
      </trkpt>
      <trkpt lat="46.12009" lon="6.7721">
        <ele>1624.77</ele>
        <time>2022-03-21T09:39:18Z</time>
      </trkpt>
      <trkpt lat="46.12007" lon="6.77223">
        <ele>1627.65</ele>
        <time>2022-03-21T09:39:44Z</time>
      </trkpt>
      <trkpt lat="46.12014" lon="6.77235">
        <ele>1630.53</ele>
        <time>2022-03-21T09:40:01Z</time>
      </trkpt>
      <trkpt lat="46.12015" lon="6.77235">
        <ele>1630.53</ele>
        <time>2022-03-21T09:40:02Z</time>
      </trkpt>
      <trkpt lat="46.12015" lon="6.77237">
        <ele>1630.53</ele>
        <time>2022-03-21T09:40:03Z</time>
      </trkpt>
      <trkpt lat="46.12016" lon="6.77237">
        <ele>1630.53</ele>
        <time>2022-03-21T09:40:04Z</time>
      </trkpt>
      <trkpt lat="46.12017" lon="6.77238">
        <ele>1630.53</ele>
        <time>2022-03-21T09:40:05Z</time>
      </trkpt>
      <trkpt lat="46.12028" lon="6.77256">
        <ele>1633.9</ele>
        <time>2022-03-21T09:40:24Z</time>
      </trkpt>
      <trkpt lat="46.12038" lon="6.7727">
        <ele>1636.78</ele>
        <time>2022-03-21T09:40:42Z</time>
      </trkpt>
      <trkpt lat="46.12045" lon="6.77282">
        <ele>1639.67</ele>
        <time>2022-03-21T09:40:57Z</time>
      </trkpt>
      <trkpt lat="46.12047" lon="6.77285">
        <ele>1640.63</ele>
        <time>2022-03-21T09:41:02Z</time>
      </trkpt>
      <trkpt lat="46.12048" lon="6.77286">
        <ele>1640.63</ele>
        <time>2022-03-21T09:41:03Z</time>
      </trkpt>
      <trkpt lat="46.12051" lon="6.77291">
        <ele>1642.07</ele>
        <time>2022-03-21T09:41:10Z</time>
      </trkpt>
      <trkpt lat="46.12054" lon="6.77296">
        <ele>1643.51</ele>
        <time>2022-03-21T09:41:17Z</time>
      </trkpt>
      <trkpt lat="46.12055" lon="6.77298">
        <ele>1643.99</ele>
        <time>2022-03-21T09:41:19Z</time>
      </trkpt>
      <trkpt lat="46.12062" lon="6.7731">
        <ele>1647.36</ele>
        <time>2022-03-21T09:41:35Z</time>
      </trkpt>
      <trkpt lat="46.12071" lon="6.77322">
        <ele>1650.24</ele>
        <time>2022-03-21T09:41:52Z</time>
      </trkpt>
      <trkpt lat="46.12078" lon="6.77343">
        <ele>1653.12</ele>
        <time>2022-03-21T09:42:13Z</time>
      </trkpt>
      <trkpt lat="46.12082" lon="6.77365">
        <ele>1656.01</ele>
        <time>2022-03-21T09:42:30Z</time>
      </trkpt>
      <trkpt lat="46.12085" lon="6.77374">
        <ele>1657.93</ele>
        <time>2022-03-21T09:42:39Z</time>
      </trkpt>
      <trkpt lat="46.12085" lon="6.77375">
        <ele>1657.93</ele>
        <time>2022-03-21T09:42:40Z</time>
      </trkpt>
      <trkpt lat="46.12089" lon="6.77391">
        <ele>1660.81</ele>
        <time>2022-03-21T09:42:56Z</time>
      </trkpt>
      <trkpt lat="46.12097" lon="6.77415">
        <ele>1663.22</ele>
        <time>2022-03-21T09:43:16Z</time>
      </trkpt>
      <trkpt lat="46.121" lon="6.7743">
        <ele>1666.58</ele>
        <time>2022-03-21T09:43:32Z</time>
      </trkpt>
      <trkpt lat="46.12101" lon="6.77433">
        <ele>1667.06</ele>
        <time>2022-03-21T09:43:35Z</time>
      </trkpt>
      <trkpt lat="46.12105" lon="6.77448">
        <ele>1668.99</ele>
        <time>2022-03-21T09:43:48Z</time>
      </trkpt>
      <trkpt lat="46.12105" lon="6.77449">
        <ele>1668.99</ele>
        <time>2022-03-21T09:43:49Z</time>
      </trkpt>
      <trkpt lat="46.12109" lon="6.77468">
        <ele>1672.35</ele>
        <time>2022-03-21T09:44:07Z</time>
      </trkpt>
      <trkpt lat="46.12111" lon="6.77477">
        <ele>1675.23</ele>
        <time>2022-03-21T09:44:18Z</time>
      </trkpt>
      <trkpt lat="46.12111" lon="6.77479">
        <ele>1675.72</ele>
        <time>2022-03-21T09:44:19Z</time>
      </trkpt>
      <trkpt lat="46.12118" lon="6.77502">
        <ele>1677.64</ele>
        <time>2022-03-21T09:44:39Z</time>
      </trkpt>
      <trkpt lat="46.12122" lon="6.77519">
        <ele>1681</ele>
        <time>2022-03-21T09:44:54Z</time>
      </trkpt>
      <trkpt lat="46.12124" lon="6.77527">
        <ele>1682.44</ele>
        <time>2022-03-21T09:45:03Z</time>
      </trkpt>
      <trkpt lat="46.12126" lon="6.77542">
        <ele>1684.85</ele>
        <time>2022-03-21T09:45:17Z</time>
      </trkpt>
      <trkpt lat="46.12126" lon="6.77546">
        <ele>1685.81</ele>
        <time>2022-03-21T09:45:21Z</time>
      </trkpt>
      <trkpt lat="46.12126" lon="6.77548">
        <ele>1685.81</ele>
        <time>2022-03-21T09:45:23Z</time>
      </trkpt>
      <trkpt lat="46.12125" lon="6.77558">
        <ele>1687.25</ele>
        <time>2022-03-21T09:45:32Z</time>
      </trkpt>
      <trkpt lat="46.12126" lon="6.7757">
        <ele>1690.14</ele>
        <time>2022-03-21T09:45:43Z</time>
      </trkpt>
      <trkpt lat="46.12127" lon="6.77571">
        <ele>1690.14</ele>
        <time>2022-03-21T09:45:44Z</time>
      </trkpt>
      <trkpt lat="46.12129" lon="6.77585">
        <ele>1693.02</ele>
        <time>2022-03-21T09:45:59Z</time>
      </trkpt>
      <trkpt lat="46.1213" lon="6.77593">
        <ele>1695.42</ele>
        <time>2022-03-21T09:46:08Z</time>
      </trkpt>
      <trkpt lat="46.12135" lon="6.77604">
        <ele>1698.31</ele>
        <time>2022-03-21T09:46:23Z</time>
      </trkpt>
      <trkpt lat="46.12139" lon="6.77613">
        <ele>1701.19</ele>
        <time>2022-03-21T09:46:36Z</time>
      </trkpt>
      <trkpt lat="46.12139" lon="6.77615">
        <ele>1701.19</ele>
        <time>2022-03-21T09:46:38Z</time>
      </trkpt>
      <trkpt lat="46.12135" lon="6.77625">
        <ele>1704.55</ele>
        <time>2022-03-21T09:46:55Z</time>
      </trkpt>
      <trkpt lat="46.12138" lon="6.77634">
        <ele>1707.44</ele>
        <time>2022-03-21T09:47:10Z</time>
      </trkpt>
      <trkpt lat="46.12147" lon="6.77642">
        <ele>1710.8</ele>
        <time>2022-03-21T09:47:28Z</time>
      </trkpt>
      <trkpt lat="46.12156" lon="6.77644">
        <ele>1713.69</ele>
        <time>2022-03-21T09:47:45Z</time>
      </trkpt>
      <trkpt lat="46.12157" lon="6.7765">
        <ele>1714.17</ele>
        <time>2022-03-21T09:47:52Z</time>
      </trkpt>
      <trkpt lat="46.12157" lon="6.77652">
        <ele>1714.65</ele>
        <time>2022-03-21T09:47:53Z</time>
      </trkpt>
      <trkpt lat="46.12159" lon="6.77671">
        <ele>1718.01</ele>
        <time>2022-03-21T09:48:11Z</time>
      </trkpt>
      <trkpt lat="46.12158" lon="6.77688">
        <ele>1720.9</ele>
        <time>2022-03-21T09:48:27Z</time>
      </trkpt>
      <trkpt lat="46.12158" lon="6.77691">
        <ele>1721.86</ele>
        <time>2022-03-21T09:48:31Z</time>
      </trkpt>
      <trkpt lat="46.12164" lon="6.77701">
        <ele>1724.74</ele>
        <time>2022-03-21T09:48:45Z</time>
      </trkpt>
      <trkpt lat="46.12167" lon="6.77707">
        <ele>1726.18</ele>
        <time>2022-03-21T09:48:53Z</time>
      </trkpt>
      <trkpt lat="46.12168" lon="6.7771">
        <ele>1726.18</ele>
        <time>2022-03-21T09:48:55Z</time>
      </trkpt>
      <trkpt lat="46.1217" lon="6.77717">
        <ele>1727.63</ele>
        <time>2022-03-21T09:49:02Z</time>
      </trkpt>
      <trkpt lat="46.12172" lon="6.77722">
        <ele>1728.59</ele>
        <time>2022-03-21T09:49:08Z</time>
      </trkpt>
      <trkpt lat="46.12173" lon="6.77724">
        <ele>1729.07</ele>
        <time>2022-03-21T09:49:10Z</time>
      </trkpt>
      <trkpt lat="46.12178" lon="6.77743">
        <ele>1732.43</ele>
        <time>2022-03-21T09:49:31Z</time>
      </trkpt>
      <trkpt lat="46.12183" lon="6.77761">
        <ele>1735.32</ele>
        <time>2022-03-21T09:49:50Z</time>
      </trkpt>
      <trkpt lat="46.12184" lon="6.77762">
        <ele>1735.8</ele>
        <time>2022-03-21T09:49:51Z</time>
      </trkpt>
      <trkpt lat="46.12184" lon="6.77763">
        <ele>1735.8</ele>
        <time>2022-03-21T09:49:52Z</time>
      </trkpt>
      <trkpt lat="46.12188" lon="6.77771">
        <ele>1737.24</ele>
        <time>2022-03-21T09:50:01Z</time>
      </trkpt>
      <trkpt lat="46.12188" lon="6.77773">
        <ele>1737.72</ele>
        <time>2022-03-21T09:50:03Z</time>
      </trkpt>
      <trkpt lat="46.12193" lon="6.77787">
        <ele>1740.6</ele>
        <time>2022-03-21T09:50:20Z</time>
      </trkpt>
      <trkpt lat="46.12198" lon="6.77802">
        <ele>1743.97</ele>
        <time>2022-03-21T09:50:36Z</time>
      </trkpt>
      <trkpt lat="46.12201" lon="6.77815">
        <ele>1746.85</ele>
        <time>2022-03-21T09:50:51Z</time>
      </trkpt>
      <trkpt lat="46.12202" lon="6.77817">
        <ele>1747.33</ele>
        <time>2022-03-21T09:50:53Z</time>
      </trkpt>
      <trkpt lat="46.12203" lon="6.77818">
        <ele>1747.81</ele>
        <time>2022-03-21T09:50:54Z</time>
      </trkpt>
      <trkpt lat="46.12204" lon="6.77823">
        <ele>1748.78</ele>
        <time>2022-03-21T09:51:02Z</time>
      </trkpt>
      <trkpt lat="46.12206" lon="6.7783">
        <ele>1750.22</ele>
        <time>2022-03-21T09:51:09Z</time>
      </trkpt>
      <trkpt lat="46.1221" lon="6.77844">
        <ele>1753.58</ele>
        <time>2022-03-21T09:51:26Z</time>
      </trkpt>
      <trkpt lat="46.12212" lon="6.7785">
        <ele>1754.54</ele>
        <time>2022-03-21T09:51:32Z</time>
      </trkpt>
      <trkpt lat="46.12213" lon="6.77851">
        <ele>1755.02</ele>
        <time>2022-03-21T09:51:34Z</time>
      </trkpt>
      <trkpt lat="46.12221" lon="6.77873">
        <ele>1757.91</ele>
        <time>2022-03-21T09:51:56Z</time>
      </trkpt>
      <trkpt lat="46.12227" lon="6.77898">
        <ele>1760.79</ele>
        <time>2022-03-21T09:52:18Z</time>
      </trkpt>
      <trkpt lat="46.12231" lon="6.77921">
        <ele>1763.68</ele>
        <time>2022-03-21T09:52:40Z</time>
      </trkpt>
      <trkpt lat="46.12237" lon="6.77945">
        <ele>1766.08</ele>
        <time>2022-03-21T09:53:02Z</time>
      </trkpt>
      <trkpt lat="46.12239" lon="6.77953">
        <ele>1767.04</ele>
        <time>2022-03-21T09:53:09Z</time>
      </trkpt>
      <trkpt lat="46.1224" lon="6.77955">
        <ele>1767.52</ele>
        <time>2022-03-21T09:53:11Z</time>
      </trkpt>
      <trkpt lat="46.12247" lon="6.77979">
        <ele>1770.41</ele>
        <time>2022-03-21T09:53:34Z</time>
      </trkpt>
      <trkpt lat="46.12253" lon="6.78002">
        <ele>1773.29</ele>
        <time>2022-03-21T09:53:57Z</time>
      </trkpt>
      <trkpt lat="46.12258" lon="6.78027">
        <ele>1776.17</ele>
        <time>2022-03-21T09:54:19Z</time>
      </trkpt>
      <trkpt lat="46.12264" lon="6.7805">
        <ele>1779.54</ele>
        <time>2022-03-21T09:54:39Z</time>
      </trkpt>
      <trkpt lat="46.12268" lon="6.78061">
        <ele>1780.98</ele>
        <time>2022-03-21T09:54:49Z</time>
      </trkpt>
      <trkpt lat="46.12268" lon="6.78062">
        <ele>1780.98</ele>
        <time>2022-03-21T09:54:50Z</time>
      </trkpt>
      <trkpt lat="46.12269" lon="6.78067">
        <ele>1781.46</ele>
        <time>2022-03-21T09:54:54Z</time>
      </trkpt>
      <trkpt lat="46.1227" lon="6.7807">
        <ele>1781.94</ele>
        <time>2022-03-21T09:54:57Z</time>
      </trkpt>
      <trkpt lat="46.12275" lon="6.78091">
        <ele>1784.82</ele>
        <time>2022-03-21T09:55:17Z</time>
      </trkpt>
      <trkpt lat="46.12281" lon="6.78107">
        <ele>1788.19</ele>
        <time>2022-03-21T09:55:36Z</time>
      </trkpt>
      <trkpt lat="46.12285" lon="6.78116">
        <ele>1790.11</ele>
        <time>2022-03-21T09:55:47Z</time>
      </trkpt>
      <trkpt lat="46.12289" lon="6.78121">
        <ele>1790.59</ele>
        <time>2022-03-21T09:55:53Z</time>
      </trkpt>
      <trkpt lat="46.12289" lon="6.78122">
        <ele>1791.07</ele>
        <time>2022-03-21T09:55:54Z</time>
      </trkpt>
      <trkpt lat="46.12297" lon="6.78143">
        <ele>1793.96</ele>
        <time>2022-03-21T09:56:14Z</time>
      </trkpt>
      <trkpt lat="46.12303" lon="6.78159">
        <ele>1796.36</ele>
        <time>2022-03-21T09:56:31Z</time>
      </trkpt>
      <trkpt lat="46.12307" lon="6.78166">
        <ele>1797.8</ele>
        <time>2022-03-21T09:56:40Z</time>
      </trkpt>
      <trkpt lat="46.12314" lon="6.78177">
        <ele>1800.21</ele>
        <time>2022-03-21T09:56:53Z</time>
      </trkpt>
      <trkpt lat="46.12315" lon="6.7818">
        <ele>1800.69</ele>
        <time>2022-03-21T09:56:56Z</time>
      </trkpt>
      <trkpt lat="46.12318" lon="6.78198">
        <ele>1804.05</ele>
        <time>2022-03-21T09:57:15Z</time>
      </trkpt>
      <trkpt lat="46.1232" lon="6.7821">
        <ele>1805.49</ele>
        <time>2022-03-21T09:57:25Z</time>
      </trkpt>
      <trkpt lat="46.1232" lon="6.78212">
        <ele>1805.97</ele>
        <time>2022-03-21T09:57:27Z</time>
      </trkpt>
      <trkpt lat="46.12325" lon="6.78232">
        <ele>1808.86</ele>
        <time>2022-03-21T09:57:47Z</time>
      </trkpt>
      <trkpt lat="46.12329" lon="6.78245">
        <ele>1809.82</ele>
        <time>2022-03-21T09:58:01Z</time>
      </trkpt>
      <trkpt lat="46.1233" lon="6.78248">
        <ele>1809.82</ele>
        <time>2022-03-21T09:58:04Z</time>
      </trkpt>
      <trkpt lat="46.12338" lon="6.78269">
        <ele>1813.18</ele>
        <time>2022-03-21T09:58:23Z</time>
      </trkpt>
      <trkpt lat="46.12346" lon="6.78291">
        <ele>1816.07</ele>
        <time>2022-03-21T09:58:45Z</time>
      </trkpt>
      <trkpt lat="46.12347" lon="6.78295">
        <ele>1816.55</ele>
        <time>2022-03-21T09:58:49Z</time>
      </trkpt>
      <trkpt lat="46.12349" lon="6.78302">
        <ele>1817.99</ele>
        <time>2022-03-21T09:58:58Z</time>
      </trkpt>
      <trkpt lat="46.1235" lon="6.78304">
        <ele>1817.99</ele>
        <time>2022-03-21T09:59:00Z</time>
      </trkpt>
      <trkpt lat="46.12351" lon="6.78306">
        <ele>1818.47</ele>
        <time>2022-03-21T09:59:03Z</time>
      </trkpt>
      <trkpt lat="46.12353" lon="6.78312">
        <ele>1819.43</ele>
        <time>2022-03-21T09:59:10Z</time>
      </trkpt>
      <trkpt lat="46.12354" lon="6.78313">
        <ele>1819.43</ele>
        <time>2022-03-21T09:59:11Z</time>
      </trkpt>
      <trkpt lat="46.12357" lon="6.7832">
        <ele>1820.39</ele>
        <time>2022-03-21T09:59:17Z</time>
      </trkpt>
      <trkpt lat="46.12359" lon="6.78326">
        <ele>1821.35</ele>
        <time>2022-03-21T09:59:24Z</time>
      </trkpt>
      <trkpt lat="46.1236" lon="6.78327">
        <ele>1821.35</ele>
        <time>2022-03-21T09:59:25Z</time>
      </trkpt>
      <trkpt lat="46.12369" lon="6.7834">
        <ele>1823.76</ele>
        <time>2022-03-21T09:59:41Z</time>
      </trkpt>
      <trkpt lat="46.12371" lon="6.78344">
        <ele>1824.24</ele>
        <time>2022-03-21T09:59:46Z</time>
      </trkpt>
      <trkpt lat="46.12385" lon="6.7836">
        <ele>1827.6</ele>
        <time>2022-03-21T10:00:06Z</time>
      </trkpt>
      <trkpt lat="46.12397" lon="6.78368">
        <ele>1830.49</ele>
        <time>2022-03-21T10:00:23Z</time>
      </trkpt>
      <trkpt lat="46.1241" lon="6.78383">
        <ele>1832.41</ele>
        <time>2022-03-21T10:00:42Z</time>
      </trkpt>
      <trkpt lat="46.12412" lon="6.78392">
        <ele>1832.89</ele>
        <time>2022-03-21T10:00:48Z</time>
      </trkpt>
      <trkpt lat="46.12412" lon="6.78394">
        <ele>1833.37</ele>
        <time>2022-03-21T10:00:50Z</time>
      </trkpt>
      <trkpt lat="46.12412" lon="6.78396">
        <ele>1833.37</ele>
        <time>2022-03-21T10:00:51Z</time>
      </trkpt>
      <trkpt lat="46.12419" lon="6.7842">
        <ele>1836.26</ele>
        <time>2022-03-21T10:01:11Z</time>
      </trkpt>
      <trkpt lat="46.12428" lon="6.78444">
        <ele>1838.18</ele>
        <time>2022-03-21T10:01:32Z</time>
      </trkpt>
      <trkpt lat="46.12434" lon="6.7846">
        <ele>1840.58</ele>
        <time>2022-03-21T10:01:46Z</time>
      </trkpt>
      <trkpt lat="46.12434" lon="6.78461">
        <ele>1840.58</ele>
        <time>2022-03-21T10:01:47Z</time>
      </trkpt>
      <trkpt lat="46.12435" lon="6.78462">
        <ele>1840.58</ele>
        <time>2022-03-21T10:01:48Z</time>
      </trkpt>
      <trkpt lat="46.12445" lon="6.78485">
        <ele>1842.98</ele>
        <time>2022-03-21T10:02:09Z</time>
      </trkpt>
      <trkpt lat="46.12454" lon="6.7851">
        <ele>1845.39</ele>
        <time>2022-03-21T10:02:30Z</time>
      </trkpt>
      <trkpt lat="46.12465" lon="6.78533">
        <ele>1847.79</ele>
        <time>2022-03-21T10:02:51Z</time>
      </trkpt>
      <trkpt lat="46.12471" lon="6.78559">
        <ele>1850.68</ele>
        <time>2022-03-21T10:03:12Z</time>
      </trkpt>
      <trkpt lat="46.12475" lon="6.78586">
        <ele>1853.08</ele>
        <time>2022-03-21T10:03:32Z</time>
      </trkpt>
      <trkpt lat="46.12476" lon="6.78596">
        <ele>1854.04</ele>
        <time>2022-03-21T10:03:40Z</time>
      </trkpt>
      <trkpt lat="46.12476" lon="6.78597">
        <ele>1854.04</ele>
        <time>2022-03-21T10:03:41Z</time>
      </trkpt>
      <trkpt lat="46.12477" lon="6.78598">
        <ele>1854.04</ele>
        <time>2022-03-21T10:03:42Z</time>
      </trkpt>
      <trkpt lat="46.12477" lon="6.786">
        <ele>1854.04</ele>
        <time>2022-03-21T10:03:43Z</time>
      </trkpt>
      <trkpt lat="46.12478" lon="6.78601">
        <ele>1854.52</ele>
        <time>2022-03-21T10:03:44Z</time>
      </trkpt>
      <trkpt lat="46.12478" lon="6.78602">
        <ele>1854.52</ele>
        <time>2022-03-21T10:03:45Z</time>
      </trkpt>
      <trkpt lat="46.12485" lon="6.78626">
        <ele>1857.4</ele>
        <time>2022-03-21T10:04:05Z</time>
      </trkpt>
      <trkpt lat="46.12495" lon="6.78649">
        <ele>1860.29</ele>
        <time>2022-03-21T10:04:25Z</time>
      </trkpt>
      <trkpt lat="46.12508" lon="6.78668">
        <ele>1863.17</ele>
        <time>2022-03-21T10:04:45Z</time>
      </trkpt>
      <trkpt lat="46.12519" lon="6.78689">
        <ele>1865.58</ele>
        <time>2022-03-21T10:05:05Z</time>
      </trkpt>
      <trkpt lat="46.12532" lon="6.7871">
        <ele>1867.98</ele>
        <time>2022-03-21T10:05:26Z</time>
      </trkpt>
      <trkpt lat="46.12546" lon="6.78731">
        <ele>1869.9</ele>
        <time>2022-03-21T10:05:46Z</time>
      </trkpt>
      <trkpt lat="46.12558" lon="6.78754">
        <ele>1871.82</ele>
        <time>2022-03-21T10:06:05Z</time>
      </trkpt>
      <trkpt lat="46.12559" lon="6.78755">
        <ele>1871.82</ele>
        <time>2022-03-21T10:06:06Z</time>
      </trkpt>
      <trkpt lat="46.12559" lon="6.78756">
        <ele>1871.82</ele>
        <time>2022-03-21T10:06:07Z</time>
      </trkpt>
      <trkpt lat="46.1256" lon="6.78758">
        <ele>1871.82</ele>
        <time>2022-03-21T10:06:08Z</time>
      </trkpt>
      <trkpt lat="46.1256" lon="6.78765">
        <ele>1872.79</ele>
        <time>2022-03-21T10:06:13Z</time>
      </trkpt>
      <trkpt lat="46.12561" lon="6.78766">
        <ele>1872.79</ele>
        <time>2022-03-21T10:06:14Z</time>
      </trkpt>
      <trkpt lat="46.12561" lon="6.78767">
        <ele>1873.27</ele>
        <time>2022-03-21T10:06:15Z</time>
      </trkpt>
      <trkpt lat="46.12562" lon="6.78768">
        <ele>1873.27</ele>
        <time>2022-03-21T10:06:16Z</time>
      </trkpt>
      <trkpt lat="46.12562" lon="6.78769">
        <ele>1873.27</ele>
        <time>2022-03-21T10:06:17Z</time>
      </trkpt>
      <trkpt lat="46.12563" lon="6.7877">
        <ele>1873.75</ele>
        <time>2022-03-21T10:06:18Z</time>
      </trkpt>
      <trkpt lat="46.12573" lon="6.78793">
        <ele>1875.67</ele>
        <time>2022-03-21T10:06:36Z</time>
      </trkpt>
      <trkpt lat="46.12573" lon="6.78797">
        <ele>1876.15</ele>
        <time>2022-03-21T10:07:41Z</time>
      </trkpt>
      <trkpt lat="46.12567" lon="6.78802">
        <ele>1875.67</ele>
        <time>2022-03-21T10:08:06Z</time>
      </trkpt>
      <trkpt lat="46.12566" lon="6.78802">
        <ele>1875.67</ele>
        <time>2022-03-21T10:08:07Z</time>
      </trkpt>
      <trkpt lat="46.12566" lon="6.78802">
        <ele>1876.15</ele>
        <time>2022-03-21T10:08:14Z</time>
      </trkpt>
      <trkpt lat="46.12577" lon="6.78797">
        <ele>1875.67</ele>
        <time>2022-03-21T10:09:28Z</time>
      </trkpt>
      <trkpt lat="46.1258" lon="6.78796">
        <ele>1875.67</ele>
        <time>2022-03-21T10:10:06Z</time>
      </trkpt>
      <trkpt lat="46.12575" lon="6.78798">
        <ele>1875.67</ele>
        <time>2022-03-21T10:11:12Z</time>
      </trkpt>
      <trkpt lat="46.12575" lon="6.78799">
        <ele>1875.67</ele>
        <time>2022-03-21T10:12:59Z</time>
      </trkpt>
      <trkpt lat="46.12574" lon="6.78799">
        <ele>1875.67</ele>
        <time>2022-03-21T10:13:17Z</time>
      </trkpt>
      <trkpt lat="46.12576" lon="6.78797">
        <ele>1875.67</ele>
        <time>2022-03-21T10:13:23Z</time>
      </trkpt>
      <trkpt lat="46.12578" lon="6.78796">
        <ele>1875.67</ele>
        <time>2022-03-21T10:13:31Z</time>
      </trkpt>
      <trkpt lat="46.12579" lon="6.78795">
        <ele>1875.67</ele>
        <time>2022-03-21T10:13:32Z</time>
      </trkpt>
      <trkpt lat="46.12582" lon="6.78798">
        <ele>1875.67</ele>
        <time>2022-03-21T10:15:17Z</time>
      </trkpt>
      <trkpt lat="46.12583" lon="6.78797">
        <ele>1875.67</ele>
        <time>2022-03-21T10:16:52Z</time>
      </trkpt>
      <trkpt lat="46.1258" lon="6.78802">
        <ele>1875.67</ele>
        <time>2022-03-21T10:18:06Z</time>
      </trkpt>
      <trkpt lat="46.12585" lon="6.7883">
        <ele>1877.59</ele>
        <time>2022-03-21T10:18:23Z</time>
      </trkpt>
      <trkpt lat="46.12587" lon="6.78834">
        <ele>1877.59</ele>
        <time>2022-03-21T10:18:25Z</time>
      </trkpt>
      <trkpt lat="46.12587" lon="6.78835">
        <ele>1877.59</ele>
        <time>2022-03-21T10:18:26Z</time>
      </trkpt>
      <trkpt lat="46.12588" lon="6.78836">
        <ele>1877.59</ele>
        <time>2022-03-21T10:18:27Z</time>
      </trkpt>
      <trkpt lat="46.12589" lon="6.78838">
        <ele>1877.59</ele>
        <time>2022-03-21T10:18:28Z</time>
      </trkpt>
      <trkpt lat="46.1259" lon="6.78839">
        <ele>1878.07</ele>
        <time>2022-03-21T10:18:29Z</time>
      </trkpt>
      <trkpt lat="46.1259" lon="6.78841">
        <ele>1878.07</ele>
        <time>2022-03-21T10:18:30Z</time>
      </trkpt>
      <trkpt lat="46.12591" lon="6.78843">
        <ele>1878.07</ele>
        <time>2022-03-21T10:18:31Z</time>
      </trkpt>
      <trkpt lat="46.12591" lon="6.78844">
        <ele>1878.07</ele>
        <time>2022-03-21T10:18:32Z</time>
      </trkpt>
      <trkpt lat="46.12594" lon="6.78852">
        <ele>1878.07</ele>
        <time>2022-03-21T10:18:36Z</time>
      </trkpt>
      <trkpt lat="46.12595" lon="6.78857">
        <ele>1878.07</ele>
        <time>2022-03-21T10:18:39Z</time>
      </trkpt>
      <trkpt lat="46.12595" lon="6.78859">
        <ele>1878.07</ele>
        <time>2022-03-21T10:18:40Z</time>
      </trkpt>
      <trkpt lat="46.12596" lon="6.7886">
        <ele>1878.07</ele>
        <time>2022-03-21T10:18:41Z</time>
      </trkpt>
      <trkpt lat="46.12596" lon="6.78861">
        <ele>1878.07</ele>
        <time>2022-03-21T10:18:42Z</time>
      </trkpt>
      <trkpt lat="46.12596" lon="6.78862">
        <ele>1878.55</ele>
        <time>2022-03-21T10:18:43Z</time>
      </trkpt>
      <trkpt lat="46.12594" lon="6.78872">
        <ele>1879.03</ele>
        <time>2022-03-21T10:19:19Z</time>
      </trkpt>
      <trkpt lat="46.12604" lon="6.78896">
        <ele>1880.96</ele>
        <time>2022-03-21T10:19:36Z</time>
      </trkpt>
      <trkpt lat="46.12607" lon="6.78908">
        <ele>1880.96</ele>
        <time>2022-03-21T10:19:43Z</time>
      </trkpt>
      <trkpt lat="46.12607" lon="6.78909">
        <ele>1880.96</ele>
        <time>2022-03-21T10:19:44Z</time>
      </trkpt>
      <trkpt lat="46.12614" lon="6.78935">
        <ele>1882.4</ele>
        <time>2022-03-21T10:20:01Z</time>
      </trkpt>
      <trkpt lat="46.12615" lon="6.78942">
        <ele>1883.36</ele>
        <time>2022-03-21T10:20:06Z</time>
      </trkpt>
      <trkpt lat="46.12616" lon="6.78943">
        <ele>1883.36</ele>
        <time>2022-03-21T10:20:07Z</time>
      </trkpt>
      <trkpt lat="46.12617" lon="6.78944">
        <ele>1883.84</ele>
        <time>2022-03-21T10:20:08Z</time>
      </trkpt>
      <trkpt lat="46.12618" lon="6.78947">
        <ele>1884.32</ele>
        <time>2022-03-21T10:20:12Z</time>
      </trkpt>
      <trkpt lat="46.12619" lon="6.78949">
        <ele>1884.32</ele>
        <time>2022-03-21T10:20:13Z</time>
      </trkpt>
      <trkpt lat="46.12628" lon="6.78971">
        <ele>1887.21</ele>
        <time>2022-03-21T10:20:36Z</time>
      </trkpt>
      <trkpt lat="46.12635" lon="6.78997">
        <ele>1889.13</ele>
        <time>2022-03-21T10:21:00Z</time>
      </trkpt>
      <trkpt lat="46.12645" lon="6.79017">
        <ele>1892.49</ele>
        <time>2022-03-21T10:21:22Z</time>
      </trkpt>
      <trkpt lat="46.1265" lon="6.79027">
        <ele>1894.42</ele>
        <time>2022-03-21T10:21:33Z</time>
      </trkpt>
      <trkpt lat="46.1265" lon="6.79028">
        <ele>1894.9</ele>
        <time>2022-03-21T10:21:34Z</time>
      </trkpt>
      <trkpt lat="46.12659" lon="6.79051">
        <ele>1896.82</ele>
        <time>2022-03-21T10:22:00Z</time>
      </trkpt>
      <trkpt lat="46.12665" lon="6.79063">
        <ele>1898.74</ele>
        <time>2022-03-21T10:22:17Z</time>
      </trkpt>
      <trkpt lat="46.12668" lon="6.79071">
        <ele>1899.7</ele>
        <time>2022-03-21T10:22:25Z</time>
      </trkpt>
      <trkpt lat="46.12674" lon="6.79091">
        <ele>1902.11</ele>
        <time>2022-03-21T10:22:41Z</time>
      </trkpt>
      <trkpt lat="46.12675" lon="6.79093">
        <ele>1902.59</ele>
        <time>2022-03-21T10:22:43Z</time>
      </trkpt>
      <trkpt lat="46.12686" lon="6.79115">
        <ele>1904.99</ele>
        <time>2022-03-21T10:23:03Z</time>
      </trkpt>
      <trkpt lat="46.12696" lon="6.79131">
        <ele>1907.87</ele>
        <time>2022-03-21T10:23:25Z</time>
      </trkpt>
      <trkpt lat="46.12698" lon="6.79148">
        <ele>1910.76</ele>
        <time>2022-03-21T10:23:58Z</time>
      </trkpt>
      <trkpt lat="46.12699" lon="6.79154">
        <ele>1912.2</ele>
        <time>2022-03-21T10:24:05Z</time>
      </trkpt>
      <trkpt lat="46.127" lon="6.79159">
        <ele>1913.16</ele>
        <time>2022-03-21T10:24:10Z</time>
      </trkpt>
      <trkpt lat="46.12707" lon="6.79177">
        <ele>1916.53</ele>
        <time>2022-03-21T10:24:26Z</time>
      </trkpt>
      <trkpt lat="46.12715" lon="6.79197">
        <ele>1919.41</ele>
        <time>2022-03-21T10:24:44Z</time>
      </trkpt>
      <trkpt lat="46.12716" lon="6.79199">
        <ele>1919.89</ele>
        <time>2022-03-21T10:24:46Z</time>
      </trkpt>
      <trkpt lat="46.12716" lon="6.79203">
        <ele>1921.33</ele>
        <time>2022-03-21T10:24:51Z</time>
      </trkpt>
      <trkpt lat="46.12717" lon="6.79209">
        <ele>1922.29</ele>
        <time>2022-03-21T10:24:56Z</time>
      </trkpt>
      <trkpt lat="46.12718" lon="6.79215">
        <ele>1923.74</ele>
        <time>2022-03-21T10:25:03Z</time>
      </trkpt>
      <trkpt lat="46.12719" lon="6.79216">
        <ele>1924.22</ele>
        <time>2022-03-21T10:25:04Z</time>
      </trkpt>
      <trkpt lat="46.12719" lon="6.79217">
        <ele>1924.22</ele>
        <time>2022-03-21T10:25:05Z</time>
      </trkpt>
      <trkpt lat="46.12728" lon="6.79233">
        <ele>1927.58</ele>
        <time>2022-03-21T10:25:22Z</time>
      </trkpt>
      <trkpt lat="46.1273" lon="6.79234">
        <ele>1928.06</ele>
        <time>2022-03-21T10:25:25Z</time>
      </trkpt>
      <trkpt lat="46.12731" lon="6.79236">
        <ele>1928.54</ele>
        <time>2022-03-21T10:25:27Z</time>
      </trkpt>
      <trkpt lat="46.12739" lon="6.79253">
        <ele>1931.43</ele>
        <time>2022-03-21T10:25:45Z</time>
      </trkpt>
      <trkpt lat="46.12746" lon="6.79272">
        <ele>1934.79</ele>
        <time>2022-03-21T10:26:02Z</time>
      </trkpt>
      <trkpt lat="46.12747" lon="6.79287">
        <ele>1937.67</ele>
        <time>2022-03-21T10:26:16Z</time>
      </trkpt>
      <trkpt lat="46.12748" lon="6.7931">
        <ele>1941.04</ele>
        <time>2022-03-21T10:26:34Z</time>
      </trkpt>
      <trkpt lat="46.1275" lon="6.79332">
        <ele>1943.92</ele>
        <time>2022-03-21T10:26:53Z</time>
      </trkpt>
      <trkpt lat="46.12752" lon="6.79345">
        <ele>1945.36</ele>
        <time>2022-03-21T10:27:04Z</time>
      </trkpt>
      <trkpt lat="46.12764" lon="6.7935">
        <ele>1948.73</ele>
        <time>2022-03-21T10:27:21Z</time>
      </trkpt>
      <trkpt lat="46.12765" lon="6.79349">
        <ele>1949.21</ele>
        <time>2022-03-21T10:27:22Z</time>
      </trkpt>
      <trkpt lat="46.12773" lon="6.7935">
        <ele>1950.65</ele>
        <time>2022-03-21T10:27:32Z</time>
      </trkpt>
      <trkpt lat="46.12774" lon="6.79351">
        <ele>1950.65</ele>
        <time>2022-03-21T10:27:33Z</time>
      </trkpt>
      <trkpt lat="46.12774" lon="6.79352">
        <ele>1951.13</ele>
        <time>2022-03-21T10:27:34Z</time>
      </trkpt>
      <trkpt lat="46.12775" lon="6.79353">
        <ele>1951.13</ele>
        <time>2022-03-21T10:27:35Z</time>
      </trkpt>
      <trkpt lat="46.12776" lon="6.79354">
        <ele>1951.13</ele>
        <time>2022-03-21T10:27:36Z</time>
      </trkpt>
      <trkpt lat="46.12777" lon="6.79355">
        <ele>1951.61</ele>
        <time>2022-03-21T10:27:37Z</time>
      </trkpt>
      <trkpt lat="46.12777" lon="6.79356">
        <ele>1951.61</ele>
        <time>2022-03-21T10:27:38Z</time>
      </trkpt>
      <trkpt lat="46.12778" lon="6.79357">
        <ele>1951.61</ele>
        <time>2022-03-21T10:27:39Z</time>
      </trkpt>
      <trkpt lat="46.12779" lon="6.79361">
        <ele>1952.57</ele>
        <time>2022-03-21T10:27:43Z</time>
      </trkpt>
      <trkpt lat="46.12776" lon="6.79387">
        <ele>1955.46</ele>
        <time>2022-03-21T10:28:04Z</time>
      </trkpt>
      <trkpt lat="46.12773" lon="6.79412">
        <ele>1958.82</ele>
        <time>2022-03-21T10:28:22Z</time>
      </trkpt>
      <trkpt lat="46.12779" lon="6.79436">
        <ele>1960.75</ele>
        <time>2022-03-21T10:28:41Z</time>
      </trkpt>
      <trkpt lat="46.12788" lon="6.79459">
        <ele>1963.15</ele>
        <time>2022-03-21T10:29:01Z</time>
      </trkpt>
      <trkpt lat="46.12799" lon="6.79479">
        <ele>1966.03</ele>
        <time>2022-03-21T10:29:28Z</time>
      </trkpt>
      <trkpt lat="46.12807" lon="6.79498">
        <ele>1968.44</ele>
        <time>2022-03-21T10:29:46Z</time>
      </trkpt>
      <trkpt lat="46.12806" lon="6.79504">
        <ele>1968.92</ele>
        <time>2022-03-21T10:29:51Z</time>
      </trkpt>
      <trkpt lat="46.12807" lon="6.79513">
        <ele>1970.36</ele>
        <time>2022-03-21T10:29:59Z</time>
      </trkpt>
      <trkpt lat="46.12808" lon="6.79518">
        <ele>1971.32</ele>
        <time>2022-03-21T10:30:04Z</time>
      </trkpt>
      <trkpt lat="46.12808" lon="6.7952">
        <ele>1971.8</ele>
        <time>2022-03-21T10:30:06Z</time>
      </trkpt>
      <trkpt lat="46.12808" lon="6.79522">
        <ele>1971.8</ele>
        <time>2022-03-21T10:30:07Z</time>
      </trkpt>
      <trkpt lat="46.12808" lon="6.79523">
        <ele>1971.8</ele>
        <time>2022-03-21T10:30:08Z</time>
      </trkpt>
      <trkpt lat="46.12809" lon="6.79524">
        <ele>1972.28</ele>
        <time>2022-03-21T10:30:09Z</time>
      </trkpt>
      <trkpt lat="46.12814" lon="6.79541">
        <ele>1975.17</ele>
        <time>2022-03-21T10:30:28Z</time>
      </trkpt>
      <trkpt lat="46.12816" lon="6.79543">
        <ele>1975.65</ele>
        <time>2022-03-21T10:30:31Z</time>
      </trkpt>
      <trkpt lat="46.12825" lon="6.79559">
        <ele>1979.01</ele>
        <time>2022-03-21T10:30:49Z</time>
      </trkpt>
      <trkpt lat="46.1283" lon="6.79577">
        <ele>1982.38</ele>
        <time>2022-03-21T10:31:07Z</time>
      </trkpt>
      <trkpt lat="46.12825" lon="6.79592">
        <ele>1985.26</ele>
        <time>2022-03-21T10:31:25Z</time>
      </trkpt>
      <trkpt lat="46.12823" lon="6.79592">
        <ele>1986.22</ele>
        <time>2022-03-21T10:31:28Z</time>
      </trkpt>
      <trkpt lat="46.12812" lon="6.79591">
        <ele>1988.62</ele>
        <time>2022-03-21T10:31:40Z</time>
      </trkpt>
      <trkpt lat="46.12799" lon="6.79593">
        <ele>1991.51</ele>
        <time>2022-03-21T10:31:56Z</time>
      </trkpt>
      <trkpt lat="46.12799" lon="6.79595">
        <ele>1991.99</ele>
        <time>2022-03-21T10:31:58Z</time>
      </trkpt>
      <trkpt lat="46.12795" lon="6.79616">
        <ele>1994.87</ele>
        <time>2022-03-21T10:32:15Z</time>
      </trkpt>
      <trkpt lat="46.12792" lon="6.79619">
        <ele>1995.83</ele>
        <time>2022-03-21T10:32:19Z</time>
      </trkpt>
      <trkpt lat="46.12786" lon="6.79628">
        <ele>1998.72</ele>
        <time>2022-03-21T10:32:35Z</time>
      </trkpt>
      <trkpt lat="46.12787" lon="6.79632">
        <ele>1999.2</ele>
        <time>2022-03-21T10:32:38Z</time>
      </trkpt>
      <trkpt lat="46.12782" lon="6.79651">
        <ele>2002.56</ele>
        <time>2022-03-21T10:32:53Z</time>
      </trkpt>
      <trkpt lat="46.12778" lon="6.79676">
        <ele>2003.52</ele>
        <time>2022-03-21T10:33:12Z</time>
      </trkpt>
      <trkpt lat="46.12778" lon="6.79691">
        <ele>2004.49</ele>
        <time>2022-03-21T10:33:23Z</time>
      </trkpt>
      <trkpt lat="46.12778" lon="6.79693">
        <ele>2004.49</ele>
        <time>2022-03-21T10:33:24Z</time>
      </trkpt>
      <trkpt lat="46.12778" lon="6.79694">
        <ele>2004.49</ele>
        <time>2022-03-21T10:33:25Z</time>
      </trkpt>
      <trkpt lat="46.12779" lon="6.79696">
        <ele>2004.49</ele>
        <time>2022-03-21T10:33:26Z</time>
      </trkpt>
      <trkpt lat="46.12779" lon="6.79697">
        <ele>2004.49</ele>
        <time>2022-03-21T10:33:27Z</time>
      </trkpt>
      <trkpt lat="46.1278" lon="6.79698">
        <ele>2004.49</ele>
        <time>2022-03-21T10:33:28Z</time>
      </trkpt>
      <trkpt lat="46.12781" lon="6.79699">
        <ele>2004.49</ele>
        <time>2022-03-21T10:33:29Z</time>
      </trkpt>
      <trkpt lat="46.12782" lon="6.79701">
        <ele>2004.49</ele>
        <time>2022-03-21T10:33:30Z</time>
      </trkpt>
      <trkpt lat="46.12783" lon="6.79702">
        <ele>2004.49</ele>
        <time>2022-03-21T10:33:31Z</time>
      </trkpt>
      <trkpt lat="46.12784" lon="6.79704">
        <ele>2004.49</ele>
        <time>2022-03-21T10:33:32Z</time>
      </trkpt>
      <trkpt lat="46.12784" lon="6.79705">
        <ele>2004.01</ele>
        <time>2022-03-21T10:33:33Z</time>
      </trkpt>
      <trkpt lat="46.12785" lon="6.79706">
        <ele>2004.01</ele>
        <time>2022-03-21T10:33:34Z</time>
      </trkpt>
      <trkpt lat="46.12786" lon="6.79708">
        <ele>2004.01</ele>
        <time>2022-03-21T10:33:35Z</time>
      </trkpt>
      <trkpt lat="46.12786" lon="6.79709">
        <ele>2004.01</ele>
        <time>2022-03-21T10:33:36Z</time>
      </trkpt>
      <trkpt lat="46.12787" lon="6.7971">
        <ele>2004.01</ele>
        <time>2022-03-21T10:33:37Z</time>
      </trkpt>
      <trkpt lat="46.12788" lon="6.79711">
        <ele>2004.01</ele>
        <time>2022-03-21T10:33:38Z</time>
      </trkpt>
      <trkpt lat="46.12788" lon="6.79712">
        <ele>2004.01</ele>
        <time>2022-03-21T10:33:39Z</time>
      </trkpt>
      <trkpt lat="46.12789" lon="6.79713">
        <ele>2004.01</ele>
        <time>2022-03-21T10:33:40Z</time>
      </trkpt>
      <trkpt lat="46.1279" lon="6.79714">
        <ele>2004.01</ele>
        <time>2022-03-21T10:33:41Z</time>
      </trkpt>
      <trkpt lat="46.1279" lon="6.79715">
        <ele>2004.49</ele>
        <time>2022-03-21T10:33:42Z</time>
      </trkpt>
      <trkpt lat="46.12805" lon="6.79732">
        <ele>2007.37</ele>
        <time>2022-03-21T10:34:04Z</time>
      </trkpt>
      <trkpt lat="46.12815" lon="6.79755">
        <ele>2010.73</ele>
        <time>2022-03-21T10:34:23Z</time>
      </trkpt>
      <trkpt lat="46.12821" lon="6.79771">
        <ele>2013.62</ele>
        <time>2022-03-21T10:34:42Z</time>
      </trkpt>
      <trkpt lat="46.12827" lon="6.79783">
        <ele>2016.02</ele>
        <time>2022-03-21T10:34:55Z</time>
      </trkpt>
      <trkpt lat="46.12844" lon="6.79799">
        <ele>2019.39</ele>
        <time>2022-03-21T10:35:17Z</time>
      </trkpt>
      <trkpt lat="46.12865" lon="6.79807">
        <ele>2021.79</ele>
        <time>2022-03-21T10:35:37Z</time>
      </trkpt>
      <trkpt lat="46.12879" lon="6.7982">
        <ele>2024.67</ele>
        <time>2022-03-21T10:35:55Z</time>
      </trkpt>
      <trkpt lat="46.12885" lon="6.79837">
        <ele>2027.56</ele>
        <time>2022-03-21T10:36:11Z</time>
      </trkpt>
      <trkpt lat="46.1289" lon="6.7985">
        <ele>2029.96</ele>
        <time>2022-03-21T10:36:24Z</time>
      </trkpt>
      <trkpt lat="46.12891" lon="6.79853">
        <ele>2030.92</ele>
        <time>2022-03-21T10:36:27Z</time>
      </trkpt>
      <trkpt lat="46.12899" lon="6.79872">
        <ele>2033.81</ele>
        <time>2022-03-21T10:36:43Z</time>
      </trkpt>
      <trkpt lat="46.12902" lon="6.79886">
        <ele>2037.17</ele>
        <time>2022-03-21T10:36:57Z</time>
      </trkpt>
      <trkpt lat="46.12903" lon="6.79903">
        <ele>2040.05</ele>
        <time>2022-03-21T10:37:12Z</time>
      </trkpt>
      <trkpt lat="46.12901" lon="6.79925">
        <ele>2043.42</ele>
        <time>2022-03-21T10:37:31Z</time>
      </trkpt>
      <trkpt lat="46.12903" lon="6.7994">
        <ele>2046.3</ele>
        <time>2022-03-21T10:37:44Z</time>
      </trkpt>
      <trkpt lat="46.12912" lon="6.79954">
        <ele>2049.19</ele>
        <time>2022-03-21T10:38:01Z</time>
      </trkpt>
      <trkpt lat="46.1293" lon="6.79963">
        <ele>2051.59</ele>
        <time>2022-03-21T10:38:19Z</time>
      </trkpt>
      <trkpt lat="46.12939" lon="6.79982">
        <ele>2054.96</ele>
        <time>2022-03-21T10:38:38Z</time>
      </trkpt>
      <trkpt lat="46.12944" lon="6.80005">
        <ele>2057.84</ele>
        <time>2022-03-21T10:38:59Z</time>
      </trkpt>
      <trkpt lat="46.12949" lon="6.80028">
        <ele>2061.2</ele>
        <time>2022-03-21T10:39:21Z</time>
      </trkpt>
      <trkpt lat="46.12951" lon="6.80046">
        <ele>2064.09</ele>
        <time>2022-03-21T10:39:39Z</time>
      </trkpt>
      <trkpt lat="46.12952" lon="6.80062">
        <ele>2067.45</ele>
        <time>2022-03-21T10:39:55Z</time>
      </trkpt>
      <trkpt lat="46.12953" lon="6.80077">
        <ele>2070.34</ele>
        <time>2022-03-21T10:40:10Z</time>
      </trkpt>
      <trkpt lat="46.12953" lon="6.80093">
        <ele>2073.7</ele>
        <time>2022-03-21T10:40:24Z</time>
      </trkpt>
      <trkpt lat="46.12952" lon="6.80104">
        <ele>2076.59</ele>
        <time>2022-03-21T10:40:37Z</time>
      </trkpt>
      <trkpt lat="46.12961" lon="6.80105">
        <ele>2078.99</ele>
        <time>2022-03-21T10:40:50Z</time>
      </trkpt>
      <trkpt lat="46.12963" lon="6.80105">
        <ele>2079.47</ele>
        <time>2022-03-21T10:40:52Z</time>
      </trkpt>
      <trkpt lat="46.12964" lon="6.80102">
        <ele>2079.95</ele>
        <time>2022-03-21T10:40:56Z</time>
      </trkpt>
      <trkpt lat="46.12967" lon="6.80098">
        <ele>2080.91</ele>
        <time>2022-03-21T10:41:00Z</time>
      </trkpt>
      <trkpt lat="46.12972" lon="6.8009">
        <ele>2082.83</ele>
        <time>2022-03-21T10:41:12Z</time>
      </trkpt>
      <trkpt lat="46.12984" lon="6.80081">
        <ele>2086.2</ele>
        <time>2022-03-21T10:41:30Z</time>
      </trkpt>
      <trkpt lat="46.1299" lon="6.80078">
        <ele>2087.16</ele>
        <time>2022-03-21T10:41:38Z</time>
      </trkpt>
      <trkpt lat="46.12991" lon="6.80077">
        <ele>2087.64</ele>
        <time>2022-03-21T10:41:40Z</time>
      </trkpt>
      <trkpt lat="46.12992" lon="6.80076">
        <ele>2088.12</ele>
        <time>2022-03-21T10:41:42Z</time>
      </trkpt>
      <trkpt lat="46.12993" lon="6.80076">
        <ele>2088.12</ele>
        <time>2022-03-21T10:41:43Z</time>
      </trkpt>
      <trkpt lat="46.12995" lon="6.80081">
        <ele>2089.08</ele>
        <time>2022-03-21T10:41:53Z</time>
      </trkpt>
      <trkpt lat="46.12995" lon="6.80099">
        <ele>2091.97</ele>
        <time>2022-03-21T10:42:09Z</time>
      </trkpt>
      <trkpt lat="46.12998" lon="6.80118">
        <ele>2095.33</ele>
        <time>2022-03-21T10:42:26Z</time>
      </trkpt>
      <trkpt lat="46.12998" lon="6.80136">
        <ele>2098.21</ele>
        <time>2022-03-21T10:42:43Z</time>
      </trkpt>
      <trkpt lat="46.12994" lon="6.80154">
        <ele>2101.58</ele>
        <time>2022-03-21T10:43:00Z</time>
      </trkpt>
      <trkpt lat="46.13001" lon="6.8016">
        <ele>2103.98</ele>
        <time>2022-03-21T10:43:13Z</time>
      </trkpt>
      <trkpt lat="46.13012" lon="6.80172">
        <ele>2106.87</ele>
        <time>2022-03-21T10:43:30Z</time>
      </trkpt>
      <trkpt lat="46.13012" lon="6.8018">
        <ele>2107.83</ele>
        <time>2022-03-21T10:43:36Z</time>
      </trkpt>
      <trkpt lat="46.13017" lon="6.8019">
        <ele>2111.19</ele>
        <time>2022-03-21T10:43:50Z</time>
      </trkpt>
      <trkpt lat="46.13019" lon="6.80191">
        <ele>2111.19</ele>
        <time>2022-03-21T10:43:52Z</time>
      </trkpt>
      <trkpt lat="46.13036" lon="6.802">
        <ele>2114.08</ele>
        <time>2022-03-21T10:44:13Z</time>
      </trkpt>
      <trkpt lat="46.13046" lon="6.80212">
        <ele>2116.96</ele>
        <time>2022-03-21T10:44:30Z</time>
      </trkpt>
      <trkpt lat="46.13055" lon="6.80229">
        <ele>2120.32</ele>
        <time>2022-03-21T10:44:48Z</time>
      </trkpt>
      <trkpt lat="46.1306" lon="6.80234">
        <ele>2121.29</ele>
        <time>2022-03-21T10:45:00Z</time>
      </trkpt>
      <trkpt lat="46.13059" lon="6.80234">
        <ele>2121.29</ele>
        <time>2022-03-21T10:45:01Z</time>
      </trkpt>
      <trkpt lat="46.13058" lon="6.80234">
        <ele>2121.29</ele>
        <time>2022-03-21T10:46:20Z</time>
      </trkpt>
      <trkpt lat="46.13056" lon="6.80234">
        <ele>2121.29</ele>
        <time>2022-03-21T10:47:07Z</time>
      </trkpt>
      <trkpt lat="46.13062" lon="6.80233">
        <ele>2120.81</ele>
        <time>2022-03-21T10:48:35Z</time>
      </trkpt>
      <trkpt lat="46.13064" lon="6.80239">
        <ele>2122.25</ele>
        <time>2022-03-21T10:49:47Z</time>
      </trkpt>
      <trkpt lat="46.13066" lon="6.8024">
        <ele>2122.25</ele>
        <time>2022-03-21T10:49:49Z</time>
      </trkpt>
      <trkpt lat="46.13069" lon="6.80248">
        <ele>2123.69</ele>
        <time>2022-03-21T10:49:56Z</time>
      </trkpt>
      <trkpt lat="46.13067" lon="6.80251">
        <ele>2123.69</ele>
        <time>2022-03-21T10:49:58Z</time>
      </trkpt>
      <trkpt lat="46.13066" lon="6.80252">
        <ele>2123.69</ele>
        <time>2022-03-21T10:49:59Z</time>
      </trkpt>
      <trkpt lat="46.1306" lon="6.80264">
        <ele>2121.77</ele>
        <time>2022-03-21T10:50:09Z</time>
      </trkpt>
      <trkpt lat="46.1306" lon="6.80267">
        <ele>2121.29</ele>
        <time>2022-03-21T10:50:11Z</time>
      </trkpt>
      <trkpt lat="46.13062" lon="6.8027">
        <ele>2120.81</ele>
        <time>2022-03-21T10:50:12Z</time>
      </trkpt>
      <trkpt lat="46.13067" lon="6.8028">
        <ele>2119.36</ele>
        <time>2022-03-21T10:50:14Z</time>
      </trkpt>
      <trkpt lat="46.13071" lon="6.8029">
        <ele>2116</ele>
        <time>2022-03-21T10:50:17Z</time>
      </trkpt>
      <trkpt lat="46.13076" lon="6.80305">
        <ele>2115.52</ele>
        <time>2022-03-21T10:50:26Z</time>
      </trkpt>
      <trkpt lat="46.13076" lon="6.80306">
        <ele>2115.52</ele>
        <time>2022-03-21T10:50:27Z</time>
      </trkpt>
      <trkpt lat="46.13077" lon="6.80308">
        <ele>2116</ele>
        <time>2022-03-21T10:50:28Z</time>
      </trkpt>
      <trkpt lat="46.13078" lon="6.8031">
        <ele>2116</ele>
        <time>2022-03-21T10:50:29Z</time>
      </trkpt>
      <trkpt lat="46.13079" lon="6.80311">
        <ele>2116</ele>
        <time>2022-03-21T10:50:30Z</time>
      </trkpt>
      <trkpt lat="46.13079" lon="6.80313">
        <ele>2116</ele>
        <time>2022-03-21T10:50:31Z</time>
      </trkpt>
      <trkpt lat="46.13095" lon="6.80336">
        <ele>2118.4</ele>
        <time>2022-03-21T10:50:49Z</time>
      </trkpt>
      <trkpt lat="46.13099" lon="6.80342">
        <ele>2119.84</ele>
        <time>2022-03-21T10:50:55Z</time>
      </trkpt>
      <trkpt lat="46.131" lon="6.80344">
        <ele>2120.32</ele>
        <time>2022-03-21T10:50:58Z</time>
      </trkpt>
      <trkpt lat="46.13102" lon="6.80347">
        <ele>2120.81</ele>
        <time>2022-03-21T10:51:01Z</time>
      </trkpt>
      <trkpt lat="46.13116" lon="6.80362">
        <ele>2123.21</ele>
        <time>2022-03-21T10:51:20Z</time>
      </trkpt>
      <trkpt lat="46.13116" lon="6.80363">
        <ele>2123.69</ele>
        <time>2022-03-21T10:51:21Z</time>
      </trkpt>
      <trkpt lat="46.13126" lon="6.80375">
        <ele>2125.61</ele>
        <time>2022-03-21T10:51:35Z</time>
      </trkpt>
      <trkpt lat="46.13124" lon="6.80379">
        <ele>2126.09</ele>
        <time>2022-03-21T10:51:39Z</time>
      </trkpt>
      <trkpt lat="46.1312" lon="6.80388">
        <ele>2128.02</ele>
        <time>2022-03-21T10:51:48Z</time>
      </trkpt>
      <trkpt lat="46.13111" lon="6.80399">
        <ele>2130.9</ele>
        <time>2022-03-21T10:52:06Z</time>
      </trkpt>
      <trkpt lat="46.13115" lon="6.80404">
        <ele>2133.78</ele>
        <time>2022-03-21T10:52:23Z</time>
      </trkpt>
      <trkpt lat="46.13126" lon="6.80407">
        <ele>2137.15</ele>
        <time>2022-03-21T10:52:41Z</time>
      </trkpt>
      <trkpt lat="46.13134" lon="6.80406">
        <ele>2139.55</ele>
        <time>2022-03-21T10:52:55Z</time>
      </trkpt>
      <trkpt lat="46.13146" lon="6.8041">
        <ele>2142.44</ele>
        <time>2022-03-21T10:53:12Z</time>
      </trkpt>
      <trkpt lat="46.1315" lon="6.80411">
        <ele>2143.4</ele>
        <time>2022-03-21T10:53:16Z</time>
      </trkpt>
      <trkpt lat="46.13152" lon="6.80412">
        <ele>2143.4</ele>
        <time>2022-03-21T10:53:17Z</time>
      </trkpt>
      <trkpt lat="46.13152" lon="6.80412">
        <ele>2143.88</ele>
        <time>2022-03-21T10:53:18Z</time>
      </trkpt>
      <trkpt lat="46.13153" lon="6.80413">
        <ele>2143.88</ele>
        <time>2022-03-21T10:53:19Z</time>
      </trkpt>
      <trkpt lat="46.13164" lon="6.80419">
        <ele>2146.76</ele>
        <time>2022-03-21T10:53:34Z</time>
      </trkpt>
      <trkpt lat="46.13175" lon="6.80427">
        <ele>2150.13</ele>
        <time>2022-03-21T10:53:52Z</time>
      </trkpt>
      <trkpt lat="46.13184" lon="6.80435">
        <ele>2153.01</ele>
        <time>2022-03-21T10:54:10Z</time>
      </trkpt>
      <trkpt lat="46.13189" lon="6.80437">
        <ele>2154.45</ele>
        <time>2022-03-21T10:54:18Z</time>
      </trkpt>
      <trkpt lat="46.1319" lon="6.80437">
        <ele>2154.93</ele>
        <time>2022-03-21T10:54:20Z</time>
      </trkpt>
      <trkpt lat="46.13196" lon="6.80435">
        <ele>2157.82</ele>
        <time>2022-03-21T10:54:36Z</time>
      </trkpt>
      <trkpt lat="46.1319" lon="6.80446">
        <ele>2159.74</ele>
        <time>2022-03-21T10:54:50Z</time>
      </trkpt>
      <trkpt lat="46.13182" lon="6.80451">
        <ele>2162.62</ele>
        <time>2022-03-21T10:55:08Z</time>
      </trkpt>
      <trkpt lat="46.13189" lon="6.80457">
        <ele>2165.03</ele>
        <time>2022-03-21T10:55:20Z</time>
      </trkpt>
      <trkpt lat="46.1319" lon="6.80459">
        <ele>2165.03</ele>
        <time>2022-03-21T10:55:22Z</time>
      </trkpt>
      <trkpt lat="46.13201" lon="6.80468">
        <ele>2168.39</ele>
        <time>2022-03-21T10:55:41Z</time>
      </trkpt>
      <trkpt lat="46.13205" lon="6.80472">
        <ele>2169.35</ele>
        <time>2022-03-21T10:55:47Z</time>
      </trkpt>
      <trkpt lat="46.13206" lon="6.80473">
        <ele>2169.83</ele>
        <time>2022-03-21T10:55:49Z</time>
      </trkpt>
      <trkpt lat="46.13216" lon="6.8049">
        <ele>2172.72</ele>
        <time>2022-03-21T10:56:10Z</time>
      </trkpt>
      <trkpt lat="46.13226" lon="6.80512">
        <ele>2174.64</ele>
        <time>2022-03-21T10:56:42Z</time>
      </trkpt>
      <trkpt lat="46.13239" lon="6.80531">
        <ele>2175.6</ele>
        <time>2022-03-21T10:57:03Z</time>
      </trkpt>
      <trkpt lat="46.13253" lon="6.80547">
        <ele>2176.56</ele>
        <time>2022-03-21T10:57:20Z</time>
      </trkpt>
      <trkpt lat="46.1327" lon="6.8056">
        <ele>2176.56</ele>
        <time>2022-03-21T10:57:35Z</time>
      </trkpt>
      <trkpt lat="46.13284" lon="6.80579">
        <ele>2179.45</ele>
        <time>2022-03-21T10:57:55Z</time>
      </trkpt>
      <trkpt lat="46.1329" lon="6.80594">
        <ele>2182.33</ele>
        <time>2022-03-21T10:58:11Z</time>
      </trkpt>
      <trkpt lat="46.13291" lon="6.80595">
        <ele>2182.81</ele>
        <time>2022-03-21T10:58:12Z</time>
      </trkpt>
      <trkpt lat="46.13291" lon="6.80596">
        <ele>2182.81</ele>
        <time>2022-03-21T10:58:13Z</time>
      </trkpt>
      <trkpt lat="46.13295" lon="6.80604">
        <ele>2184.73</ele>
        <time>2022-03-21T10:58:22Z</time>
      </trkpt>
      <trkpt lat="46.13296" lon="6.80607">
        <ele>2185.21</ele>
        <time>2022-03-21T10:58:24Z</time>
      </trkpt>
      <trkpt lat="46.13296" lon="6.80608">
        <ele>2185.21</ele>
        <time>2022-03-21T10:58:25Z</time>
      </trkpt>
      <trkpt lat="46.13303" lon="6.8063">
        <ele>2188.1</ele>
        <time>2022-03-21T10:58:46Z</time>
      </trkpt>
      <trkpt lat="46.13311" lon="6.8064">
        <ele>2190.98</ele>
        <time>2022-03-21T10:59:03Z</time>
      </trkpt>
      <trkpt lat="46.1332" lon="6.80647">
        <ele>2193.87</ele>
        <time>2022-03-21T10:59:16Z</time>
      </trkpt>
      <trkpt lat="46.13325" lon="6.80663">
        <ele>2197.23</ele>
        <time>2022-03-21T10:59:33Z</time>
      </trkpt>
      <trkpt lat="46.1333" lon="6.80659">
        <ele>2200.11</ele>
        <time>2022-03-21T10:59:50Z</time>
      </trkpt>
      <trkpt lat="46.13338" lon="6.80661">
        <ele>2202.52</ele>
        <time>2022-03-21T11:00:02Z</time>
      </trkpt>
      <trkpt lat="46.1334" lon="6.80661">
        <ele>2203</ele>
        <time>2022-03-21T11:00:06Z</time>
      </trkpt>
      <trkpt lat="46.13349" lon="6.80659">
        <ele>2205.4</ele>
        <time>2022-03-21T11:00:20Z</time>
      </trkpt>
      <trkpt lat="46.13359" lon="6.80657">
        <ele>2208.29</ele>
        <time>2022-03-21T11:00:36Z</time>
      </trkpt>
      <trkpt lat="46.1336" lon="6.80657">
        <ele>2208.77</ele>
        <time>2022-03-21T11:00:38Z</time>
      </trkpt>
      <trkpt lat="46.13361" lon="6.80667">
        <ele>2211.65</ele>
        <time>2022-03-21T11:01:00Z</time>
      </trkpt>
      <trkpt lat="46.13357" lon="6.8068">
        <ele>2215.01</ele>
        <time>2022-03-21T11:01:15Z</time>
      </trkpt>
      <trkpt lat="46.13354" lon="6.80685">
        <ele>2215.98</ele>
        <time>2022-03-21T11:01:21Z</time>
      </trkpt>
      <trkpt lat="46.13356" lon="6.80684">
        <ele>2217.9</ele>
        <time>2022-03-21T11:01:32Z</time>
      </trkpt>
      <trkpt lat="46.13369" lon="6.80682">
        <ele>2220.78</ele>
        <time>2022-03-21T11:01:51Z</time>
      </trkpt>
      <trkpt lat="46.13381" lon="6.80678">
        <ele>2224.15</ele>
        <time>2022-03-21T11:02:08Z</time>
      </trkpt>
      <trkpt lat="46.13382" lon="6.80677">
        <ele>2224.63</ele>
        <time>2022-03-21T11:02:10Z</time>
      </trkpt>
      <trkpt lat="46.13384" lon="6.80679">
        <ele>2224.63</ele>
        <time>2022-03-21T11:02:12Z</time>
      </trkpt>
      <trkpt lat="46.13384" lon="6.8069">
        <ele>2227.99</ele>
        <time>2022-03-21T11:02:32Z</time>
      </trkpt>
      <trkpt lat="46.13388" lon="6.80688">
        <ele>2228.95</ele>
        <time>2022-03-21T11:02:38Z</time>
      </trkpt>
      <trkpt lat="46.13397" lon="6.80681">
        <ele>2231.84</ele>
        <time>2022-03-21T11:02:56Z</time>
      </trkpt>
      <trkpt lat="46.13396" lon="6.80688">
        <ele>2232.32</ele>
        <time>2022-03-21T11:03:04Z</time>
      </trkpt>
      <trkpt lat="46.13392" lon="6.80706">
        <ele>2235.2</ele>
        <time>2022-03-21T11:03:20Z</time>
      </trkpt>
      <trkpt lat="46.13384" lon="6.80718">
        <ele>2238.09</ele>
        <time>2022-03-21T11:03:37Z</time>
      </trkpt>
      <trkpt lat="46.13381" lon="6.8073">
        <ele>2241.45</ele>
        <time>2022-03-21T11:03:52Z</time>
      </trkpt>
      <trkpt lat="46.13382" lon="6.80733">
        <ele>2241.93</ele>
        <time>2022-03-21T11:03:56Z</time>
      </trkpt>
      <trkpt lat="46.1339" lon="6.8075">
        <ele>2245.3</ele>
        <time>2022-03-21T11:04:17Z</time>
      </trkpt>
      <trkpt lat="46.13395" lon="6.8076">
        <ele>2248.18</ele>
        <time>2022-03-21T11:04:32Z</time>
      </trkpt>
      <trkpt lat="46.134" lon="6.80769">
        <ele>2251.54</ele>
        <time>2022-03-21T11:04:47Z</time>
      </trkpt>
      <trkpt lat="46.13408" lon="6.80761">
        <ele>2254.43</ele>
        <time>2022-03-21T11:05:04Z</time>
      </trkpt>
      <trkpt lat="46.13415" lon="6.80758">
        <ele>2257.79</ele>
        <time>2022-03-21T11:05:22Z</time>
      </trkpt>
      <trkpt lat="46.13421" lon="6.80775">
        <ele>2260.68</ele>
        <time>2022-03-21T11:05:40Z</time>
      </trkpt>
      <trkpt lat="46.13425" lon="6.8078">
        <ele>2264.04</ele>
        <time>2022-03-21T11:05:56Z</time>
      </trkpt>
      <trkpt lat="46.13428" lon="6.80773">
        <ele>2265.96</ele>
        <time>2022-03-21T11:06:05Z</time>
      </trkpt>
      <trkpt lat="46.13431" lon="6.80765">
        <ele>2267.41</ele>
        <time>2022-03-21T11:06:15Z</time>
      </trkpt>
      <trkpt lat="46.13436" lon="6.80769">
        <ele>2268.85</ele>
        <time>2022-03-21T11:06:27Z</time>
      </trkpt>
      <trkpt lat="46.13439" lon="6.80789">
        <ele>2271.73</ele>
        <time>2022-03-21T11:06:47Z</time>
      </trkpt>
      <trkpt lat="46.13441" lon="6.80805">
        <ele>2274.62</ele>
        <time>2022-03-21T11:07:05Z</time>
      </trkpt>
      <trkpt lat="46.13444" lon="6.80822">
        <ele>2277.98</ele>
        <time>2022-03-21T11:07:22Z</time>
      </trkpt>
      <trkpt lat="46.13443" lon="6.80839">
        <ele>2280.87</ele>
        <time>2022-03-21T11:07:41Z</time>
      </trkpt>
      <trkpt lat="46.13446" lon="6.80859">
        <ele>2284.23</ele>
        <time>2022-03-21T11:08:01Z</time>
      </trkpt>
      <trkpt lat="46.13446" lon="6.80876">
        <ele>2287.59</ele>
        <time>2022-03-21T11:08:20Z</time>
      </trkpt>
      <trkpt lat="46.13447" lon="6.80882">
        <ele>2288.56</ele>
        <time>2022-03-21T11:08:26Z</time>
      </trkpt>
      <trkpt lat="46.13449" lon="6.80896">
        <ele>2291.44</ele>
        <time>2022-03-21T11:08:42Z</time>
      </trkpt>
      <trkpt lat="46.13451" lon="6.80912">
        <ele>2294.8</ele>
        <time>2022-03-21T11:09:00Z</time>
      </trkpt>
      <trkpt lat="46.13449" lon="6.80927">
        <ele>2297.69</ele>
        <time>2022-03-21T11:09:17Z</time>
      </trkpt>
      <trkpt lat="46.13442" lon="6.80935">
        <ele>2300.57</ele>
        <time>2022-03-21T11:09:33Z</time>
      </trkpt>
      <trkpt lat="46.13439" lon="6.80946">
        <ele>2303.94</ele>
        <time>2022-03-21T11:09:48Z</time>
      </trkpt>
      <trkpt lat="46.13439" lon="6.80949">
        <ele>2303.94</ele>
        <time>2022-03-21T11:09:51Z</time>
      </trkpt>
      <trkpt lat="46.13438" lon="6.80951">
        <ele>2303.94</ele>
        <time>2022-03-21T11:09:53Z</time>
      </trkpt>
      <trkpt lat="46.13438" lon="6.80953">
        <ele>2303.94</ele>
        <time>2022-03-21T11:09:55Z</time>
      </trkpt>
      <trkpt lat="46.13437" lon="6.80954">
        <ele>2303.94</ele>
        <time>2022-03-21T11:09:56Z</time>
      </trkpt>
      <trkpt lat="46.13437" lon="6.80956">
        <ele>2303.94</ele>
        <time>2022-03-21T11:09:57Z</time>
      </trkpt>
      <trkpt lat="46.13436" lon="6.80958">
        <ele>2303.94</ele>
        <time>2022-03-21T11:09:58Z</time>
      </trkpt>
      <trkpt lat="46.13435" lon="6.8096">
        <ele>2303.94</ele>
        <time>2022-03-21T11:09:59Z</time>
      </trkpt>
      <trkpt lat="46.13433" lon="6.80978">
        <ele>2303.46</ele>
        <time>2022-03-21T11:10:13Z</time>
      </trkpt>
      <trkpt lat="46.13433" lon="6.80979">
        <ele>2303.46</ele>
        <time>2022-03-21T11:10:14Z</time>
      </trkpt>
      <trkpt lat="46.13433" lon="6.80981">
        <ele>2303.46</ele>
        <time>2022-03-21T11:10:15Z</time>
      </trkpt>
      <trkpt lat="46.13433" lon="6.80982">
        <ele>2303.46</ele>
        <time>2022-03-21T11:10:16Z</time>
      </trkpt>
      <trkpt lat="46.13433" lon="6.80983">
        <ele>2303.94</ele>
        <time>2022-03-21T11:10:17Z</time>
      </trkpt>
      <trkpt lat="46.13433" lon="6.80984">
        <ele>2303.94</ele>
        <time>2022-03-21T11:10:18Z</time>
      </trkpt>
      <trkpt lat="46.13433" lon="6.80998">
        <ele>2303.94</ele>
        <time>2022-03-21T11:10:31Z</time>
      </trkpt>
      <trkpt lat="46.13434" lon="6.81">
        <ele>2303.46</ele>
        <time>2022-03-21T11:10:32Z</time>
      </trkpt>
      <trkpt lat="46.13435" lon="6.81001">
        <ele>2303.46</ele>
        <time>2022-03-21T11:10:33Z</time>
      </trkpt>
      <trkpt lat="46.13437" lon="6.81004">
        <ele>2302.98</ele>
        <time>2022-03-21T11:10:36Z</time>
      </trkpt>
      <trkpt lat="46.13438" lon="6.81006">
        <ele>2302.49</ele>
        <time>2022-03-21T11:10:37Z</time>
      </trkpt>
      <trkpt lat="46.13439" lon="6.81007">
        <ele>2302.01</ele>
        <time>2022-03-21T11:10:38Z</time>
      </trkpt>
      <trkpt lat="46.13445" lon="6.81024">
        <ele>2299.61</ele>
        <time>2022-03-21T11:10:42Z</time>
      </trkpt>
      <trkpt lat="46.13446" lon="6.81031">
        <ele>2298.17</ele>
        <time>2022-03-21T11:10:43Z</time>
      </trkpt>
      <trkpt lat="46.13446" lon="6.81036">
        <ele>2296.73</ele>
        <time>2022-03-21T11:10:44Z</time>
      </trkpt>
      <trkpt lat="46.13445" lon="6.8104">
        <ele>2295.77</ele>
        <time>2022-03-21T11:10:45Z</time>
      </trkpt>
      <trkpt lat="46.13445" lon="6.81043">
        <ele>2295.28</ele>
        <time>2022-03-21T11:10:46Z</time>
      </trkpt>
      <trkpt lat="46.13445" lon="6.81045">
        <ele>2295.28</ele>
        <time>2022-03-21T11:10:47Z</time>
      </trkpt>
      <trkpt lat="46.13444" lon="6.81051">
        <ele>2294.8</ele>
        <time>2022-03-21T11:10:50Z</time>
      </trkpt>
      <trkpt lat="46.13443" lon="6.81054">
        <ele>2294.8</ele>
        <time>2022-03-21T11:10:51Z</time>
      </trkpt>
      <trkpt lat="46.13443" lon="6.81056">
        <ele>2294.32</ele>
        <time>2022-03-21T11:10:52Z</time>
      </trkpt>
      <trkpt lat="46.13443" lon="6.81058">
        <ele>2294.32</ele>
        <time>2022-03-21T11:10:53Z</time>
      </trkpt>
      <trkpt lat="46.13442" lon="6.81061">
        <ele>2294.32</ele>
        <time>2022-03-21T11:10:54Z</time>
      </trkpt>
      <trkpt lat="46.13443" lon="6.81063">
        <ele>2293.84</ele>
        <time>2022-03-21T11:10:55Z</time>
      </trkpt>
      <trkpt lat="46.13443" lon="6.81065">
        <ele>2293.84</ele>
        <time>2022-03-21T11:10:56Z</time>
      </trkpt>
      <trkpt lat="46.13443" lon="6.81067">
        <ele>2293.84</ele>
        <time>2022-03-21T11:10:57Z</time>
      </trkpt>
      <trkpt lat="46.13443" lon="6.81069">
        <ele>2293.84</ele>
        <time>2022-03-21T11:10:58Z</time>
      </trkpt>
      <trkpt lat="46.13443" lon="6.8107">
        <ele>2293.36</ele>
        <time>2022-03-21T11:10:59Z</time>
      </trkpt>
      <trkpt lat="46.13443" lon="6.81074">
        <ele>2293.36</ele>
        <time>2022-03-21T11:11:01Z</time>
      </trkpt>
      <trkpt lat="46.13442" lon="6.81076">
        <ele>2293.36</ele>
        <time>2022-03-21T11:11:02Z</time>
      </trkpt>
      <trkpt lat="46.13442" lon="6.81078">
        <ele>2293.36</ele>
        <time>2022-03-21T11:11:03Z</time>
      </trkpt>
      <trkpt lat="46.13441" lon="6.81081">
        <ele>2293.36</ele>
        <time>2022-03-21T11:11:05Z</time>
      </trkpt>
      <trkpt lat="46.13441" lon="6.8111">
        <ele>2290</ele>
        <time>2022-03-21T11:11:19Z</time>
      </trkpt>
      <trkpt lat="46.13435" lon="6.81129">
        <ele>2286.63</ele>
        <time>2022-03-21T11:11:27Z</time>
      </trkpt>
      <trkpt lat="46.13429" lon="6.8114">
        <ele>2284.71</ele>
        <time>2022-03-21T11:11:36Z</time>
      </trkpt>
      <trkpt lat="46.13428" lon="6.8114">
        <ele>2284.71</ele>
        <time>2022-03-21T11:11:37Z</time>
      </trkpt>
      <trkpt lat="46.1341" lon="6.81152">
        <ele>2283.27</ele>
        <time>2022-03-21T11:11:53Z</time>
      </trkpt>
      <trkpt lat="46.13392" lon="6.81166">
        <ele>2279.42</ele>
        <time>2022-03-21T11:12:02Z</time>
      </trkpt>
      <trkpt lat="46.13386" lon="6.81175">
        <ele>2276.54</ele>
        <time>2022-03-21T11:12:05Z</time>
      </trkpt>
      <trkpt lat="46.13377" lon="6.81198">
        <ele>2273.17</ele>
        <time>2022-03-21T11:12:10Z</time>
      </trkpt>
      <trkpt lat="46.13371" lon="6.81216">
        <ele>2269.81</ele>
        <time>2022-03-21T11:12:13Z</time>
      </trkpt>
      <trkpt lat="46.13368" lon="6.81226">
        <ele>2266.93</ele>
        <time>2022-03-21T11:12:15Z</time>
      </trkpt>
      <trkpt lat="46.13368" lon="6.81229">
        <ele>2265.96</ele>
        <time>2022-03-21T11:12:16Z</time>
      </trkpt>
      <trkpt lat="46.13368" lon="6.81231">
        <ele>2265.96</ele>
        <time>2022-03-21T11:12:17Z</time>
      </trkpt>
      <trkpt lat="46.13368" lon="6.81233">
        <ele>2265.96</ele>
        <time>2022-03-21T11:12:18Z</time>
      </trkpt>
      <trkpt lat="46.13367" lon="6.81235">
        <ele>2265.96</ele>
        <time>2022-03-21T11:12:19Z</time>
      </trkpt>
      <trkpt lat="46.13367" lon="6.81237">
        <ele>2265.96</ele>
        <time>2022-03-21T11:12:20Z</time>
      </trkpt>
      <trkpt lat="46.13366" lon="6.81254">
        <ele>2265.96</ele>
        <time>2022-03-21T11:12:29Z</time>
      </trkpt>
      <trkpt lat="46.13366" lon="6.81256">
        <ele>2265.96</ele>
        <time>2022-03-21T11:12:30Z</time>
      </trkpt>
      <trkpt lat="46.13366" lon="6.81257">
        <ele>2265.96</ele>
        <time>2022-03-21T11:12:31Z</time>
      </trkpt>
      <trkpt lat="46.13366" lon="6.81259">
        <ele>2265.96</ele>
        <time>2022-03-21T11:12:32Z</time>
      </trkpt>
      <trkpt lat="46.13366" lon="6.81261">
        <ele>2265.96</ele>
        <time>2022-03-21T11:12:33Z</time>
      </trkpt>
      <trkpt lat="46.13366" lon="6.81262">
        <ele>2265.96</ele>
        <time>2022-03-21T11:12:34Z</time>
      </trkpt>
      <trkpt lat="46.13366" lon="6.81264">
        <ele>2265.96</ele>
        <time>2022-03-21T11:12:35Z</time>
      </trkpt>
      <trkpt lat="46.13366" lon="6.81265">
        <ele>2266.45</ele>
        <time>2022-03-21T11:12:36Z</time>
      </trkpt>
      <trkpt lat="46.13366" lon="6.81267">
        <ele>2266.45</ele>
        <time>2022-03-21T11:12:37Z</time>
      </trkpt>
      <trkpt lat="46.13366" lon="6.81269">
        <ele>2266.45</ele>
        <time>2022-03-21T11:12:38Z</time>
      </trkpt>
      <trkpt lat="46.13366" lon="6.8127">
        <ele>2265.96</ele>
        <time>2022-03-21T11:12:39Z</time>
      </trkpt>
      <trkpt lat="46.13366" lon="6.81272">
        <ele>2265.96</ele>
        <time>2022-03-21T11:12:40Z</time>
      </trkpt>
      <trkpt lat="46.13374" lon="6.81298">
        <ele>2267.41</ele>
        <time>2022-03-21T11:12:58Z</time>
      </trkpt>
      <trkpt lat="46.13374" lon="6.81299">
        <ele>2267.89</ele>
        <time>2022-03-21T11:12:59Z</time>
      </trkpt>
      <trkpt lat="46.13375" lon="6.813">
        <ele>2267.89</ele>
        <time>2022-03-21T11:13:00Z</time>
      </trkpt>
      <trkpt lat="46.13376" lon="6.81302">
        <ele>2268.37</ele>
        <time>2022-03-21T11:13:01Z</time>
      </trkpt>
      <trkpt lat="46.13376" lon="6.81303">
        <ele>2268.37</ele>
        <time>2022-03-21T11:13:02Z</time>
      </trkpt>
      <trkpt lat="46.13383" lon="6.8133">
        <ele>2271.73</ele>
        <time>2022-03-21T11:13:22Z</time>
      </trkpt>
      <trkpt lat="46.13383" lon="6.81332">
        <ele>2271.73</ele>
        <time>2022-03-21T11:13:23Z</time>
      </trkpt>
      <trkpt lat="46.13383" lon="6.81334">
        <ele>2271.73</ele>
        <time>2022-03-21T11:13:24Z</time>
      </trkpt>
      <trkpt lat="46.13384" lon="6.81336">
        <ele>2271.73</ele>
        <time>2022-03-21T11:13:25Z</time>
      </trkpt>
      <trkpt lat="46.13384" lon="6.81337">
        <ele>2271.73</ele>
        <time>2022-03-21T11:13:26Z</time>
      </trkpt>
      <trkpt lat="46.13384" lon="6.81339">
        <ele>2272.21</ele>
        <time>2022-03-21T11:13:27Z</time>
      </trkpt>
      <trkpt lat="46.13384" lon="6.81341">
        <ele>2272.21</ele>
        <time>2022-03-21T11:13:28Z</time>
      </trkpt>
      <trkpt lat="46.13385" lon="6.81342">
        <ele>2272.21</ele>
        <time>2022-03-21T11:13:29Z</time>
      </trkpt>
      <trkpt lat="46.13385" lon="6.81343">
        <ele>2272.21</ele>
        <time>2022-03-21T11:13:30Z</time>
      </trkpt>
      <trkpt lat="46.13385" lon="6.81344">
        <ele>2272.21</ele>
        <time>2022-03-21T11:13:31Z</time>
      </trkpt>
      <trkpt lat="46.13386" lon="6.81346">
        <ele>2272.21</ele>
        <time>2022-03-21T11:13:32Z</time>
      </trkpt>
      <trkpt lat="46.13386" lon="6.81348">
        <ele>2272.21</ele>
        <time>2022-03-21T11:13:33Z</time>
      </trkpt>
      <trkpt lat="46.13387" lon="6.81349">
        <ele>2272.21</ele>
        <time>2022-03-21T11:13:34Z</time>
      </trkpt>
      <trkpt lat="46.13388" lon="6.81351">
        <ele>2272.21</ele>
        <time>2022-03-21T11:13:35Z</time>
      </trkpt>
      <trkpt lat="46.13388" lon="6.81353">
        <ele>2272.21</ele>
        <time>2022-03-21T11:13:36Z</time>
      </trkpt>
      <trkpt lat="46.13389" lon="6.81355">
        <ele>2271.73</ele>
        <time>2022-03-21T11:13:37Z</time>
      </trkpt>
      <trkpt lat="46.1339" lon="6.81356">
        <ele>2271.73</ele>
        <time>2022-03-21T11:13:38Z</time>
      </trkpt>
      <trkpt lat="46.13401" lon="6.81379">
        <ele>2273.66</ele>
        <time>2022-03-21T11:13:58Z</time>
      </trkpt>
      <trkpt lat="46.13402" lon="6.81384">
        <ele>2274.14</ele>
        <time>2022-03-21T11:14:03Z</time>
      </trkpt>
      <trkpt lat="46.13408" lon="6.81402">
        <ele>2273.17</ele>
        <time>2022-03-21T11:15:24Z</time>
      </trkpt>
      <trkpt lat="46.13416" lon="6.81423">
        <ele>2269.81</ele>
        <time>2022-03-21T11:15:29Z</time>
      </trkpt>
      <trkpt lat="46.13423" lon="6.81438">
        <ele>2266.45</ele>
        <time>2022-03-21T11:15:33Z</time>
      </trkpt>
      <trkpt lat="46.13433" lon="6.81458">
        <ele>2265.48</ele>
        <time>2022-03-21T11:15:52Z</time>
      </trkpt>
      <trkpt lat="46.13433" lon="6.81459">
        <ele>2265.48</ele>
        <time>2022-03-21T11:15:53Z</time>
      </trkpt>
      <trkpt lat="46.13434" lon="6.8146">
        <ele>2265.96</ele>
        <time>2022-03-21T11:15:54Z</time>
      </trkpt>
      <trkpt lat="46.13435" lon="6.81461">
        <ele>2265.96</ele>
        <time>2022-03-21T11:15:55Z</time>
      </trkpt>
      <trkpt lat="46.13435" lon="6.81462">
        <ele>2265.96</ele>
        <time>2022-03-21T11:15:56Z</time>
      </trkpt>
      <trkpt lat="46.13444" lon="6.81479">
        <ele>2269.33</ele>
        <time>2022-03-21T11:16:14Z</time>
      </trkpt>
      <trkpt lat="46.13449" lon="6.81504">
        <ele>2272.21</ele>
        <time>2022-03-21T11:16:36Z</time>
      </trkpt>
      <trkpt lat="46.13452" lon="6.81514">
        <ele>2273.66</ele>
        <time>2022-03-21T11:16:45Z</time>
      </trkpt>
      <trkpt lat="46.13453" lon="6.81518">
        <ele>2274.14</ele>
        <time>2022-03-21T11:16:48Z</time>
      </trkpt>
      <trkpt lat="46.1346" lon="6.81539">
        <ele>2277.5</ele>
        <time>2022-03-21T11:17:08Z</time>
      </trkpt>
      <trkpt lat="46.13462" lon="6.81549">
        <ele>2278.94</ele>
        <time>2022-03-21T11:17:17Z</time>
      </trkpt>
      <trkpt lat="46.13463" lon="6.81552">
        <ele>2279.42</ele>
        <time>2022-03-21T11:17:20Z</time>
      </trkpt>
      <trkpt lat="46.13464" lon="6.81554">
        <ele>2279.42</ele>
        <time>2022-03-21T11:17:22Z</time>
      </trkpt>
      <trkpt lat="46.13454" lon="6.81552">
        <ele>2282.79</ele>
        <time>2022-03-21T11:17:44Z</time>
      </trkpt>
      <trkpt lat="46.13443" lon="6.81549">
        <ele>2285.67</ele>
        <time>2022-03-21T11:18:01Z</time>
      </trkpt>
      <trkpt lat="46.13439" lon="6.81547">
        <ele>2286.63</ele>
        <time>2022-03-21T11:18:07Z</time>
      </trkpt>
      <trkpt lat="46.13438" lon="6.81553">
        <ele>2289.04</ele>
        <time>2022-03-21T11:18:19Z</time>
      </trkpt>
      <trkpt lat="46.13439" lon="6.81555">
        <ele>2289.04</ele>
        <time>2022-03-21T11:18:21Z</time>
      </trkpt>
      <trkpt lat="46.13444" lon="6.81565">
        <ele>2290.48</ele>
        <time>2022-03-21T11:18:33Z</time>
      </trkpt>
      <trkpt lat="46.1345" lon="6.81582">
        <ele>2293.36</ele>
        <time>2022-03-21T11:18:53Z</time>
      </trkpt>
      <trkpt lat="46.13454" lon="6.8159">
        <ele>2294.8</ele>
        <time>2022-03-21T11:19:01Z</time>
      </trkpt>
      <trkpt lat="46.13463" lon="6.81609">
        <ele>2297.69</ele>
        <time>2022-03-21T11:19:22Z</time>
      </trkpt>
      <trkpt lat="46.13467" lon="6.8162">
        <ele>2299.61</ele>
        <time>2022-03-21T11:19:34Z</time>
      </trkpt>
      <trkpt lat="46.13467" lon="6.8163">
        <ele>2302.98</ele>
        <time>2022-03-21T11:19:57Z</time>
      </trkpt>
      <trkpt lat="46.13467" lon="6.81639">
        <ele>2305.86</ele>
        <time>2022-03-21T11:20:16Z</time>
      </trkpt>
      <trkpt lat="46.13467" lon="6.81641">
        <ele>2306.34</ele>
        <time>2022-03-21T11:20:18Z</time>
      </trkpt>
      <trkpt lat="46.13471" lon="6.81649">
        <ele>2307.3</ele>
        <time>2022-03-21T11:20:27Z</time>
      </trkpt>
      <trkpt lat="46.13472" lon="6.81652">
        <ele>2307.78</ele>
        <time>2022-03-21T11:20:30Z</time>
      </trkpt>
      <trkpt lat="46.13478" lon="6.8167">
        <ele>2308.74</ele>
        <time>2022-03-21T11:20:48Z</time>
      </trkpt>
      <trkpt lat="46.13476" lon="6.81675">
        <ele>2309.7</ele>
        <time>2022-03-21T11:20:53Z</time>
      </trkpt>
      <trkpt lat="46.13474" lon="6.81675">
        <ele>2309.7</ele>
        <time>2022-03-21T11:20:55Z</time>
      </trkpt>
      <trkpt lat="46.13474" lon="6.81676">
        <ele>2309.7</ele>
        <time>2022-03-21T11:20:56Z</time>
      </trkpt>
      <trkpt lat="46.13473" lon="6.81677">
        <ele>2309.7</ele>
        <time>2022-03-21T11:20:57Z</time>
      </trkpt>
      <trkpt lat="46.1347" lon="6.817">
        <ele>2312.59</ele>
        <time>2022-03-21T11:21:17Z</time>
      </trkpt>
      <trkpt lat="46.13475" lon="6.81725">
        <ele>2315.47</ele>
        <time>2022-03-21T11:21:40Z</time>
      </trkpt>
      <trkpt lat="46.13481" lon="6.81737">
        <ele>2317.4</ele>
        <time>2022-03-21T11:21:53Z</time>
      </trkpt>
      <trkpt lat="46.13487" lon="6.81749">
        <ele>2319.32</ele>
        <time>2022-03-21T11:22:11Z</time>
      </trkpt>
      <trkpt lat="46.13492" lon="6.8177">
        <ele>2321.72</ele>
        <time>2022-03-21T11:22:43Z</time>
      </trkpt>
      <trkpt lat="46.13487" lon="6.8179">
        <ele>2324.61</ele>
        <time>2022-03-21T11:23:02Z</time>
      </trkpt>
      <trkpt lat="46.13488" lon="6.81806">
        <ele>2325.57</ele>
        <time>2022-03-21T11:23:16Z</time>
      </trkpt>
      <trkpt lat="46.13487" lon="6.81824">
        <ele>2328.93</ele>
        <time>2022-03-21T11:23:49Z</time>
      </trkpt>
      <trkpt lat="46.1348" lon="6.81823">
        <ele>2331.81</ele>
        <time>2022-03-21T11:24:13Z</time>
      </trkpt>
      <trkpt lat="46.13474" lon="6.81814">
        <ele>2334.7</ele>
        <time>2022-03-21T11:24:31Z</time>
      </trkpt>
      <trkpt lat="46.1347" lon="6.81831">
        <ele>2338.06</ele>
        <time>2022-03-21T11:25:11Z</time>
      </trkpt>
      <trkpt lat="46.13469" lon="6.81836">
        <ele>2338.54</ele>
        <time>2022-03-21T11:25:17Z</time>
      </trkpt>
      <trkpt lat="46.13467" lon="6.81844">
        <ele>2339.02</ele>
        <time>2022-03-21T11:25:24Z</time>
      </trkpt>
      <trkpt lat="46.13466" lon="6.81846">
        <ele>2339.02</ele>
        <time>2022-03-21T11:25:26Z</time>
      </trkpt>
      <trkpt lat="46.13471" lon="6.81865">
        <ele>2337.58</ele>
        <time>2022-03-21T11:26:26Z</time>
      </trkpt>
      <trkpt lat="46.13477" lon="6.81874">
        <ele>2335.66</ele>
        <time>2022-03-21T11:27:37Z</time>
      </trkpt>
      <trkpt lat="46.13479" lon="6.81876">
        <ele>2335.18</ele>
        <time>2022-03-21T11:28:13Z</time>
      </trkpt>
      <trkpt lat="46.13467" lon="6.81892">
        <ele>2334.22</ele>
        <time>2022-03-21T11:29:52Z</time>
      </trkpt>
      <trkpt lat="46.13463" lon="6.81899">
        <ele>2334.22</ele>
        <time>2022-03-21T11:31:20Z</time>
      </trkpt>
      <trkpt lat="46.13458" lon="6.81901">
        <ele>2333.74</ele>
        <time>2022-03-21T11:33:02Z</time>
      </trkpt>
      <trkpt lat="46.13467" lon="6.81906">
        <ele>2331.33</ele>
        <time>2022-03-21T11:35:02Z</time>
      </trkpt>
      <trkpt lat="46.13472" lon="6.81908">
        <ele>2329.89</ele>
        <time>2022-03-21T11:36:41Z</time>
      </trkpt>
      <trkpt lat="46.13471" lon="6.81908">
        <ele>2329.89</ele>
        <time>2022-03-21T11:36:42Z</time>
      </trkpt>
      <trkpt lat="46.13468" lon="6.8191">
        <ele>2329.41</ele>
        <time>2022-03-21T11:36:53Z</time>
      </trkpt>
      <trkpt lat="46.13469" lon="6.81914">
        <ele>2329.41</ele>
        <time>2022-03-21T11:36:54Z</time>
      </trkpt>
      <trkpt lat="46.13469" lon="6.81918">
        <ele>2328.93</ele>
        <time>2022-03-21T11:36:55Z</time>
      </trkpt>
      <trkpt lat="46.13469" lon="6.81925">
        <ele>2327.01</ele>
        <time>2022-03-21T11:36:57Z</time>
      </trkpt>
      <trkpt lat="46.13462" lon="6.81939">
        <ele>2327.49</ele>
        <time>2022-03-21T11:37:46Z</time>
      </trkpt>
      <trkpt lat="46.1346" lon="6.81959">
        <ele>2330.37</ele>
        <time>2022-03-21T11:38:32Z</time>
      </trkpt>
      <trkpt lat="46.13457" lon="6.81984">
        <ele>2333.26</ele>
        <time>2022-03-21T11:39:08Z</time>
      </trkpt>
      <trkpt lat="46.13462" lon="6.82001">
        <ele>2336.62</ele>
        <time>2022-03-21T11:39:32Z</time>
      </trkpt>
      <trkpt lat="46.13465" lon="6.82015">
        <ele>2339.51</ele>
        <time>2022-03-21T11:40:04Z</time>
      </trkpt>
      <trkpt lat="46.13472" lon="6.82024">
        <ele>2340.95</ele>
        <time>2022-03-21T11:41:58Z</time>
      </trkpt>
      <trkpt lat="46.13467" lon="6.82023">
        <ele>2340.95</ele>
        <time>2022-03-21T11:46:28Z</time>
      </trkpt>
      <trkpt lat="46.13468" lon="6.82023">
        <ele>2341.43</ele>
        <time>2022-03-21T11:47:54Z</time>
      </trkpt>
      <trkpt lat="46.13469" lon="6.82031">
        <ele>2344.31</ele>
        <time>2022-03-21T11:50:04Z</time>
      </trkpt>
      <trkpt lat="46.13466" lon="6.82037">
        <ele>2347.2</ele>
        <time>2022-03-21T11:50:22Z</time>
      </trkpt>
      <trkpt lat="46.13462" lon="6.82042">
        <ele>2350.56</ele>
        <time>2022-03-21T11:50:44Z</time>
      </trkpt>
      <trkpt lat="46.13459" lon="6.82044">
        <ele>2352</ele>
        <time>2022-03-21T11:50:53Z</time>
      </trkpt>
      <trkpt lat="46.13455" lon="6.82048">
        <ele>2355.37</ele>
        <time>2022-03-21T11:51:17Z</time>
      </trkpt>
      <trkpt lat="46.13454" lon="6.82049">
        <ele>2355.37</ele>
        <time>2022-03-21T11:51:18Z</time>
      </trkpt>
      <trkpt lat="46.13449" lon="6.82051">
        <ele>2358.25</ele>
        <time>2022-03-21T11:51:41Z</time>
      </trkpt>
      <trkpt lat="46.13447" lon="6.82056">
        <ele>2361.62</ele>
        <time>2022-03-21T11:52:04Z</time>
      </trkpt>
      <trkpt lat="46.13446" lon="6.8206">
        <ele>2364.5</ele>
        <time>2022-03-21T11:52:29Z</time>
      </trkpt>
      <trkpt lat="46.1344" lon="6.82069">
        <ele>2367.38</ele>
        <time>2022-03-21T11:52:52Z</time>
      </trkpt>
      <trkpt lat="46.13434" lon="6.82075">
        <ele>2370.75</ele>
        <time>2022-03-21T11:53:14Z</time>
      </trkpt>
      <trkpt lat="46.13432" lon="6.82083">
        <ele>2373.63</ele>
        <time>2022-03-21T11:53:38Z</time>
      </trkpt>
      <trkpt lat="46.13432" lon="6.82089">
        <ele>2377</ele>
        <time>2022-03-21T11:54:02Z</time>
      </trkpt>
      <trkpt lat="46.13429" lon="6.82092">
        <ele>2378.44</ele>
        <time>2022-03-21T11:54:15Z</time>
      </trkpt>
      <trkpt lat="46.13424" lon="6.82094">
        <ele>2381.32</ele>
        <time>2022-03-21T11:54:41Z</time>
      </trkpt>
      <trkpt lat="46.13417" lon="6.82101">
        <ele>2384.69</ele>
        <time>2022-03-21T11:55:07Z</time>
      </trkpt>
      <trkpt lat="46.13413" lon="6.82107">
        <ele>2387.57</ele>
        <time>2022-03-21T11:55:31Z</time>
      </trkpt>
      <trkpt lat="46.1341" lon="6.8211">
        <ele>2390.46</ele>
        <time>2022-03-21T11:55:59Z</time>
      </trkpt>
      <trkpt lat="46.13408" lon="6.82115">
        <ele>2393.82</ele>
        <time>2022-03-21T11:56:24Z</time>
      </trkpt>
      <trkpt lat="46.13406" lon="6.82121">
        <ele>2397.18</ele>
        <time>2022-03-21T11:56:53Z</time>
      </trkpt>
      <trkpt lat="46.13402" lon="6.82126">
        <ele>2400.07</ele>
        <time>2022-03-21T11:57:18Z</time>
      </trkpt>
      <trkpt lat="46.13399" lon="6.82134">
        <ele>2402.95</ele>
        <time>2022-03-21T11:57:50Z</time>
      </trkpt>
      <trkpt lat="46.13397" lon="6.82141">
        <ele>2405.84</ele>
        <time>2022-03-21T11:58:20Z</time>
      </trkpt>
      <trkpt lat="46.13396" lon="6.82143">
        <ele>2409.2</ele>
        <time>2022-03-21T11:58:50Z</time>
      </trkpt>
      <trkpt lat="46.13393" lon="6.82149">
        <ele>2412.09</ele>
        <time>2022-03-21T11:59:18Z</time>
      </trkpt>
      <trkpt lat="46.13393" lon="6.82156">
        <ele>2414.97</ele>
        <time>2022-03-21T12:00:01Z</time>
      </trkpt>
      <trkpt lat="46.13389" lon="6.82162">
        <ele>2418.33</ele>
        <time>2022-03-21T12:00:37Z</time>
      </trkpt>
      <trkpt lat="46.13388" lon="6.82168">
        <ele>2421.22</ele>
        <time>2022-03-21T12:01:09Z</time>
      </trkpt>
      <trkpt lat="46.13383" lon="6.82174">
        <ele>2424.58</ele>
        <time>2022-03-21T12:01:38Z</time>
      </trkpt>
      <trkpt lat="46.13381" lon="6.82177">
        <ele>2427.47</ele>
        <time>2022-03-21T12:02:03Z</time>
      </trkpt>
      <trkpt lat="46.13379" lon="6.82184">
        <ele>2430.83</ele>
        <time>2022-03-21T12:02:28Z</time>
      </trkpt>
      <trkpt lat="46.13376" lon="6.8219">
        <ele>2433.71</ele>
        <time>2022-03-21T12:02:58Z</time>
      </trkpt>
      <trkpt lat="46.13375" lon="6.82195">
        <ele>2437.08</ele>
        <time>2022-03-21T12:03:26Z</time>
      </trkpt>
      <trkpt lat="46.1337" lon="6.82204">
        <ele>2439.96</ele>
        <time>2022-03-21T12:03:51Z</time>
      </trkpt>
      <trkpt lat="46.13368" lon="6.82208">
        <ele>2443.33</ele>
        <time>2022-03-21T12:04:29Z</time>
      </trkpt>
      <trkpt lat="46.13364" lon="6.82213">
        <ele>2446.21</ele>
        <time>2022-03-21T12:04:54Z</time>
      </trkpt>
      <trkpt lat="46.13354" lon="6.82212">
        <ele>2449.58</ele>
        <time>2022-03-21T12:05:19Z</time>
      </trkpt>
      <trkpt lat="46.13351" lon="6.82215">
        <ele>2452.46</ele>
        <time>2022-03-21T12:06:04Z</time>
      </trkpt>
      <trkpt lat="46.13351" lon="6.82216">
        <ele>2451.98</ele>
        <time>2022-03-21T12:06:22Z</time>
      </trkpt>
      <trkpt lat="46.13354" lon="6.82214">
        <ele>2451.98</ele>
        <time>2022-03-21T12:07:45Z</time>
      </trkpt>
      <trkpt lat="46.13356" lon="6.82218">
        <ele>2451.98</ele>
        <time>2022-03-21T12:08:46Z</time>
      </trkpt>
      <trkpt lat="46.13357" lon="6.82217">
        <ele>2452.46</ele>
        <time>2022-03-21T12:08:56Z</time>
      </trkpt>
      <trkpt lat="46.13356" lon="6.82216">
        <ele>2452.46</ele>
        <time>2022-03-21T12:09:36Z</time>
      </trkpt>
      <trkpt lat="46.13353" lon="6.82219">
        <ele>2451.98</ele>
        <time>2022-03-21T12:10:02Z</time>
      </trkpt>
      <trkpt lat="46.13353" lon="6.82218">
        <ele>2452.46</ele>
        <time>2022-03-21T12:10:11Z</time>
      </trkpt>
      <trkpt lat="46.13353" lon="6.82216">
        <ele>2451.98</ele>
        <time>2022-03-21T12:10:48Z</time>
      </trkpt>
      <trkpt lat="46.13353" lon="6.82222">
        <ele>2452.94</ele>
        <time>2022-03-21T12:10:58Z</time>
      </trkpt>
      <trkpt lat="46.13353" lon="6.82226">
        <ele>2453.9</ele>
        <time>2022-03-21T12:11:03Z</time>
      </trkpt>
      <trkpt lat="46.13353" lon="6.82239">
        <ele>2456.79</ele>
        <time>2022-03-21T12:11:15Z</time>
      </trkpt>
      <trkpt lat="46.13353" lon="6.82244">
        <ele>2457.27</ele>
        <time>2022-03-21T12:11:19Z</time>
      </trkpt>
      <trkpt lat="46.13353" lon="6.8225">
        <ele>2458.23</ele>
        <time>2022-03-21T12:11:24Z</time>
      </trkpt>
      <trkpt lat="46.13354" lon="6.82257">
        <ele>2459.67</ele>
        <time>2022-03-21T12:11:31Z</time>
      </trkpt>
      <trkpt lat="46.13347" lon="6.82257">
        <ele>2461.59</ele>
        <time>2022-03-21T12:11:43Z</time>
      </trkpt>
      <trkpt lat="46.13335" lon="6.82249">
        <ele>2464.48</ele>
        <time>2022-03-21T12:11:56Z</time>
      </trkpt>
      <trkpt lat="46.13323" lon="6.82242">
        <ele>2467.36</ele>
        <time>2022-03-21T12:12:14Z</time>
      </trkpt>
      <trkpt lat="46.13322" lon="6.82245">
        <ele>2469.76</ele>
        <time>2022-03-21T12:12:24Z</time>
      </trkpt>
      <trkpt lat="46.13322" lon="6.82255">
        <ele>2471.21</ele>
        <time>2022-03-21T12:12:34Z</time>
      </trkpt>
      <trkpt lat="46.13323" lon="6.82266">
        <ele>2473.13</ele>
        <time>2022-03-21T12:12:45Z</time>
      </trkpt>
      <trkpt lat="46.13323" lon="6.82268">
        <ele>2473.61</ele>
        <time>2022-03-21T12:12:47Z</time>
      </trkpt>
      <trkpt lat="46.13324" lon="6.82276">
        <ele>2475.05</ele>
        <time>2022-03-21T12:12:56Z</time>
      </trkpt>
      <trkpt lat="46.13324" lon="6.82279">
        <ele>2475.53</ele>
        <time>2022-03-21T12:12:58Z</time>
      </trkpt>
      <trkpt lat="46.13323" lon="6.82294">
        <ele>2477.45</ele>
        <time>2022-03-21T12:13:10Z</time>
      </trkpt>
      <trkpt lat="46.13323" lon="6.82297">
        <ele>2478.42</ele>
        <time>2022-03-21T12:13:13Z</time>
      </trkpt>
      <trkpt lat="46.13323" lon="6.82299">
        <ele>2478.42</ele>
        <time>2022-03-21T12:13:15Z</time>
      </trkpt>
      <trkpt lat="46.13311" lon="6.82293">
        <ele>2480.82</ele>
        <time>2022-03-21T12:13:34Z</time>
      </trkpt>
      <trkpt lat="46.13301" lon="6.82284">
        <ele>2484.18</ele>
        <time>2022-03-21T12:13:50Z</time>
      </trkpt>
      <trkpt lat="46.13294" lon="6.82272">
        <ele>2487.55</ele>
        <time>2022-03-21T12:14:07Z</time>
      </trkpt>
      <trkpt lat="46.13288" lon="6.82272">
        <ele>2490.43</ele>
        <time>2022-03-21T12:14:22Z</time>
      </trkpt>
      <trkpt lat="46.13285" lon="6.8229">
        <ele>2493.8</ele>
        <time>2022-03-21T12:14:43Z</time>
      </trkpt>
      <trkpt lat="46.13284" lon="6.823">
        <ele>2496.2</ele>
        <time>2022-03-21T12:14:57Z</time>
      </trkpt>
      <trkpt lat="46.13279" lon="6.823">
        <ele>2499.57</ele>
        <time>2022-03-21T12:15:18Z</time>
      </trkpt>
      <trkpt lat="46.13269" lon="6.82287">
        <ele>2502.45</ele>
        <time>2022-03-21T12:15:36Z</time>
      </trkpt>
      <trkpt lat="46.13262" lon="6.82275">
        <ele>2505.81</ele>
        <time>2022-03-21T12:15:52Z</time>
      </trkpt>
      <trkpt lat="46.13261" lon="6.82283">
        <ele>2508.7</ele>
        <time>2022-03-21T12:16:10Z</time>
      </trkpt>
      <trkpt lat="46.13261" lon="6.82291">
        <ele>2510.14</ele>
        <time>2022-03-21T12:16:19Z</time>
      </trkpt>
      <trkpt lat="46.13262" lon="6.82308">
        <ele>2513.02</ele>
        <time>2022-03-21T12:16:36Z</time>
      </trkpt>
      <trkpt lat="46.13262" lon="6.82317">
        <ele>2515.43</ele>
        <time>2022-03-21T12:16:54Z</time>
      </trkpt>
      <trkpt lat="46.13252" lon="6.8231">
        <ele>2518.79</ele>
        <time>2022-03-21T12:17:14Z</time>
      </trkpt>
      <trkpt lat="46.13245" lon="6.82298">
        <ele>2520.71</ele>
        <time>2022-03-21T12:17:26Z</time>
      </trkpt>
      <trkpt lat="46.13239" lon="6.82281">
        <ele>2524.08</ele>
        <time>2022-03-21T12:17:45Z</time>
      </trkpt>
      <trkpt lat="46.13234" lon="6.82275">
        <ele>2526.96</ele>
        <time>2022-03-21T12:18:02Z</time>
      </trkpt>
      <trkpt lat="46.13231" lon="6.82291">
        <ele>2530.33</ele>
        <time>2022-03-21T12:18:28Z</time>
      </trkpt>
      <trkpt lat="46.1323" lon="6.82299">
        <ele>2532.25</ele>
        <time>2022-03-21T12:18:39Z</time>
      </trkpt>
      <trkpt lat="46.13228" lon="6.82311">
        <ele>2535.61</ele>
        <time>2022-03-21T12:18:55Z</time>
      </trkpt>
      <trkpt lat="46.13227" lon="6.82316">
        <ele>2536.58</ele>
        <time>2022-03-21T12:19:06Z</time>
      </trkpt>
      <trkpt lat="46.13218" lon="6.82315">
        <ele>2538.98</ele>
        <time>2022-03-21T12:19:21Z</time>
      </trkpt>
      <trkpt lat="46.13212" lon="6.8231">
        <ele>2541.86</ele>
        <time>2022-03-21T12:19:37Z</time>
      </trkpt>
      <trkpt lat="46.13214" lon="6.82308">
        <ele>2542.82</ele>
        <time>2022-03-21T12:19:40Z</time>
      </trkpt>
      <trkpt lat="46.13215" lon="6.82307">
        <ele>2542.82</ele>
        <time>2022-03-21T12:19:41Z</time>
      </trkpt>
      <trkpt lat="46.13216" lon="6.82311">
        <ele>2545.71</ele>
        <time>2022-03-21T12:20:02Z</time>
      </trkpt>
      <trkpt lat="46.13215" lon="6.82315">
        <ele>2546.67</ele>
        <time>2022-03-21T12:20:08Z</time>
      </trkpt>
      <trkpt lat="46.13213" lon="6.82326">
        <ele>2550.03</ele>
        <time>2022-03-21T12:20:25Z</time>
      </trkpt>
      <trkpt lat="46.13216" lon="6.82338">
        <ele>2552.92</ele>
        <time>2022-03-21T12:20:42Z</time>
      </trkpt>
      <trkpt lat="46.13209" lon="6.82339">
        <ele>2555.32</ele>
        <time>2022-03-21T12:21:02Z</time>
      </trkpt>
      <trkpt lat="46.13208" lon="6.82339">
        <ele>2555.8</ele>
        <time>2022-03-21T12:21:03Z</time>
      </trkpt>
      <trkpt lat="46.13193" lon="6.82341">
        <ele>2558.69</ele>
        <time>2022-03-21T12:21:21Z</time>
      </trkpt>
      <trkpt lat="46.13186" lon="6.82335">
        <ele>2561.57</ele>
        <time>2022-03-21T12:21:36Z</time>
      </trkpt>
      <trkpt lat="46.13189" lon="6.82334">
        <ele>2562.05</ele>
        <time>2022-03-21T12:21:38Z</time>
      </trkpt>
      <trkpt lat="46.1319" lon="6.82332">
        <ele>2563.01</ele>
        <time>2022-03-21T12:21:45Z</time>
      </trkpt>
      <trkpt lat="46.1319" lon="6.82332">
        <ele>2563.01</ele>
        <time>2022-03-21T12:21:47Z</time>
      </trkpt>
      <trkpt lat="46.13192" lon="6.82333">
        <ele>2564.45</ele>
        <time>2022-03-21T12:21:54Z</time>
      </trkpt>
      <trkpt lat="46.13188" lon="6.8233">
        <ele>2565.9</ele>
        <time>2022-03-21T12:22:03Z</time>
      </trkpt>
      <trkpt lat="46.13191" lon="6.82336">
        <ele>2568.78</ele>
        <time>2022-03-21T12:22:19Z</time>
      </trkpt>
      <trkpt lat="46.13196" lon="6.82347">
        <ele>2571.18</ele>
        <time>2022-03-21T12:22:32Z</time>
      </trkpt>
      <trkpt lat="46.13198" lon="6.82348">
        <ele>2571.66</ele>
        <time>2022-03-21T12:22:36Z</time>
      </trkpt>
      <trkpt lat="46.13198" lon="6.82346">
        <ele>2572.14</ele>
        <time>2022-03-21T12:22:38Z</time>
      </trkpt>
      <trkpt lat="46.13198" lon="6.82345">
        <ele>2572.14</ele>
        <time>2022-03-21T12:22:40Z</time>
      </trkpt>
      <trkpt lat="46.13196" lon="6.82344">
        <ele>2572.14</ele>
        <time>2022-03-21T12:22:43Z</time>
      </trkpt>
      <trkpt lat="46.13195" lon="6.82343">
        <ele>2572.63</ele>
        <time>2022-03-21T12:22:45Z</time>
      </trkpt>
      <trkpt lat="46.13188" lon="6.82346">
        <ele>2575.51</ele>
        <time>2022-03-21T12:23:05Z</time>
      </trkpt>
      <trkpt lat="46.13185" lon="6.82347">
        <ele>2577.43</ele>
        <time>2022-03-21T12:23:18Z</time>
      </trkpt>
      <trkpt lat="46.13188" lon="6.82342">
        <ele>2580.8</ele>
        <time>2022-03-21T12:23:43Z</time>
      </trkpt>
      <trkpt lat="46.13188" lon="6.82345">
        <ele>2584.16</ele>
        <time>2022-03-21T12:24:02Z</time>
      </trkpt>
      <trkpt lat="46.13188" lon="6.82346">
        <ele>2584.16</ele>
        <time>2022-03-21T12:24:04Z</time>
      </trkpt>
      <trkpt lat="46.13189" lon="6.82348">
        <ele>2584.64</ele>
        <time>2022-03-21T12:24:06Z</time>
      </trkpt>
      <trkpt lat="46.13191" lon="6.82357">
        <ele>2588.01</ele>
        <time>2022-03-21T12:24:26Z</time>
      </trkpt>
      <trkpt lat="46.13193" lon="6.82366">
        <ele>2590.89</ele>
        <time>2022-03-21T12:24:43Z</time>
      </trkpt>
      <trkpt lat="46.13192" lon="6.82363">
        <ele>2590.89</ele>
        <time>2022-03-21T12:24:45Z</time>
      </trkpt>
      <trkpt lat="46.13191" lon="6.82362">
        <ele>2590.89</ele>
        <time>2022-03-21T12:24:46Z</time>
      </trkpt>
      <trkpt lat="46.13183" lon="6.8236">
        <ele>2593.77</ele>
        <time>2022-03-21T12:25:11Z</time>
      </trkpt>
      <trkpt lat="46.13185" lon="6.82362">
        <ele>2594.25</ele>
        <time>2022-03-21T12:25:16Z</time>
      </trkpt>
      <trkpt lat="46.13186" lon="6.82364">
        <ele>2594.25</ele>
        <time>2022-03-21T12:25:17Z</time>
      </trkpt>
      <trkpt lat="46.13188" lon="6.82367">
        <ele>2595.7</ele>
        <time>2022-03-21T12:25:23Z</time>
      </trkpt>
      <trkpt lat="46.13188" lon="6.82366">
        <ele>2596.18</ele>
        <time>2022-03-21T12:25:27Z</time>
      </trkpt>
      <trkpt lat="46.13188" lon="6.82366">
        <ele>2596.66</ele>
        <time>2022-03-21T12:25:30Z</time>
      </trkpt>
      <trkpt lat="46.13189" lon="6.82367">
        <ele>2597.14</ele>
        <time>2022-03-21T12:25:31Z</time>
      </trkpt>
      <trkpt lat="46.13189" lon="6.82365">
        <ele>2597.62</ele>
        <time>2022-03-21T12:25:37Z</time>
      </trkpt>
      <trkpt lat="46.13186" lon="6.8236">
        <ele>2598.58</ele>
        <time>2022-03-21T12:25:43Z</time>
      </trkpt>
      <trkpt lat="46.13181" lon="6.82352">
        <ele>2598.58</ele>
        <time>2022-03-21T12:25:54Z</time>
      </trkpt>
      <trkpt lat="46.13179" lon="6.82349">
        <ele>2599.06</ele>
        <time>2022-03-21T12:25:58Z</time>
      </trkpt>
      <trkpt lat="46.13179" lon="6.82349">
        <ele>2599.54</ele>
        <time>2022-03-21T12:26:06Z</time>
      </trkpt>
      <trkpt lat="46.13178" lon="6.82353">
        <ele>2600.02</ele>
        <time>2022-03-21T12:26:17Z</time>
      </trkpt>
      <trkpt lat="46.13179" lon="6.82354">
        <ele>2600.02</ele>
        <time>2022-03-21T12:26:18Z</time>
      </trkpt>
      <trkpt lat="46.13188" lon="6.8237">
        <ele>2600.02</ele>
        <time>2022-03-21T12:26:40Z</time>
      </trkpt>
      <trkpt lat="46.13188" lon="6.82371">
        <ele>2600.02</ele>
        <time>2022-03-21T12:26:41Z</time>
      </trkpt>
      <trkpt lat="46.1319" lon="6.82377">
        <ele>2599.54</ele>
        <time>2022-03-21T12:27:34Z</time>
      </trkpt>
      <trkpt lat="46.13189" lon="6.82377">
        <ele>2600.02</ele>
        <time>2022-03-21T12:27:38Z</time>
      </trkpt>
      <trkpt lat="46.1319" lon="6.82378">
        <ele>2599.54</ele>
        <time>2022-03-21T12:27:44Z</time>
      </trkpt>
      <trkpt lat="46.13194" lon="6.82381">
        <ele>2599.54</ele>
        <time>2022-03-21T12:28:11Z</time>
      </trkpt>
      <trkpt lat="46.13196" lon="6.82381">
        <ele>2599.54</ele>
        <time>2022-03-21T12:28:13Z</time>
      </trkpt>
      <trkpt lat="46.13196" lon="6.82379">
        <ele>2600.02</ele>
        <time>2022-03-21T12:28:16Z</time>
      </trkpt>
      <trkpt lat="46.13196" lon="6.82379">
        <ele>2600.02</ele>
        <time>2022-03-21T12:28:23Z</time>
      </trkpt>
      <trkpt lat="46.13198" lon="6.82379">
        <ele>2600.02</ele>
        <time>2022-03-21T12:28:26Z</time>
      </trkpt>
      <trkpt lat="46.13195" lon="6.82382">
        <ele>2600.02</ele>
        <time>2022-03-21T12:29:08Z</time>
      </trkpt>
      <trkpt lat="46.1319" lon="6.82384">
        <ele>2599.54</ele>
        <time>2022-03-21T12:29:31Z</time>
      </trkpt>
      <trkpt lat="46.13189" lon="6.82383">
        <ele>2600.02</ele>
        <time>2022-03-21T12:29:33Z</time>
      </trkpt>
      <trkpt lat="46.13196" lon="6.82384">
        <ele>2599.54</ele>
        <time>2022-03-21T12:29:53Z</time>
      </trkpt>
      <trkpt lat="46.13194" lon="6.82385">
        <ele>2599.54</ele>
        <time>2022-03-21T12:30:04Z</time>
      </trkpt>
      <trkpt lat="46.13186" lon="6.82385">
        <ele>2600.02</ele>
        <time>2022-03-21T12:30:45Z</time>
      </trkpt>
      <trkpt lat="46.13188" lon="6.82386">
        <ele>2600.02</ele>
        <time>2022-03-21T12:30:47Z</time>
      </trkpt>
      <trkpt lat="46.13188" lon="6.8239">
        <ele>2599.54</ele>
        <time>2022-03-21T12:30:59Z</time>
      </trkpt>
      <trkpt lat="46.13187" lon="6.82391">
        <ele>2602.43</ele>
        <time>2022-03-21T12:31:17Z</time>
      </trkpt>
      <trkpt lat="46.13188" lon="6.82395">
        <ele>2605.79</ele>
        <time>2022-03-21T12:31:33Z</time>
      </trkpt>
      <trkpt lat="46.13186" lon="6.82397">
        <ele>2608.67</ele>
        <time>2022-03-21T12:31:49Z</time>
      </trkpt>
      <trkpt lat="46.13184" lon="6.82398">
        <ele>2610.12</ele>
        <time>2022-03-21T12:31:58Z</time>
      </trkpt>
      <trkpt lat="46.1318" lon="6.824">
        <ele>2613.48</ele>
        <time>2022-03-21T12:32:13Z</time>
      </trkpt>
      <trkpt lat="46.13179" lon="6.82399">
        <ele>2613.48</ele>
        <time>2022-03-21T12:32:15Z</time>
      </trkpt>
      <trkpt lat="46.13176" lon="6.82403">
        <ele>2616.37</ele>
        <time>2022-03-21T12:32:35Z</time>
      </trkpt>
      <trkpt lat="46.13173" lon="6.82408">
        <ele>2619.73</ele>
        <time>2022-03-21T12:32:55Z</time>
      </trkpt>
      <trkpt lat="46.13171" lon="6.82411">
        <ele>2622.13</ele>
        <time>2022-03-21T12:33:08Z</time>
      </trkpt>
      <trkpt lat="46.13172" lon="6.82413">
        <ele>2622.13</ele>
        <time>2022-03-21T12:33:21Z</time>
      </trkpt>
      <trkpt lat="46.13173" lon="6.82413">
        <ele>2622.13</ele>
        <time>2022-03-21T12:33:22Z</time>
      </trkpt>
      <trkpt lat="46.13173" lon="6.8241">
        <ele>2622.13</ele>
        <time>2022-03-21T12:33:40Z</time>
      </trkpt>
      <trkpt lat="46.13177" lon="6.82411">
        <ele>2622.61</ele>
        <time>2022-03-21T12:33:51Z</time>
      </trkpt>
      <trkpt lat="46.13177" lon="6.82413">
        <ele>2623.09</ele>
        <time>2022-03-21T12:33:56Z</time>
      </trkpt>
      <trkpt lat="46.13171" lon="6.82415">
        <ele>2625.98</ele>
        <time>2022-03-21T12:34:08Z</time>
      </trkpt>
      <trkpt lat="46.13172" lon="6.8242">
        <ele>2628.86</ele>
        <time>2022-03-21T12:34:19Z</time>
      </trkpt>
      <trkpt lat="46.13174" lon="6.82425">
        <ele>2632.23</ele>
        <time>2022-03-21T12:34:30Z</time>
      </trkpt>
      <trkpt lat="46.13175" lon="6.82429">
        <ele>2635.11</ele>
        <time>2022-03-21T12:34:43Z</time>
      </trkpt>
      <trkpt lat="46.13178" lon="6.8243">
        <ele>2636.07</ele>
        <time>2022-03-21T12:34:48Z</time>
      </trkpt>
      <trkpt lat="46.13178" lon="6.82429">
        <ele>2638.96</ele>
        <time>2022-03-21T12:35:15Z</time>
      </trkpt>
      <trkpt lat="46.13178" lon="6.82428">
        <ele>2638.48</ele>
        <time>2022-03-21T12:35:16Z</time>
      </trkpt>
      <trkpt lat="46.13181" lon="6.82431">
        <ele>2641.84</ele>
        <time>2022-03-21T12:35:39Z</time>
      </trkpt>
      <trkpt lat="46.13181" lon="6.82437">
        <ele>2643.76</ele>
        <time>2022-03-21T12:35:56Z</time>
      </trkpt>
      <trkpt lat="46.13184" lon="6.8244">
        <ele>2647.13</ele>
        <time>2022-03-21T12:36:10Z</time>
      </trkpt>
      <trkpt lat="46.13185" lon="6.82447">
        <ele>2650.49</ele>
        <time>2022-03-21T12:36:31Z</time>
      </trkpt>
      <trkpt lat="46.1319" lon="6.82454">
        <ele>2653.38</ele>
        <time>2022-03-21T12:36:56Z</time>
      </trkpt>
      <trkpt lat="46.1319" lon="6.82456">
        <ele>2656.74</ele>
        <time>2022-03-21T12:37:10Z</time>
      </trkpt>
      <trkpt lat="46.13188" lon="6.82457">
        <ele>2657.7</ele>
        <time>2022-03-21T12:37:14Z</time>
      </trkpt>
      <trkpt lat="46.13187" lon="6.82458">
        <ele>2658.18</ele>
        <time>2022-03-21T12:37:16Z</time>
      </trkpt>
      <trkpt lat="46.13187" lon="6.82457">
        <ele>2658.66</ele>
        <time>2022-03-21T12:37:19Z</time>
      </trkpt>
      <trkpt lat="46.13188" lon="6.82462">
        <ele>2662.03</ele>
        <time>2022-03-21T12:37:34Z</time>
      </trkpt>
      <trkpt lat="46.13191" lon="6.82464">
        <ele>2662.51</ele>
        <time>2022-03-21T12:37:44Z</time>
      </trkpt>
      <trkpt lat="46.13193" lon="6.82472">
        <ele>2665.39</ele>
        <time>2022-03-21T12:37:58Z</time>
      </trkpt>
      <trkpt lat="46.13195" lon="6.82477">
        <ele>2668.76</ele>
        <time>2022-03-21T12:38:14Z</time>
      </trkpt>
      <trkpt lat="46.13195" lon="6.8248">
        <ele>2669.72</ele>
        <time>2022-03-21T12:38:27Z</time>
      </trkpt>
      <trkpt lat="46.13192" lon="6.82485">
        <ele>2671.16</ele>
        <time>2022-03-21T12:38:36Z</time>
      </trkpt>
      <trkpt lat="46.13191" lon="6.82491">
        <ele>2674.52</ele>
        <time>2022-03-21T12:38:50Z</time>
      </trkpt>
      <trkpt lat="46.13192" lon="6.82501">
        <ele>2677.41</ele>
        <time>2022-03-21T12:39:08Z</time>
      </trkpt>
      <trkpt lat="46.13196" lon="6.82505">
        <ele>2680.77</ele>
        <time>2022-03-21T12:39:39Z</time>
      </trkpt>
      <trkpt lat="46.132" lon="6.82511">
        <ele>2683.66</ele>
        <time>2022-03-21T12:39:57Z</time>
      </trkpt>
      <trkpt lat="46.13203" lon="6.82516">
        <ele>2687.02</ele>
        <time>2022-03-21T12:40:13Z</time>
      </trkpt>
      <trkpt lat="46.13206" lon="6.82522">
        <ele>2690.39</ele>
        <time>2022-03-21T12:40:30Z</time>
      </trkpt>
      <trkpt lat="46.13208" lon="6.82528">
        <ele>2693.27</ele>
        <time>2022-03-21T12:40:49Z</time>
      </trkpt>
      <trkpt lat="46.13209" lon="6.82533">
        <ele>2695.67</ele>
        <time>2022-03-21T12:41:02Z</time>
      </trkpt>
      <trkpt lat="46.13212" lon="6.82535">
        <ele>2697.6</ele>
        <time>2022-03-21T12:41:13Z</time>
      </trkpt>
      <trkpt lat="46.13212" lon="6.82537">
        <ele>2698.08</ele>
        <time>2022-03-21T12:41:24Z</time>
      </trkpt>
      <trkpt lat="46.13213" lon="6.82544">
        <ele>2700.96</ele>
        <time>2022-03-21T12:41:43Z</time>
      </trkpt>
      <trkpt lat="46.13211" lon="6.82551">
        <ele>2704.33</ele>
        <time>2022-03-21T12:42:00Z</time>
      </trkpt>
      <trkpt lat="46.13208" lon="6.82558">
        <ele>2707.21</ele>
        <time>2022-03-21T12:42:19Z</time>
      </trkpt>
      <trkpt lat="46.13207" lon="6.8256">
        <ele>2708.17</ele>
        <time>2022-03-21T12:42:37Z</time>
      </trkpt>
      <trkpt lat="46.13207" lon="6.82565">
        <ele>2711.54</ele>
        <time>2022-03-21T12:42:56Z</time>
      </trkpt>
      <trkpt lat="46.13206" lon="6.82566">
        <ele>2714.42</ele>
        <time>2022-03-21T12:43:10Z</time>
      </trkpt>
      <trkpt lat="46.13204" lon="6.82568">
        <ele>2715.38</ele>
        <time>2022-03-21T12:43:19Z</time>
      </trkpt>
      <trkpt lat="46.13203" lon="6.82572">
        <ele>2718.27</ele>
        <time>2022-03-21T12:43:42Z</time>
      </trkpt>
      <trkpt lat="46.13203" lon="6.82572">
        <ele>2718.75</ele>
        <time>2022-03-21T12:43:45Z</time>
      </trkpt>
      <trkpt lat="46.13201" lon="6.82571">
        <ele>2721.63</ele>
        <time>2022-03-21T12:44:05Z</time>
      </trkpt>
      <trkpt lat="46.13193" lon="6.82575">
        <ele>2724.99</ele>
        <time>2022-03-21T12:44:59Z</time>
      </trkpt>
      <trkpt lat="46.13191" lon="6.82579">
        <ele>2727.88</ele>
        <time>2022-03-21T12:45:15Z</time>
      </trkpt>
      <trkpt lat="46.13187" lon="6.82582">
        <ele>2730.76</ele>
        <time>2022-03-21T12:45:46Z</time>
      </trkpt>
      <trkpt lat="46.1319" lon="6.82588">
        <ele>2734.13</ele>
        <time>2022-03-21T12:46:03Z</time>
      </trkpt>
      <trkpt lat="46.13194" lon="6.82599">
        <ele>2736.05</ele>
        <time>2022-03-21T12:46:55Z</time>
      </trkpt>
      <trkpt lat="46.1319" lon="6.82598">
        <ele>2735.57</ele>
        <time>2022-03-21T12:47:47Z</time>
      </trkpt>
      <trkpt lat="46.13191" lon="6.82599">
        <ele>2735.09</ele>
        <time>2022-03-21T12:48:13Z</time>
      </trkpt>
      <trkpt lat="46.1319" lon="6.82599">
        <ele>2735.09</ele>
        <time>2022-03-21T12:48:30Z</time>
      </trkpt>
      <trkpt lat="46.13189" lon="6.826">
        <ele>2736.05</ele>
        <time>2022-03-21T12:48:55Z</time>
      </trkpt>
      <trkpt lat="46.13187" lon="6.82597">
        <ele>2736.05</ele>
        <time>2022-03-21T12:49:48Z</time>
      </trkpt>
      <trkpt lat="46.13183" lon="6.82583">
        <ele>2733.17</ele>
        <time>2022-03-21T12:50:13Z</time>
      </trkpt>
      <trkpt lat="46.13185" lon="6.82575">
        <ele>2729.8</ele>
        <time>2022-03-21T12:50:32Z</time>
      </trkpt>
      <trkpt lat="46.13189" lon="6.82569">
        <ele>2726.44</ele>
        <time>2022-03-21T12:50:40Z</time>
      </trkpt>
      <trkpt lat="46.13193" lon="6.82569">
        <ele>2724.99</ele>
        <time>2022-03-21T12:50:44Z</time>
      </trkpt>
      <trkpt lat="46.13193" lon="6.82569">
        <ele>2724.51</ele>
        <time>2022-03-21T12:50:45Z</time>
      </trkpt>
      <trkpt lat="46.13196" lon="6.82569">
        <ele>2721.63</ele>
        <time>2022-03-21T12:51:07Z</time>
      </trkpt>
      <trkpt lat="46.13196" lon="6.82566">
        <ele>2720.19</ele>
        <time>2022-03-21T12:51:15Z</time>
      </trkpt>
      <trkpt lat="46.13198" lon="6.82565">
        <ele>2719.23</ele>
        <time>2022-03-21T12:51:20Z</time>
      </trkpt>
      <trkpt lat="46.13201" lon="6.82559">
        <ele>2715.86</ele>
        <time>2022-03-21T12:51:32Z</time>
      </trkpt>
      <trkpt lat="46.13204" lon="6.82553">
        <ele>2712.98</ele>
        <time>2022-03-21T12:51:44Z</time>
      </trkpt>
      <trkpt lat="46.13205" lon="6.82547">
        <ele>2709.61</ele>
        <time>2022-03-21T12:51:53Z</time>
      </trkpt>
      <trkpt lat="46.13205" lon="6.82546">
        <ele>2709.61</ele>
        <time>2022-03-21T12:51:54Z</time>
      </trkpt>
      <trkpt lat="46.13208" lon="6.82541">
        <ele>2706.25</ele>
        <time>2022-03-21T12:52:03Z</time>
      </trkpt>
      <trkpt lat="46.1321" lon="6.82534">
        <ele>2703.36</ele>
        <time>2022-03-21T12:52:10Z</time>
      </trkpt>
      <trkpt lat="46.13209" lon="6.82528">
        <ele>2700</ele>
        <time>2022-03-21T12:52:22Z</time>
      </trkpt>
      <trkpt lat="46.13206" lon="6.82524">
        <ele>2697.12</ele>
        <time>2022-03-21T12:52:31Z</time>
      </trkpt>
      <trkpt lat="46.13203" lon="6.82519">
        <ele>2693.75</ele>
        <time>2022-03-21T12:52:42Z</time>
      </trkpt>
      <trkpt lat="46.13199" lon="6.82516">
        <ele>2690.39</ele>
        <time>2022-03-21T12:52:53Z</time>
      </trkpt>
      <trkpt lat="46.13196" lon="6.82512">
        <ele>2687.5</ele>
        <time>2022-03-21T12:53:13Z</time>
      </trkpt>
      <trkpt lat="46.13193" lon="6.82505">
        <ele>2684.14</ele>
        <time>2022-03-21T12:53:25Z</time>
      </trkpt>
      <trkpt lat="46.13193" lon="6.82498">
        <ele>2680.77</ele>
        <time>2022-03-21T12:53:42Z</time>
      </trkpt>
      <trkpt lat="46.13191" lon="6.82492">
        <ele>2677.89</ele>
        <time>2022-03-21T12:53:51Z</time>
      </trkpt>
      <trkpt lat="46.1319" lon="6.82483">
        <ele>2674.52</ele>
        <time>2022-03-21T12:54:06Z</time>
      </trkpt>
      <trkpt lat="46.1319" lon="6.82477">
        <ele>2671.64</ele>
        <time>2022-03-21T12:54:18Z</time>
      </trkpt>
      <trkpt lat="46.13189" lon="6.82472">
        <ele>2668.28</ele>
        <time>2022-03-21T12:54:32Z</time>
      </trkpt>
      <trkpt lat="46.13191" lon="6.82467">
        <ele>2665.39</ele>
        <time>2022-03-21T12:54:46Z</time>
      </trkpt>
      <trkpt lat="46.13193" lon="6.8246">
        <ele>2662.03</ele>
        <time>2022-03-21T12:55:00Z</time>
      </trkpt>
      <trkpt lat="46.13186" lon="6.82453">
        <ele>2660.59</ele>
        <time>2022-03-21T12:55:18Z</time>
      </trkpt>
      <trkpt lat="46.13185" lon="6.82452">
        <ele>2660.59</ele>
        <time>2022-03-21T12:55:19Z</time>
      </trkpt>
      <trkpt lat="46.13184" lon="6.82451">
        <ele>2660.59</ele>
        <time>2022-03-21T12:55:20Z</time>
      </trkpt>
      <trkpt lat="46.13178" lon="6.82444">
        <ele>2657.22</ele>
        <time>2022-03-21T12:55:41Z</time>
      </trkpt>
      <trkpt lat="46.13177" lon="6.8244">
        <ele>2656.26</ele>
        <time>2022-03-21T12:55:52Z</time>
      </trkpt>
      <trkpt lat="46.13173" lon="6.82434">
        <ele>2653.38</ele>
        <time>2022-03-21T12:56:13Z</time>
      </trkpt>
      <trkpt lat="46.13163" lon="6.82429">
        <ele>2650.97</ele>
        <time>2022-03-21T12:56:37Z</time>
      </trkpt>
      <trkpt lat="46.13166" lon="6.82429">
        <ele>2650.49</ele>
        <time>2022-03-21T12:56:43Z</time>
      </trkpt>
      <trkpt lat="46.13167" lon="6.82429">
        <ele>2650.01</ele>
        <time>2022-03-21T12:56:44Z</time>
      </trkpt>
      <trkpt lat="46.13172" lon="6.8243">
        <ele>2650.01</ele>
        <time>2022-03-21T12:56:47Z</time>
      </trkpt>
      <trkpt lat="46.13173" lon="6.8243">
        <ele>2650.01</ele>
        <time>2022-03-21T12:56:48Z</time>
      </trkpt>
      <trkpt lat="46.13185" lon="6.82431">
        <ele>2649.05</ele>
        <time>2022-03-21T12:57:00Z</time>
      </trkpt>
      <trkpt lat="46.13213" lon="6.82438">
        <ele>2646.17</ele>
        <time>2022-03-21T12:57:30Z</time>
      </trkpt>
      <trkpt lat="46.13215" lon="6.82437">
        <ele>2644.72</ele>
        <time>2022-03-21T12:58:00Z</time>
      </trkpt>
      <trkpt lat="46.13214" lon="6.82436">
        <ele>2644.72</ele>
        <time>2022-03-21T12:58:01Z</time>
      </trkpt>
      <trkpt lat="46.13215" lon="6.82436">
        <ele>2644.24</ele>
        <time>2022-03-21T12:58:04Z</time>
      </trkpt>
      <trkpt lat="46.13215" lon="6.82435">
        <ele>2643.28</ele>
        <time>2022-03-21T12:58:19Z</time>
      </trkpt>
      <trkpt lat="46.13215" lon="6.82434">
        <ele>2642.32</ele>
        <time>2022-03-21T12:58:54Z</time>
      </trkpt>
      <trkpt lat="46.13219" lon="6.82433">
        <ele>2641.84</ele>
        <time>2022-03-21T12:59:08Z</time>
      </trkpt>
      <trkpt lat="46.13221" lon="6.82433">
        <ele>2641.36</ele>
        <time>2022-03-21T12:59:15Z</time>
      </trkpt>
      <trkpt lat="46.13223" lon="6.82434">
        <ele>2641.84</ele>
        <time>2022-03-21T12:59:18Z</time>
      </trkpt>
      <trkpt lat="46.13223" lon="6.82435">
        <ele>2641.36</ele>
        <time>2022-03-21T12:59:23Z</time>
      </trkpt>
      <trkpt lat="46.13221" lon="6.82433">
        <ele>2640.88</ele>
        <time>2022-03-21T12:59:26Z</time>
      </trkpt>
      <trkpt lat="46.13221" lon="6.82434">
        <ele>2640.4</ele>
        <time>2022-03-21T12:59:33Z</time>
      </trkpt>
      <trkpt lat="46.13222" lon="6.82435">
        <ele>2640.4</ele>
        <time>2022-03-21T12:59:37Z</time>
      </trkpt>
      <trkpt lat="46.13222" lon="6.82435">
        <ele>2640.4</ele>
        <time>2022-03-21T12:59:41Z</time>
      </trkpt>
      <trkpt lat="46.1322" lon="6.82434">
        <ele>2640.4</ele>
        <time>2022-03-21T12:59:44Z</time>
      </trkpt>
      <trkpt lat="46.13207" lon="6.82431">
        <ele>2639.44</ele>
        <time>2022-03-21T13:00:13Z</time>
      </trkpt>
      <trkpt lat="46.13211" lon="6.82431">
        <ele>2638.96</ele>
        <time>2022-03-21T13:00:33Z</time>
      </trkpt>
      <trkpt lat="46.13214" lon="6.82433">
        <ele>2638.96</ele>
        <time>2022-03-21T13:00:40Z</time>
      </trkpt>
      <trkpt lat="46.13217" lon="6.82433">
        <ele>2638.96</ele>
        <time>2022-03-21T13:00:44Z</time>
      </trkpt>
      <trkpt lat="46.13221" lon="6.82438">
        <ele>2638.48</ele>
        <time>2022-03-21T13:01:03Z</time>
      </trkpt>
      <trkpt lat="46.13222" lon="6.82438">
        <ele>2638.48</ele>
        <time>2022-03-21T13:01:06Z</time>
      </trkpt>
      <trkpt lat="46.13218" lon="6.82436">
        <ele>2638.48</ele>
        <time>2022-03-21T13:01:10Z</time>
      </trkpt>
      <trkpt lat="46.13217" lon="6.82435">
        <ele>2638.48</ele>
        <time>2022-03-21T13:01:11Z</time>
      </trkpt>
      <trkpt lat="46.13212" lon="6.82432">
        <ele>2637.99</ele>
        <time>2022-03-21T13:01:19Z</time>
      </trkpt>
      <trkpt lat="46.13206" lon="6.82428">
        <ele>2637.03</ele>
        <time>2022-03-21T13:01:26Z</time>
      </trkpt>
      <trkpt lat="46.13184" lon="6.82417">
        <ele>2635.11</ele>
        <time>2022-03-21T13:01:44Z</time>
      </trkpt>
      <trkpt lat="46.13182" lon="6.82411">
        <ele>2634.63</ele>
        <time>2022-03-21T13:01:50Z</time>
      </trkpt>
      <trkpt lat="46.13174" lon="6.82403">
        <ele>2633.19</ele>
        <time>2022-03-21T13:02:08Z</time>
      </trkpt>
      <trkpt lat="46.13177" lon="6.82402">
        <ele>2632.71</ele>
        <time>2022-03-21T13:02:11Z</time>
      </trkpt>
      <trkpt lat="46.13176" lon="6.82402">
        <ele>2632.23</ele>
        <time>2022-03-21T13:02:12Z</time>
      </trkpt>
      <trkpt lat="46.13175" lon="6.824">
        <ele>2631.75</ele>
        <time>2022-03-21T13:02:18Z</time>
      </trkpt>
      <trkpt lat="46.13174" lon="6.824">
        <ele>2631.75</ele>
        <time>2022-03-21T13:02:20Z</time>
      </trkpt>
      <trkpt lat="46.13171" lon="6.82398">
        <ele>2630.79</ele>
        <time>2022-03-21T13:02:32Z</time>
      </trkpt>
      <trkpt lat="46.1317" lon="6.82397">
        <ele>2630.79</ele>
        <time>2022-03-21T13:02:33Z</time>
      </trkpt>
      <trkpt lat="46.1317" lon="6.82396">
        <ele>2629.34</ele>
        <time>2022-03-21T13:02:52Z</time>
      </trkpt>
      <trkpt lat="46.13167" lon="6.82394">
        <ele>2628.38</ele>
        <time>2022-03-21T13:02:56Z</time>
      </trkpt>
      <trkpt lat="46.13167" lon="6.82388">
        <ele>2627.42</ele>
        <time>2022-03-21T13:03:12Z</time>
      </trkpt>
      <trkpt lat="46.13183" lon="6.82396">
        <ele>2625.5</ele>
        <time>2022-03-21T13:03:31Z</time>
      </trkpt>
      <trkpt lat="46.13185" lon="6.82398">
        <ele>2624.54</ele>
        <time>2022-03-21T13:03:38Z</time>
      </trkpt>
      <trkpt lat="46.13182" lon="6.82396">
        <ele>2624.54</ele>
        <time>2022-03-21T13:03:40Z</time>
      </trkpt>
      <trkpt lat="46.13181" lon="6.82396">
        <ele>2624.06</ele>
        <time>2022-03-21T13:03:41Z</time>
      </trkpt>
      <trkpt lat="46.13189" lon="6.82399">
        <ele>2623.58</ele>
        <time>2022-03-21T13:03:49Z</time>
      </trkpt>
      <trkpt lat="46.13187" lon="6.824">
        <ele>2623.58</ele>
        <time>2022-03-21T13:04:02Z</time>
      </trkpt>
      <trkpt lat="46.13176" lon="6.8239">
        <ele>2623.09</ele>
        <time>2022-03-21T13:04:08Z</time>
      </trkpt>
      <trkpt lat="46.13173" lon="6.82382">
        <ele>2623.09</ele>
        <time>2022-03-21T13:04:26Z</time>
      </trkpt>
      <trkpt lat="46.13178" lon="6.82387">
        <ele>2623.09</ele>
        <time>2022-03-21T13:04:29Z</time>
      </trkpt>
      <trkpt lat="46.13179" lon="6.82387">
        <ele>2623.09</ele>
        <time>2022-03-21T13:04:30Z</time>
      </trkpt>
      <trkpt lat="46.13181" lon="6.82388">
        <ele>2623.09</ele>
        <time>2022-03-21T13:04:33Z</time>
      </trkpt>
      <trkpt lat="46.13182" lon="6.82388">
        <ele>2623.09</ele>
        <time>2022-03-21T13:04:34Z</time>
      </trkpt>
      <trkpt lat="46.13185" lon="6.8239">
        <ele>2623.09</ele>
        <time>2022-03-21T13:04:38Z</time>
      </trkpt>
      <trkpt lat="46.13186" lon="6.82391">
        <ele>2623.09</ele>
        <time>2022-03-21T13:04:39Z</time>
      </trkpt>
      <trkpt lat="46.13189" lon="6.82392">
        <ele>2623.09</ele>
        <time>2022-03-21T13:04:41Z</time>
      </trkpt>
      <trkpt lat="46.13196" lon="6.82398">
        <ele>2623.09</ele>
        <time>2022-03-21T13:04:49Z</time>
      </trkpt>
      <trkpt lat="46.13204" lon="6.82402">
        <ele>2624.06</ele>
        <time>2022-03-21T13:04:55Z</time>
      </trkpt>
      <trkpt lat="46.13203" lon="6.82403">
        <ele>2623.58</ele>
        <time>2022-03-21T13:05:03Z</time>
      </trkpt>
      <trkpt lat="46.13236" lon="6.82421">
        <ele>2623.09</ele>
        <time>2022-03-21T13:05:32Z</time>
      </trkpt>
      <trkpt lat="46.13234" lon="6.82421">
        <ele>2623.09</ele>
        <time>2022-03-21T13:05:57Z</time>
      </trkpt>
      <trkpt lat="46.13228" lon="6.82422">
        <ele>2622.13</ele>
        <time>2022-03-21T13:06:05Z</time>
      </trkpt>
      <trkpt lat="46.13227" lon="6.82437">
        <ele>2618.77</ele>
        <time>2022-03-21T13:06:26Z</time>
      </trkpt>
      <trkpt lat="46.13227" lon="6.82437">
        <ele>2616.85</ele>
        <time>2022-03-21T13:06:57Z</time>
      </trkpt>
      <trkpt lat="46.13227" lon="6.82437">
        <ele>2613.48</ele>
        <time>2022-03-21T13:07:34Z</time>
      </trkpt>
      <trkpt lat="46.13098" lon="6.82512">
        <ele>2611.08</ele>
        <time>2022-03-21T13:08:48Z</time>
      </trkpt>
      <trkpt lat="46.13104" lon="6.82487">
        <ele>2610.6</ele>
        <time>2022-03-21T13:09:08Z</time>
      </trkpt>
      <trkpt lat="46.13104" lon="6.82487">
        <ele>2610.6</ele>
        <time>2022-03-21T13:09:39Z</time>
      </trkpt>
      <trkpt lat="46.13104" lon="6.82487">
        <ele>2609.64</ele>
        <time>2022-03-21T13:11:22Z</time>
      </trkpt>
      <trkpt lat="46.13122" lon="6.82404">
        <ele>2609.16</ele>
        <time>2022-03-21T13:11:53Z</time>
      </trkpt>
      <trkpt lat="46.13122" lon="6.82407">
        <ele>2609.16</ele>
        <time>2022-03-21T13:11:56Z</time>
      </trkpt>
      <trkpt lat="46.13122" lon="6.82413">
        <ele>2608.67</ele>
        <time>2022-03-21T13:12:00Z</time>
      </trkpt>
      <trkpt lat="46.13122" lon="6.82426">
        <ele>2607.23</ele>
        <time>2022-03-21T13:12:55Z</time>
      </trkpt>
      <trkpt lat="46.13119" lon="6.82437">
        <ele>2607.23</ele>
        <time>2022-03-21T13:13:01Z</time>
      </trkpt>
      <trkpt lat="46.13121" lon="6.82425">
        <ele>2605.79</ele>
        <time>2022-03-21T13:13:44Z</time>
      </trkpt>
      <trkpt lat="46.13122" lon="6.8243">
        <ele>2605.31</ele>
        <time>2022-03-21T13:13:49Z</time>
      </trkpt>
      <trkpt lat="46.13122" lon="6.82429">
        <ele>2605.31</ele>
        <time>2022-03-21T13:13:50Z</time>
      </trkpt>
      <trkpt lat="46.13116" lon="6.82425">
        <ele>2602.43</ele>
        <time>2022-03-21T13:14:37Z</time>
      </trkpt>
      <trkpt lat="46.13116" lon="6.82427">
        <ele>2601.95</ele>
        <time>2022-03-21T13:14:45Z</time>
      </trkpt>
      <trkpt lat="46.13114" lon="6.8243">
        <ele>2599.06</ele>
        <time>2022-03-21T13:15:49Z</time>
      </trkpt>
      <trkpt lat="46.13111" lon="6.82434">
        <ele>2597.14</ele>
        <time>2022-03-21T13:16:34Z</time>
      </trkpt>
      <trkpt lat="46.13111" lon="6.82436">
        <ele>2596.66</ele>
        <time>2022-03-21T13:16:35Z</time>
      </trkpt>
      <trkpt lat="46.13109" lon="6.82432">
        <ele>2595.7</ele>
        <time>2022-03-21T13:16:45Z</time>
      </trkpt>
      <trkpt lat="46.13108" lon="6.8243">
        <ele>2595.22</ele>
        <time>2022-03-21T13:16:54Z</time>
      </trkpt>
      <trkpt lat="46.13105" lon="6.8243">
        <ele>2593.77</ele>
        <time>2022-03-21T13:17:06Z</time>
      </trkpt>
      <trkpt lat="46.13104" lon="6.82433">
        <ele>2590.41</ele>
        <time>2022-03-21T13:17:33Z</time>
      </trkpt>
      <trkpt lat="46.13104" lon="6.8243">
        <ele>2589.93</ele>
        <time>2022-03-21T13:17:39Z</time>
      </trkpt>
      <trkpt lat="46.13102" lon="6.82432">
        <ele>2588.97</ele>
        <time>2022-03-21T13:17:46Z</time>
      </trkpt>
      <trkpt lat="46.131" lon="6.82436">
        <ele>2585.6</ele>
        <time>2022-03-21T13:18:20Z</time>
      </trkpt>
      <trkpt lat="46.13098" lon="6.82436">
        <ele>2583.68</ele>
        <time>2022-03-21T13:18:37Z</time>
      </trkpt>
      <trkpt lat="46.13096" lon="6.82436">
        <ele>2583.68</ele>
        <time>2022-03-21T13:18:38Z</time>
      </trkpt>
      <trkpt lat="46.13092" lon="6.82424">
        <ele>2580.8</ele>
        <time>2022-03-21T13:19:08Z</time>
      </trkpt>
      <trkpt lat="46.13092" lon="6.82421">
        <ele>2579.35</ele>
        <time>2022-03-21T13:19:31Z</time>
      </trkpt>
      <trkpt lat="46.13093" lon="6.82421">
        <ele>2579.35</ele>
        <time>2022-03-21T13:19:32Z</time>
      </trkpt>
      <trkpt lat="46.13101" lon="6.82419">
        <ele>2579.35</ele>
        <time>2022-03-21T13:19:38Z</time>
      </trkpt>
      <trkpt lat="46.13102" lon="6.82418">
        <ele>2579.35</ele>
        <time>2022-03-21T13:19:39Z</time>
      </trkpt>
      <trkpt lat="46.13128" lon="6.82402">
        <ele>2579.35</ele>
        <time>2022-03-21T13:20:07Z</time>
      </trkpt>
      <trkpt lat="46.13127" lon="6.82402">
        <ele>2579.35</ele>
        <time>2022-03-21T13:20:10Z</time>
      </trkpt>
      <trkpt lat="46.13126" lon="6.82402">
        <ele>2579.35</ele>
        <time>2022-03-21T13:20:11Z</time>
      </trkpt>
      <trkpt lat="46.13126" lon="6.82402">
        <ele>2578.87</ele>
        <time>2022-03-21T13:21:08Z</time>
      </trkpt>
      <trkpt lat="46.13118" lon="6.82436">
        <ele>2578.39</ele>
        <time>2022-03-21T13:22:04Z</time>
      </trkpt>
      <trkpt lat="46.13111" lon="6.82433">
        <ele>2579.35</ele>
        <time>2022-03-21T13:22:16Z</time>
      </trkpt>
      <trkpt lat="46.13108" lon="6.82432">
        <ele>2579.35</ele>
        <time>2022-03-21T13:22:17Z</time>
      </trkpt>
      <trkpt lat="46.13078" lon="6.82407">
        <ele>2578.87</ele>
        <time>2022-03-21T13:22:29Z</time>
      </trkpt>
      <trkpt lat="46.13046" lon="6.82399">
        <ele>2578.87</ele>
        <time>2022-03-21T13:22:37Z</time>
      </trkpt>
      <trkpt lat="46.13022" lon="6.82378">
        <ele>2579.35</ele>
        <time>2022-03-21T13:22:44Z</time>
      </trkpt>
      <trkpt lat="46.12995" lon="6.82364">
        <ele>2578.87</ele>
        <time>2022-03-21T13:22:50Z</time>
      </trkpt>
      <trkpt lat="46.12984" lon="6.82355">
        <ele>2578.87</ele>
        <time>2022-03-21T13:22:53Z</time>
      </trkpt>
      <trkpt lat="46.12905" lon="6.82271">
        <ele>2578.87</ele>
        <time>2022-03-21T13:23:15Z</time>
      </trkpt>
      <trkpt lat="46.12895" lon="6.82257">
        <ele>2578.39</ele>
        <time>2022-03-21T13:23:20Z</time>
      </trkpt>
      <trkpt lat="46.12895" lon="6.82257">
        <ele>2578.39</ele>
        <time>2022-03-21T13:23:51Z</time>
      </trkpt>
      <trkpt lat="46.13109" lon="6.82462">
        <ele>2578.87</ele>
        <time>2022-03-21T13:24:38Z</time>
      </trkpt>
      <trkpt lat="46.13104" lon="6.82462">
        <ele>2578.87</ele>
        <time>2022-03-21T13:24:41Z</time>
      </trkpt>
      <trkpt lat="46.13104" lon="6.82462">
        <ele>2578.87</ele>
        <time>2022-03-21T13:24:42Z</time>
      </trkpt>
      <trkpt lat="46.13105" lon="6.82458">
        <ele>2578.87</ele>
        <time>2022-03-21T13:24:45Z</time>
      </trkpt>
      <trkpt lat="46.13108" lon="6.82446">
        <ele>2579.35</ele>
        <time>2022-03-21T13:24:56Z</time>
      </trkpt>
      <trkpt lat="46.13127" lon="6.8244">
        <ele>2578.39</ele>
        <time>2022-03-21T13:25:20Z</time>
      </trkpt>
      <trkpt lat="46.13126" lon="6.82432">
        <ele>2578.87</ele>
        <time>2022-03-21T13:25:32Z</time>
      </trkpt>
      <trkpt lat="46.13123" lon="6.82428">
        <ele>2578.87</ele>
        <time>2022-03-21T13:25:37Z</time>
      </trkpt>
      <trkpt lat="46.13127" lon="6.82433">
        <ele>2578.39</ele>
        <time>2022-03-21T13:25:58Z</time>
      </trkpt>
      <trkpt lat="46.13128" lon="6.82433">
        <ele>2578.39</ele>
        <time>2022-03-21T13:25:59Z</time>
      </trkpt>
      <trkpt lat="46.13131" lon="6.82433">
        <ele>2578.87</ele>
        <time>2022-03-21T13:26:01Z</time>
      </trkpt>
      <trkpt lat="46.13162" lon="6.82418">
        <ele>2579.35</ele>
        <time>2022-03-21T13:26:26Z</time>
      </trkpt>
      <trkpt lat="46.13145" lon="6.82438">
        <ele>2578.87</ele>
        <time>2022-03-21T13:26:49Z</time>
      </trkpt>
      <trkpt lat="46.13142" lon="6.8244">
        <ele>2578.87</ele>
        <time>2022-03-21T13:26:51Z</time>
      </trkpt>
      <trkpt lat="46.13109" lon="6.82465">
        <ele>2578.87</ele>
        <time>2022-03-21T13:27:08Z</time>
      </trkpt>
      <trkpt lat="46.13092" lon="6.82461">
        <ele>2578.39</ele>
        <time>2022-03-21T13:27:25Z</time>
      </trkpt>
      <trkpt lat="46.13086" lon="6.82445">
        <ele>2578.39</ele>
        <time>2022-03-21T13:27:57Z</time>
      </trkpt>
      <trkpt lat="46.13086" lon="6.82446">
        <ele>2578.39</ele>
        <time>2022-03-21T13:27:58Z</time>
      </trkpt>
      <trkpt lat="46.13093" lon="6.82448">
        <ele>2578.87</ele>
        <time>2022-03-21T13:28:02Z</time>
      </trkpt>
      <trkpt lat="46.13094" lon="6.82449">
        <ele>2578.87</ele>
        <time>2022-03-21T13:28:03Z</time>
      </trkpt>
      <trkpt lat="46.13098" lon="6.82451">
        <ele>2578.87</ele>
        <time>2022-03-21T13:28:08Z</time>
      </trkpt>
      <trkpt lat="46.13099" lon="6.82452">
        <ele>2578.87</ele>
        <time>2022-03-21T13:28:09Z</time>
      </trkpt>
      <trkpt lat="46.13122" lon="6.82454">
        <ele>2578.87</ele>
        <time>2022-03-21T13:28:53Z</time>
      </trkpt>
      <trkpt lat="46.13137" lon="6.82467">
        <ele>2578.87</ele>
        <time>2022-03-21T13:29:20Z</time>
      </trkpt>
      <trkpt lat="46.13159" lon="6.82458">
        <ele>2578.39</ele>
        <time>2022-03-21T13:29:33Z</time>
      </trkpt>
      <trkpt lat="46.1318" lon="6.8243">
        <ele>2579.35</ele>
        <time>2022-03-21T13:29:55Z</time>
      </trkpt>
      <trkpt lat="46.13172" lon="6.82418">
        <ele>2578.87</ele>
        <time>2022-03-21T13:30:18Z</time>
      </trkpt>
      <trkpt lat="46.1316" lon="6.82425">
        <ele>2578.87</ele>
        <time>2022-03-21T13:30:25Z</time>
      </trkpt>
      <trkpt lat="46.13156" lon="6.82427">
        <ele>2578.87</ele>
        <time>2022-03-21T13:30:28Z</time>
      </trkpt>
      <trkpt lat="46.13151" lon="6.82439">
        <ele>2579.35</ele>
        <time>2022-03-21T13:30:41Z</time>
      </trkpt>
      <trkpt lat="46.13152" lon="6.8244">
        <ele>2579.35</ele>
        <time>2022-03-21T13:30:42Z</time>
      </trkpt>
      <trkpt lat="46.13115" lon="6.82467">
        <ele>2579.35</ele>
        <time>2022-03-21T13:31:05Z</time>
      </trkpt>
      <trkpt lat="46.13107" lon="6.82453">
        <ele>2575.51</ele>
        <time>2022-03-21T13:31:16Z</time>
      </trkpt>
      <trkpt lat="46.13104" lon="6.82452">
        <ele>2574.07</ele>
        <time>2022-03-21T13:31:17Z</time>
      </trkpt>
      <trkpt lat="46.13098" lon="6.8245">
        <ele>2569.74</ele>
        <time>2022-03-21T13:31:20Z</time>
      </trkpt>
      <trkpt lat="46.13093" lon="6.82447">
        <ele>2567.82</ele>
        <time>2022-03-21T13:31:21Z</time>
      </trkpt>
      <trkpt lat="46.1309" lon="6.82445">
        <ele>2565.9</ele>
        <time>2022-03-21T13:31:22Z</time>
      </trkpt>
      <trkpt lat="46.13085" lon="6.8244">
        <ele>2561.57</ele>
        <time>2022-03-21T13:31:24Z</time>
      </trkpt>
      <trkpt lat="46.1308" lon="6.82442">
        <ele>2557.24</ele>
        <time>2022-03-21T13:31:26Z</time>
      </trkpt>
      <trkpt lat="46.13076" lon="6.82438">
        <ele>2552.44</ele>
        <time>2022-03-21T13:31:28Z</time>
      </trkpt>
      <trkpt lat="46.13076" lon="6.82436">
        <ele>2549.07</ele>
        <time>2022-03-21T13:31:31Z</time>
      </trkpt>
      <trkpt lat="46.13071" lon="6.82434">
        <ele>2548.11</ele>
        <time>2022-03-21T13:31:33Z</time>
      </trkpt>
      <trkpt lat="46.13069" lon="6.82436">
        <ele>2547.15</ele>
        <time>2022-03-21T13:31:34Z</time>
      </trkpt>
      <trkpt lat="46.13066" lon="6.82439">
        <ele>2545.23</ele>
        <time>2022-03-21T13:31:35Z</time>
      </trkpt>
      <trkpt lat="46.13063" lon="6.82438">
        <ele>2543.79</ele>
        <time>2022-03-21T13:31:36Z</time>
      </trkpt>
      <trkpt lat="46.1306" lon="6.82439">
        <ele>2541.38</ele>
        <time>2022-03-21T13:31:37Z</time>
      </trkpt>
      <trkpt lat="46.13057" lon="6.82441">
        <ele>2539.94</ele>
        <time>2022-03-21T13:31:38Z</time>
      </trkpt>
      <trkpt lat="46.13056" lon="6.82447">
        <ele>2538.02</ele>
        <time>2022-03-21T13:31:39Z</time>
      </trkpt>
      <trkpt lat="46.13053" lon="6.82453">
        <ele>2535.61</ele>
        <time>2022-03-21T13:31:40Z</time>
      </trkpt>
      <trkpt lat="46.13049" lon="6.82454">
        <ele>2533.21</ele>
        <time>2022-03-21T13:31:41Z</time>
      </trkpt>
      <trkpt lat="46.13045" lon="6.82454">
        <ele>2530.33</ele>
        <time>2022-03-21T13:31:42Z</time>
      </trkpt>
      <trkpt lat="46.13041" lon="6.82456">
        <ele>2528.4</ele>
        <time>2022-03-21T13:31:43Z</time>
      </trkpt>
      <trkpt lat="46.13039" lon="6.8246">
        <ele>2526</ele>
        <time>2022-03-21T13:31:44Z</time>
      </trkpt>
      <trkpt lat="46.13036" lon="6.82465">
        <ele>2523.6</ele>
        <time>2022-03-21T13:31:45Z</time>
      </trkpt>
      <trkpt lat="46.13032" lon="6.82467">
        <ele>2521.19</ele>
        <time>2022-03-21T13:31:46Z</time>
      </trkpt>
      <trkpt lat="46.13028" lon="6.82468">
        <ele>2518.79</ele>
        <time>2022-03-21T13:31:47Z</time>
      </trkpt>
      <trkpt lat="46.13025" lon="6.82469">
        <ele>2515.43</ele>
        <time>2022-03-21T13:31:48Z</time>
      </trkpt>
      <trkpt lat="46.13023" lon="6.82471">
        <ele>2512.06</ele>
        <time>2022-03-21T13:31:49Z</time>
      </trkpt>
      <trkpt lat="46.13023" lon="6.82473">
        <ele>2510.14</ele>
        <time>2022-03-21T13:31:50Z</time>
      </trkpt>
      <trkpt lat="46.13022" lon="6.82476">
        <ele>2507.74</ele>
        <time>2022-03-21T13:31:53Z</time>
      </trkpt>
      <trkpt lat="46.13023" lon="6.82477">
        <ele>2507.26</ele>
        <time>2022-03-21T13:31:54Z</time>
      </trkpt>
      <trkpt lat="46.13023" lon="6.82481">
        <ele>2506.77</ele>
        <time>2022-03-21T13:32:00Z</time>
      </trkpt>
      <trkpt lat="46.13021" lon="6.82485">
        <ele>2506.77</ele>
        <time>2022-03-21T13:32:02Z</time>
      </trkpt>
      <trkpt lat="46.13019" lon="6.82488">
        <ele>2506.77</ele>
        <time>2022-03-21T13:32:03Z</time>
      </trkpt>
      <trkpt lat="46.13016" lon="6.82491">
        <ele>2506.29</ele>
        <time>2022-03-21T13:32:04Z</time>
      </trkpt>
      <trkpt lat="46.13013" lon="6.82489">
        <ele>2502.45</ele>
        <time>2022-03-21T13:32:06Z</time>
      </trkpt>
      <trkpt lat="46.13006" lon="6.82488">
        <ele>2499.08</ele>
        <time>2022-03-21T13:32:08Z</time>
      </trkpt>
      <trkpt lat="46.13004" lon="6.82491">
        <ele>2497.16</ele>
        <time>2022-03-21T13:32:09Z</time>
      </trkpt>
      <trkpt lat="46.13" lon="6.82495">
        <ele>2495.24</ele>
        <time>2022-03-21T13:32:10Z</time>
      </trkpt>
      <trkpt lat="46.12994" lon="6.82498">
        <ele>2490.91</ele>
        <time>2022-03-21T13:32:12Z</time>
      </trkpt>
      <trkpt lat="46.12989" lon="6.82492">
        <ele>2488.03</ele>
        <time>2022-03-21T13:32:13Z</time>
      </trkpt>
      <trkpt lat="46.12986" lon="6.82485">
        <ele>2486.11</ele>
        <time>2022-03-21T13:32:14Z</time>
      </trkpt>
      <trkpt lat="46.12981" lon="6.8248">
        <ele>2483.22</ele>
        <time>2022-03-21T13:32:16Z</time>
      </trkpt>
      <trkpt lat="46.12972" lon="6.82482">
        <ele>2477.94</ele>
        <time>2022-03-21T13:32:18Z</time>
      </trkpt>
      <trkpt lat="46.12966" lon="6.82479">
        <ele>2474.57</ele>
        <time>2022-03-21T13:32:19Z</time>
      </trkpt>
      <trkpt lat="46.12961" lon="6.82476">
        <ele>2471.21</ele>
        <time>2022-03-21T13:32:20Z</time>
      </trkpt>
      <trkpt lat="46.12955" lon="6.82477">
        <ele>2469.28</ele>
        <time>2022-03-21T13:32:21Z</time>
      </trkpt>
      <trkpt lat="46.12951" lon="6.82482">
        <ele>2466.4</ele>
        <time>2022-03-21T13:32:22Z</time>
      </trkpt>
      <trkpt lat="46.12947" lon="6.82488">
        <ele>2464</ele>
        <time>2022-03-21T13:32:23Z</time>
      </trkpt>
      <trkpt lat="46.12942" lon="6.82492">
        <ele>2460.63</ele>
        <time>2022-03-21T13:32:24Z</time>
      </trkpt>
      <trkpt lat="46.12936" lon="6.82491">
        <ele>2456.79</ele>
        <time>2022-03-21T13:32:25Z</time>
      </trkpt>
      <trkpt lat="46.12931" lon="6.82489">
        <ele>2453.9</ele>
        <time>2022-03-21T13:32:26Z</time>
      </trkpt>
      <trkpt lat="46.12926" lon="6.82492">
        <ele>2451.98</ele>
        <time>2022-03-21T13:32:27Z</time>
      </trkpt>
      <trkpt lat="46.12922" lon="6.82499">
        <ele>2448.13</ele>
        <time>2022-03-21T13:32:28Z</time>
      </trkpt>
      <trkpt lat="46.12918" lon="6.82505">
        <ele>2444.29</ele>
        <time>2022-03-21T13:32:29Z</time>
      </trkpt>
      <trkpt lat="46.12912" lon="6.82505">
        <ele>2440.44</ele>
        <time>2022-03-21T13:32:30Z</time>
      </trkpt>
      <trkpt lat="46.12906" lon="6.82502">
        <ele>2436.6</ele>
        <time>2022-03-21T13:32:31Z</time>
      </trkpt>
      <trkpt lat="46.12901" lon="6.82498">
        <ele>2433.23</ele>
        <time>2022-03-21T13:32:32Z</time>
      </trkpt>
      <trkpt lat="46.12894" lon="6.82501">
        <ele>2431.31</ele>
        <time>2022-03-21T13:32:33Z</time>
      </trkpt>
      <trkpt lat="46.1289" lon="6.82507">
        <ele>2428.43</ele>
        <time>2022-03-21T13:32:34Z</time>
      </trkpt>
      <trkpt lat="46.12884" lon="6.82515">
        <ele>2425.06</ele>
        <time>2022-03-21T13:32:35Z</time>
      </trkpt>
      <trkpt lat="46.12878" lon="6.82517">
        <ele>2421.22</ele>
        <time>2022-03-21T13:32:36Z</time>
      </trkpt>
      <trkpt lat="46.1287" lon="6.82516">
        <ele>2416.89</ele>
        <time>2022-03-21T13:32:37Z</time>
      </trkpt>
      <trkpt lat="46.12863" lon="6.82519">
        <ele>2414.49</ele>
        <time>2022-03-21T13:32:38Z</time>
      </trkpt>
      <trkpt lat="46.12857" lon="6.82527">
        <ele>2409.2</ele>
        <time>2022-03-21T13:32:39Z</time>
      </trkpt>
      <trkpt lat="46.12852" lon="6.82536">
        <ele>2405.84</ele>
        <time>2022-03-21T13:32:40Z</time>
      </trkpt>
      <trkpt lat="46.12846" lon="6.82542">
        <ele>2401.03</ele>
        <time>2022-03-21T13:32:41Z</time>
      </trkpt>
      <trkpt lat="46.12838" lon="6.82541">
        <ele>2396.22</ele>
        <time>2022-03-21T13:32:42Z</time>
      </trkpt>
      <trkpt lat="46.12831" lon="6.82539">
        <ele>2391.42</ele>
        <time>2022-03-21T13:32:43Z</time>
      </trkpt>
      <trkpt lat="46.12824" lon="6.82539">
        <ele>2387.57</ele>
        <time>2022-03-21T13:32:44Z</time>
      </trkpt>
      <trkpt lat="46.12818" lon="6.82545">
        <ele>2384.21</ele>
        <time>2022-03-21T13:32:45Z</time>
      </trkpt>
      <trkpt lat="46.12812" lon="6.82545">
        <ele>2379.4</ele>
        <time>2022-03-21T13:32:46Z</time>
      </trkpt>
      <trkpt lat="46.12803" lon="6.8253">
        <ele>2374.59</ele>
        <time>2022-03-21T13:32:47Z</time>
      </trkpt>
      <trkpt lat="46.12796" lon="6.82513">
        <ele>2369.79</ele>
        <time>2022-03-21T13:32:48Z</time>
      </trkpt>
      <trkpt lat="46.1279" lon="6.82515">
        <ele>2366.42</ele>
        <time>2022-03-21T13:32:49Z</time>
      </trkpt>
      <trkpt lat="46.12783" lon="6.82517">
        <ele>2362.1</ele>
        <time>2022-03-21T13:32:50Z</time>
      </trkpt>
      <trkpt lat="46.12774" lon="6.82479">
        <ele>2357.77</ele>
        <time>2022-03-21T13:32:51Z</time>
      </trkpt>
      <trkpt lat="46.12765" lon="6.82453">
        <ele>2352</ele>
        <time>2022-03-21T13:32:52Z</time>
      </trkpt>
      <trkpt lat="46.12763" lon="6.82455">
        <ele>2347.68</ele>
        <time>2022-03-21T13:32:53Z</time>
      </trkpt>
      <trkpt lat="46.12759" lon="6.82463">
        <ele>2343.83</ele>
        <time>2022-03-21T13:32:54Z</time>
      </trkpt>
      <trkpt lat="46.12756" lon="6.82474">
        <ele>2339.02</ele>
        <time>2022-03-21T13:32:55Z</time>
      </trkpt>
      <trkpt lat="46.12752" lon="6.82471">
        <ele>2335.18</ele>
        <time>2022-03-21T13:32:56Z</time>
      </trkpt>
      <trkpt lat="46.12749" lon="6.82467">
        <ele>2330.37</ele>
        <time>2022-03-21T13:32:57Z</time>
      </trkpt>
      <trkpt lat="46.12747" lon="6.82462">
        <ele>2326.53</ele>
        <time>2022-03-21T13:32:58Z</time>
      </trkpt>
      <trkpt lat="46.12747" lon="6.82457">
        <ele>2323.16</ele>
        <time>2022-03-21T13:32:59Z</time>
      </trkpt>
      <trkpt lat="46.12747" lon="6.82453">
        <ele>2321.72</ele>
        <time>2022-03-21T13:33:00Z</time>
      </trkpt>
      <trkpt lat="46.12745" lon="6.82452">
        <ele>2318.84</ele>
        <time>2022-03-21T13:33:01Z</time>
      </trkpt>
      <trkpt lat="46.12744" lon="6.82454">
        <ele>2316.43</ele>
        <time>2022-03-21T13:33:02Z</time>
      </trkpt>
      <trkpt lat="46.1274" lon="6.82453">
        <ele>2310.67</ele>
        <time>2022-03-21T13:33:04Z</time>
      </trkpt>
      <trkpt lat="46.12741" lon="6.82455">
        <ele>2307.78</ele>
        <time>2022-03-21T13:33:05Z</time>
      </trkpt>
      <trkpt lat="46.12742" lon="6.82458">
        <ele>2305.86</ele>
        <time>2022-03-21T13:33:06Z</time>
      </trkpt>
      <trkpt lat="46.12743" lon="6.82458">
        <ele>2304.42</ele>
        <time>2022-03-21T13:33:07Z</time>
      </trkpt>
      <trkpt lat="46.12748" lon="6.82463">
        <ele>2302.98</ele>
        <time>2022-03-21T13:33:10Z</time>
      </trkpt>
      <trkpt lat="46.12761" lon="6.82475">
        <ele>2302.49</ele>
        <time>2022-03-21T13:33:18Z</time>
      </trkpt>
      <trkpt lat="46.12762" lon="6.82476">
        <ele>2302.49</ele>
        <time>2022-03-21T13:33:19Z</time>
      </trkpt>
      <trkpt lat="46.12769" lon="6.82483">
        <ele>2302.49</ele>
        <time>2022-03-21T13:33:24Z</time>
      </trkpt>
      <trkpt lat="46.1277" lon="6.82481">
        <ele>2302.49</ele>
        <time>2022-03-21T13:33:26Z</time>
      </trkpt>
      <trkpt lat="46.12769" lon="6.82478">
        <ele>2302.49</ele>
        <time>2022-03-21T13:33:27Z</time>
      </trkpt>
      <trkpt lat="46.12769" lon="6.82475">
        <ele>2302.01</ele>
        <time>2022-03-21T13:33:28Z</time>
      </trkpt>
      <trkpt lat="46.12766" lon="6.82464">
        <ele>2300.57</ele>
        <time>2022-03-21T13:33:30Z</time>
      </trkpt>
      <trkpt lat="46.1276" lon="6.82465">
        <ele>2299.13</ele>
        <time>2022-03-21T13:33:31Z</time>
      </trkpt>
      <trkpt lat="46.12754" lon="6.82464">
        <ele>2297.21</ele>
        <time>2022-03-21T13:33:32Z</time>
      </trkpt>
      <trkpt lat="46.12751" lon="6.82459">
        <ele>2294.8</ele>
        <time>2022-03-21T13:33:33Z</time>
      </trkpt>
      <trkpt lat="46.12749" lon="6.82452">
        <ele>2290.96</ele>
        <time>2022-03-21T13:33:34Z</time>
      </trkpt>
      <trkpt lat="46.12747" lon="6.82445">
        <ele>2288.56</ele>
        <time>2022-03-21T13:33:35Z</time>
      </trkpt>
      <trkpt lat="46.12746" lon="6.82439">
        <ele>2286.63</ele>
        <time>2022-03-21T13:33:36Z</time>
      </trkpt>
      <trkpt lat="46.12738" lon="6.82417">
        <ele>2282.31</ele>
        <time>2022-03-21T13:33:39Z</time>
      </trkpt>
      <trkpt lat="46.12734" lon="6.82402">
        <ele>2279.42</ele>
        <time>2022-03-21T13:33:41Z</time>
      </trkpt>
      <trkpt lat="46.12728" lon="6.82381">
        <ele>2276.54</ele>
        <time>2022-03-21T13:33:47Z</time>
      </trkpt>
      <trkpt lat="46.12729" lon="6.82377">
        <ele>2274.14</ele>
        <time>2022-03-21T13:33:51Z</time>
      </trkpt>
      <trkpt lat="46.12722" lon="6.82357">
        <ele>2271.25</ele>
        <time>2022-03-21T13:34:11Z</time>
      </trkpt>
      <trkpt lat="46.12717" lon="6.82336">
        <ele>2267.41</ele>
        <time>2022-03-21T13:34:14Z</time>
      </trkpt>
      <trkpt lat="46.1271" lon="6.82316">
        <ele>2265</ele>
        <time>2022-03-21T13:34:17Z</time>
      </trkpt>
      <trkpt lat="46.12708" lon="6.8231">
        <ele>2263.56</ele>
        <time>2022-03-21T13:34:18Z</time>
      </trkpt>
      <trkpt lat="46.12705" lon="6.82306">
        <ele>2262.6</ele>
        <time>2022-03-21T13:34:19Z</time>
      </trkpt>
      <trkpt lat="46.12702" lon="6.82303">
        <ele>2262.12</ele>
        <time>2022-03-21T13:34:20Z</time>
      </trkpt>
      <trkpt lat="46.12699" lon="6.823">
        <ele>2261.64</ele>
        <time>2022-03-21T13:34:21Z</time>
      </trkpt>
      <trkpt lat="46.12697" lon="6.82297">
        <ele>2260.68</ele>
        <time>2022-03-21T13:34:22Z</time>
      </trkpt>
      <trkpt lat="46.12694" lon="6.82293">
        <ele>2260.2</ele>
        <time>2022-03-21T13:34:23Z</time>
      </trkpt>
      <trkpt lat="46.12691" lon="6.8229">
        <ele>2259.72</ele>
        <time>2022-03-21T13:34:24Z</time>
      </trkpt>
      <trkpt lat="46.12687" lon="6.82256">
        <ele>2256.83</ele>
        <time>2022-03-21T13:34:31Z</time>
      </trkpt>
      <trkpt lat="46.12686" lon="6.8224">
        <ele>2254.43</ele>
        <time>2022-03-21T13:34:38Z</time>
      </trkpt>
      <trkpt lat="46.12682" lon="6.82217">
        <ele>2251.06</ele>
        <time>2022-03-21T13:34:42Z</time>
      </trkpt>
      <trkpt lat="46.12675" lon="6.82185">
        <ele>2247.7</ele>
        <time>2022-03-21T13:34:47Z</time>
      </trkpt>
      <trkpt lat="46.12667" lon="6.82157">
        <ele>2244.82</ele>
        <time>2022-03-21T13:34:51Z</time>
      </trkpt>
      <trkpt lat="46.12661" lon="6.8213">
        <ele>2241.45</ele>
        <time>2022-03-21T13:34:55Z</time>
      </trkpt>
      <trkpt lat="46.12653" lon="6.82106">
        <ele>2238.09</ele>
        <time>2022-03-21T13:34:59Z</time>
      </trkpt>
      <trkpt lat="46.12643" lon="6.8208">
        <ele>2234.72</ele>
        <time>2022-03-21T13:35:04Z</time>
      </trkpt>
      <trkpt lat="46.12636" lon="6.82052">
        <ele>2231.84</ele>
        <time>2022-03-21T13:35:09Z</time>
      </trkpt>
      <trkpt lat="46.1263" lon="6.82028">
        <ele>2228.95</ele>
        <time>2022-03-21T13:35:14Z</time>
      </trkpt>
      <trkpt lat="46.12621" lon="6.81999">
        <ele>2226.55</ele>
        <time>2022-03-21T13:35:21Z</time>
      </trkpt>
      <trkpt lat="46.12613" lon="6.81974">
        <ele>2224.15</ele>
        <time>2022-03-21T13:35:32Z</time>
      </trkpt>
      <trkpt lat="46.12614" lon="6.81965">
        <ele>2223.19</ele>
        <time>2022-03-21T13:36:32Z</time>
      </trkpt>
      <trkpt lat="46.1261" lon="6.81969">
        <ele>2223.19</ele>
        <time>2022-03-21T13:37:00Z</time>
      </trkpt>
      <trkpt lat="46.12609" lon="6.81972">
        <ele>2223.67</ele>
        <time>2022-03-21T13:37:21Z</time>
      </trkpt>
      <trkpt lat="46.12612" lon="6.81973">
        <ele>2223.19</ele>
        <time>2022-03-21T13:37:52Z</time>
      </trkpt>
      <trkpt lat="46.12613" lon="6.81975">
        <ele>2223.19</ele>
        <time>2022-03-21T13:38:33Z</time>
      </trkpt>
      <trkpt lat="46.12611" lon="6.8197">
        <ele>2223.19</ele>
        <time>2022-03-21T13:39:14Z</time>
      </trkpt>
      <trkpt lat="46.12611" lon="6.81969">
        <ele>2223.67</ele>
        <time>2022-03-21T13:39:18Z</time>
      </trkpt>
      <trkpt lat="46.12611" lon="6.8197">
        <ele>2223.19</ele>
        <time>2022-03-21T13:39:29Z</time>
      </trkpt>
      <trkpt lat="46.1261" lon="6.8197">
        <ele>2223.19</ele>
        <time>2022-03-21T13:39:30Z</time>
      </trkpt>
      <trkpt lat="46.12612" lon="6.8197">
        <ele>2223.67</ele>
        <time>2022-03-21T13:40:12Z</time>
      </trkpt>
      <trkpt lat="46.12611" lon="6.81971">
        <ele>2223.67</ele>
        <time>2022-03-21T13:40:16Z</time>
      </trkpt>
      <trkpt lat="46.12612" lon="6.8197">
        <ele>2223.67</ele>
        <time>2022-03-21T13:40:52Z</time>
      </trkpt>
      <trkpt lat="46.12608" lon="6.8197">
        <ele>2223.67</ele>
        <time>2022-03-21T13:41:21Z</time>
      </trkpt>
      <trkpt lat="46.12605" lon="6.81968">
        <ele>2223.67</ele>
        <time>2022-03-21T13:41:48Z</time>
      </trkpt>
      <trkpt lat="46.12605" lon="6.81969">
        <ele>2223.67</ele>
        <time>2022-03-21T13:42:12Z</time>
      </trkpt>
      <trkpt lat="46.12607" lon="6.81969">
        <ele>2223.67</ele>
        <time>2022-03-21T13:42:20Z</time>
      </trkpt>
      <trkpt lat="46.12608" lon="6.81971">
        <ele>2223.67</ele>
        <time>2022-03-21T13:42:27Z</time>
      </trkpt>
      <trkpt lat="46.12608" lon="6.81971">
        <ele>2223.67</ele>
        <time>2022-03-21T13:42:36Z</time>
      </trkpt>
      <trkpt lat="46.1261" lon="6.81969">
        <ele>2223.19</ele>
        <time>2022-03-21T13:43:12Z</time>
      </trkpt>
      <trkpt lat="46.12609" lon="6.81971">
        <ele>2223.19</ele>
        <time>2022-03-21T13:43:44Z</time>
      </trkpt>
      <trkpt lat="46.1261" lon="6.8197">
        <ele>2223.19</ele>
        <time>2022-03-21T13:44:14Z</time>
      </trkpt>
      <trkpt lat="46.12609" lon="6.81977">
        <ele>2223.19</ele>
        <time>2022-03-21T13:44:46Z</time>
      </trkpt>
      <trkpt lat="46.12607" lon="6.81977">
        <ele>2223.67</ele>
        <time>2022-03-21T13:44:56Z</time>
      </trkpt>
      <trkpt lat="46.12607" lon="6.81976">
        <ele>2223.67</ele>
        <time>2022-03-21T13:44:57Z</time>
      </trkpt>
      <trkpt lat="46.12607" lon="6.81974">
        <ele>2224.15</ele>
        <time>2022-03-21T13:45:07Z</time>
      </trkpt>
      <trkpt lat="46.12606" lon="6.81974">
        <ele>2223.19</ele>
        <time>2022-03-21T13:45:18Z</time>
      </trkpt>
      <trkpt lat="46.12605" lon="6.81973">
        <ele>2223.19</ele>
        <time>2022-03-21T13:45:19Z</time>
      </trkpt>
      <trkpt lat="46.12605" lon="6.81971">
        <ele>2223.19</ele>
        <time>2022-03-21T13:45:51Z</time>
      </trkpt>
      <trkpt lat="46.12605" lon="6.81972">
        <ele>2223.19</ele>
        <time>2022-03-21T13:45:59Z</time>
      </trkpt>
      <trkpt lat="46.12605" lon="6.81972">
        <ele>2223.19</ele>
        <time>2022-03-21T13:46:21Z</time>
      </trkpt>
      <trkpt lat="46.12602" lon="6.81946">
        <ele>2225.59</ele>
        <time>2022-03-21T13:46:45Z</time>
      </trkpt>
      <trkpt lat="46.126" lon="6.81919">
        <ele>2227.03</ele>
        <time>2022-03-21T13:47:05Z</time>
      </trkpt>
      <trkpt lat="46.12597" lon="6.81902">
        <ele>2229.43</ele>
        <time>2022-03-21T13:47:37Z</time>
      </trkpt>
      <trkpt lat="46.12583" lon="6.81887">
        <ele>2232.32</ele>
        <time>2022-03-21T13:48:06Z</time>
      </trkpt>
      <trkpt lat="46.12574" lon="6.81877">
        <ele>2235.2</ele>
        <time>2022-03-21T13:48:34Z</time>
      </trkpt>
      <trkpt lat="46.12581" lon="6.81876">
        <ele>2238.57</ele>
        <time>2022-03-21T13:49:03Z</time>
      </trkpt>
      <trkpt lat="46.12576" lon="6.81869">
        <ele>2241.45</ele>
        <time>2022-03-21T13:49:27Z</time>
      </trkpt>
      <trkpt lat="46.12575" lon="6.81869">
        <ele>2241.93</ele>
        <time>2022-03-21T13:49:32Z</time>
      </trkpt>
      <trkpt lat="46.1256" lon="6.81871">
        <ele>2243.37</ele>
        <time>2022-03-21T13:49:59Z</time>
      </trkpt>
      <trkpt lat="46.12552" lon="6.81871">
        <ele>2246.74</ele>
        <time>2022-03-21T13:50:18Z</time>
      </trkpt>
      <trkpt lat="46.12547" lon="6.81859">
        <ele>2249.62</ele>
        <time>2022-03-21T13:50:38Z</time>
      </trkpt>
      <trkpt lat="46.12546" lon="6.81853">
        <ele>2250.58</ele>
        <time>2022-03-21T13:50:44Z</time>
      </trkpt>
      <trkpt lat="46.12545" lon="6.81849">
        <ele>2251.06</ele>
        <time>2022-03-21T13:50:48Z</time>
      </trkpt>
      <trkpt lat="46.12543" lon="6.81835">
        <ele>2254.43</ele>
        <time>2022-03-21T13:51:06Z</time>
      </trkpt>
      <trkpt lat="46.12542" lon="6.81834">
        <ele>2254.43</ele>
        <time>2022-03-21T13:51:07Z</time>
      </trkpt>
      <trkpt lat="46.12542" lon="6.81832">
        <ele>2254.43</ele>
        <time>2022-03-21T13:51:08Z</time>
      </trkpt>
      <trkpt lat="46.12543" lon="6.81818">
        <ele>2256.35</ele>
        <time>2022-03-21T13:51:22Z</time>
      </trkpt>
      <trkpt lat="46.12543" lon="6.81812">
        <ele>2257.31</ele>
        <time>2022-03-21T13:51:28Z</time>
      </trkpt>
      <trkpt lat="46.12544" lon="6.81792">
        <ele>2260.2</ele>
        <time>2022-03-21T13:51:48Z</time>
      </trkpt>
      <trkpt lat="46.12539" lon="6.81766">
        <ele>2263.08</ele>
        <time>2022-03-21T13:52:11Z</time>
      </trkpt>
      <trkpt lat="46.12534" lon="6.81747">
        <ele>2265.96</ele>
        <time>2022-03-21T13:52:34Z</time>
      </trkpt>
      <trkpt lat="46.12532" lon="6.81726">
        <ele>2269.33</ele>
        <time>2022-03-21T13:52:56Z</time>
      </trkpt>
      <trkpt lat="46.12531" lon="6.8171">
        <ele>2271.73</ele>
        <time>2022-03-21T13:53:12Z</time>
      </trkpt>
      <trkpt lat="46.12521" lon="6.81693">
        <ele>2274.62</ele>
        <time>2022-03-21T13:53:46Z</time>
      </trkpt>
      <trkpt lat="46.12512" lon="6.81684">
        <ele>2277.5</ele>
        <time>2022-03-21T13:54:09Z</time>
      </trkpt>
      <trkpt lat="46.12511" lon="6.81683">
        <ele>2277.98</ele>
        <time>2022-03-21T13:54:11Z</time>
      </trkpt>
      <trkpt lat="46.12515" lon="6.81678">
        <ele>2280.87</ele>
        <time>2022-03-21T13:54:37Z</time>
      </trkpt>
      <trkpt lat="46.1251" lon="6.81671">
        <ele>2284.23</ele>
        <time>2022-03-21T13:54:57Z</time>
      </trkpt>
      <trkpt lat="46.12506" lon="6.81666">
        <ele>2285.67</ele>
        <time>2022-03-21T13:55:05Z</time>
      </trkpt>
      <trkpt lat="46.12498" lon="6.8166">
        <ele>2289.04</ele>
        <time>2022-03-21T13:55:20Z</time>
      </trkpt>
      <trkpt lat="46.12496" lon="6.81659">
        <ele>2289.52</ele>
        <time>2022-03-21T13:55:23Z</time>
      </trkpt>
      <trkpt lat="46.12499" lon="6.81652">
        <ele>2290.96</ele>
        <time>2022-03-21T13:55:33Z</time>
      </trkpt>
      <trkpt lat="46.125" lon="6.81651">
        <ele>2291.44</ele>
        <time>2022-03-21T13:55:34Z</time>
      </trkpt>
      <trkpt lat="46.12501" lon="6.8165">
        <ele>2291.44</ele>
        <time>2022-03-21T13:55:35Z</time>
      </trkpt>
      <trkpt lat="46.12501" lon="6.81649">
        <ele>2291.44</ele>
        <time>2022-03-21T13:55:36Z</time>
      </trkpt>
      <trkpt lat="46.12502" lon="6.81648">
        <ele>2291.44</ele>
        <time>2022-03-21T13:55:37Z</time>
      </trkpt>
      <trkpt lat="46.12498" lon="6.81636">
        <ele>2294.32</ele>
        <time>2022-03-21T13:55:51Z</time>
      </trkpt>
      <trkpt lat="46.12496" lon="6.81626">
        <ele>2297.21</ele>
        <time>2022-03-21T13:56:15Z</time>
      </trkpt>
      <trkpt lat="46.1249" lon="6.81616">
        <ele>2300.09</ele>
        <time>2022-03-21T13:56:30Z</time>
      </trkpt>
      <trkpt lat="46.12484" lon="6.8161">
        <ele>2302.01</ele>
        <time>2022-03-21T13:56:40Z</time>
      </trkpt>
      <trkpt lat="46.12483" lon="6.81607">
        <ele>2302.98</ele>
        <time>2022-03-21T13:56:43Z</time>
      </trkpt>
      <trkpt lat="46.12493" lon="6.81598">
        <ele>2305.86</ele>
        <time>2022-03-21T13:57:03Z</time>
      </trkpt>
      <trkpt lat="46.12496" lon="6.81588">
        <ele>2309.22</ele>
        <time>2022-03-21T13:57:18Z</time>
      </trkpt>
      <trkpt lat="46.12501" lon="6.81575">
        <ele>2312.11</ele>
        <time>2022-03-21T13:57:41Z</time>
      </trkpt>
      <trkpt lat="46.125" lon="6.81566">
        <ele>2314.99</ele>
        <time>2022-03-21T13:57:55Z</time>
      </trkpt>
      <trkpt lat="46.12496" lon="6.81552">
        <ele>2318.36</ele>
        <time>2022-03-21T13:58:13Z</time>
      </trkpt>
      <trkpt lat="46.12493" lon="6.81538">
        <ele>2321.24</ele>
        <time>2022-03-21T13:58:39Z</time>
      </trkpt>
      <trkpt lat="46.12486" lon="6.81522">
        <ele>2323.64</ele>
        <time>2022-03-21T13:59:38Z</time>
      </trkpt>
      <trkpt lat="46.12475" lon="6.81504">
        <ele>2326.53</ele>
        <time>2022-03-21T14:00:00Z</time>
      </trkpt>
      <trkpt lat="46.12462" lon="6.81488">
        <ele>2329.41</ele>
        <time>2022-03-21T14:00:22Z</time>
      </trkpt>
      <trkpt lat="46.12461" lon="6.81485">
        <ele>2330.37</ele>
        <time>2022-03-21T14:00:26Z</time>
      </trkpt>
      <trkpt lat="46.12453" lon="6.81474">
        <ele>2333.26</ele>
        <time>2022-03-21T14:00:43Z</time>
      </trkpt>
      <trkpt lat="46.1245" lon="6.81471">
        <ele>2334.22</ele>
        <time>2022-03-21T14:00:47Z</time>
      </trkpt>
      <trkpt lat="46.12445" lon="6.81465">
        <ele>2336.62</ele>
        <time>2022-03-21T14:00:58Z</time>
      </trkpt>
      <trkpt lat="46.12442" lon="6.81459">
        <ele>2337.58</ele>
        <time>2022-03-21T14:01:06Z</time>
      </trkpt>
      <trkpt lat="46.12442" lon="6.81456">
        <ele>2338.06</ele>
        <time>2022-03-21T14:01:08Z</time>
      </trkpt>
      <trkpt lat="46.12444" lon="6.81454">
        <ele>2339.02</ele>
        <time>2022-03-21T14:01:12Z</time>
      </trkpt>
      <trkpt lat="46.12445" lon="6.81453">
        <ele>2339.02</ele>
        <time>2022-03-21T14:01:13Z</time>
      </trkpt>
      <trkpt lat="46.12446" lon="6.81453">
        <ele>2339.02</ele>
        <time>2022-03-21T14:01:14Z</time>
      </trkpt>
      <trkpt lat="46.12452" lon="6.81449">
        <ele>2341.43</ele>
        <time>2022-03-21T14:01:26Z</time>
      </trkpt>
      <trkpt lat="46.12452" lon="6.81446">
        <ele>2343.35</ele>
        <time>2022-03-21T14:01:38Z</time>
      </trkpt>
      <trkpt lat="46.1245" lon="6.81443">
        <ele>2344.31</ele>
        <time>2022-03-21T14:01:42Z</time>
      </trkpt>
      <trkpt lat="46.12449" lon="6.81442">
        <ele>2344.31</ele>
        <time>2022-03-21T14:01:44Z</time>
      </trkpt>
      <trkpt lat="46.12449" lon="6.8144">
        <ele>2344.79</ele>
        <time>2022-03-21T14:01:46Z</time>
      </trkpt>
      <trkpt lat="46.12448" lon="6.81439">
        <ele>2345.27</ele>
        <time>2022-03-21T14:01:48Z</time>
      </trkpt>
      <trkpt lat="46.12452" lon="6.81428">
        <ele>2348.64</ele>
        <time>2022-03-21T14:02:11Z</time>
      </trkpt>
      <trkpt lat="46.12457" lon="6.81427">
        <ele>2351.52</ele>
        <time>2022-03-21T14:02:29Z</time>
      </trkpt>
      <trkpt lat="46.12452" lon="6.81411">
        <ele>2354.41</ele>
        <time>2022-03-21T14:02:50Z</time>
      </trkpt>
      <trkpt lat="46.12464" lon="6.81415">
        <ele>2357.77</ele>
        <time>2022-03-21T14:03:10Z</time>
      </trkpt>
      <trkpt lat="46.12467" lon="6.81413">
        <ele>2361.14</ele>
        <time>2022-03-21T14:03:27Z</time>
      </trkpt>
      <trkpt lat="46.12464" lon="6.81397">
        <ele>2364.02</ele>
        <time>2022-03-21T14:03:47Z</time>
      </trkpt>
      <trkpt lat="46.12459" lon="6.81383">
        <ele>2366.9</ele>
        <time>2022-03-21T14:04:06Z</time>
      </trkpt>
      <trkpt lat="46.12462" lon="6.81375">
        <ele>2370.27</ele>
        <time>2022-03-21T14:04:31Z</time>
      </trkpt>
      <trkpt lat="46.12463" lon="6.81373">
        <ele>2373.15</ele>
        <time>2022-03-21T14:04:47Z</time>
      </trkpt>
      <trkpt lat="46.12455" lon="6.81363">
        <ele>2376.04</ele>
        <time>2022-03-21T14:05:04Z</time>
      </trkpt>
      <trkpt lat="46.12461" lon="6.81355">
        <ele>2378.44</ele>
        <time>2022-03-21T14:05:24Z</time>
      </trkpt>
      <trkpt lat="46.12464" lon="6.81352">
        <ele>2381.32</ele>
        <time>2022-03-21T14:05:37Z</time>
      </trkpt>
      <trkpt lat="46.12462" lon="6.81348">
        <ele>2381.8</ele>
        <time>2022-03-21T14:05:43Z</time>
      </trkpt>
      <trkpt lat="46.12461" lon="6.81346">
        <ele>2382.28</ele>
        <time>2022-03-21T14:05:45Z</time>
      </trkpt>
      <trkpt lat="46.12458" lon="6.81339">
        <ele>2384.21</ele>
        <time>2022-03-21T14:05:56Z</time>
      </trkpt>
      <trkpt lat="46.12467" lon="6.81336">
        <ele>2387.57</ele>
        <time>2022-03-21T14:06:15Z</time>
      </trkpt>
      <trkpt lat="46.12467" lon="6.81331">
        <ele>2389.97</ele>
        <time>2022-03-21T14:06:32Z</time>
      </trkpt>
      <trkpt lat="46.12466" lon="6.81328">
        <ele>2390.46</ele>
        <time>2022-03-21T14:06:34Z</time>
      </trkpt>
      <trkpt lat="46.12463" lon="6.81324">
        <ele>2391.42</ele>
        <time>2022-03-21T14:06:40Z</time>
      </trkpt>
      <trkpt lat="46.12457" lon="6.81312">
        <ele>2394.3</ele>
        <time>2022-03-21T14:06:59Z</time>
      </trkpt>
      <trkpt lat="46.12453" lon="6.81306">
        <ele>2397.18</ele>
        <time>2022-03-21T14:07:22Z</time>
      </trkpt>
      <trkpt lat="46.12459" lon="6.81291">
        <ele>2400.55</ele>
        <time>2022-03-21T14:07:42Z</time>
      </trkpt>
      <trkpt lat="46.12467" lon="6.8128">
        <ele>2403.43</ele>
        <time>2022-03-21T14:08:00Z</time>
      </trkpt>
      <trkpt lat="46.12478" lon="6.81282">
        <ele>2406.8</ele>
        <time>2022-03-21T14:08:19Z</time>
      </trkpt>
      <trkpt lat="46.12482" lon="6.81281">
        <ele>2409.68</ele>
        <time>2022-03-21T14:08:39Z</time>
      </trkpt>
      <trkpt lat="46.1248" lon="6.81265">
        <ele>2412.57</ele>
        <time>2022-03-21T14:09:01Z</time>
      </trkpt>
      <trkpt lat="46.12477" lon="6.81253">
        <ele>2414.97</ele>
        <time>2022-03-21T14:09:15Z</time>
      </trkpt>
      <trkpt lat="46.12473" lon="6.81242">
        <ele>2417.37</ele>
        <time>2022-03-21T14:09:29Z</time>
      </trkpt>
      <trkpt lat="46.12469" lon="6.81228">
        <ele>2420.26</ele>
        <time>2022-03-21T14:09:53Z</time>
      </trkpt>
      <trkpt lat="46.1248" lon="6.81231">
        <ele>2423.62</ele>
        <time>2022-03-21T14:10:28Z</time>
      </trkpt>
      <trkpt lat="46.12488" lon="6.81234">
        <ele>2426.5</ele>
        <time>2022-03-21T14:10:43Z</time>
      </trkpt>
      <trkpt lat="46.12496" lon="6.8124">
        <ele>2429.87</ele>
        <time>2022-03-21T14:11:00Z</time>
      </trkpt>
      <trkpt lat="46.12496" lon="6.81238">
        <ele>2431.31</ele>
        <time>2022-03-21T14:12:01Z</time>
      </trkpt>
      <trkpt lat="46.12491" lon="6.81221">
        <ele>2433.71</ele>
        <time>2022-03-21T14:12:23Z</time>
      </trkpt>
      <trkpt lat="46.12487" lon="6.81204">
        <ele>2437.08</ele>
        <time>2022-03-21T14:12:42Z</time>
      </trkpt>
      <trkpt lat="46.12483" lon="6.8119">
        <ele>2439.96</ele>
        <time>2022-03-21T14:13:04Z</time>
      </trkpt>
      <trkpt lat="46.12484" lon="6.81189">
        <ele>2440.44</ele>
        <time>2022-03-21T14:13:07Z</time>
      </trkpt>
      <trkpt lat="46.12493" lon="6.81195">
        <ele>2443.33</ele>
        <time>2022-03-21T14:13:47Z</time>
      </trkpt>
      <trkpt lat="46.12504" lon="6.81199">
        <ele>2446.21</ele>
        <time>2022-03-21T14:14:05Z</time>
      </trkpt>
      <trkpt lat="46.12513" lon="6.81203">
        <ele>2449.58</ele>
        <time>2022-03-21T14:14:22Z</time>
      </trkpt>
      <trkpt lat="46.12522" lon="6.81208">
        <ele>2452.46</ele>
        <time>2022-03-21T14:14:38Z</time>
      </trkpt>
      <trkpt lat="46.12526" lon="6.81209">
        <ele>2453.42</ele>
        <time>2022-03-21T14:14:44Z</time>
      </trkpt>
      <trkpt lat="46.12535" lon="6.81208">
        <ele>2455.34</ele>
        <time>2022-03-21T14:15:00Z</time>
      </trkpt>
      <trkpt lat="46.12551" lon="6.81207">
        <ele>2458.23</ele>
        <time>2022-03-21T14:15:21Z</time>
      </trkpt>
      <trkpt lat="46.12562" lon="6.81208">
        <ele>2461.11</ele>
        <time>2022-03-21T14:15:41Z</time>
      </trkpt>
      <trkpt lat="46.12575" lon="6.81215">
        <ele>2464.48</ele>
        <time>2022-03-21T14:16:02Z</time>
      </trkpt>
      <trkpt lat="46.12586" lon="6.81222">
        <ele>2467.36</ele>
        <time>2022-03-21T14:16:24Z</time>
      </trkpt>
      <trkpt lat="46.12594" lon="6.81231">
        <ele>2470.73</ele>
        <time>2022-03-21T14:16:44Z</time>
      </trkpt>
      <trkpt lat="46.12604" lon="6.8124">
        <ele>2473.61</ele>
        <time>2022-03-21T14:17:06Z</time>
      </trkpt>
      <trkpt lat="46.12613" lon="6.81247">
        <ele>2476.97</ele>
        <time>2022-03-21T14:17:26Z</time>
      </trkpt>
      <trkpt lat="46.12624" lon="6.81253">
        <ele>2479.86</ele>
        <time>2022-03-21T14:17:45Z</time>
      </trkpt>
      <trkpt lat="46.12634" lon="6.81259">
        <ele>2482.74</ele>
        <time>2022-03-21T14:18:07Z</time>
      </trkpt>
      <trkpt lat="46.12644" lon="6.81256">
        <ele>2486.11</ele>
        <time>2022-03-21T14:18:25Z</time>
      </trkpt>
      <trkpt lat="46.12639" lon="6.81245">
        <ele>2488.99</ele>
        <time>2022-03-21T14:18:44Z</time>
      </trkpt>
      <trkpt lat="46.12638" lon="6.8124">
        <ele>2489.95</ele>
        <time>2022-03-21T14:18:49Z</time>
      </trkpt>
      <trkpt lat="46.12634" lon="6.81226">
        <ele>2492.84</ele>
        <time>2022-03-21T14:19:09Z</time>
      </trkpt>
      <trkpt lat="46.12632" lon="6.8122">
        <ele>2494.76</ele>
        <time>2022-03-21T14:19:34Z</time>
      </trkpt>
      <trkpt lat="46.12644" lon="6.81227">
        <ele>2497.64</ele>
        <time>2022-03-21T14:20:00Z</time>
      </trkpt>
      <trkpt lat="46.12655" lon="6.81225">
        <ele>2500.53</ele>
        <time>2022-03-21T14:20:19Z</time>
      </trkpt>
      <trkpt lat="46.12664" lon="6.81222">
        <ele>2503.89</ele>
        <time>2022-03-21T14:20:38Z</time>
      </trkpt>
      <trkpt lat="46.12674" lon="6.8122">
        <ele>2506.77</ele>
        <time>2022-03-21T14:20:56Z</time>
      </trkpt>
      <trkpt lat="46.1267" lon="6.81214">
        <ele>2510.14</ele>
        <time>2022-03-21T14:21:18Z</time>
      </trkpt>
      <trkpt lat="46.12666" lon="6.81202">
        <ele>2513.02</ele>
        <time>2022-03-21T14:21:36Z</time>
      </trkpt>
      <trkpt lat="46.12667" lon="6.81198">
        <ele>2516.39</ele>
        <time>2022-03-21T14:22:18Z</time>
      </trkpt>
      <trkpt lat="46.12674" lon="6.81197">
        <ele>2519.27</ele>
        <time>2022-03-21T14:22:35Z</time>
      </trkpt>
      <trkpt lat="46.12682" lon="6.81198">
        <ele>2522.64</ele>
        <time>2022-03-21T14:22:52Z</time>
      </trkpt>
      <trkpt lat="46.12692" lon="6.81196">
        <ele>2526</ele>
        <time>2022-03-21T14:23:13Z</time>
      </trkpt>
      <trkpt lat="46.12701" lon="6.81199">
        <ele>2528.89</ele>
        <time>2022-03-21T14:23:30Z</time>
      </trkpt>
      <trkpt lat="46.12701" lon="6.81194">
        <ele>2531.77</ele>
        <time>2022-03-21T14:23:58Z</time>
      </trkpt>
      <trkpt lat="46.12704" lon="6.81188">
        <ele>2532.73</ele>
        <time>2022-03-21T14:24:25Z</time>
      </trkpt>
      <trkpt lat="46.12703" lon="6.81187">
        <ele>2532.73</ele>
        <time>2022-03-21T14:24:58Z</time>
      </trkpt>
      <trkpt lat="46.12711" lon="6.81182">
        <ele>2535.61</ele>
        <time>2022-03-21T14:25:21Z</time>
      </trkpt>
      <trkpt lat="46.12712" lon="6.81181">
        <ele>2538.5</ele>
        <time>2022-03-21T14:25:41Z</time>
      </trkpt>
      <trkpt lat="46.12714" lon="6.8118">
        <ele>2539.94</ele>
        <time>2022-03-21T14:25:50Z</time>
      </trkpt>
      <trkpt lat="46.12719" lon="6.81177">
        <ele>2543.31</ele>
        <time>2022-03-21T14:26:13Z</time>
      </trkpt>
      <trkpt lat="46.12721" lon="6.81181">
        <ele>2546.19</ele>
        <time>2022-03-21T14:26:33Z</time>
      </trkpt>
      <trkpt lat="46.12723" lon="6.81184">
        <ele>2549.55</ele>
        <time>2022-03-21T14:27:05Z</time>
      </trkpt>
      <trkpt lat="46.12724" lon="6.81179">
        <ele>2552.44</ele>
        <time>2022-03-21T14:27:20Z</time>
      </trkpt>
      <trkpt lat="46.12726" lon="6.81178">
        <ele>2555.8</ele>
        <time>2022-03-21T14:27:38Z</time>
      </trkpt>
      <trkpt lat="46.1273" lon="6.81176">
        <ele>2558.69</ele>
        <time>2022-03-21T14:28:05Z</time>
      </trkpt>
      <trkpt lat="46.12729" lon="6.81177">
        <ele>2561.57</ele>
        <time>2022-03-21T14:28:27Z</time>
      </trkpt>
      <trkpt lat="46.12731" lon="6.81181">
        <ele>2561.57</ele>
        <time>2022-03-21T14:28:55Z</time>
      </trkpt>
      <trkpt lat="46.12734" lon="6.81177">
        <ele>2561.57</ele>
        <time>2022-03-21T14:29:18Z</time>
      </trkpt>
      <trkpt lat="46.12734" lon="6.81182">
        <ele>2562.05</ele>
        <time>2022-03-21T14:30:05Z</time>
      </trkpt>
      <trkpt lat="46.12735" lon="6.81181">
        <ele>2562.05</ele>
        <time>2022-03-21T14:31:09Z</time>
      </trkpt>
      <trkpt lat="46.12733" lon="6.8118">
        <ele>2561.57</ele>
        <time>2022-03-21T14:31:30Z</time>
      </trkpt>
      <trkpt lat="46.12734" lon="6.81182">
        <ele>2562.05</ele>
        <time>2022-03-21T14:31:46Z</time>
      </trkpt>
      <trkpt lat="46.12734" lon="6.81179">
        <ele>2561.57</ele>
        <time>2022-03-21T14:32:14Z</time>
      </trkpt>
      <trkpt lat="46.12733" lon="6.81181">
        <ele>2562.05</ele>
        <time>2022-03-21T14:34:49Z</time>
      </trkpt>
      <trkpt lat="46.12734" lon="6.81182">
        <ele>2561.57</ele>
        <time>2022-03-21T14:36:40Z</time>
      </trkpt>
      <trkpt lat="46.12736" lon="6.81186">
        <ele>2561.57</ele>
        <time>2022-03-21T14:37:29Z</time>
      </trkpt>
      <trkpt lat="46.12736" lon="6.81187">
        <ele>2561.57</ele>
        <time>2022-03-21T14:37:30Z</time>
      </trkpt>
      <trkpt lat="46.12737" lon="6.81188">
        <ele>2561.57</ele>
        <time>2022-03-21T14:37:31Z</time>
      </trkpt>
      <trkpt lat="46.12744" lon="6.81199">
        <ele>2557.73</ele>
        <time>2022-03-21T14:37:51Z</time>
      </trkpt>
      <trkpt lat="46.12745" lon="6.81199">
        <ele>2556.76</ele>
        <time>2022-03-21T14:37:52Z</time>
      </trkpt>
      <trkpt lat="46.12745" lon="6.81195">
        <ele>2553.88</ele>
        <time>2022-03-21T14:37:56Z</time>
      </trkpt>
      <trkpt lat="46.12748" lon="6.81199">
        <ele>2552.44</ele>
        <time>2022-03-21T14:38:05Z</time>
      </trkpt>
      <trkpt lat="46.12748" lon="6.81202">
        <ele>2551.96</ele>
        <time>2022-03-21T14:38:06Z</time>
      </trkpt>
      <trkpt lat="46.12749" lon="6.81203">
        <ele>2551</ele>
        <time>2022-03-21T14:38:07Z</time>
      </trkpt>
      <trkpt lat="46.12752" lon="6.81205">
        <ele>2547.63</ele>
        <time>2022-03-21T14:38:13Z</time>
      </trkpt>
      <trkpt lat="46.12752" lon="6.81205">
        <ele>2547.63</ele>
        <time>2022-03-21T14:38:15Z</time>
      </trkpt>
      <trkpt lat="46.12754" lon="6.81205">
        <ele>2546.67</ele>
        <time>2022-03-21T14:38:41Z</time>
      </trkpt>
      <trkpt lat="46.12755" lon="6.81208">
        <ele>2546.19</ele>
        <time>2022-03-21T14:38:42Z</time>
      </trkpt>
      <trkpt lat="46.12756" lon="6.8121">
        <ele>2545.23</ele>
        <time>2022-03-21T14:38:43Z</time>
      </trkpt>
      <trkpt lat="46.12756" lon="6.81214">
        <ele>2543.79</ele>
        <time>2022-03-21T14:38:46Z</time>
      </trkpt>
      <trkpt lat="46.12762" lon="6.81238">
        <ele>2540.9</ele>
        <time>2022-03-21T14:39:01Z</time>
      </trkpt>
      <trkpt lat="46.12766" lon="6.81243">
        <ele>2538.02</ele>
        <time>2022-03-21T14:39:12Z</time>
      </trkpt>
      <trkpt lat="46.12766" lon="6.81241">
        <ele>2538.02</ele>
        <time>2022-03-21T14:39:13Z</time>
      </trkpt>
      <trkpt lat="46.12766" lon="6.8124">
        <ele>2537.06</ele>
        <time>2022-03-21T14:39:14Z</time>
      </trkpt>
      <trkpt lat="46.12767" lon="6.81239">
        <ele>2536.58</ele>
        <time>2022-03-21T14:39:15Z</time>
      </trkpt>
      <trkpt lat="46.12769" lon="6.8124">
        <ele>2535.13</ele>
        <time>2022-03-21T14:39:16Z</time>
      </trkpt>
      <trkpt lat="46.12772" lon="6.81241">
        <ele>2534.17</ele>
        <time>2022-03-21T14:39:17Z</time>
      </trkpt>
      <trkpt lat="46.12773" lon="6.81241">
        <ele>2533.21</ele>
        <time>2022-03-21T14:39:18Z</time>
      </trkpt>
      <trkpt lat="46.12773" lon="6.81242">
        <ele>2533.21</ele>
        <time>2022-03-21T14:39:19Z</time>
      </trkpt>
      <trkpt lat="46.12774" lon="6.81244">
        <ele>2532.25</ele>
        <time>2022-03-21T14:39:20Z</time>
      </trkpt>
      <trkpt lat="46.12776" lon="6.81246">
        <ele>2531.77</ele>
        <time>2022-03-21T14:39:21Z</time>
      </trkpt>
      <trkpt lat="46.12777" lon="6.81247">
        <ele>2531.29</ele>
        <time>2022-03-21T14:39:22Z</time>
      </trkpt>
      <trkpt lat="46.12778" lon="6.81249">
        <ele>2530.81</ele>
        <time>2022-03-21T14:39:23Z</time>
      </trkpt>
      <trkpt lat="46.12779" lon="6.81251">
        <ele>2530.33</ele>
        <time>2022-03-21T14:39:24Z</time>
      </trkpt>
      <trkpt lat="46.1278" lon="6.81252">
        <ele>2529.85</ele>
        <time>2022-03-21T14:39:25Z</time>
      </trkpt>
      <trkpt lat="46.12781" lon="6.81253">
        <ele>2528.89</ele>
        <time>2022-03-21T14:39:26Z</time>
      </trkpt>
      <trkpt lat="46.12781" lon="6.81254">
        <ele>2528.4</ele>
        <time>2022-03-21T14:39:27Z</time>
      </trkpt>
      <trkpt lat="46.12784" lon="6.81256">
        <ele>2528.4</ele>
        <time>2022-03-21T14:39:28Z</time>
      </trkpt>
      <trkpt lat="46.12787" lon="6.81258">
        <ele>2526.96</ele>
        <time>2022-03-21T14:39:29Z</time>
      </trkpt>
      <trkpt lat="46.12797" lon="6.81266">
        <ele>2523.6</ele>
        <time>2022-03-21T14:39:32Z</time>
      </trkpt>
      <trkpt lat="46.12801" lon="6.81269">
        <ele>2522.64</ele>
        <time>2022-03-21T14:39:33Z</time>
      </trkpt>
      <trkpt lat="46.1281" lon="6.81276">
        <ele>2519.75</ele>
        <time>2022-03-21T14:39:35Z</time>
      </trkpt>
      <trkpt lat="46.12828" lon="6.81283">
        <ele>2516.39</ele>
        <time>2022-03-21T14:39:39Z</time>
      </trkpt>
      <trkpt lat="46.12844" lon="6.81276">
        <ele>2513.02</ele>
        <time>2022-03-21T14:39:45Z</time>
      </trkpt>
      <trkpt lat="46.12843" lon="6.81271">
        <ele>2512.06</ele>
        <time>2022-03-21T14:39:46Z</time>
      </trkpt>
      <trkpt lat="46.12844" lon="6.81264">
        <ele>2510.62</ele>
        <time>2022-03-21T14:39:47Z</time>
      </trkpt>
      <trkpt lat="46.12848" lon="6.8126">
        <ele>2507.26</ele>
        <time>2022-03-21T14:39:48Z</time>
      </trkpt>
      <trkpt lat="46.12852" lon="6.81257">
        <ele>2505.81</ele>
        <time>2022-03-21T14:39:49Z</time>
      </trkpt>
      <trkpt lat="46.12857" lon="6.81256">
        <ele>2504.85</ele>
        <time>2022-03-21T14:39:50Z</time>
      </trkpt>
      <trkpt lat="46.12865" lon="6.81254">
        <ele>2502.93</ele>
        <time>2022-03-21T14:39:53Z</time>
      </trkpt>
      <trkpt lat="46.12867" lon="6.81254">
        <ele>2503.41</ele>
        <time>2022-03-21T14:39:55Z</time>
      </trkpt>
      <trkpt lat="46.12869" lon="6.81254">
        <ele>2502.93</ele>
        <time>2022-03-21T14:39:56Z</time>
      </trkpt>
      <trkpt lat="46.1287" lon="6.81254">
        <ele>2502.93</ele>
        <time>2022-03-21T14:39:57Z</time>
      </trkpt>
      <trkpt lat="46.12869" lon="6.81253">
        <ele>2502.45</ele>
        <time>2022-03-21T14:40:02Z</time>
      </trkpt>
      <trkpt lat="46.12867" lon="6.81253">
        <ele>2502.93</ele>
        <time>2022-03-21T14:40:21Z</time>
      </trkpt>
      <trkpt lat="46.12867" lon="6.8125">
        <ele>2502.45</ele>
        <time>2022-03-21T14:40:32Z</time>
      </trkpt>
      <trkpt lat="46.12866" lon="6.81248">
        <ele>2501.97</ele>
        <time>2022-03-21T14:40:33Z</time>
      </trkpt>
      <trkpt lat="46.12865" lon="6.81247">
        <ele>2501.97</ele>
        <time>2022-03-21T14:40:34Z</time>
      </trkpt>
      <trkpt lat="46.12862" lon="6.81247">
        <ele>2501.49</ele>
        <time>2022-03-21T14:40:35Z</time>
      </trkpt>
      <trkpt lat="46.12859" lon="6.81246">
        <ele>2501.01</ele>
        <time>2022-03-21T14:40:36Z</time>
      </trkpt>
      <trkpt lat="46.12856" lon="6.81246">
        <ele>2500.53</ele>
        <time>2022-03-21T14:40:37Z</time>
      </trkpt>
      <trkpt lat="46.12846" lon="6.81241">
        <ele>2498.6</ele>
        <time>2022-03-21T14:40:40Z</time>
      </trkpt>
      <trkpt lat="46.12844" lon="6.81236">
        <ele>2497.64</ele>
        <time>2022-03-21T14:40:41Z</time>
      </trkpt>
      <trkpt lat="46.12845" lon="6.81231">
        <ele>2496.2</ele>
        <time>2022-03-21T14:40:42Z</time>
      </trkpt>
      <trkpt lat="46.12845" lon="6.81225">
        <ele>2495.24</ele>
        <time>2022-03-21T14:40:43Z</time>
      </trkpt>
      <trkpt lat="46.12843" lon="6.81219">
        <ele>2493.8</ele>
        <time>2022-03-21T14:40:44Z</time>
      </trkpt>
      <trkpt lat="46.1284" lon="6.81212">
        <ele>2492.84</ele>
        <time>2022-03-21T14:40:45Z</time>
      </trkpt>
      <trkpt lat="46.12838" lon="6.81205">
        <ele>2490.91</ele>
        <time>2022-03-21T14:40:46Z</time>
      </trkpt>
      <trkpt lat="46.12835" lon="6.81199">
        <ele>2488.99</ele>
        <time>2022-03-21T14:40:47Z</time>
      </trkpt>
      <trkpt lat="46.12832" lon="6.81194">
        <ele>2487.55</ele>
        <time>2022-03-21T14:40:48Z</time>
      </trkpt>
      <trkpt lat="46.12824" lon="6.81182">
        <ele>2484.18</ele>
        <time>2022-03-21T14:40:51Z</time>
      </trkpt>
      <trkpt lat="46.12817" lon="6.81166">
        <ele>2480.82</ele>
        <time>2022-03-21T14:40:55Z</time>
      </trkpt>
      <trkpt lat="46.1282" lon="6.8116">
        <ele>2479.86</ele>
        <time>2022-03-21T14:40:57Z</time>
      </trkpt>
      <trkpt lat="46.12823" lon="6.81159">
        <ele>2478.42</ele>
        <time>2022-03-21T14:40:58Z</time>
      </trkpt>
      <trkpt lat="46.12827" lon="6.81157">
        <ele>2476.97</ele>
        <time>2022-03-21T14:40:59Z</time>
      </trkpt>
      <trkpt lat="46.12828" lon="6.81151">
        <ele>2475.53</ele>
        <time>2022-03-21T14:41:00Z</time>
      </trkpt>
      <trkpt lat="46.12828" lon="6.81145">
        <ele>2473.61</ele>
        <time>2022-03-21T14:41:01Z</time>
      </trkpt>
      <trkpt lat="46.12829" lon="6.81139">
        <ele>2471.69</ele>
        <time>2022-03-21T14:41:02Z</time>
      </trkpt>
      <trkpt lat="46.12829" lon="6.81133">
        <ele>2470.24</ele>
        <time>2022-03-21T14:41:03Z</time>
      </trkpt>
      <trkpt lat="46.12829" lon="6.81127">
        <ele>2469.28</ele>
        <time>2022-03-21T14:41:04Z</time>
      </trkpt>
      <trkpt lat="46.12829" lon="6.81121">
        <ele>2468.32</ele>
        <time>2022-03-21T14:41:05Z</time>
      </trkpt>
      <trkpt lat="46.1283" lon="6.81105">
        <ele>2464.96</ele>
        <time>2022-03-21T14:41:09Z</time>
      </trkpt>
      <trkpt lat="46.12829" lon="6.81102">
        <ele>2464.48</ele>
        <time>2022-03-21T14:41:11Z</time>
      </trkpt>
      <trkpt lat="46.1283" lon="6.81103">
        <ele>2464</ele>
        <time>2022-03-21T14:41:28Z</time>
      </trkpt>
      <trkpt lat="46.12832" lon="6.81105">
        <ele>2463.52</ele>
        <time>2022-03-21T14:41:29Z</time>
      </trkpt>
      <trkpt lat="46.12834" lon="6.81109">
        <ele>2462.55</ele>
        <time>2022-03-21T14:41:30Z</time>
      </trkpt>
      <trkpt lat="46.12836" lon="6.81113">
        <ele>2460.63</ele>
        <time>2022-03-21T14:41:31Z</time>
      </trkpt>
      <trkpt lat="46.12838" lon="6.81117">
        <ele>2459.67</ele>
        <time>2022-03-21T14:41:32Z</time>
      </trkpt>
      <trkpt lat="46.12842" lon="6.81117">
        <ele>2459.19</ele>
        <time>2022-03-21T14:41:33Z</time>
      </trkpt>
      <trkpt lat="46.12846" lon="6.81115">
        <ele>2456.79</ele>
        <time>2022-03-21T14:41:34Z</time>
      </trkpt>
      <trkpt lat="46.12848" lon="6.8111">
        <ele>2454.86</ele>
        <time>2022-03-21T14:41:35Z</time>
      </trkpt>
      <trkpt lat="46.12852" lon="6.81109">
        <ele>2453.9</ele>
        <time>2022-03-21T14:41:36Z</time>
      </trkpt>
      <trkpt lat="46.12855" lon="6.8111">
        <ele>2451.98</ele>
        <time>2022-03-21T14:41:37Z</time>
      </trkpt>
      <trkpt lat="46.12858" lon="6.81112">
        <ele>2450.06</ele>
        <time>2022-03-21T14:41:38Z</time>
      </trkpt>
      <trkpt lat="46.12862" lon="6.81111">
        <ele>2448.62</ele>
        <time>2022-03-21T14:41:39Z</time>
      </trkpt>
      <trkpt lat="46.12865" lon="6.81108">
        <ele>2446.69</ele>
        <time>2022-03-21T14:41:40Z</time>
      </trkpt>
      <trkpt lat="46.12869" lon="6.81109">
        <ele>2444.77</ele>
        <time>2022-03-21T14:41:41Z</time>
      </trkpt>
      <trkpt lat="46.12872" lon="6.81112">
        <ele>2442.37</ele>
        <time>2022-03-21T14:41:42Z</time>
      </trkpt>
      <trkpt lat="46.12875" lon="6.81115">
        <ele>2439.96</ele>
        <time>2022-03-21T14:41:43Z</time>
      </trkpt>
      <trkpt lat="46.12881" lon="6.81118">
        <ele>2437.56</ele>
        <time>2022-03-21T14:41:45Z</time>
      </trkpt>
      <trkpt lat="46.12882" lon="6.81116">
        <ele>2436.12</ele>
        <time>2022-03-21T14:41:46Z</time>
      </trkpt>
      <trkpt lat="46.12884" lon="6.81114">
        <ele>2435.16</ele>
        <time>2022-03-21T14:41:47Z</time>
      </trkpt>
      <trkpt lat="46.12885" lon="6.81111">
        <ele>2434.2</ele>
        <time>2022-03-21T14:41:48Z</time>
      </trkpt>
      <trkpt lat="46.12886" lon="6.81108">
        <ele>2433.71</ele>
        <time>2022-03-21T14:41:49Z</time>
      </trkpt>
      <trkpt lat="46.12888" lon="6.81105">
        <ele>2432.75</ele>
        <time>2022-03-21T14:41:50Z</time>
      </trkpt>
      <trkpt lat="46.12891" lon="6.81104">
        <ele>2431.79</ele>
        <time>2022-03-21T14:41:51Z</time>
      </trkpt>
      <trkpt lat="46.12893" lon="6.81106">
        <ele>2430.35</ele>
        <time>2022-03-21T14:41:52Z</time>
      </trkpt>
      <trkpt lat="46.12894" lon="6.8111">
        <ele>2428.43</ele>
        <time>2022-03-21T14:41:53Z</time>
      </trkpt>
      <trkpt lat="46.12897" lon="6.81113">
        <ele>2426.99</ele>
        <time>2022-03-21T14:41:54Z</time>
      </trkpt>
      <trkpt lat="46.129" lon="6.81114">
        <ele>2426.02</ele>
        <time>2022-03-21T14:41:55Z</time>
      </trkpt>
      <trkpt lat="46.12903" lon="6.81112">
        <ele>2424.58</ele>
        <time>2022-03-21T14:41:56Z</time>
      </trkpt>
      <trkpt lat="46.12905" lon="6.81109">
        <ele>2423.14</ele>
        <time>2022-03-21T14:41:57Z</time>
      </trkpt>
      <trkpt lat="46.12907" lon="6.81106">
        <ele>2422.18</ele>
        <time>2022-03-21T14:41:58Z</time>
      </trkpt>
      <trkpt lat="46.12911" lon="6.81105">
        <ele>2419.78</ele>
        <time>2022-03-21T14:42:00Z</time>
      </trkpt>
      <trkpt lat="46.12912" lon="6.81108">
        <ele>2417.85</ele>
        <time>2022-03-21T14:42:01Z</time>
      </trkpt>
      <trkpt lat="46.12913" lon="6.81112">
        <ele>2416.41</ele>
        <time>2022-03-21T14:42:02Z</time>
      </trkpt>
      <trkpt lat="46.12915" lon="6.81115">
        <ele>2415.45</ele>
        <time>2022-03-21T14:42:03Z</time>
      </trkpt>
      <trkpt lat="46.12917" lon="6.81117">
        <ele>2414.97</ele>
        <time>2022-03-21T14:42:04Z</time>
      </trkpt>
      <trkpt lat="46.12919" lon="6.81117">
        <ele>2413.53</ele>
        <time>2022-03-21T14:42:05Z</time>
      </trkpt>
      <trkpt lat="46.12919" lon="6.81117">
        <ele>2412.57</ele>
        <time>2022-03-21T14:42:06Z</time>
      </trkpt>
      <trkpt lat="46.12918" lon="6.81116">
        <ele>2411.6</ele>
        <time>2022-03-21T14:42:07Z</time>
      </trkpt>
      <trkpt lat="46.12914" lon="6.81112">
        <ele>2411.12</ele>
        <time>2022-03-21T14:42:09Z</time>
      </trkpt>
      <trkpt lat="46.12913" lon="6.81108">
        <ele>2410.64</ele>
        <time>2022-03-21T14:42:12Z</time>
      </trkpt>
      <trkpt lat="46.12913" lon="6.81106">
        <ele>2410.16</ele>
        <time>2022-03-21T14:42:13Z</time>
      </trkpt>
      <trkpt lat="46.12911" lon="6.81102">
        <ele>2410.16</ele>
        <time>2022-03-21T14:42:14Z</time>
      </trkpt>
      <trkpt lat="46.12912" lon="6.81099">
        <ele>2409.68</ele>
        <time>2022-03-21T14:42:16Z</time>
      </trkpt>
      <trkpt lat="46.12916" lon="6.81102">
        <ele>2409.2</ele>
        <time>2022-03-21T14:42:17Z</time>
      </trkpt>
      <trkpt lat="46.12918" lon="6.81106">
        <ele>2407.76</ele>
        <time>2022-03-21T14:42:18Z</time>
      </trkpt>
      <trkpt lat="46.12928" lon="6.81118">
        <ele>2403.91</ele>
        <time>2022-03-21T14:42:22Z</time>
      </trkpt>
      <trkpt lat="46.12934" lon="6.81111">
        <ele>2401.03</ele>
        <time>2022-03-21T14:42:25Z</time>
      </trkpt>
      <trkpt lat="46.12938" lon="6.81112">
        <ele>2400.07</ele>
        <time>2022-03-21T14:42:26Z</time>
      </trkpt>
      <trkpt lat="46.1294" lon="6.81114">
        <ele>2398.63</ele>
        <time>2022-03-21T14:42:27Z</time>
      </trkpt>
      <trkpt lat="46.12946" lon="6.81125">
        <ele>2395.26</ele>
        <time>2022-03-21T14:42:30Z</time>
      </trkpt>
      <trkpt lat="46.12957" lon="6.81134">
        <ele>2391.9</ele>
        <time>2022-03-21T14:42:34Z</time>
      </trkpt>
      <trkpt lat="46.12962" lon="6.81125">
        <ele>2389.01</ele>
        <time>2022-03-21T14:42:42Z</time>
      </trkpt>
      <trkpt lat="46.12962" lon="6.81124">
        <ele>2389.01</ele>
        <time>2022-03-21T14:42:43Z</time>
      </trkpt>
      <trkpt lat="46.12964" lon="6.81116">
        <ele>2388.53</ele>
        <time>2022-03-21T14:42:51Z</time>
      </trkpt>
      <trkpt lat="46.12965" lon="6.81112">
        <ele>2388.05</ele>
        <time>2022-03-21T14:42:52Z</time>
      </trkpt>
      <trkpt lat="46.12964" lon="6.81104">
        <ele>2386.61</ele>
        <time>2022-03-21T14:42:53Z</time>
      </trkpt>
      <trkpt lat="46.12964" lon="6.81092">
        <ele>2384.21</ele>
        <time>2022-03-21T14:42:54Z</time>
      </trkpt>
      <trkpt lat="46.12965" lon="6.8108">
        <ele>2380.84</ele>
        <time>2022-03-21T14:42:55Z</time>
      </trkpt>
      <trkpt lat="46.12966" lon="6.8107">
        <ele>2377.48</ele>
        <time>2022-03-21T14:42:56Z</time>
      </trkpt>
      <trkpt lat="46.12966" lon="6.81063">
        <ele>2375.55</ele>
        <time>2022-03-21T14:42:57Z</time>
      </trkpt>
      <trkpt lat="46.12965" lon="6.81055">
        <ele>2372.19</ele>
        <time>2022-03-21T14:42:58Z</time>
      </trkpt>
      <trkpt lat="46.12973" lon="6.8106">
        <ele>2369.31</ele>
        <time>2022-03-21T14:42:59Z</time>
      </trkpt>
      <trkpt lat="46.12977" lon="6.81055">
        <ele>2366.42</ele>
        <time>2022-03-21T14:43:00Z</time>
      </trkpt>
      <trkpt lat="46.1298" lon="6.81048">
        <ele>2364.02</ele>
        <time>2022-03-21T14:43:01Z</time>
      </trkpt>
      <trkpt lat="46.12997" lon="6.81064">
        <ele>2361.62</ele>
        <time>2022-03-21T14:43:02Z</time>
      </trkpt>
      <trkpt lat="46.13007" lon="6.81067">
        <ele>2359.21</ele>
        <time>2022-03-21T14:43:03Z</time>
      </trkpt>
      <trkpt lat="46.13014" lon="6.81065">
        <ele>2357.77</ele>
        <time>2022-03-21T14:43:04Z</time>
      </trkpt>
      <trkpt lat="46.13018" lon="6.81061">
        <ele>2356.33</ele>
        <time>2022-03-21T14:43:05Z</time>
      </trkpt>
      <trkpt lat="46.13022" lon="6.81054">
        <ele>2354.41</ele>
        <time>2022-03-21T14:43:06Z</time>
      </trkpt>
      <trkpt lat="46.13024" lon="6.81045">
        <ele>2351.04</ele>
        <time>2022-03-21T14:43:07Z</time>
      </trkpt>
      <trkpt lat="46.13029" lon="6.81035">
        <ele>2346.23</ele>
        <time>2022-03-21T14:43:08Z</time>
      </trkpt>
      <trkpt lat="46.13034" lon="6.81024">
        <ele>2340.95</ele>
        <time>2022-03-21T14:43:09Z</time>
      </trkpt>
      <trkpt lat="46.13036" lon="6.8101">
        <ele>2336.62</ele>
        <time>2022-03-21T14:43:10Z</time>
      </trkpt>
      <trkpt lat="46.13038" lon="6.80993">
        <ele>2330.85</ele>
        <time>2022-03-21T14:43:11Z</time>
      </trkpt>
      <trkpt lat="46.1304" lon="6.80976">
        <ele>2325.57</ele>
        <time>2022-03-21T14:43:12Z</time>
      </trkpt>
      <trkpt lat="46.13039" lon="6.80957">
        <ele>2321.24</ele>
        <time>2022-03-21T14:43:13Z</time>
      </trkpt>
      <trkpt lat="46.1304" lon="6.80938">
        <ele>2315.95</ele>
        <time>2022-03-21T14:43:14Z</time>
      </trkpt>
      <trkpt lat="46.13041" lon="6.80922">
        <ele>2311.63</ele>
        <time>2022-03-21T14:43:15Z</time>
      </trkpt>
      <trkpt lat="46.13036" lon="6.80906">
        <ele>2308.26</ele>
        <time>2022-03-21T14:43:16Z</time>
      </trkpt>
      <trkpt lat="46.13032" lon="6.80888">
        <ele>2302.98</ele>
        <time>2022-03-21T14:43:17Z</time>
      </trkpt>
      <trkpt lat="46.13032" lon="6.80871">
        <ele>2298.17</ele>
        <time>2022-03-21T14:43:18Z</time>
      </trkpt>
      <trkpt lat="46.13031" lon="6.80854">
        <ele>2294.8</ele>
        <time>2022-03-21T14:43:19Z</time>
      </trkpt>
      <trkpt lat="46.13032" lon="6.8084">
        <ele>2290.96</ele>
        <time>2022-03-21T14:43:20Z</time>
      </trkpt>
      <trkpt lat="46.13037" lon="6.80829">
        <ele>2286.63</ele>
        <time>2022-03-21T14:43:21Z</time>
      </trkpt>
      <trkpt lat="46.13042" lon="6.8082">
        <ele>2284.71</ele>
        <time>2022-03-21T14:43:22Z</time>
      </trkpt>
      <trkpt lat="46.13044" lon="6.80814">
        <ele>2283.75</ele>
        <time>2022-03-21T14:43:23Z</time>
      </trkpt>
      <trkpt lat="46.13043" lon="6.80819">
        <ele>2281.83</ele>
        <time>2022-03-21T14:43:27Z</time>
      </trkpt>
      <trkpt lat="46.13043" lon="6.8082">
        <ele>2281.83</ele>
        <time>2022-03-21T14:43:28Z</time>
      </trkpt>
      <trkpt lat="46.1304" lon="6.80825">
        <ele>2281.35</ele>
        <time>2022-03-21T14:43:37Z</time>
      </trkpt>
      <trkpt lat="46.13038" lon="6.80828">
        <ele>2281.83</ele>
        <time>2022-03-21T14:43:46Z</time>
      </trkpt>
      <trkpt lat="46.13039" lon="6.80824">
        <ele>2281.83</ele>
        <time>2022-03-21T14:43:47Z</time>
      </trkpt>
      <trkpt lat="46.13039" lon="6.80821">
        <ele>2281.35</ele>
        <time>2022-03-21T14:43:48Z</time>
      </trkpt>
      <trkpt lat="46.1304" lon="6.80817">
        <ele>2280.38</ele>
        <time>2022-03-21T14:43:49Z</time>
      </trkpt>
      <trkpt lat="46.13041" lon="6.80813">
        <ele>2279.9</ele>
        <time>2022-03-21T14:43:50Z</time>
      </trkpt>
      <trkpt lat="46.13039" lon="6.80808">
        <ele>2279.42</ele>
        <time>2022-03-21T14:43:51Z</time>
      </trkpt>
      <trkpt lat="46.13039" lon="6.80803">
        <ele>2278.46</ele>
        <time>2022-03-21T14:43:52Z</time>
      </trkpt>
      <trkpt lat="46.13041" lon="6.808">
        <ele>2277.5</ele>
        <time>2022-03-21T14:43:53Z</time>
      </trkpt>
      <trkpt lat="46.13044" lon="6.80797">
        <ele>2276.06</ele>
        <time>2022-03-21T14:43:54Z</time>
      </trkpt>
      <trkpt lat="46.13045" lon="6.80794">
        <ele>2275.1</ele>
        <time>2022-03-21T14:43:55Z</time>
      </trkpt>
      <trkpt lat="46.13047" lon="6.8079">
        <ele>2274.14</ele>
        <time>2022-03-21T14:43:56Z</time>
      </trkpt>
      <trkpt lat="46.13049" lon="6.8079">
        <ele>2272.69</ele>
        <time>2022-03-21T14:43:57Z</time>
      </trkpt>
      <trkpt lat="46.13052" lon="6.80792">
        <ele>2270.77</ele>
        <time>2022-03-21T14:43:58Z</time>
      </trkpt>
      <trkpt lat="46.1306" lon="6.80791">
        <ele>2267.89</ele>
        <time>2022-03-21T14:44:00Z</time>
      </trkpt>
      <trkpt lat="46.13063" lon="6.80789">
        <ele>2266.93</ele>
        <time>2022-03-21T14:44:01Z</time>
      </trkpt>
      <trkpt lat="46.13068" lon="6.80783">
        <ele>2264.52</ele>
        <time>2022-03-21T14:44:02Z</time>
      </trkpt>
      <trkpt lat="46.13069" lon="6.80771">
        <ele>2261.16</ele>
        <time>2022-03-21T14:44:03Z</time>
      </trkpt>
      <trkpt lat="46.13069" lon="6.80756">
        <ele>2257.79</ele>
        <time>2022-03-21T14:44:04Z</time>
      </trkpt>
      <trkpt lat="46.13066" lon="6.80743">
        <ele>2254.43</ele>
        <time>2022-03-21T14:44:05Z</time>
      </trkpt>
      <trkpt lat="46.13065" lon="6.80728">
        <ele>2250.58</ele>
        <time>2022-03-21T14:44:06Z</time>
      </trkpt>
      <trkpt lat="46.13067" lon="6.80711">
        <ele>2245.78</ele>
        <time>2022-03-21T14:44:07Z</time>
      </trkpt>
      <trkpt lat="46.13069" lon="6.80695">
        <ele>2241.93</ele>
        <time>2022-03-21T14:44:08Z</time>
      </trkpt>
      <trkpt lat="46.13067" lon="6.80679">
        <ele>2239.05</ele>
        <time>2022-03-21T14:44:09Z</time>
      </trkpt>
      <trkpt lat="46.13063" lon="6.80665">
        <ele>2237.13</ele>
        <time>2022-03-21T14:44:10Z</time>
      </trkpt>
      <trkpt lat="46.1306" lon="6.80651">
        <ele>2233.76</ele>
        <time>2022-03-21T14:44:11Z</time>
      </trkpt>
      <trkpt lat="46.13057" lon="6.80637">
        <ele>2231.36</ele>
        <time>2022-03-21T14:44:12Z</time>
      </trkpt>
      <trkpt lat="46.13052" lon="6.80624">
        <ele>2228.95</ele>
        <time>2022-03-21T14:44:13Z</time>
      </trkpt>
      <trkpt lat="46.13049" lon="6.80611">
        <ele>2225.11</ele>
        <time>2022-03-21T14:44:14Z</time>
      </trkpt>
      <trkpt lat="46.13048" lon="6.80598">
        <ele>2222.22</ele>
        <time>2022-03-21T14:44:15Z</time>
      </trkpt>
      <trkpt lat="46.13043" lon="6.80587">
        <ele>2219.82</ele>
        <time>2022-03-21T14:44:16Z</time>
      </trkpt>
      <trkpt lat="46.1304" lon="6.80575">
        <ele>2216.46</ele>
        <time>2022-03-21T14:44:17Z</time>
      </trkpt>
      <trkpt lat="46.13039" lon="6.80563">
        <ele>2213.09</ele>
        <time>2022-03-21T14:44:18Z</time>
      </trkpt>
      <trkpt lat="46.13036" lon="6.80554">
        <ele>2211.17</ele>
        <time>2022-03-21T14:44:19Z</time>
      </trkpt>
      <trkpt lat="46.13033" lon="6.80544">
        <ele>2209.25</ele>
        <time>2022-03-21T14:44:20Z</time>
      </trkpt>
      <trkpt lat="46.13033" lon="6.80536">
        <ele>2206.84</ele>
        <time>2022-03-21T14:44:21Z</time>
      </trkpt>
      <trkpt lat="46.13034" lon="6.80528">
        <ele>2204.92</ele>
        <time>2022-03-21T14:44:22Z</time>
      </trkpt>
      <trkpt lat="46.13032" lon="6.8052">
        <ele>2203.48</ele>
        <time>2022-03-21T14:44:23Z</time>
      </trkpt>
      <trkpt lat="46.13026" lon="6.80498">
        <ele>2197.71</ele>
        <time>2022-03-21T14:44:25Z</time>
      </trkpt>
      <trkpt lat="46.13025" lon="6.80485">
        <ele>2194.35</ele>
        <time>2022-03-21T14:44:26Z</time>
      </trkpt>
      <trkpt lat="46.13021" lon="6.80472">
        <ele>2191.46</ele>
        <time>2022-03-21T14:44:27Z</time>
      </trkpt>
      <trkpt lat="46.13018" lon="6.80458">
        <ele>2188.58</ele>
        <time>2022-03-21T14:44:28Z</time>
      </trkpt>
      <trkpt lat="46.13018" lon="6.80444">
        <ele>2185.21</ele>
        <time>2022-03-21T14:44:29Z</time>
      </trkpt>
      <trkpt lat="46.13015" lon="6.80415">
        <ele>2179.93</ele>
        <time>2022-03-21T14:44:31Z</time>
      </trkpt>
      <trkpt lat="46.13013" lon="6.804">
        <ele>2176.56</ele>
        <time>2022-03-21T14:44:32Z</time>
      </trkpt>
      <trkpt lat="46.13009" lon="6.80388">
        <ele>2174.16</ele>
        <time>2022-03-21T14:44:33Z</time>
      </trkpt>
      <trkpt lat="46.13005" lon="6.80377">
        <ele>2171.76</ele>
        <time>2022-03-21T14:44:34Z</time>
      </trkpt>
      <trkpt lat="46.13002" lon="6.80369">
        <ele>2169.35</ele>
        <time>2022-03-21T14:44:35Z</time>
      </trkpt>
      <trkpt lat="46.12996" lon="6.80351">
        <ele>2165.99</ele>
        <time>2022-03-21T14:44:37Z</time>
      </trkpt>
      <trkpt lat="46.12993" lon="6.80342">
        <ele>2164.55</ele>
        <time>2022-03-21T14:44:38Z</time>
      </trkpt>
      <trkpt lat="46.12992" lon="6.80336">
        <ele>2162.62</ele>
        <time>2022-03-21T14:44:39Z</time>
      </trkpt>
      <trkpt lat="46.12992" lon="6.80333">
        <ele>2161.18</ele>
        <time>2022-03-21T14:44:40Z</time>
      </trkpt>
      <trkpt lat="46.1299" lon="6.80332">
        <ele>2159.26</ele>
        <time>2022-03-21T14:44:41Z</time>
      </trkpt>
      <trkpt lat="46.12989" lon="6.80329">
        <ele>2158.3</ele>
        <time>2022-03-21T14:44:42Z</time>
      </trkpt>
      <trkpt lat="46.12987" lon="6.80327">
        <ele>2157.82</ele>
        <time>2022-03-21T14:44:43Z</time>
      </trkpt>
      <trkpt lat="46.12983" lon="6.80326">
        <ele>2156.86</ele>
        <time>2022-03-21T14:44:44Z</time>
      </trkpt>
      <trkpt lat="46.12981" lon="6.80326">
        <ele>2156.37</ele>
        <time>2022-03-21T14:44:45Z</time>
      </trkpt>
      <trkpt lat="46.12979" lon="6.80328">
        <ele>2155.41</ele>
        <time>2022-03-21T14:44:46Z</time>
      </trkpt>
      <trkpt lat="46.12978" lon="6.80329">
        <ele>2155.41</ele>
        <time>2022-03-21T14:44:47Z</time>
      </trkpt>
      <trkpt lat="46.12978" lon="6.80331">
        <ele>2154.93</ele>
        <time>2022-03-21T14:44:48Z</time>
      </trkpt>
      <trkpt lat="46.12973" lon="6.80335">
        <ele>2154.45</ele>
        <time>2022-03-21T14:45:00Z</time>
      </trkpt>
      <trkpt lat="46.1297" lon="6.80334">
        <ele>2154.45</ele>
        <time>2022-03-21T14:45:01Z</time>
      </trkpt>
      <trkpt lat="46.12966" lon="6.80333">
        <ele>2154.45</ele>
        <time>2022-03-21T14:45:02Z</time>
      </trkpt>
      <trkpt lat="46.12949" lon="6.8033">
        <ele>2152.05</ele>
        <time>2022-03-21T14:45:05Z</time>
      </trkpt>
      <trkpt lat="46.12934" lon="6.80324">
        <ele>2148.68</ele>
        <time>2022-03-21T14:45:07Z</time>
      </trkpt>
      <trkpt lat="46.12924" lon="6.80323">
        <ele>2146.28</ele>
        <time>2022-03-21T14:45:08Z</time>
      </trkpt>
      <trkpt lat="46.12915" lon="6.80321">
        <ele>2144.36</ele>
        <time>2022-03-21T14:45:09Z</time>
      </trkpt>
      <trkpt lat="46.12898" lon="6.80319">
        <ele>2140.99</ele>
        <time>2022-03-21T14:45:11Z</time>
      </trkpt>
      <trkpt lat="46.12878" lon="6.80322">
        <ele>2138.59</ele>
        <time>2022-03-21T14:45:14Z</time>
      </trkpt>
      <trkpt lat="46.12868" lon="6.80319">
        <ele>2137.15</ele>
        <time>2022-03-21T14:45:16Z</time>
      </trkpt>
      <trkpt lat="46.12865" lon="6.80311">
        <ele>2136.19</ele>
        <time>2022-03-21T14:45:17Z</time>
      </trkpt>
      <trkpt lat="46.12862" lon="6.80301">
        <ele>2133.78</ele>
        <time>2022-03-21T14:45:18Z</time>
      </trkpt>
      <trkpt lat="46.12857" lon="6.8029">
        <ele>2130.9</ele>
        <time>2022-03-21T14:45:19Z</time>
      </trkpt>
      <trkpt lat="46.12852" lon="6.80278">
        <ele>2127.05</ele>
        <time>2022-03-21T14:45:20Z</time>
      </trkpt>
      <trkpt lat="46.12847" lon="6.80265">
        <ele>2123.69</ele>
        <time>2022-03-21T14:45:21Z</time>
      </trkpt>
      <trkpt lat="46.12842" lon="6.80251">
        <ele>2120.32</ele>
        <time>2022-03-21T14:45:22Z</time>
      </trkpt>
      <trkpt lat="46.12836" lon="6.80238">
        <ele>2116.96</ele>
        <time>2022-03-21T14:45:23Z</time>
      </trkpt>
      <trkpt lat="46.12828" lon="6.80226">
        <ele>2113.6</ele>
        <time>2022-03-21T14:45:24Z</time>
      </trkpt>
      <trkpt lat="46.1282" lon="6.80215">
        <ele>2110.23</ele>
        <time>2022-03-21T14:45:25Z</time>
      </trkpt>
      <trkpt lat="46.12805" lon="6.80194">
        <ele>2106.39</ele>
        <time>2022-03-21T14:45:27Z</time>
      </trkpt>
      <trkpt lat="46.128" lon="6.80183">
        <ele>2104.46</ele>
        <time>2022-03-21T14:45:28Z</time>
      </trkpt>
      <trkpt lat="46.12799" lon="6.8017">
        <ele>2102.54</ele>
        <time>2022-03-21T14:45:29Z</time>
      </trkpt>
      <trkpt lat="46.12797" lon="6.80139">
        <ele>2098.7</ele>
        <time>2022-03-21T14:45:31Z</time>
      </trkpt>
      <trkpt lat="46.12791" lon="6.80117">
        <ele>2094.85</ele>
        <time>2022-03-21T14:45:33Z</time>
      </trkpt>
      <trkpt lat="46.12789" lon="6.80105">
        <ele>2093.41</ele>
        <time>2022-03-21T14:45:34Z</time>
      </trkpt>
      <trkpt lat="46.12788" lon="6.80094">
        <ele>2091.97</ele>
        <time>2022-03-21T14:45:35Z</time>
      </trkpt>
      <trkpt lat="46.12788" lon="6.80083">
        <ele>2091</ele>
        <time>2022-03-21T14:45:36Z</time>
      </trkpt>
      <trkpt lat="46.12791" lon="6.80073">
        <ele>2090.52</ele>
        <time>2022-03-21T14:45:37Z</time>
      </trkpt>
      <trkpt lat="46.12793" lon="6.80064">
        <ele>2090.04</ele>
        <time>2022-03-21T14:45:38Z</time>
      </trkpt>
      <trkpt lat="46.12791" lon="6.80038">
        <ele>2090.04</ele>
        <time>2022-03-21T14:45:47Z</time>
      </trkpt>
      <trkpt lat="46.12787" lon="6.80029">
        <ele>2089.56</ele>
        <time>2022-03-21T14:45:49Z</time>
      </trkpt>
      <trkpt lat="46.12785" lon="6.80024">
        <ele>2089.08</ele>
        <time>2022-03-21T14:45:50Z</time>
      </trkpt>
      <trkpt lat="46.12775" lon="6.79999">
        <ele>2086.68</ele>
        <time>2022-03-21T14:45:54Z</time>
      </trkpt>
      <trkpt lat="46.12762" lon="6.79968">
        <ele>2083.31</ele>
        <time>2022-03-21T14:45:58Z</time>
      </trkpt>
      <trkpt lat="46.12751" lon="6.79933">
        <ele>2079.95</ele>
        <time>2022-03-21T14:46:02Z</time>
      </trkpt>
      <trkpt lat="46.12742" lon="6.79905">
        <ele>2076.59</ele>
        <time>2022-03-21T14:46:05Z</time>
      </trkpt>
      <trkpt lat="46.12735" lon="6.79873">
        <ele>2073.7</ele>
        <time>2022-03-21T14:46:09Z</time>
      </trkpt>
      <trkpt lat="46.12738" lon="6.79866">
        <ele>2072.74</ele>
        <time>2022-03-21T14:46:10Z</time>
      </trkpt>
      <trkpt lat="46.12745" lon="6.79853">
        <ele>2069.38</ele>
        <time>2022-03-21T14:46:12Z</time>
      </trkpt>
      <trkpt lat="46.12742" lon="6.79845">
        <ele>2067.93</ele>
        <time>2022-03-21T14:46:13Z</time>
      </trkpt>
      <trkpt lat="46.12741" lon="6.79838">
        <ele>2066.49</ele>
        <time>2022-03-21T14:46:14Z</time>
      </trkpt>
      <trkpt lat="46.12739" lon="6.7983">
        <ele>2065.53</ele>
        <time>2022-03-21T14:46:15Z</time>
      </trkpt>
      <trkpt lat="46.12737" lon="6.79823">
        <ele>2064.57</ele>
        <time>2022-03-21T14:46:16Z</time>
      </trkpt>
      <trkpt lat="46.12739" lon="6.79816">
        <ele>2063.61</ele>
        <time>2022-03-21T14:46:17Z</time>
      </trkpt>
      <trkpt lat="46.12742" lon="6.79811">
        <ele>2061.68</ele>
        <time>2022-03-21T14:46:18Z</time>
      </trkpt>
      <trkpt lat="46.12743" lon="6.79804">
        <ele>2059.28</ele>
        <time>2022-03-21T14:46:19Z</time>
      </trkpt>
      <trkpt lat="46.12742" lon="6.79795">
        <ele>2056.88</ele>
        <time>2022-03-21T14:46:20Z</time>
      </trkpt>
      <trkpt lat="46.1274" lon="6.79787">
        <ele>2054.47</ele>
        <time>2022-03-21T14:46:21Z</time>
      </trkpt>
      <trkpt lat="46.12738" lon="6.79769">
        <ele>2050.63</ele>
        <time>2022-03-21T14:46:23Z</time>
      </trkpt>
      <trkpt lat="46.12737" lon="6.79745">
        <ele>2046.3</ele>
        <time>2022-03-21T14:46:26Z</time>
      </trkpt>
      <trkpt lat="46.12735" lon="6.79722">
        <ele>2042.94</ele>
        <time>2022-03-21T14:46:29Z</time>
      </trkpt>
      <trkpt lat="46.12732" lon="6.79698">
        <ele>2038.61</ele>
        <time>2022-03-21T14:46:32Z</time>
      </trkpt>
      <trkpt lat="46.1273" lon="6.79672">
        <ele>2034.77</ele>
        <time>2022-03-21T14:46:35Z</time>
      </trkpt>
      <trkpt lat="46.12729" lon="6.79653">
        <ele>2031.88</ele>
        <time>2022-03-21T14:46:37Z</time>
      </trkpt>
      <trkpt lat="46.12729" lon="6.79626">
        <ele>2028.52</ele>
        <time>2022-03-21T14:46:40Z</time>
      </trkpt>
      <trkpt lat="46.12728" lon="6.79602">
        <ele>2025.64</ele>
        <time>2022-03-21T14:46:43Z</time>
      </trkpt>
      <trkpt lat="46.12728" lon="6.79579">
        <ele>2022.27</ele>
        <time>2022-03-21T14:46:46Z</time>
      </trkpt>
      <trkpt lat="46.12726" lon="6.79564">
        <ele>2019.87</ele>
        <time>2022-03-21T14:46:48Z</time>
      </trkpt>
      <trkpt lat="46.12717" lon="6.79532">
        <ele>2016.98</ele>
        <time>2022-03-21T14:46:54Z</time>
      </trkpt>
      <trkpt lat="46.12713" lon="6.79526">
        <ele>2015.06</ele>
        <time>2022-03-21T14:47:11Z</time>
      </trkpt>
      <trkpt lat="46.12713" lon="6.79524">
        <ele>2015.06</ele>
        <time>2022-03-21T14:47:12Z</time>
      </trkpt>
      <trkpt lat="46.12709" lon="6.79513">
        <ele>2014.1</ele>
        <time>2022-03-21T14:47:15Z</time>
      </trkpt>
      <trkpt lat="46.12713" lon="6.79507">
        <ele>2012.66</ele>
        <time>2022-03-21T14:47:16Z</time>
      </trkpt>
      <trkpt lat="46.12716" lon="6.79493">
        <ele>2008.81</ele>
        <time>2022-03-21T14:47:18Z</time>
      </trkpt>
      <trkpt lat="46.12714" lon="6.79485">
        <ele>2005.93</ele>
        <time>2022-03-21T14:47:19Z</time>
      </trkpt>
      <trkpt lat="46.12708" lon="6.79476">
        <ele>2004.01</ele>
        <time>2022-03-21T14:47:20Z</time>
      </trkpt>
      <trkpt lat="46.12705" lon="6.79465">
        <ele>2002.08</ele>
        <time>2022-03-21T14:47:21Z</time>
      </trkpt>
      <trkpt lat="46.12701" lon="6.79453">
        <ele>2000.16</ele>
        <time>2022-03-21T14:47:22Z</time>
      </trkpt>
      <trkpt lat="46.12698" lon="6.7944">
        <ele>1998.24</ele>
        <time>2022-03-21T14:47:23Z</time>
      </trkpt>
      <trkpt lat="46.12691" lon="6.79417">
        <ele>1995.35</ele>
        <time>2022-03-21T14:47:25Z</time>
      </trkpt>
      <trkpt lat="46.12678" lon="6.79383">
        <ele>1991.99</ele>
        <time>2022-03-21T14:47:29Z</time>
      </trkpt>
      <trkpt lat="46.12666" lon="6.79356">
        <ele>1989.1</ele>
        <time>2022-03-21T14:47:33Z</time>
      </trkpt>
      <trkpt lat="46.12656" lon="6.79327">
        <ele>1986.22</ele>
        <time>2022-03-21T14:47:37Z</time>
      </trkpt>
      <trkpt lat="46.1265" lon="6.79298">
        <ele>1983.82</ele>
        <time>2022-03-21T14:47:41Z</time>
      </trkpt>
      <trkpt lat="46.12645" lon="6.79266">
        <ele>1981.41</ele>
        <time>2022-03-21T14:47:45Z</time>
      </trkpt>
      <trkpt lat="46.1264" lon="6.79231">
        <ele>1978.53</ele>
        <time>2022-03-21T14:47:50Z</time>
      </trkpt>
      <trkpt lat="46.12637" lon="6.79219">
        <ele>1977.57</ele>
        <time>2022-03-21T14:47:52Z</time>
      </trkpt>
      <trkpt lat="46.12628" lon="6.79188">
        <ele>1974.2</ele>
        <time>2022-03-21T14:47:57Z</time>
      </trkpt>
      <trkpt lat="46.12621" lon="6.79165">
        <ele>1969.88</ele>
        <time>2022-03-21T14:48:00Z</time>
      </trkpt>
      <trkpt lat="46.12614" lon="6.79142">
        <ele>1966.99</ele>
        <time>2022-03-21T14:48:03Z</time>
      </trkpt>
      <trkpt lat="46.12604" lon="6.79111">
        <ele>1963.63</ele>
        <time>2022-03-21T14:48:09Z</time>
      </trkpt>
      <trkpt lat="46.12594" lon="6.7909">
        <ele>1960.27</ele>
        <time>2022-03-21T14:48:13Z</time>
      </trkpt>
      <trkpt lat="46.12586" lon="6.79069">
        <ele>1957.38</ele>
        <time>2022-03-21T14:48:16Z</time>
      </trkpt>
      <trkpt lat="46.12576" lon="6.79045">
        <ele>1954.02</ele>
        <time>2022-03-21T14:48:20Z</time>
      </trkpt>
      <trkpt lat="46.12569" lon="6.79022">
        <ele>1950.65</ele>
        <time>2022-03-21T14:48:24Z</time>
      </trkpt>
      <trkpt lat="46.12563" lon="6.79005">
        <ele>1947.77</ele>
        <time>2022-03-21T14:48:27Z</time>
      </trkpt>
      <trkpt lat="46.12556" lon="6.78988">
        <ele>1944.4</ele>
        <time>2022-03-21T14:48:31Z</time>
      </trkpt>
      <trkpt lat="46.12547" lon="6.7897">
        <ele>1941.52</ele>
        <time>2022-03-21T14:48:36Z</time>
      </trkpt>
      <trkpt lat="46.12534" lon="6.78949">
        <ele>1937.67</ele>
        <time>2022-03-21T14:48:42Z</time>
      </trkpt>
      <trkpt lat="46.12536" lon="6.78946">
        <ele>1937.19</ele>
        <time>2022-03-21T14:48:43Z</time>
      </trkpt>
      <trkpt lat="46.12538" lon="6.78944">
        <ele>1935.27</ele>
        <time>2022-03-21T14:48:44Z</time>
      </trkpt>
      <trkpt lat="46.12542" lon="6.78939">
        <ele>1932.39</ele>
        <time>2022-03-21T14:48:46Z</time>
      </trkpt>
      <trkpt lat="46.12542" lon="6.78933">
        <ele>1930.46</ele>
        <time>2022-03-21T14:48:47Z</time>
      </trkpt>
      <trkpt lat="46.12541" lon="6.78925">
        <ele>1928.54</ele>
        <time>2022-03-21T14:48:48Z</time>
      </trkpt>
      <trkpt lat="46.12539" lon="6.78916">
        <ele>1926.14</ele>
        <time>2022-03-21T14:48:49Z</time>
      </trkpt>
      <trkpt lat="46.12538" lon="6.78906">
        <ele>1924.7</ele>
        <time>2022-03-21T14:48:50Z</time>
      </trkpt>
      <trkpt lat="46.12536" lon="6.78897">
        <ele>1923.25</ele>
        <time>2022-03-21T14:48:51Z</time>
      </trkpt>
      <trkpt lat="46.1253" lon="6.78869">
        <ele>1919.41</ele>
        <time>2022-03-21T14:48:54Z</time>
      </trkpt>
      <trkpt lat="46.12529" lon="6.7886">
        <ele>1917.97</ele>
        <time>2022-03-21T14:48:55Z</time>
      </trkpt>
      <trkpt lat="46.12525" lon="6.78831">
        <ele>1914.12</ele>
        <time>2022-03-21T14:48:58Z</time>
      </trkpt>
      <trkpt lat="46.12522" lon="6.78822">
        <ele>1912.68</ele>
        <time>2022-03-21T14:48:59Z</time>
      </trkpt>
      <trkpt lat="46.12517" lon="6.78801">
        <ele>1908.83</ele>
        <time>2022-03-21T14:49:02Z</time>
      </trkpt>
      <trkpt lat="46.12514" lon="6.78795">
        <ele>1908.35</ele>
        <time>2022-03-21T14:49:03Z</time>
      </trkpt>
      <trkpt lat="46.12512" lon="6.78789">
        <ele>1907.39</ele>
        <time>2022-03-21T14:49:04Z</time>
      </trkpt>
      <trkpt lat="46.12503" lon="6.78765">
        <ele>1904.03</ele>
        <time>2022-03-21T14:49:09Z</time>
      </trkpt>
      <trkpt lat="46.12495" lon="6.78746">
        <ele>1900.18</ele>
        <time>2022-03-21T14:49:14Z</time>
      </trkpt>
      <trkpt lat="46.12489" lon="6.78722">
        <ele>1895.86</ele>
        <time>2022-03-21T14:49:18Z</time>
      </trkpt>
      <trkpt lat="46.12481" lon="6.78702">
        <ele>1892.49</ele>
        <time>2022-03-21T14:49:22Z</time>
      </trkpt>
      <trkpt lat="46.12467" lon="6.78675">
        <ele>1889.13</ele>
        <time>2022-03-21T14:49:29Z</time>
      </trkpt>
      <trkpt lat="46.12458" lon="6.78652">
        <ele>1885.28</ele>
        <time>2022-03-21T14:49:33Z</time>
      </trkpt>
      <trkpt lat="46.12453" lon="6.78634">
        <ele>1882.4</ele>
        <time>2022-03-21T14:49:36Z</time>
      </trkpt>
      <trkpt lat="46.12451" lon="6.78629">
        <ele>1881.44</ele>
        <time>2022-03-21T14:49:37Z</time>
      </trkpt>
      <trkpt lat="46.12447" lon="6.78619">
        <ele>1880</ele>
        <time>2022-03-21T14:49:39Z</time>
      </trkpt>
      <trkpt lat="46.12446" lon="6.78613">
        <ele>1879.51</ele>
        <time>2022-03-21T14:49:40Z</time>
      </trkpt>
      <trkpt lat="46.12441" lon="6.78584">
        <ele>1875.67</ele>
        <time>2022-03-21T14:49:44Z</time>
      </trkpt>
      <trkpt lat="46.12438" lon="6.78563">
        <ele>1871.82</ele>
        <time>2022-03-21T14:49:47Z</time>
      </trkpt>
      <trkpt lat="46.1244" lon="6.78555">
        <ele>1869.9</ele>
        <time>2022-03-21T14:49:48Z</time>
      </trkpt>
      <trkpt lat="46.12442" lon="6.78539">
        <ele>1866.06</ele>
        <time>2022-03-21T14:49:50Z</time>
      </trkpt>
      <trkpt lat="46.1244" lon="6.7853">
        <ele>1864.13</ele>
        <time>2022-03-21T14:49:51Z</time>
      </trkpt>
      <trkpt lat="46.12438" lon="6.78521">
        <ele>1862.69</ele>
        <time>2022-03-21T14:49:52Z</time>
      </trkpt>
      <trkpt lat="46.1243" lon="6.785">
        <ele>1858.85</ele>
        <time>2022-03-21T14:49:55Z</time>
      </trkpt>
      <trkpt lat="46.12425" lon="6.78485">
        <ele>1857.4</ele>
        <time>2022-03-21T14:49:57Z</time>
      </trkpt>
      <trkpt lat="46.12419" lon="6.78472">
        <ele>1855.96</ele>
        <time>2022-03-21T14:49:59Z</time>
      </trkpt>
      <trkpt lat="46.12409" lon="6.78445">
        <ele>1852.6</ele>
        <time>2022-03-21T14:50:03Z</time>
      </trkpt>
      <trkpt lat="46.12403" lon="6.7843">
        <ele>1850.68</ele>
        <time>2022-03-21T14:50:05Z</time>
      </trkpt>
      <trkpt lat="46.124" lon="6.78423">
        <ele>1849.71</ele>
        <time>2022-03-21T14:50:06Z</time>
      </trkpt>
      <trkpt lat="46.12387" lon="6.78398">
        <ele>1847.79</ele>
        <time>2022-03-21T14:50:11Z</time>
      </trkpt>
      <trkpt lat="46.12371" lon="6.78379">
        <ele>1845.39</ele>
        <time>2022-03-21T14:50:17Z</time>
      </trkpt>
      <trkpt lat="46.1235" lon="6.7835">
        <ele>1841.06</ele>
        <time>2022-03-21T14:50:21Z</time>
      </trkpt>
      <trkpt lat="46.1234" lon="6.78331">
        <ele>1838.18</ele>
        <time>2022-03-21T14:50:23Z</time>
      </trkpt>
      <trkpt lat="46.12334" lon="6.78316">
        <ele>1835.77</ele>
        <time>2022-03-21T14:50:25Z</time>
      </trkpt>
      <trkpt lat="46.12324" lon="6.78293">
        <ele>1832.41</ele>
        <time>2022-03-21T14:50:29Z</time>
      </trkpt>
      <trkpt lat="46.1231" lon="6.7826">
        <ele>1828.56</ele>
        <time>2022-03-21T14:50:33Z</time>
      </trkpt>
      <trkpt lat="46.12307" lon="6.78253">
        <ele>1827.6</ele>
        <time>2022-03-21T14:50:34Z</time>
      </trkpt>
      <trkpt lat="46.12301" lon="6.78234">
        <ele>1825.68</ele>
        <time>2022-03-21T14:50:37Z</time>
      </trkpt>
      <trkpt lat="46.12293" lon="6.78206">
        <ele>1823.28</ele>
        <time>2022-03-21T14:50:44Z</time>
      </trkpt>
      <trkpt lat="46.12292" lon="6.78201">
        <ele>1822.8</ele>
        <time>2022-03-21T14:50:45Z</time>
      </trkpt>
      <trkpt lat="46.1229" lon="6.78196">
        <ele>1822.32</ele>
        <time>2022-03-21T14:50:46Z</time>
      </trkpt>
      <trkpt lat="46.12288" lon="6.78191">
        <ele>1821.35</ele>
        <time>2022-03-21T14:50:47Z</time>
      </trkpt>
      <trkpt lat="46.12286" lon="6.78188">
        <ele>1820.39</ele>
        <time>2022-03-21T14:50:48Z</time>
      </trkpt>
      <trkpt lat="46.12285" lon="6.78184">
        <ele>1819.43</ele>
        <time>2022-03-21T14:50:49Z</time>
      </trkpt>
      <trkpt lat="46.12283" lon="6.7818">
        <ele>1818.95</ele>
        <time>2022-03-21T14:50:50Z</time>
      </trkpt>
      <trkpt lat="46.12281" lon="6.78176">
        <ele>1817.99</ele>
        <time>2022-03-21T14:50:51Z</time>
      </trkpt>
      <trkpt lat="46.12279" lon="6.78172">
        <ele>1817.99</ele>
        <time>2022-03-21T14:50:52Z</time>
      </trkpt>
      <trkpt lat="46.12277" lon="6.78167">
        <ele>1817.51</ele>
        <time>2022-03-21T14:50:53Z</time>
      </trkpt>
      <trkpt lat="46.12272" lon="6.78145">
        <ele>1814.63</ele>
        <time>2022-03-21T14:50:58Z</time>
      </trkpt>
      <trkpt lat="46.12268" lon="6.78131">
        <ele>1811.26</ele>
        <time>2022-03-21T14:51:03Z</time>
      </trkpt>
      <trkpt lat="46.12267" lon="6.78126">
        <ele>1810.78</ele>
        <time>2022-03-21T14:51:04Z</time>
      </trkpt>
      <trkpt lat="46.12265" lon="6.7812">
        <ele>1809.82</ele>
        <time>2022-03-21T14:51:05Z</time>
      </trkpt>
      <trkpt lat="46.12258" lon="6.78102">
        <ele>1806.45</ele>
        <time>2022-03-21T14:51:08Z</time>
      </trkpt>
      <trkpt lat="46.12256" lon="6.78095">
        <ele>1805.49</ele>
        <time>2022-03-21T14:51:09Z</time>
      </trkpt>
      <trkpt lat="46.12254" lon="6.78086">
        <ele>1804.53</ele>
        <time>2022-03-21T14:51:10Z</time>
      </trkpt>
      <trkpt lat="46.12252" lon="6.78078">
        <ele>1803.09</ele>
        <time>2022-03-21T14:51:11Z</time>
      </trkpt>
      <trkpt lat="46.12246" lon="6.78054">
        <ele>1798.76</ele>
        <time>2022-03-21T14:51:14Z</time>
      </trkpt>
      <trkpt lat="46.12244" lon="6.78046">
        <ele>1797.8</ele>
        <time>2022-03-21T14:51:15Z</time>
      </trkpt>
      <trkpt lat="46.12242" lon="6.78039">
        <ele>1796.36</ele>
        <time>2022-03-21T14:51:16Z</time>
      </trkpt>
      <trkpt lat="46.12238" lon="6.7802">
        <ele>1793</ele>
        <time>2022-03-21T14:51:19Z</time>
      </trkpt>
      <trkpt lat="46.12233" lon="6.77999">
        <ele>1789.63</ele>
        <time>2022-03-21T14:51:22Z</time>
      </trkpt>
      <trkpt lat="46.12232" lon="6.7799">
        <ele>1789.15</ele>
        <time>2022-03-21T14:51:23Z</time>
      </trkpt>
      <trkpt lat="46.12229" lon="6.77974">
        <ele>1786.27</ele>
        <time>2022-03-21T14:51:25Z</time>
      </trkpt>
      <trkpt lat="46.12227" lon="6.77968">
        <ele>1785.31</ele>
        <time>2022-03-21T14:51:26Z</time>
      </trkpt>
      <trkpt lat="46.12225" lon="6.77961">
        <ele>1783.86</ele>
        <time>2022-03-21T14:51:27Z</time>
      </trkpt>
      <trkpt lat="46.12222" lon="6.77945">
        <ele>1781.46</ele>
        <time>2022-03-21T14:51:29Z</time>
      </trkpt>
      <trkpt lat="46.12219" lon="6.77937">
        <ele>1780.5</ele>
        <time>2022-03-21T14:51:30Z</time>
      </trkpt>
      <trkpt lat="46.1221" lon="6.77909">
        <ele>1777.61</ele>
        <time>2022-03-21T14:51:34Z</time>
      </trkpt>
      <trkpt lat="46.12205" lon="6.77897">
        <ele>1776.17</ele>
        <time>2022-03-21T14:51:36Z</time>
      </trkpt>
      <trkpt lat="46.12192" lon="6.77873">
        <ele>1773.77</ele>
        <time>2022-03-21T14:51:41Z</time>
      </trkpt>
      <trkpt lat="46.12178" lon="6.77854">
        <ele>1772.33</ele>
        <time>2022-03-21T14:51:46Z</time>
      </trkpt>
      <trkpt lat="46.12164" lon="6.77832">
        <ele>1769.44</ele>
        <time>2022-03-21T14:51:52Z</time>
      </trkpt>
      <trkpt lat="46.12161" lon="6.77811">
        <ele>1767.04</ele>
        <time>2022-03-21T14:52:14Z</time>
      </trkpt>
      <trkpt lat="46.12164" lon="6.77807">
        <ele>1766.08</ele>
        <time>2022-03-21T14:52:15Z</time>
      </trkpt>
      <trkpt lat="46.12168" lon="6.77803">
        <ele>1764.64</ele>
        <time>2022-03-21T14:52:16Z</time>
      </trkpt>
      <trkpt lat="46.12169" lon="6.77796">
        <ele>1763.2</ele>
        <time>2022-03-21T14:52:17Z</time>
      </trkpt>
      <trkpt lat="46.12167" lon="6.77789">
        <ele>1761.27</ele>
        <time>2022-03-21T14:52:18Z</time>
      </trkpt>
      <trkpt lat="46.12168" lon="6.77781">
        <ele>1759.35</ele>
        <time>2022-03-21T14:52:19Z</time>
      </trkpt>
      <trkpt lat="46.1217" lon="6.77772">
        <ele>1757.43</ele>
        <time>2022-03-21T14:52:20Z</time>
      </trkpt>
      <trkpt lat="46.12169" lon="6.77764">
        <ele>1755.02</ele>
        <time>2022-03-21T14:52:21Z</time>
      </trkpt>
      <trkpt lat="46.12167" lon="6.77755">
        <ele>1752.62</ele>
        <time>2022-03-21T14:52:22Z</time>
      </trkpt>
      <trkpt lat="46.12163" lon="6.77747">
        <ele>1750.22</ele>
        <time>2022-03-21T14:52:23Z</time>
      </trkpt>
      <trkpt lat="46.12159" lon="6.7774">
        <ele>1748.29</ele>
        <time>2022-03-21T14:52:24Z</time>
      </trkpt>
      <trkpt lat="46.12156" lon="6.77733">
        <ele>1746.85</ele>
        <time>2022-03-21T14:52:25Z</time>
      </trkpt>
      <trkpt lat="46.12156" lon="6.77726">
        <ele>1745.89</ele>
        <time>2022-03-21T14:52:26Z</time>
      </trkpt>
      <trkpt lat="46.12154" lon="6.77717">
        <ele>1743.97</ele>
        <time>2022-03-21T14:52:27Z</time>
      </trkpt>
      <trkpt lat="46.12151" lon="6.77708">
        <ele>1742.05</ele>
        <time>2022-03-21T14:52:28Z</time>
      </trkpt>
      <trkpt lat="46.12146" lon="6.77701">
        <ele>1740.6</ele>
        <time>2022-03-21T14:52:29Z</time>
      </trkpt>
      <trkpt lat="46.12141" lon="6.77695">
        <ele>1738.68</ele>
        <time>2022-03-21T14:52:30Z</time>
      </trkpt>
      <trkpt lat="46.12136" lon="6.7769">
        <ele>1737.24</ele>
        <time>2022-03-21T14:52:31Z</time>
      </trkpt>
      <trkpt lat="46.12131" lon="6.77685">
        <ele>1736.76</ele>
        <time>2022-03-21T14:52:32Z</time>
      </trkpt>
      <trkpt lat="46.12117" lon="6.77672">
        <ele>1733.88</ele>
        <time>2022-03-21T14:52:35Z</time>
      </trkpt>
      <trkpt lat="46.12115" lon="6.77666">
        <ele>1732.91</ele>
        <time>2022-03-21T14:52:36Z</time>
      </trkpt>
      <trkpt lat="46.12118" lon="6.77659">
        <ele>1731.47</ele>
        <time>2022-03-21T14:52:37Z</time>
      </trkpt>
      <trkpt lat="46.12124" lon="6.77645">
        <ele>1728.11</ele>
        <time>2022-03-21T14:52:39Z</time>
      </trkpt>
      <trkpt lat="46.12122" lon="6.77638">
        <ele>1726.18</ele>
        <time>2022-03-21T14:52:40Z</time>
      </trkpt>
      <trkpt lat="46.12118" lon="6.77631">
        <ele>1723.78</ele>
        <time>2022-03-21T14:52:41Z</time>
      </trkpt>
      <trkpt lat="46.12114" lon="6.77624">
        <ele>1721.86</ele>
        <time>2022-03-21T14:52:42Z</time>
      </trkpt>
      <trkpt lat="46.12114" lon="6.77618">
        <ele>1719.94</ele>
        <time>2022-03-21T14:52:43Z</time>
      </trkpt>
      <trkpt lat="46.12119" lon="6.77613">
        <ele>1718.01</ele>
        <time>2022-03-21T14:52:44Z</time>
      </trkpt>
      <trkpt lat="46.12122" lon="6.77607">
        <ele>1716.57</ele>
        <time>2022-03-21T14:52:45Z</time>
      </trkpt>
      <trkpt lat="46.12121" lon="6.77599">
        <ele>1714.65</ele>
        <time>2022-03-21T14:52:46Z</time>
      </trkpt>
      <trkpt lat="46.12117" lon="6.77591">
        <ele>1712.25</ele>
        <time>2022-03-21T14:52:47Z</time>
      </trkpt>
      <trkpt lat="46.12115" lon="6.77584">
        <ele>1709.84</ele>
        <time>2022-03-21T14:52:48Z</time>
      </trkpt>
      <trkpt lat="46.12117" lon="6.77575">
        <ele>1707.92</ele>
        <time>2022-03-21T14:52:49Z</time>
      </trkpt>
      <trkpt lat="46.12119" lon="6.77566">
        <ele>1706</ele>
        <time>2022-03-21T14:52:50Z</time>
      </trkpt>
      <trkpt lat="46.12117" lon="6.77558">
        <ele>1704.07</ele>
        <time>2022-03-21T14:52:51Z</time>
      </trkpt>
      <trkpt lat="46.12112" lon="6.77551">
        <ele>1702.63</ele>
        <time>2022-03-21T14:52:52Z</time>
      </trkpt>
      <trkpt lat="46.12109" lon="6.77542">
        <ele>1700.71</ele>
        <time>2022-03-21T14:52:53Z</time>
      </trkpt>
      <trkpt lat="46.12109" lon="6.77532">
        <ele>1698.79</ele>
        <time>2022-03-21T14:52:54Z</time>
      </trkpt>
      <trkpt lat="46.12111" lon="6.77524">
        <ele>1697.34</ele>
        <time>2022-03-21T14:52:55Z</time>
      </trkpt>
      <trkpt lat="46.1211" lon="6.77516">
        <ele>1695.9</ele>
        <time>2022-03-21T14:52:56Z</time>
      </trkpt>
      <trkpt lat="46.12107" lon="6.7751">
        <ele>1694.46</ele>
        <time>2022-03-21T14:52:57Z</time>
      </trkpt>
      <trkpt lat="46.12106" lon="6.77501">
        <ele>1693.02</ele>
        <time>2022-03-21T14:52:58Z</time>
      </trkpt>
      <trkpt lat="46.12106" lon="6.77492">
        <ele>1691.58</ele>
        <time>2022-03-21T14:52:59Z</time>
      </trkpt>
      <trkpt lat="46.12107" lon="6.77484">
        <ele>1690.14</ele>
        <time>2022-03-21T14:53:00Z</time>
      </trkpt>
      <trkpt lat="46.12109" lon="6.77477">
        <ele>1689.17</ele>
        <time>2022-03-21T14:53:01Z</time>
      </trkpt>
      <trkpt lat="46.12111" lon="6.77471">
        <ele>1688.21</ele>
        <time>2022-03-21T14:53:02Z</time>
      </trkpt>
      <trkpt lat="46.12111" lon="6.77466">
        <ele>1688.21</ele>
        <time>2022-03-21T14:53:03Z</time>
      </trkpt>
      <trkpt lat="46.12111" lon="6.77462">
        <ele>1687.73</ele>
        <time>2022-03-21T14:53:04Z</time>
      </trkpt>
      <trkpt lat="46.12111" lon="6.77457">
        <ele>1687.25</ele>
        <time>2022-03-21T14:53:05Z</time>
      </trkpt>
      <trkpt lat="46.12107" lon="6.77453">
        <ele>1686.77</ele>
        <time>2022-03-21T14:53:06Z</time>
      </trkpt>
      <trkpt lat="46.12103" lon="6.77449">
        <ele>1685.81</ele>
        <time>2022-03-21T14:53:07Z</time>
      </trkpt>
      <trkpt lat="46.121" lon="6.77442">
        <ele>1683.89</ele>
        <time>2022-03-21T14:53:08Z</time>
      </trkpt>
      <trkpt lat="46.121" lon="6.77433">
        <ele>1682.44</ele>
        <time>2022-03-21T14:53:09Z</time>
      </trkpt>
      <trkpt lat="46.12101" lon="6.77425">
        <ele>1681</ele>
        <time>2022-03-21T14:53:10Z</time>
      </trkpt>
      <trkpt lat="46.12102" lon="6.77408">
        <ele>1679.08</ele>
        <time>2022-03-21T14:53:12Z</time>
      </trkpt>
      <trkpt lat="46.12099" lon="6.77402">
        <ele>1678.6</ele>
        <time>2022-03-21T14:53:13Z</time>
      </trkpt>
      <trkpt lat="46.12095" lon="6.77394">
        <ele>1676.68</ele>
        <time>2022-03-21T14:53:14Z</time>
      </trkpt>
      <trkpt lat="46.12094" lon="6.77387">
        <ele>1675.23</ele>
        <time>2022-03-21T14:53:15Z</time>
      </trkpt>
      <trkpt lat="46.12093" lon="6.7738">
        <ele>1674.27</ele>
        <time>2022-03-21T14:53:16Z</time>
      </trkpt>
      <trkpt lat="46.12091" lon="6.77373">
        <ele>1673.31</ele>
        <time>2022-03-21T14:53:17Z</time>
      </trkpt>
      <trkpt lat="46.12088" lon="6.77365">
        <ele>1672.35</ele>
        <time>2022-03-21T14:53:18Z</time>
      </trkpt>
      <trkpt lat="46.12087" lon="6.77356">
        <ele>1670.91</ele>
        <time>2022-03-21T14:53:19Z</time>
      </trkpt>
      <trkpt lat="46.12084" lon="6.77349">
        <ele>1669.95</ele>
        <time>2022-03-21T14:53:20Z</time>
      </trkpt>
      <trkpt lat="46.12081" lon="6.77342">
        <ele>1668.51</ele>
        <time>2022-03-21T14:53:21Z</time>
      </trkpt>
      <trkpt lat="46.12077" lon="6.77335">
        <ele>1667.06</ele>
        <time>2022-03-21T14:53:22Z</time>
      </trkpt>
      <trkpt lat="46.12073" lon="6.77329">
        <ele>1665.62</ele>
        <time>2022-03-21T14:53:23Z</time>
      </trkpt>
      <trkpt lat="46.1207" lon="6.77323">
        <ele>1665.14</ele>
        <time>2022-03-21T14:53:24Z</time>
      </trkpt>
      <trkpt lat="46.12068" lon="6.77316">
        <ele>1664.18</ele>
        <time>2022-03-21T14:53:25Z</time>
      </trkpt>
      <trkpt lat="46.12068" lon="6.77308">
        <ele>1663.7</ele>
        <time>2022-03-21T14:53:26Z</time>
      </trkpt>
      <trkpt lat="46.12068" lon="6.77299">
        <ele>1662.26</ele>
        <time>2022-03-21T14:53:27Z</time>
      </trkpt>
      <trkpt lat="46.12064" lon="6.77292">
        <ele>1661.3</ele>
        <time>2022-03-21T14:53:28Z</time>
      </trkpt>
      <trkpt lat="46.12061" lon="6.77285">
        <ele>1660.33</ele>
        <time>2022-03-21T14:53:29Z</time>
      </trkpt>
      <trkpt lat="46.12059" lon="6.77277">
        <ele>1658.89</ele>
        <time>2022-03-21T14:53:30Z</time>
      </trkpt>
      <trkpt lat="46.12057" lon="6.77267">
        <ele>1657.93</ele>
        <time>2022-03-21T14:53:31Z</time>
      </trkpt>
      <trkpt lat="46.12054" lon="6.77259">
        <ele>1656.97</ele>
        <time>2022-03-21T14:53:32Z</time>
      </trkpt>
      <trkpt lat="46.1205" lon="6.77253">
        <ele>1656.01</ele>
        <time>2022-03-21T14:53:33Z</time>
      </trkpt>
      <trkpt lat="46.12047" lon="6.77248">
        <ele>1655.05</ele>
        <time>2022-03-21T14:53:34Z</time>
      </trkpt>
      <trkpt lat="46.12044" lon="6.7724">
        <ele>1654.09</ele>
        <time>2022-03-21T14:53:36Z</time>
      </trkpt>
      <trkpt lat="46.12043" lon="6.77237">
        <ele>1654.09</ele>
        <time>2022-03-21T14:53:37Z</time>
      </trkpt>
      <trkpt lat="46.12041" lon="6.77233">
        <ele>1653.12</ele>
        <time>2022-03-21T14:53:38Z</time>
      </trkpt>
      <trkpt lat="46.12039" lon="6.77229">
        <ele>1652.16</ele>
        <time>2022-03-21T14:53:39Z</time>
      </trkpt>
      <trkpt lat="46.12035" lon="6.77225">
        <ele>1651.2</ele>
        <time>2022-03-21T14:53:40Z</time>
      </trkpt>
      <trkpt lat="46.12031" lon="6.77221">
        <ele>1649.76</ele>
        <time>2022-03-21T14:53:41Z</time>
      </trkpt>
      <trkpt lat="46.12028" lon="6.77216">
        <ele>1648.32</ele>
        <time>2022-03-21T14:53:42Z</time>
      </trkpt>
      <trkpt lat="46.12024" lon="6.77212">
        <ele>1646.88</ele>
        <time>2022-03-21T14:53:43Z</time>
      </trkpt>
      <trkpt lat="46.12018" lon="6.7721">
        <ele>1645.43</ele>
        <time>2022-03-21T14:53:44Z</time>
      </trkpt>
      <trkpt lat="46.12013" lon="6.77208">
        <ele>1643.51</ele>
        <time>2022-03-21T14:53:45Z</time>
      </trkpt>
      <trkpt lat="46.12002" lon="6.77204">
        <ele>1640.63</ele>
        <time>2022-03-21T14:53:47Z</time>
      </trkpt>
      <trkpt lat="46.12001" lon="6.77202">
        <ele>1638.7</ele>
        <time>2022-03-21T14:53:48Z</time>
      </trkpt>
      <trkpt lat="46.12" lon="6.77198">
        <ele>1637.26</ele>
        <time>2022-03-21T14:53:49Z</time>
      </trkpt>
      <trkpt lat="46.11997" lon="6.77195">
        <ele>1635.82</ele>
        <time>2022-03-21T14:53:50Z</time>
      </trkpt>
      <trkpt lat="46.11993" lon="6.7719">
        <ele>1633.9</ele>
        <time>2022-03-21T14:53:51Z</time>
      </trkpt>
      <trkpt lat="46.11989" lon="6.77186">
        <ele>1631.98</ele>
        <time>2022-03-21T14:53:52Z</time>
      </trkpt>
      <trkpt lat="46.11984" lon="6.77183">
        <ele>1629.57</ele>
        <time>2022-03-21T14:53:53Z</time>
      </trkpt>
      <trkpt lat="46.11979" lon="6.7718">
        <ele>1628.13</ele>
        <time>2022-03-21T14:53:54Z</time>
      </trkpt>
      <trkpt lat="46.11966" lon="6.77171">
        <ele>1624.28</ele>
        <time>2022-03-21T14:53:57Z</time>
      </trkpt>
      <trkpt lat="46.11966" lon="6.77166">
        <ele>1622.36</ele>
        <time>2022-03-21T14:53:58Z</time>
      </trkpt>
      <trkpt lat="46.11966" lon="6.7716">
        <ele>1620.92</ele>
        <time>2022-03-21T14:53:59Z</time>
      </trkpt>
      <trkpt lat="46.11964" lon="6.77156">
        <ele>1619.96</ele>
        <time>2022-03-21T14:54:00Z</time>
      </trkpt>
      <trkpt lat="46.11963" lon="6.7715">
        <ele>1618.52</ele>
        <time>2022-03-21T14:54:01Z</time>
      </trkpt>
      <trkpt lat="46.11964" lon="6.77143">
        <ele>1616.59</ele>
        <time>2022-03-21T14:54:02Z</time>
      </trkpt>
      <trkpt lat="46.11965" lon="6.77137">
        <ele>1615.15</ele>
        <time>2022-03-21T14:54:03Z</time>
      </trkpt>
      <trkpt lat="46.11964" lon="6.77131">
        <ele>1614.19</ele>
        <time>2022-03-21T14:54:04Z</time>
      </trkpt>
      <trkpt lat="46.11961" lon="6.77125">
        <ele>1612.27</ele>
        <time>2022-03-21T14:54:05Z</time>
      </trkpt>
      <trkpt lat="46.11958" lon="6.77118">
        <ele>1610.83</ele>
        <time>2022-03-21T14:54:06Z</time>
      </trkpt>
      <trkpt lat="46.11956" lon="6.77111">
        <ele>1608.9</ele>
        <time>2022-03-21T14:54:07Z</time>
      </trkpt>
      <trkpt lat="46.11953" lon="6.77104">
        <ele>1607.46</ele>
        <time>2022-03-21T14:54:08Z</time>
      </trkpt>
      <trkpt lat="46.1195" lon="6.77096">
        <ele>1606.5</ele>
        <time>2022-03-21T14:54:09Z</time>
      </trkpt>
      <trkpt lat="46.11947" lon="6.77088">
        <ele>1605.54</ele>
        <time>2022-03-21T14:54:10Z</time>
      </trkpt>
      <trkpt lat="46.11946" lon="6.77079">
        <ele>1603.62</ele>
        <time>2022-03-21T14:54:11Z</time>
      </trkpt>
      <trkpt lat="46.11945" lon="6.77073">
        <ele>1602.17</ele>
        <time>2022-03-21T14:54:12Z</time>
      </trkpt>
      <trkpt lat="46.11943" lon="6.77067">
        <ele>1601.21</ele>
        <time>2022-03-21T14:54:13Z</time>
      </trkpt>
      <trkpt lat="46.11939" lon="6.77063">
        <ele>1599.77</ele>
        <time>2022-03-21T14:54:14Z</time>
      </trkpt>
      <trkpt lat="46.11937" lon="6.77057">
        <ele>1599.29</ele>
        <time>2022-03-21T14:54:15Z</time>
      </trkpt>
      <trkpt lat="46.11936" lon="6.77051">
        <ele>1598.33</ele>
        <time>2022-03-21T14:54:16Z</time>
      </trkpt>
      <trkpt lat="46.11936" lon="6.77044">
        <ele>1597.37</ele>
        <time>2022-03-21T14:54:17Z</time>
      </trkpt>
      <trkpt lat="46.11935" lon="6.77037">
        <ele>1596.41</ele>
        <time>2022-03-21T14:54:18Z</time>
      </trkpt>
      <trkpt lat="46.11933" lon="6.77032">
        <ele>1595.45</ele>
        <time>2022-03-21T14:54:19Z</time>
      </trkpt>
      <trkpt lat="46.1193" lon="6.77029">
        <ele>1594.48</ele>
        <time>2022-03-21T14:54:20Z</time>
      </trkpt>
      <trkpt lat="46.11926" lon="6.77027">
        <ele>1593.52</ele>
        <time>2022-03-21T14:54:21Z</time>
      </trkpt>
      <trkpt lat="46.11923" lon="6.77023">
        <ele>1591.6</ele>
        <time>2022-03-21T14:54:22Z</time>
      </trkpt>
      <trkpt lat="46.11922" lon="6.77018">
        <ele>1590.64</ele>
        <time>2022-03-21T14:54:23Z</time>
      </trkpt>
      <trkpt lat="46.11918" lon="6.77015">
        <ele>1589.2</ele>
        <time>2022-03-21T14:54:24Z</time>
      </trkpt>
      <trkpt lat="46.11916" lon="6.77009">
        <ele>1588.24</ele>
        <time>2022-03-21T14:54:25Z</time>
      </trkpt>
      <trkpt lat="46.11914" lon="6.77004">
        <ele>1586.31</ele>
        <time>2022-03-21T14:54:26Z</time>
      </trkpt>
      <trkpt lat="46.11914" lon="6.76998">
        <ele>1584.87</ele>
        <time>2022-03-21T14:54:27Z</time>
      </trkpt>
      <trkpt lat="46.11914" lon="6.76992">
        <ele>1583.91</ele>
        <time>2022-03-21T14:54:28Z</time>
      </trkpt>
      <trkpt lat="46.1191" lon="6.76989">
        <ele>1582.47</ele>
        <time>2022-03-21T14:54:29Z</time>
      </trkpt>
      <trkpt lat="46.11907" lon="6.76985">
        <ele>1581.03</ele>
        <time>2022-03-21T14:54:30Z</time>
      </trkpt>
      <trkpt lat="46.11905" lon="6.76979">
        <ele>1579.1</ele>
        <time>2022-03-21T14:54:31Z</time>
      </trkpt>
      <trkpt lat="46.11904" lon="6.76971">
        <ele>1577.18</ele>
        <time>2022-03-21T14:54:32Z</time>
      </trkpt>
      <trkpt lat="46.11904" lon="6.76963">
        <ele>1575.74</ele>
        <time>2022-03-21T14:54:33Z</time>
      </trkpt>
      <trkpt lat="46.11904" lon="6.76955">
        <ele>1574.3</ele>
        <time>2022-03-21T14:54:34Z</time>
      </trkpt>
      <trkpt lat="46.11901" lon="6.76948">
        <ele>1573.82</ele>
        <time>2022-03-21T14:54:35Z</time>
      </trkpt>
      <trkpt lat="46.11898" lon="6.76941">
        <ele>1572.85</ele>
        <time>2022-03-21T14:54:36Z</time>
      </trkpt>
      <trkpt lat="46.11891" lon="6.76924">
        <ele>1569.97</ele>
        <time>2022-03-21T14:54:40Z</time>
      </trkpt>
      <trkpt lat="46.11892" lon="6.76921">
        <ele>1569.97</ele>
        <time>2022-03-21T14:54:41Z</time>
      </trkpt>
      <trkpt lat="46.11893" lon="6.76916">
        <ele>1569.97</ele>
        <time>2022-03-21T14:54:42Z</time>
      </trkpt>
      <trkpt lat="46.11894" lon="6.76911">
        <ele>1569.01</ele>
        <time>2022-03-21T14:54:43Z</time>
      </trkpt>
      <trkpt lat="46.11893" lon="6.76906">
        <ele>1568.53</ele>
        <time>2022-03-21T14:54:44Z</time>
      </trkpt>
      <trkpt lat="46.11892" lon="6.76902">
        <ele>1567.57</ele>
        <time>2022-03-21T14:54:45Z</time>
      </trkpt>
      <trkpt lat="46.11889" lon="6.76903">
        <ele>1566.12</ele>
        <time>2022-03-21T14:54:46Z</time>
      </trkpt>
      <trkpt lat="46.11885" lon="6.76903">
        <ele>1564.2</ele>
        <time>2022-03-21T14:54:47Z</time>
      </trkpt>
      <trkpt lat="46.11882" lon="6.76901">
        <ele>1562.76</ele>
        <time>2022-03-21T14:54:48Z</time>
      </trkpt>
      <trkpt lat="46.11879" lon="6.76897">
        <ele>1561.32</ele>
        <time>2022-03-21T14:54:49Z</time>
      </trkpt>
      <trkpt lat="46.11875" lon="6.76896">
        <ele>1560.36</ele>
        <time>2022-03-21T14:54:50Z</time>
      </trkpt>
      <trkpt lat="46.11871" lon="6.76895">
        <ele>1558.92</ele>
        <time>2022-03-21T14:54:51Z</time>
      </trkpt>
      <trkpt lat="46.11867" lon="6.76892">
        <ele>1556.99</ele>
        <time>2022-03-21T14:54:52Z</time>
      </trkpt>
      <trkpt lat="46.11865" lon="6.76888">
        <ele>1556.03</ele>
        <time>2022-03-21T14:54:53Z</time>
      </trkpt>
      <trkpt lat="46.11862" lon="6.76886">
        <ele>1554.59</ele>
        <time>2022-03-21T14:54:54Z</time>
      </trkpt>
      <trkpt lat="46.11859" lon="6.76882">
        <ele>1553.63</ele>
        <time>2022-03-21T14:54:55Z</time>
      </trkpt>
      <trkpt lat="46.11856" lon="6.76877">
        <ele>1552.67</ele>
        <time>2022-03-21T14:54:56Z</time>
      </trkpt>
      <trkpt lat="46.11854" lon="6.76871">
        <ele>1551.22</ele>
        <time>2022-03-21T14:54:57Z</time>
      </trkpt>
      <trkpt lat="46.11853" lon="6.76865">
        <ele>1549.78</ele>
        <time>2022-03-21T14:54:58Z</time>
      </trkpt>
      <trkpt lat="46.11848" lon="6.76858">
        <ele>1547.86</ele>
        <time>2022-03-21T14:55:00Z</time>
      </trkpt>
      <trkpt lat="46.11845" lon="6.76854">
        <ele>1546.9</ele>
        <time>2022-03-21T14:55:01Z</time>
      </trkpt>
      <trkpt lat="46.11842" lon="6.76848">
        <ele>1544.98</ele>
        <time>2022-03-21T14:55:02Z</time>
      </trkpt>
      <trkpt lat="46.11841" lon="6.76841">
        <ele>1543.53</ele>
        <time>2022-03-21T14:55:03Z</time>
      </trkpt>
      <trkpt lat="46.1184" lon="6.76836">
        <ele>1542.09</ele>
        <time>2022-03-21T14:55:04Z</time>
      </trkpt>
      <trkpt lat="46.11839" lon="6.76829">
        <ele>1540.65</ele>
        <time>2022-03-21T14:55:05Z</time>
      </trkpt>
      <trkpt lat="46.11838" lon="6.76824">
        <ele>1539.69</ele>
        <time>2022-03-21T14:55:06Z</time>
      </trkpt>
      <trkpt lat="46.11838" lon="6.76819">
        <ele>1539.21</ele>
        <time>2022-03-21T14:55:07Z</time>
      </trkpt>
      <trkpt lat="46.11836" lon="6.76817">
        <ele>1538.25</ele>
        <time>2022-03-21T14:55:08Z</time>
      </trkpt>
      <trkpt lat="46.11832" lon="6.76814">
        <ele>1537.29</ele>
        <time>2022-03-21T14:55:09Z</time>
      </trkpt>
      <trkpt lat="46.11829" lon="6.76808">
        <ele>1535.36</ele>
        <time>2022-03-21T14:55:10Z</time>
      </trkpt>
      <trkpt lat="46.11826" lon="6.76802">
        <ele>1533.92</ele>
        <time>2022-03-21T14:55:11Z</time>
      </trkpt>
      <trkpt lat="46.11825" lon="6.76794">
        <ele>1532.48</ele>
        <time>2022-03-21T14:55:12Z</time>
      </trkpt>
      <trkpt lat="46.11824" lon="6.76787">
        <ele>1531.04</ele>
        <time>2022-03-21T14:55:13Z</time>
      </trkpt>
      <trkpt lat="46.11825" lon="6.76779">
        <ele>1529.59</ele>
        <time>2022-03-21T14:55:14Z</time>
      </trkpt>
      <trkpt lat="46.11824" lon="6.76771">
        <ele>1528.15</ele>
        <time>2022-03-21T14:55:15Z</time>
      </trkpt>
      <trkpt lat="46.11821" lon="6.76763">
        <ele>1526.71</ele>
        <time>2022-03-21T14:55:16Z</time>
      </trkpt>
      <trkpt lat="46.11818" lon="6.76754">
        <ele>1525.27</ele>
        <time>2022-03-21T14:55:17Z</time>
      </trkpt>
      <trkpt lat="46.11817" lon="6.76746">
        <ele>1523.35</ele>
        <time>2022-03-21T14:55:18Z</time>
      </trkpt>
      <trkpt lat="46.1181" lon="6.76722">
        <ele>1519.98</ele>
        <time>2022-03-21T14:55:22Z</time>
      </trkpt>
      <trkpt lat="46.11801" lon="6.76691">
        <ele>1516.62</ele>
        <time>2022-03-21T14:55:28Z</time>
      </trkpt>
      <trkpt lat="46.11799" lon="6.76683">
        <ele>1515.66</ele>
        <time>2022-03-21T14:55:30Z</time>
      </trkpt>
      <trkpt lat="46.11791" lon="6.76657">
        <ele>1513.73</ele>
        <time>2022-03-21T14:55:37Z</time>
      </trkpt>
      <trkpt lat="46.11779" lon="6.76636">
        <ele>1510.85</ele>
        <time>2022-03-21T14:55:42Z</time>
      </trkpt>
      <trkpt lat="46.11779" lon="6.7663">
        <ele>1509.89</ele>
        <time>2022-03-21T14:55:43Z</time>
      </trkpt>
      <trkpt lat="46.11777" lon="6.76624">
        <ele>1509.41</ele>
        <time>2022-03-21T14:55:44Z</time>
      </trkpt>
      <trkpt lat="46.11773" lon="6.76619">
        <ele>1507.48</ele>
        <time>2022-03-21T14:55:45Z</time>
      </trkpt>
      <trkpt lat="46.11769" lon="6.76613">
        <ele>1506.04</ele>
        <time>2022-03-21T14:55:46Z</time>
      </trkpt>
      <trkpt lat="46.11767" lon="6.76607">
        <ele>1504.6</ele>
        <time>2022-03-21T14:55:47Z</time>
      </trkpt>
      <trkpt lat="46.11767" lon="6.76601">
        <ele>1503.64</ele>
        <time>2022-03-21T14:55:48Z</time>
      </trkpt>
      <trkpt lat="46.11768" lon="6.76594">
        <ele>1502.2</ele>
        <time>2022-03-21T14:55:49Z</time>
      </trkpt>
      <trkpt lat="46.1177" lon="6.76588">
        <ele>1501.72</ele>
        <time>2022-03-21T14:55:50Z</time>
      </trkpt>
      <trkpt lat="46.1177" lon="6.76582">
        <ele>1500.76</ele>
        <time>2022-03-21T14:55:51Z</time>
      </trkpt>
      <trkpt lat="46.11769" lon="6.76576">
        <ele>1499.79</ele>
        <time>2022-03-21T14:55:52Z</time>
      </trkpt>
      <trkpt lat="46.11768" lon="6.7657">
        <ele>1498.83</ele>
        <time>2022-03-21T14:55:53Z</time>
      </trkpt>
      <trkpt lat="46.11766" lon="6.76563">
        <ele>1498.35</ele>
        <time>2022-03-21T14:55:54Z</time>
      </trkpt>
      <trkpt lat="46.11765" lon="6.76556">
        <ele>1497.39</ele>
        <time>2022-03-21T14:55:55Z</time>
      </trkpt>
      <trkpt lat="46.11764" lon="6.76549">
        <ele>1496.43</ele>
        <time>2022-03-21T14:55:56Z</time>
      </trkpt>
      <trkpt lat="46.11763" lon="6.76541">
        <ele>1495.47</ele>
        <time>2022-03-21T14:55:57Z</time>
      </trkpt>
      <trkpt lat="46.11762" lon="6.76533">
        <ele>1494.51</ele>
        <time>2022-03-21T14:55:58Z</time>
      </trkpt>
      <trkpt lat="46.11762" lon="6.76525">
        <ele>1493.55</ele>
        <time>2022-03-21T14:55:59Z</time>
      </trkpt>
      <trkpt lat="46.11762" lon="6.76517">
        <ele>1492.58</ele>
        <time>2022-03-21T14:56:00Z</time>
      </trkpt>
      <trkpt lat="46.11763" lon="6.76509">
        <ele>1491.62</ele>
        <time>2022-03-21T14:56:01Z</time>
      </trkpt>
      <trkpt lat="46.11763" lon="6.76502">
        <ele>1490.18</ele>
        <time>2022-03-21T14:56:02Z</time>
      </trkpt>
      <trkpt lat="46.11764" lon="6.76487">
        <ele>1489.22</ele>
        <time>2022-03-21T14:56:04Z</time>
      </trkpt>
      <trkpt lat="46.11763" lon="6.76479">
        <ele>1487.78</ele>
        <time>2022-03-21T14:56:05Z</time>
      </trkpt>
      <trkpt lat="46.11762" lon="6.76471">
        <ele>1486.34</ele>
        <time>2022-03-21T14:56:06Z</time>
      </trkpt>
      <trkpt lat="46.11759" lon="6.76465">
        <ele>1485.37</ele>
        <time>2022-03-21T14:56:07Z</time>
      </trkpt>
      <trkpt lat="46.11757" lon="6.76457">
        <ele>1484.41</ele>
        <time>2022-03-21T14:56:08Z</time>
      </trkpt>
      <trkpt lat="46.11751" lon="6.76443">
        <ele>1482.97</ele>
        <time>2022-03-21T14:56:10Z</time>
      </trkpt>
      <trkpt lat="46.11747" lon="6.76436">
        <ele>1482.01</ele>
        <time>2022-03-21T14:56:11Z</time>
      </trkpt>
      <trkpt lat="46.11743" lon="6.7643">
        <ele>1481.05</ele>
        <time>2022-03-21T14:56:12Z</time>
      </trkpt>
      <trkpt lat="46.1174" lon="6.76425">
        <ele>1480.57</ele>
        <time>2022-03-21T14:56:13Z</time>
      </trkpt>
      <trkpt lat="46.11738" lon="6.7642">
        <ele>1479.61</ele>
        <time>2022-03-21T14:56:14Z</time>
      </trkpt>
      <trkpt lat="46.11736" lon="6.76416">
        <ele>1479.13</ele>
        <time>2022-03-21T14:56:15Z</time>
      </trkpt>
      <trkpt lat="46.11728" lon="6.76402">
        <ele>1475.76</ele>
        <time>2022-03-21T14:56:20Z</time>
      </trkpt>
      <trkpt lat="46.11718" lon="6.76386">
        <ele>1472.4</ele>
        <time>2022-03-21T14:56:25Z</time>
      </trkpt>
      <trkpt lat="46.11715" lon="6.76375">
        <ele>1471.44</ele>
        <time>2022-03-21T14:56:28Z</time>
      </trkpt>
      <trkpt lat="46.11716" lon="6.76373">
        <ele>1470.95</ele>
        <time>2022-03-21T14:56:29Z</time>
      </trkpt>
      <trkpt lat="46.11716" lon="6.76369">
        <ele>1469.99</ele>
        <time>2022-03-21T14:56:30Z</time>
      </trkpt>
      <trkpt lat="46.11717" lon="6.76367">
        <ele>1469.99</ele>
        <time>2022-03-21T14:56:31Z</time>
      </trkpt>
      <trkpt lat="46.11718" lon="6.76365">
        <ele>1469.51</ele>
        <time>2022-03-21T14:56:32Z</time>
      </trkpt>
      <trkpt lat="46.11718" lon="6.76364">
        <ele>1469.51</ele>
        <time>2022-03-21T14:56:33Z</time>
      </trkpt>
      <trkpt lat="46.11719" lon="6.76363">
        <ele>1469.51</ele>
        <time>2022-03-21T14:56:34Z</time>
      </trkpt>
      <trkpt lat="46.11721" lon="6.76362">
        <ele>1469.51</ele>
        <time>2022-03-21T14:56:35Z</time>
      </trkpt>
      <trkpt lat="46.11722" lon="6.76361">
        <ele>1469.03</ele>
        <time>2022-03-21T14:56:36Z</time>
      </trkpt>
      <trkpt lat="46.11724" lon="6.76361">
        <ele>1469.03</ele>
        <time>2022-03-21T14:56:37Z</time>
      </trkpt>
      <trkpt lat="46.11727" lon="6.7636">
        <ele>1469.03</ele>
        <time>2022-03-21T14:56:38Z</time>
      </trkpt>
      <trkpt lat="46.1173" lon="6.7636">
        <ele>1468.07</ele>
        <time>2022-03-21T14:56:39Z</time>
      </trkpt>
      <trkpt lat="46.11733" lon="6.7636">
        <ele>1467.11</ele>
        <time>2022-03-21T14:56:40Z</time>
      </trkpt>
      <trkpt lat="46.11736" lon="6.76362">
        <ele>1466.63</ele>
        <time>2022-03-21T14:56:41Z</time>
      </trkpt>
      <trkpt lat="46.11739" lon="6.76363">
        <ele>1465.67</ele>
        <time>2022-03-21T14:56:42Z</time>
      </trkpt>
      <trkpt lat="46.11742" lon="6.76364">
        <ele>1465.19</ele>
        <time>2022-03-21T14:56:43Z</time>
      </trkpt>
      <trkpt lat="46.11759" lon="6.76374">
        <ele>1461.82</ele>
        <time>2022-03-21T14:56:48Z</time>
      </trkpt>
      <trkpt lat="46.11772" lon="6.7638">
        <ele>1459.42</ele>
        <time>2022-03-21T14:56:51Z</time>
      </trkpt>
      <trkpt lat="46.11782" lon="6.76383">
        <ele>1457.02</ele>
        <time>2022-03-21T14:56:53Z</time>
      </trkpt>
      <trkpt lat="46.11786" lon="6.76383">
        <ele>1456.05</ele>
        <time>2022-03-21T14:56:54Z</time>
      </trkpt>
      <trkpt lat="46.11789" lon="6.76383">
        <ele>1455.09</ele>
        <time>2022-03-21T14:56:55Z</time>
      </trkpt>
      <trkpt lat="46.11792" lon="6.76383">
        <ele>1454.61</ele>
        <time>2022-03-21T14:56:56Z</time>
      </trkpt>
      <trkpt lat="46.11795" lon="6.76382">
        <ele>1454.13</ele>
        <time>2022-03-21T14:56:57Z</time>
      </trkpt>
      <trkpt lat="46.11797" lon="6.76381">
        <ele>1453.17</ele>
        <time>2022-03-21T14:56:58Z</time>
      </trkpt>
      <trkpt lat="46.118" lon="6.7638">
        <ele>1452.69</ele>
        <time>2022-03-21T14:56:59Z</time>
      </trkpt>
      <trkpt lat="46.11803" lon="6.76378">
        <ele>1452.21</ele>
        <time>2022-03-21T14:57:00Z</time>
      </trkpt>
      <trkpt lat="46.11805" lon="6.76376">
        <ele>1451.25</ele>
        <time>2022-03-21T14:57:01Z</time>
      </trkpt>
      <trkpt lat="46.11808" lon="6.76374">
        <ele>1450.77</ele>
        <time>2022-03-21T14:57:02Z</time>
      </trkpt>
      <trkpt lat="46.1181" lon="6.76372">
        <ele>1450.29</ele>
        <time>2022-03-21T14:57:03Z</time>
      </trkpt>
      <trkpt lat="46.11813" lon="6.76371">
        <ele>1449.81</ele>
        <time>2022-03-21T14:57:04Z</time>
      </trkpt>
      <trkpt lat="46.11828" lon="6.76359">
        <ele>1446.44</ele>
        <time>2022-03-21T14:57:09Z</time>
      </trkpt>
      <trkpt lat="46.11832" lon="6.76354">
        <ele>1445</ele>
        <time>2022-03-21T14:57:12Z</time>
      </trkpt>
      <trkpt lat="46.11833" lon="6.76352">
        <ele>1444.52</ele>
        <time>2022-03-21T14:57:13Z</time>
      </trkpt>
      <trkpt lat="46.11833" lon="6.76349">
        <ele>1444.04</ele>
        <time>2022-03-21T14:57:14Z</time>
      </trkpt>
      <trkpt lat="46.11833" lon="6.76346">
        <ele>1444.04</ele>
        <time>2022-03-21T14:57:15Z</time>
      </trkpt>
      <trkpt lat="46.11833" lon="6.76343">
        <ele>1443.56</ele>
        <time>2022-03-21T14:57:16Z</time>
      </trkpt>
      <trkpt lat="46.11835" lon="6.7634">
        <ele>1443.08</ele>
        <time>2022-03-21T14:57:17Z</time>
      </trkpt>
      <trkpt lat="46.11836" lon="6.76337">
        <ele>1442.6</ele>
        <time>2022-03-21T14:57:18Z</time>
      </trkpt>
      <trkpt lat="46.11837" lon="6.76334">
        <ele>1442.11</ele>
        <time>2022-03-21T14:57:19Z</time>
      </trkpt>
      <trkpt lat="46.11838" lon="6.76331">
        <ele>1441.63</ele>
        <time>2022-03-21T14:57:20Z</time>
      </trkpt>
      <trkpt lat="46.1184" lon="6.76326">
        <ele>1440.67</ele>
        <time>2022-03-21T14:57:21Z</time>
      </trkpt>
      <trkpt lat="46.11843" lon="6.76322">
        <ele>1440.19</ele>
        <time>2022-03-21T14:57:22Z</time>
      </trkpt>
      <trkpt lat="46.11845" lon="6.76317">
        <ele>1439.23</ele>
        <time>2022-03-21T14:57:23Z</time>
      </trkpt>
      <trkpt lat="46.11851" lon="6.76312">
        <ele>1437.79</ele>
        <time>2022-03-21T14:57:25Z</time>
      </trkpt>
      <trkpt lat="46.11854" lon="6.7631">
        <ele>1437.31</ele>
        <time>2022-03-21T14:57:26Z</time>
      </trkpt>
      <trkpt lat="46.11857" lon="6.76307">
        <ele>1436.83</ele>
        <time>2022-03-21T14:57:27Z</time>
      </trkpt>
      <trkpt lat="46.1186" lon="6.76302">
        <ele>1435.39</ele>
        <time>2022-03-21T14:57:28Z</time>
      </trkpt>
      <trkpt lat="46.11862" lon="6.76298">
        <ele>1434.42</ele>
        <time>2022-03-21T14:57:29Z</time>
      </trkpt>
      <trkpt lat="46.11864" lon="6.76294">
        <ele>1433.94</ele>
        <time>2022-03-21T14:57:30Z</time>
      </trkpt>
      <trkpt lat="46.11866" lon="6.7629">
        <ele>1432.98</ele>
        <time>2022-03-21T14:57:31Z</time>
      </trkpt>
      <trkpt lat="46.11868" lon="6.76285">
        <ele>1432.02</ele>
        <time>2022-03-21T14:57:32Z</time>
      </trkpt>
      <trkpt lat="46.11868" lon="6.7628">
        <ele>1431.54</ele>
        <time>2022-03-21T14:57:33Z</time>
      </trkpt>
      <trkpt lat="46.1187" lon="6.76275">
        <ele>1430.58</ele>
        <time>2022-03-21T14:57:34Z</time>
      </trkpt>
      <trkpt lat="46.1187" lon="6.7627">
        <ele>1429.62</ele>
        <time>2022-03-21T14:57:35Z</time>
      </trkpt>
      <trkpt lat="46.11871" lon="6.76265">
        <ele>1429.14</ele>
        <time>2022-03-21T14:57:36Z</time>
      </trkpt>
      <trkpt lat="46.11873" lon="6.7626">
        <ele>1428.18</ele>
        <time>2022-03-21T14:57:37Z</time>
      </trkpt>
      <trkpt lat="46.11873" lon="6.76256">
        <ele>1427.7</ele>
        <time>2022-03-21T14:57:38Z</time>
      </trkpt>
      <trkpt lat="46.11872" lon="6.76251">
        <ele>1427.21</ele>
        <time>2022-03-21T14:57:39Z</time>
      </trkpt>
      <trkpt lat="46.11872" lon="6.76247">
        <ele>1426.73</ele>
        <time>2022-03-21T14:57:40Z</time>
      </trkpt>
      <trkpt lat="46.11872" lon="6.76241">
        <ele>1426.25</ele>
        <time>2022-03-21T14:57:41Z</time>
      </trkpt>
      <trkpt lat="46.11875" lon="6.76226">
        <ele>1424.33</ele>
        <time>2022-03-21T14:57:44Z</time>
      </trkpt>
      <trkpt lat="46.11875" lon="6.7622">
        <ele>1423.85</ele>
        <time>2022-03-21T14:57:45Z</time>
      </trkpt>
      <trkpt lat="46.11879" lon="6.76198">
        <ele>1420.49</ele>
        <time>2022-03-21T14:57:49Z</time>
      </trkpt>
      <trkpt lat="46.1188" lon="6.76192">
        <ele>1419.52</ele>
        <time>2022-03-21T14:57:50Z</time>
      </trkpt>
      <trkpt lat="46.11883" lon="6.76176">
        <ele>1417.12</ele>
        <time>2022-03-21T14:57:53Z</time>
      </trkpt>
      <trkpt lat="46.11883" lon="6.76169">
        <ele>1416.64</ele>
        <time>2022-03-21T14:57:54Z</time>
      </trkpt>
      <trkpt lat="46.11884" lon="6.76164">
        <ele>1415.2</ele>
        <time>2022-03-21T14:57:55Z</time>
      </trkpt>
      <trkpt lat="46.11884" lon="6.76158">
        <ele>1414.72</ele>
        <time>2022-03-21T14:57:56Z</time>
      </trkpt>
      <trkpt lat="46.11884" lon="6.76153">
        <ele>1414.24</ele>
        <time>2022-03-21T14:57:57Z</time>
      </trkpt>
      <trkpt lat="46.11885" lon="6.76149">
        <ele>1414.24</ele>
        <time>2022-03-21T14:57:58Z</time>
      </trkpt>
      <trkpt lat="46.11886" lon="6.76145">
        <ele>1413.28</ele>
        <time>2022-03-21T14:57:59Z</time>
      </trkpt>
      <trkpt lat="46.11888" lon="6.7614">
        <ele>1412.79</ele>
        <time>2022-03-21T14:58:00Z</time>
      </trkpt>
      <trkpt lat="46.11889" lon="6.76135">
        <ele>1411.83</ele>
        <time>2022-03-21T14:58:01Z</time>
      </trkpt>
      <trkpt lat="46.11891" lon="6.76131">
        <ele>1410.87</ele>
        <time>2022-03-21T14:58:02Z</time>
      </trkpt>
      <trkpt lat="46.11898" lon="6.76108">
        <ele>1407.51</ele>
        <time>2022-03-21T14:58:07Z</time>
      </trkpt>
      <trkpt lat="46.119" lon="6.76102">
        <ele>1406.55</ele>
        <time>2022-03-21T14:58:08Z</time>
      </trkpt>
      <trkpt lat="46.11901" lon="6.76095">
        <ele>1405.58</ele>
        <time>2022-03-21T14:58:09Z</time>
      </trkpt>
      <trkpt lat="46.11901" lon="6.7609">
        <ele>1405.1</ele>
        <time>2022-03-21T14:58:10Z</time>
      </trkpt>
      <trkpt lat="46.11901" lon="6.76084">
        <ele>1404.14</ele>
        <time>2022-03-21T14:58:11Z</time>
      </trkpt>
      <trkpt lat="46.11902" lon="6.76078">
        <ele>1403.18</ele>
        <time>2022-03-21T14:58:12Z</time>
      </trkpt>
      <trkpt lat="46.11902" lon="6.76072">
        <ele>1402.22</ele>
        <time>2022-03-21T14:58:13Z</time>
      </trkpt>
      <trkpt lat="46.11903" lon="6.76067">
        <ele>1401.74</ele>
        <time>2022-03-21T14:58:14Z</time>
      </trkpt>
      <trkpt lat="46.11903" lon="6.76062">
        <ele>1400.78</ele>
        <time>2022-03-21T14:58:15Z</time>
      </trkpt>
      <trkpt lat="46.11904" lon="6.76058">
        <ele>1400.3</ele>
        <time>2022-03-21T14:58:16Z</time>
      </trkpt>
      <trkpt lat="46.11904" lon="6.76053">
        <ele>1399.34</ele>
        <time>2022-03-21T14:58:17Z</time>
      </trkpt>
      <trkpt lat="46.11904" lon="6.76049">
        <ele>1398.37</ele>
        <time>2022-03-21T14:58:18Z</time>
      </trkpt>
      <trkpt lat="46.11904" lon="6.76045">
        <ele>1397.89</ele>
        <time>2022-03-21T14:58:19Z</time>
      </trkpt>
      <trkpt lat="46.11905" lon="6.76041">
        <ele>1397.41</ele>
        <time>2022-03-21T14:58:20Z</time>
      </trkpt>
      <trkpt lat="46.11905" lon="6.76037">
        <ele>1396.93</ele>
        <time>2022-03-21T14:58:21Z</time>
      </trkpt>
      <trkpt lat="46.11906" lon="6.76034">
        <ele>1395.97</ele>
        <time>2022-03-21T14:58:22Z</time>
      </trkpt>
      <trkpt lat="46.11906" lon="6.76032">
        <ele>1395.49</ele>
        <time>2022-03-21T14:58:24Z</time>
      </trkpt>
      <trkpt lat="46.11907" lon="6.7603">
        <ele>1395.49</ele>
        <time>2022-03-21T14:58:25Z</time>
      </trkpt>
      <trkpt lat="46.11908" lon="6.76027">
        <ele>1395.01</ele>
        <time>2022-03-21T14:58:26Z</time>
      </trkpt>
      <trkpt lat="46.11909" lon="6.76024">
        <ele>1394.53</ele>
        <time>2022-03-21T14:58:27Z</time>
      </trkpt>
      <trkpt lat="46.11911" lon="6.76021">
        <ele>1394.53</ele>
        <time>2022-03-21T14:58:28Z</time>
      </trkpt>
      <trkpt lat="46.11916" lon="6.7601">
        <ele>1392.13</ele>
        <time>2022-03-21T14:58:33Z</time>
      </trkpt>
      <trkpt lat="46.11916" lon="6.76007">
        <ele>1391.17</ele>
        <time>2022-03-21T14:58:35Z</time>
      </trkpt>
      <trkpt lat="46.11923" lon="6.75982">
        <ele>1389.24</ele>
        <time>2022-03-21T14:58:42Z</time>
      </trkpt>
      <trkpt lat="46.11923" lon="6.75979">
        <ele>1388.76</ele>
        <time>2022-03-21T14:58:43Z</time>
      </trkpt>
      <trkpt lat="46.11927" lon="6.75953">
        <ele>1385.4</ele>
        <time>2022-03-21T14:58:50Z</time>
      </trkpt>
      <trkpt lat="46.11931" lon="6.7594">
        <ele>1383.47</ele>
        <time>2022-03-21T14:58:54Z</time>
      </trkpt>
      <trkpt lat="46.1193" lon="6.75938">
        <ele>1382.99</ele>
        <time>2022-03-21T14:58:55Z</time>
      </trkpt>
      <trkpt lat="46.11929" lon="6.75935">
        <ele>1382.51</ele>
        <time>2022-03-21T14:58:56Z</time>
      </trkpt>
      <trkpt lat="46.11929" lon="6.75931">
        <ele>1382.03</ele>
        <time>2022-03-21T14:58:57Z</time>
      </trkpt>
      <trkpt lat="46.11928" lon="6.75927">
        <ele>1381.55</ele>
        <time>2022-03-21T14:58:58Z</time>
      </trkpt>
      <trkpt lat="46.11927" lon="6.75924">
        <ele>1381.07</ele>
        <time>2022-03-21T14:58:59Z</time>
      </trkpt>
      <trkpt lat="46.11926" lon="6.75916">
        <ele>1379.63</ele>
        <time>2022-03-21T14:59:02Z</time>
      </trkpt>
      <trkpt lat="46.11925" lon="6.75915">
        <ele>1379.63</ele>
        <time>2022-03-21T14:59:03Z</time>
      </trkpt>
      <trkpt lat="46.11925" lon="6.75912">
        <ele>1379.15</ele>
        <time>2022-03-21T14:59:04Z</time>
      </trkpt>
      <trkpt lat="46.1192" lon="6.75885">
        <ele>1375.78</ele>
        <time>2022-03-21T14:59:14Z</time>
      </trkpt>
      <trkpt lat="46.11917" lon="6.75865">
        <ele>1372.9</ele>
        <time>2022-03-21T14:59:24Z</time>
      </trkpt>
      <trkpt lat="46.11918" lon="6.75864">
        <ele>1371.94</ele>
        <time>2022-03-21T14:59:26Z</time>
      </trkpt>
      <trkpt lat="46.11918" lon="6.75838">
        <ele>1368.57</ele>
        <time>2022-03-21T14:59:55Z</time>
      </trkpt>
      <trkpt lat="46.11909" lon="6.7581">
        <ele>1365.69</ele>
        <time>2022-03-21T15:00:13Z</time>
      </trkpt>
      <trkpt lat="46.119" lon="6.75787">
        <ele>1362.81</ele>
        <time>2022-03-21T15:00:29Z</time>
      </trkpt>
      <trkpt lat="46.11898" lon="6.75785">
        <ele>1362.33</ele>
        <time>2022-03-21T15:00:39Z</time>
      </trkpt>
      <trkpt lat="46.11897" lon="6.7578">
        <ele>1362.33</ele>
        <time>2022-03-21T15:00:42Z</time>
      </trkpt>
      <trkpt lat="46.11891" lon="6.75764">
        <ele>1360.4</ele>
        <time>2022-03-21T15:00:52Z</time>
      </trkpt>
      <trkpt lat="46.11891" lon="6.75762">
        <ele>1360.4</ele>
        <time>2022-03-21T15:00:53Z</time>
      </trkpt>
      <trkpt lat="46.1189" lon="6.75761">
        <ele>1359.92</ele>
        <time>2022-03-21T15:00:54Z</time>
      </trkpt>
      <trkpt lat="46.1189" lon="6.7576">
        <ele>1359.92</ele>
        <time>2022-03-21T15:00:55Z</time>
      </trkpt>
      <trkpt lat="46.1189" lon="6.75758">
        <ele>1359.92</ele>
        <time>2022-03-21T15:00:56Z</time>
      </trkpt>
      <trkpt lat="46.11889" lon="6.75758">
        <ele>1359.44</ele>
        <time>2022-03-21T15:00:57Z</time>
      </trkpt>
      <trkpt lat="46.11887" lon="6.75757">
        <ele>1358.96</ele>
        <time>2022-03-21T15:01:00Z</time>
      </trkpt>
      <trkpt lat="46.11885" lon="6.75756">
        <ele>1358.48</ele>
        <time>2022-03-21T15:01:02Z</time>
      </trkpt>
      <trkpt lat="46.11882" lon="6.75752">
        <ele>1357.52</ele>
        <time>2022-03-21T15:01:06Z</time>
      </trkpt>
      <trkpt lat="46.11881" lon="6.7575">
        <ele>1357.52</ele>
        <time>2022-03-21T15:01:07Z</time>
      </trkpt>
      <trkpt lat="46.11878" lon="6.7574">
        <ele>1355.6</ele>
        <time>2022-03-21T15:01:17Z</time>
      </trkpt>
      <trkpt lat="46.11877" lon="6.75739">
        <ele>1355.12</ele>
        <time>2022-03-21T15:01:18Z</time>
      </trkpt>
      <trkpt lat="46.11876" lon="6.75728">
        <ele>1353.19</ele>
        <time>2022-03-21T15:01:25Z</time>
      </trkpt>
      <trkpt lat="46.11876" lon="6.75727">
        <ele>1352.71</ele>
        <time>2022-03-21T15:01:26Z</time>
      </trkpt>
      <trkpt lat="46.11875" lon="6.75725">
        <ele>1352.71</ele>
        <time>2022-03-21T15:01:27Z</time>
      </trkpt>
      <trkpt lat="46.11875" lon="6.75723">
        <ele>1352.71</ele>
        <time>2022-03-21T15:01:28Z</time>
      </trkpt>
      <trkpt lat="46.11875" lon="6.75721">
        <ele>1352.23</ele>
        <time>2022-03-21T15:01:29Z</time>
      </trkpt>
      <trkpt lat="46.11874" lon="6.75719">
        <ele>1352.23</ele>
        <time>2022-03-21T15:01:30Z</time>
      </trkpt>
      <trkpt lat="46.11871" lon="6.75708">
        <ele>1350.79</ele>
        <time>2022-03-21T15:01:38Z</time>
      </trkpt>
      <trkpt lat="46.11871" lon="6.75706">
        <ele>1350.79</ele>
        <time>2022-03-21T15:01:39Z</time>
      </trkpt>
      <trkpt lat="46.1187" lon="6.75704">
        <ele>1350.31</ele>
        <time>2022-03-21T15:01:41Z</time>
      </trkpt>
      <trkpt lat="46.11864" lon="6.75685">
        <ele>1347.43</ele>
        <time>2022-03-21T15:01:57Z</time>
      </trkpt>
      <trkpt lat="46.11864" lon="6.75683">
        <ele>1347.43</ele>
        <time>2022-03-21T15:01:58Z</time>
      </trkpt>
      <trkpt lat="46.11861" lon="6.75674">
        <ele>1345.5</ele>
        <time>2022-03-21T15:02:08Z</time>
      </trkpt>
      <trkpt lat="46.11861" lon="6.75672">
        <ele>1345.02</ele>
        <time>2022-03-21T15:02:11Z</time>
      </trkpt>
      <trkpt lat="46.11861" lon="6.75672">
        <ele>1344.54</ele>
        <time>2022-03-21T15:02:12Z</time>
      </trkpt>
      <trkpt lat="46.11861" lon="6.75673">
        <ele>1344.54</ele>
        <time>2022-03-21T15:02:13Z</time>
      </trkpt>
      <trkpt lat="46.11864" lon="6.75669">
        <ele>1342.62</ele>
        <time>2022-03-21T15:02:22Z</time>
      </trkpt>
      <trkpt lat="46.11868" lon="6.75665">
        <ele>1342.62</ele>
        <time>2022-03-21T15:02:41Z</time>
      </trkpt>
      <trkpt lat="46.11868" lon="6.75667">
        <ele>1342.62</ele>
        <time>2022-03-21T15:02:42Z</time>
      </trkpt>
      <trkpt lat="46.11868" lon="6.75668">
        <ele>1342.62</ele>
        <time>2022-03-21T15:02:43Z</time>
      </trkpt>
      <trkpt lat="46.11867" lon="6.75673">
        <ele>1342.14</ele>
        <time>2022-03-21T15:02:46Z</time>
      </trkpt>
      <trkpt lat="46.11863" lon="6.75693">
        <ele>1339.73</ele>
        <time>2022-03-21T15:02:58Z</time>
      </trkpt>
      <trkpt lat="46.11863" lon="6.75694">
        <ele>1339.25</ele>
        <time>2022-03-21T15:02:59Z</time>
      </trkpt>
      <trkpt lat="46.11862" lon="6.75696">
        <ele>1339.25</ele>
        <time>2022-03-21T15:03:00Z</time>
      </trkpt>
      <trkpt lat="46.11863" lon="6.75706">
        <ele>1336.37</ele>
        <time>2022-03-21T15:03:15Z</time>
      </trkpt>
      <trkpt lat="46.11863" lon="6.75707">
        <ele>1335.89</ele>
        <time>2022-03-21T15:03:16Z</time>
      </trkpt>
      <trkpt lat="46.11864" lon="6.75712">
        <ele>1334.93</ele>
        <time>2022-03-21T15:03:21Z</time>
      </trkpt>
      <trkpt lat="46.11864" lon="6.75713">
        <ele>1334.93</ele>
        <time>2022-03-21T15:03:22Z</time>
      </trkpt>
      <trkpt lat="46.11864" lon="6.75714">
        <ele>1334.45</ele>
        <time>2022-03-21T15:03:23Z</time>
      </trkpt>
      <trkpt lat="46.11862" lon="6.75717">
        <ele>1333.97</ele>
        <time>2022-03-21T15:03:25Z</time>
      </trkpt>
      <trkpt lat="46.1186" lon="6.7572">
        <ele>1333.49</ele>
        <time>2022-03-21T15:03:26Z</time>
      </trkpt>
      <trkpt lat="46.1186" lon="6.7572">
        <ele>1333.49</ele>
        <time>2022-03-21T15:03:27Z</time>
      </trkpt>
      <trkpt lat="46.11858" lon="6.75723">
        <ele>1333.49</ele>
        <time>2022-03-21T15:03:28Z</time>
      </trkpt>
      <trkpt lat="46.11856" lon="6.75725">
        <ele>1333.01</ele>
        <time>2022-03-21T15:03:29Z</time>
      </trkpt>
      <trkpt lat="46.11855" lon="6.75727">
        <ele>1333.01</ele>
        <time>2022-03-21T15:03:30Z</time>
      </trkpt>
      <trkpt lat="46.11845" lon="6.75749">
        <ele>1329.64</ele>
        <time>2022-03-21T15:03:44Z</time>
      </trkpt>
      <trkpt lat="46.11839" lon="6.75768">
        <ele>1326.76</ele>
        <time>2022-03-21T15:03:58Z</time>
      </trkpt>
      <trkpt lat="46.11839" lon="6.7577">
        <ele>1326.28</ele>
        <time>2022-03-21T15:03:59Z</time>
      </trkpt>
      <trkpt lat="46.11836" lon="6.75794">
        <ele>1323.39</ele>
        <time>2022-03-21T15:04:12Z</time>
      </trkpt>
      <trkpt lat="46.11827" lon="6.75804">
        <ele>1320.03</ele>
        <time>2022-03-21T15:04:23Z</time>
      </trkpt>
      <trkpt lat="46.11825" lon="6.75804">
        <ele>1319.55</ele>
        <time>2022-03-21T15:04:25Z</time>
      </trkpt>
      <trkpt lat="46.11824" lon="6.75804">
        <ele>1319.55</ele>
        <time>2022-03-21T15:04:26Z</time>
      </trkpt>
      <trkpt lat="46.11823" lon="6.75803">
        <ele>1319.07</ele>
        <time>2022-03-21T15:04:27Z</time>
      </trkpt>
      <trkpt lat="46.11821" lon="6.75802">
        <ele>1318.59</ele>
        <time>2022-03-21T15:04:28Z</time>
      </trkpt>
      <trkpt lat="46.1182" lon="6.75801">
        <ele>1318.1</ele>
        <time>2022-03-21T15:04:29Z</time>
      </trkpt>
      <trkpt lat="46.11819" lon="6.75798">
        <ele>1317.62</ele>
        <time>2022-03-21T15:04:32Z</time>
      </trkpt>
      <trkpt lat="46.11819" lon="6.75796">
        <ele>1317.14</ele>
        <time>2022-03-21T15:04:33Z</time>
      </trkpt>
      <trkpt lat="46.11817" lon="6.75788">
        <ele>1315.7</ele>
        <time>2022-03-21T15:04:38Z</time>
      </trkpt>
      <trkpt lat="46.11816" lon="6.75787">
        <ele>1315.22</ele>
        <time>2022-03-21T15:04:39Z</time>
      </trkpt>
      <trkpt lat="46.11815" lon="6.7578">
        <ele>1314.26</ele>
        <time>2022-03-21T15:04:45Z</time>
      </trkpt>
      <trkpt lat="46.11815" lon="6.75779">
        <ele>1314.26</ele>
        <time>2022-03-21T15:04:46Z</time>
      </trkpt>
      <trkpt lat="46.11815" lon="6.75778">
        <ele>1313.78</ele>
        <time>2022-03-21T15:04:47Z</time>
      </trkpt>
      <trkpt lat="46.11815" lon="6.75774">
        <ele>1313.78</ele>
        <time>2022-03-21T15:04:50Z</time>
      </trkpt>
      <trkpt lat="46.11815" lon="6.75773">
        <ele>1313.3</ele>
        <time>2022-03-21T15:04:51Z</time>
      </trkpt>
      <trkpt lat="46.11815" lon="6.7575">
        <ele>1309.93</ele>
        <time>2022-03-21T15:05:06Z</time>
      </trkpt>
      <trkpt lat="46.11819" lon="6.75721">
        <ele>1306.57</ele>
        <time>2022-03-21T15:05:23Z</time>
      </trkpt>
      <trkpt lat="46.11821" lon="6.75696">
        <ele>1303.69</ele>
        <time>2022-03-21T15:05:40Z</time>
      </trkpt>
      <trkpt lat="46.11816" lon="6.75667">
        <ele>1300.8</ele>
        <time>2022-03-21T15:05:57Z</time>
      </trkpt>
      <trkpt lat="46.11811" lon="6.75643">
        <ele>1297.44</ele>
        <time>2022-03-21T15:06:12Z</time>
      </trkpt>
      <trkpt lat="46.11803" lon="6.75613">
        <ele>1294.55</ele>
        <time>2022-03-21T15:06:29Z</time>
      </trkpt>
      <trkpt lat="46.11799" lon="6.75589">
        <ele>1291.19</ele>
        <time>2022-03-21T15:06:46Z</time>
      </trkpt>
      <trkpt lat="46.11796" lon="6.75579">
        <ele>1290.23</ele>
        <time>2022-03-21T15:06:53Z</time>
      </trkpt>
      <trkpt lat="46.11796" lon="6.75577">
        <ele>1290.23</ele>
        <time>2022-03-21T15:06:54Z</time>
      </trkpt>
      <trkpt lat="46.11798" lon="6.75573">
        <ele>1290.23</ele>
        <time>2022-03-21T15:06:55Z</time>
      </trkpt>
      <trkpt lat="46.11799" lon="6.75571">
        <ele>1289.75</ele>
        <time>2022-03-21T15:06:56Z</time>
      </trkpt>
      <trkpt lat="46.11799" lon="6.75568">
        <ele>1289.75</ele>
        <time>2022-03-21T15:06:57Z</time>
      </trkpt>
      <trkpt lat="46.11799" lon="6.75565">
        <ele>1289.27</ele>
        <time>2022-03-21T15:06:58Z</time>
      </trkpt>
      <trkpt lat="46.118" lon="6.75563">
        <ele>1289.27</ele>
        <time>2022-03-21T15:06:59Z</time>
      </trkpt>
      <trkpt lat="46.118" lon="6.75561">
        <ele>1288.78</ele>
        <time>2022-03-21T15:07:00Z</time>
      </trkpt>
      <trkpt lat="46.11799" lon="6.75543">
        <ele>1287.34</ele>
        <time>2022-03-21T15:07:06Z</time>
      </trkpt>
      <trkpt lat="46.118" lon="6.7554">
        <ele>1287.34</ele>
        <time>2022-03-21T15:07:07Z</time>
      </trkpt>
      <trkpt lat="46.118" lon="6.75537">
        <ele>1286.86</ele>
        <time>2022-03-21T15:07:08Z</time>
      </trkpt>
      <trkpt lat="46.11801" lon="6.75534">
        <ele>1286.86</ele>
        <time>2022-03-21T15:07:09Z</time>
      </trkpt>
      <trkpt lat="46.11801" lon="6.75531">
        <ele>1286.38</ele>
        <time>2022-03-21T15:07:10Z</time>
      </trkpt>
      <trkpt lat="46.11793" lon="6.75508">
        <ele>1283.98</ele>
        <time>2022-03-21T15:07:23Z</time>
      </trkpt>
      <trkpt lat="46.11777" lon="6.75496">
        <ele>1282.06</ele>
        <time>2022-03-21T15:07:34Z</time>
      </trkpt>
      <trkpt lat="46.1177" lon="6.75493">
        <ele>1280.61</ele>
        <time>2022-03-21T15:07:41Z</time>
      </trkpt>
      <trkpt lat="46.11769" lon="6.75492">
        <ele>1280.13</ele>
        <time>2022-03-21T15:07:42Z</time>
      </trkpt>
      <trkpt lat="46.11767" lon="6.75493">
        <ele>1280.13</ele>
        <time>2022-03-21T15:07:43Z</time>
      </trkpt>
      <trkpt lat="46.11766" lon="6.75493">
        <ele>1280.13</ele>
        <time>2022-03-21T15:07:44Z</time>
      </trkpt>
      <trkpt lat="46.11765" lon="6.75493">
        <ele>1280.13</ele>
        <time>2022-03-21T15:07:45Z</time>
      </trkpt>
      <trkpt lat="46.11765" lon="6.75493">
        <ele>1279.65</ele>
        <time>2022-03-21T15:07:46Z</time>
      </trkpt>
      <trkpt lat="46.11765" lon="6.75493">
        <ele>1278.69</ele>
        <time>2022-03-21T15:08:11Z</time>
      </trkpt>
      <trkpt lat="46.11764" lon="6.75497">
        <ele>1278.21</ele>
        <time>2022-03-21T15:08:12Z</time>
      </trkpt>
      <trkpt lat="46.11764" lon="6.75502">
        <ele>1277.73</ele>
        <time>2022-03-21T15:08:13Z</time>
      </trkpt>
      <trkpt lat="46.11764" lon="6.75508">
        <ele>1277.25</ele>
        <time>2022-03-21T15:08:14Z</time>
      </trkpt>
      <trkpt lat="46.11764" lon="6.75513">
        <ele>1276.77</ele>
        <time>2022-03-21T15:08:15Z</time>
      </trkpt>
      <trkpt lat="46.11763" lon="6.75518">
        <ele>1275.81</ele>
        <time>2022-03-21T15:08:16Z</time>
      </trkpt>
      <trkpt lat="46.11762" lon="6.75522">
        <ele>1275.81</ele>
        <time>2022-03-21T15:08:17Z</time>
      </trkpt>
      <trkpt lat="46.11764" lon="6.75556">
        <ele>1271.96</ele>
        <time>2022-03-21T15:08:22Z</time>
      </trkpt>
      <trkpt lat="46.11764" lon="6.75564">
        <ele>1271</ele>
        <time>2022-03-21T15:08:23Z</time>
      </trkpt>
      <trkpt lat="46.11758" lon="6.75585">
        <ele>1268.6</ele>
        <time>2022-03-21T15:08:26Z</time>
      </trkpt>
      <trkpt lat="46.11756" lon="6.7559">
        <ele>1267.64</ele>
        <time>2022-03-21T15:08:27Z</time>
      </trkpt>
      <trkpt lat="46.11755" lon="6.75593">
        <ele>1267.16</ele>
        <time>2022-03-21T15:08:28Z</time>
      </trkpt>
      <trkpt lat="46.1175" lon="6.75594">
        <ele>1266.67</ele>
        <time>2022-03-21T15:08:29Z</time>
      </trkpt>
      <trkpt lat="46.11747" lon="6.75596">
        <ele>1265.71</ele>
        <time>2022-03-21T15:08:30Z</time>
      </trkpt>
      <trkpt lat="46.11744" lon="6.75598">
        <ele>1264.75</ele>
        <time>2022-03-21T15:08:31Z</time>
      </trkpt>
      <trkpt lat="46.11737" lon="6.75607">
        <ele>1261.39</ele>
        <time>2022-03-21T15:08:37Z</time>
      </trkpt>
      <trkpt lat="46.11737" lon="6.75611">
        <ele>1260.43</ele>
        <time>2022-03-21T15:08:49Z</time>
      </trkpt>
      <trkpt lat="46.11736" lon="6.75613">
        <ele>1260.43</ele>
        <time>2022-03-21T15:08:50Z</time>
      </trkpt>
      <trkpt lat="46.11736" lon="6.75614">
        <ele>1260.43</ele>
        <time>2022-03-21T15:08:51Z</time>
      </trkpt>
      <trkpt lat="46.11737" lon="6.75615">
        <ele>1260.43</ele>
        <time>2022-03-21T15:08:52Z</time>
      </trkpt>
      <trkpt lat="46.11738" lon="6.75617">
        <ele>1260.43</ele>
        <time>2022-03-21T15:08:53Z</time>
      </trkpt>
      <trkpt lat="46.11737" lon="6.75619">
        <ele>1259.94</ele>
        <time>2022-03-21T15:08:54Z</time>
      </trkpt>
      <trkpt lat="46.1173" lon="6.75634">
        <ele>1257.54</ele>
        <time>2022-03-21T15:09:15Z</time>
      </trkpt>
      <trkpt lat="46.11718" lon="6.75665">
        <ele>1254.18</ele>
        <time>2022-03-21T15:09:33Z</time>
      </trkpt>
      <trkpt lat="46.11707" lon="6.75686">
        <ele>1250.81</ele>
        <time>2022-03-21T15:09:38Z</time>
      </trkpt>
      <trkpt lat="46.11698" lon="6.75704">
        <ele>1248.41</ele>
        <time>2022-03-21T15:09:42Z</time>
      </trkpt>
      <trkpt lat="46.11695" lon="6.75709">
        <ele>1247.45</ele>
        <time>2022-03-21T15:09:43Z</time>
      </trkpt>
      <trkpt lat="46.11691" lon="6.75712">
        <ele>1246.97</ele>
        <time>2022-03-21T15:09:44Z</time>
      </trkpt>
      <trkpt lat="46.11688" lon="6.75715">
        <ele>1246.01</ele>
        <time>2022-03-21T15:09:45Z</time>
      </trkpt>
      <trkpt lat="46.11684" lon="6.75717">
        <ele>1246.01</ele>
        <time>2022-03-21T15:09:46Z</time>
      </trkpt>
      <trkpt lat="46.11681" lon="6.75718">
        <ele>1245.04</ele>
        <time>2022-03-21T15:09:47Z</time>
      </trkpt>
      <trkpt lat="46.11679" lon="6.75718">
        <ele>1244.56</ele>
        <time>2022-03-21T15:09:48Z</time>
      </trkpt>
      <trkpt lat="46.11678" lon="6.75719">
        <ele>1244.08</ele>
        <time>2022-03-21T15:09:49Z</time>
      </trkpt>
      <trkpt lat="46.11677" lon="6.7572">
        <ele>1244.08</ele>
        <time>2022-03-21T15:09:50Z</time>
      </trkpt>
      <trkpt lat="46.11676" lon="6.7572">
        <ele>1243.6</ele>
        <time>2022-03-21T15:09:51Z</time>
      </trkpt>
      <trkpt lat="46.11675" lon="6.75721">
        <ele>1243.6</ele>
        <time>2022-03-21T15:09:52Z</time>
      </trkpt>
      <trkpt lat="46.1167" lon="6.75732">
        <ele>1242.16</ele>
        <time>2022-03-21T15:10:12Z</time>
      </trkpt>
      <trkpt lat="46.11665" lon="6.75737">
        <ele>1241.68</ele>
        <time>2022-03-21T15:10:17Z</time>
      </trkpt>
      <trkpt lat="46.11662" lon="6.75738">
        <ele>1241.68</ele>
        <time>2022-03-21T15:10:18Z</time>
      </trkpt>
      <trkpt lat="46.11658" lon="6.75738">
        <ele>1241.2</ele>
        <time>2022-03-21T15:10:19Z</time>
      </trkpt>
      <trkpt lat="46.11655" lon="6.75737">
        <ele>1240.72</ele>
        <time>2022-03-21T15:10:20Z</time>
      </trkpt>
      <trkpt lat="46.11651" lon="6.75734">
        <ele>1240.24</ele>
        <time>2022-03-21T15:10:21Z</time>
      </trkpt>
      <trkpt lat="46.11648" lon="6.75731">
        <ele>1239.28</ele>
        <time>2022-03-21T15:10:22Z</time>
      </trkpt>
      <trkpt lat="46.11644" lon="6.75726">
        <ele>1238.8</ele>
        <time>2022-03-21T15:10:23Z</time>
      </trkpt>
      <trkpt lat="46.1164" lon="6.75724">
        <ele>1238.32</ele>
        <time>2022-03-21T15:10:24Z</time>
      </trkpt>
      <trkpt lat="46.11635" lon="6.75722">
        <ele>1237.83</ele>
        <time>2022-03-21T15:10:25Z</time>
      </trkpt>
      <trkpt lat="46.11626" lon="6.75719">
        <ele>1235.43</ele>
        <time>2022-03-21T15:10:27Z</time>
      </trkpt>
      <trkpt lat="46.1162" lon="6.75719">
        <ele>1234.47</ele>
        <time>2022-03-21T15:10:28Z</time>
      </trkpt>
      <trkpt lat="46.11614" lon="6.75717">
        <ele>1233.51</ele>
        <time>2022-03-21T15:10:29Z</time>
      </trkpt>
      <trkpt lat="46.11609" lon="6.75715">
        <ele>1232.55</ele>
        <time>2022-03-21T15:10:30Z</time>
      </trkpt>
      <trkpt lat="46.11604" lon="6.75712">
        <ele>1231.59</ele>
        <time>2022-03-21T15:10:31Z</time>
      </trkpt>
      <trkpt lat="46.11599" lon="6.75708">
        <ele>1231.11</ele>
        <time>2022-03-21T15:10:32Z</time>
      </trkpt>
      <trkpt lat="46.11595" lon="6.75704">
        <ele>1230.14</ele>
        <time>2022-03-21T15:10:33Z</time>
      </trkpt>
      <trkpt lat="46.11591" lon="6.75699">
        <ele>1229.66</ele>
        <time>2022-03-21T15:10:34Z</time>
      </trkpt>
      <trkpt lat="46.11576" lon="6.75677">
        <ele>1226.78</ele>
        <time>2022-03-21T15:10:38Z</time>
      </trkpt>
      <trkpt lat="46.1156" lon="6.75654">
        <ele>1223.42</ele>
        <time>2022-03-21T15:10:42Z</time>
      </trkpt>
      <trkpt lat="46.11547" lon="6.75629">
        <ele>1220.53</ele>
        <time>2022-03-21T15:10:46Z</time>
      </trkpt>
      <trkpt lat="46.11544" lon="6.75622">
        <ele>1219.57</ele>
        <time>2022-03-21T15:10:47Z</time>
      </trkpt>
      <trkpt lat="46.11543" lon="6.75614">
        <ele>1218.61</ele>
        <time>2022-03-21T15:10:48Z</time>
      </trkpt>
      <trkpt lat="46.11543" lon="6.75606">
        <ele>1217.65</ele>
        <time>2022-03-21T15:10:49Z</time>
      </trkpt>
      <trkpt lat="46.11545" lon="6.75598">
        <ele>1216.69</ele>
        <time>2022-03-21T15:10:50Z</time>
      </trkpt>
      <trkpt lat="46.11549" lon="6.75592">
        <ele>1216.21</ele>
        <time>2022-03-21T15:10:51Z</time>
      </trkpt>
      <trkpt lat="46.11553" lon="6.75585">
        <ele>1215.24</ele>
        <time>2022-03-21T15:10:52Z</time>
      </trkpt>
      <trkpt lat="46.11556" lon="6.75577">
        <ele>1213.8</ele>
        <time>2022-03-21T15:10:53Z</time>
      </trkpt>
      <trkpt lat="46.11559" lon="6.75569">
        <ele>1213.32</ele>
        <time>2022-03-21T15:10:54Z</time>
      </trkpt>
      <trkpt lat="46.11562" lon="6.75562">
        <ele>1212.36</ele>
        <time>2022-03-21T15:10:55Z</time>
      </trkpt>
      <trkpt lat="46.11563" lon="6.75554">
        <ele>1211.4</ele>
        <time>2022-03-21T15:10:56Z</time>
      </trkpt>
      <trkpt lat="46.11563" lon="6.75544">
        <ele>1210.44</ele>
        <time>2022-03-21T15:10:57Z</time>
      </trkpt>
      <trkpt lat="46.11562" lon="6.75535">
        <ele>1209.96</ele>
        <time>2022-03-21T15:10:58Z</time>
      </trkpt>
      <trkpt lat="46.11562" lon="6.75526">
        <ele>1209</ele>
        <time>2022-03-21T15:10:59Z</time>
      </trkpt>
      <trkpt lat="46.11561" lon="6.75492">
        <ele>1206.59</ele>
        <time>2022-03-21T15:11:03Z</time>
      </trkpt>
      <trkpt lat="46.1156" lon="6.75485">
        <ele>1205.63</ele>
        <time>2022-03-21T15:11:04Z</time>
      </trkpt>
      <trkpt lat="46.11558" lon="6.75477">
        <ele>1205.15</ele>
        <time>2022-03-21T15:11:05Z</time>
      </trkpt>
      <trkpt lat="46.11556" lon="6.75469">
        <ele>1204.67</ele>
        <time>2022-03-21T15:11:06Z</time>
      </trkpt>
      <trkpt lat="46.11553" lon="6.75462">
        <ele>1203.71</ele>
        <time>2022-03-21T15:11:07Z</time>
      </trkpt>
      <trkpt lat="46.1155" lon="6.75455">
        <ele>1203.23</ele>
        <time>2022-03-21T15:11:08Z</time>
      </trkpt>
      <trkpt lat="46.11542" lon="6.75442">
        <ele>1201.3</ele>
        <time>2022-03-21T15:11:10Z</time>
      </trkpt>
      <trkpt lat="46.11537" lon="6.75436">
        <ele>1200.34</ele>
        <time>2022-03-21T15:11:11Z</time>
      </trkpt>
      <trkpt lat="46.11531" lon="6.75431">
        <ele>1199.38</ele>
        <time>2022-03-21T15:11:12Z</time>
      </trkpt>
      <trkpt lat="46.11526" lon="6.75426">
        <ele>1198.42</ele>
        <time>2022-03-21T15:11:13Z</time>
      </trkpt>
      <trkpt lat="46.11521" lon="6.75421">
        <ele>1197.94</ele>
        <time>2022-03-21T15:11:14Z</time>
      </trkpt>
      <trkpt lat="46.11513" lon="6.75411">
        <ele>1196.02</ele>
        <time>2022-03-21T15:11:16Z</time>
      </trkpt>
      <trkpt lat="46.11509" lon="6.75405">
        <ele>1195.54</ele>
        <time>2022-03-21T15:11:17Z</time>
      </trkpt>
      <trkpt lat="46.11498" lon="6.75383">
        <ele>1193.13</ele>
        <time>2022-03-21T15:11:21Z</time>
      </trkpt>
      <trkpt lat="46.11496" lon="6.75377">
        <ele>1192.17</ele>
        <time>2022-03-21T15:11:22Z</time>
      </trkpt>
      <trkpt lat="46.11495" lon="6.75372">
        <ele>1191.69</ele>
        <time>2022-03-21T15:11:23Z</time>
      </trkpt>
      <trkpt lat="46.11489" lon="6.75356">
        <ele>1189.77</ele>
        <time>2022-03-21T15:11:27Z</time>
      </trkpt>
      <trkpt lat="46.11486" lon="6.75352">
        <ele>1189.29</ele>
        <time>2022-03-21T15:11:28Z</time>
      </trkpt>
      <trkpt lat="46.11478" lon="6.75343">
        <ele>1187.37</ele>
        <time>2022-03-21T15:11:30Z</time>
      </trkpt>
      <trkpt lat="46.11463" lon="6.75332">
        <ele>1184.48</ele>
        <time>2022-03-21T15:11:33Z</time>
      </trkpt>
      <trkpt lat="46.11458" lon="6.75329">
        <ele>1183.52</ele>
        <time>2022-03-21T15:11:34Z</time>
      </trkpt>
      <trkpt lat="46.11453" lon="6.75325">
        <ele>1182.56</ele>
        <time>2022-03-21T15:11:35Z</time>
      </trkpt>
      <trkpt lat="46.11448" lon="6.75324">
        <ele>1182.08</ele>
        <time>2022-03-21T15:11:36Z</time>
      </trkpt>
      <trkpt lat="46.11444" lon="6.75324">
        <ele>1180.64</ele>
        <time>2022-03-21T15:11:37Z</time>
      </trkpt>
      <trkpt lat="46.11439" lon="6.75325">
        <ele>1179.67</ele>
        <time>2022-03-21T15:11:38Z</time>
      </trkpt>
      <trkpt lat="46.11436" lon="6.75326">
        <ele>1178.71</ele>
        <time>2022-03-21T15:11:39Z</time>
      </trkpt>
      <trkpt lat="46.11432" lon="6.75329">
        <ele>1178.23</ele>
        <time>2022-03-21T15:11:40Z</time>
      </trkpt>
      <trkpt lat="46.11421" lon="6.75339">
        <ele>1175.83</ele>
        <time>2022-03-21T15:11:43Z</time>
      </trkpt>
      <trkpt lat="46.11415" lon="6.75341">
        <ele>1174.39</ele>
        <time>2022-03-21T15:11:44Z</time>
      </trkpt>
      <trkpt lat="46.11401" lon="6.75347">
        <ele>1171.02</ele>
        <time>2022-03-21T15:11:48Z</time>
      </trkpt>
      <trkpt lat="46.1139" lon="6.75346">
        <ele>1168.14</ele>
        <time>2022-03-21T15:11:56Z</time>
      </trkpt>
      <trkpt lat="46.11388" lon="6.75344">
        <ele>1167.66</ele>
        <time>2022-03-21T15:11:59Z</time>
      </trkpt>
      <trkpt lat="46.11386" lon="6.75345">
        <ele>1167.66</ele>
        <time>2022-03-21T15:12:00Z</time>
      </trkpt>
      <trkpt lat="46.11384" lon="6.75344">
        <ele>1167.18</ele>
        <time>2022-03-21T15:12:01Z</time>
      </trkpt>
      <trkpt lat="46.11383" lon="6.75345">
        <ele>1167.18</ele>
        <time>2022-03-21T15:12:02Z</time>
      </trkpt>
      <trkpt lat="46.11381" lon="6.75345">
        <ele>1167.18</ele>
        <time>2022-03-21T15:12:03Z</time>
      </trkpt>
      <trkpt lat="46.11378" lon="6.75345">
        <ele>1167.18</ele>
        <time>2022-03-21T15:12:04Z</time>
      </trkpt>
      <trkpt lat="46.11375" lon="6.75344">
        <ele>1166.7</ele>
        <time>2022-03-21T15:12:05Z</time>
      </trkpt>
      <trkpt lat="46.11372" lon="6.75343">
        <ele>1166.7</ele>
        <time>2022-03-21T15:12:06Z</time>
      </trkpt>
      <trkpt lat="46.11359" lon="6.75341">
        <ele>1165.74</ele>
        <time>2022-03-21T15:12:09Z</time>
      </trkpt>
      <trkpt lat="46.11354" lon="6.75337">
        <ele>1164.77</ele>
        <time>2022-03-21T15:12:10Z</time>
      </trkpt>
      <trkpt lat="46.11334" lon="6.75318">
        <ele>1161.41</ele>
        <time>2022-03-21T15:12:14Z</time>
      </trkpt>
      <trkpt lat="46.11325" lon="6.75308">
        <ele>1159.01</ele>
        <time>2022-03-21T15:12:16Z</time>
      </trkpt>
      <trkpt lat="46.11323" lon="6.75301">
        <ele>1158.53</ele>
        <time>2022-03-21T15:12:17Z</time>
      </trkpt>
      <trkpt lat="46.11322" lon="6.75295">
        <ele>1157.56</ele>
        <time>2022-03-21T15:12:18Z</time>
      </trkpt>
      <trkpt lat="46.1132" lon="6.75288">
        <ele>1157.08</ele>
        <time>2022-03-21T15:12:19Z</time>
      </trkpt>
      <trkpt lat="46.11318" lon="6.75281">
        <ele>1156.6</ele>
        <time>2022-03-21T15:12:20Z</time>
      </trkpt>
      <trkpt lat="46.11315" lon="6.75275">
        <ele>1155.64</ele>
        <time>2022-03-21T15:12:21Z</time>
      </trkpt>
      <trkpt lat="46.11311" lon="6.75262">
        <ele>1154.2</ele>
        <time>2022-03-21T15:12:23Z</time>
      </trkpt>
      <trkpt lat="46.11309" lon="6.75256">
        <ele>1153.24</ele>
        <time>2022-03-21T15:12:24Z</time>
      </trkpt>
      <trkpt lat="46.11307" lon="6.75251">
        <ele>1152.28</ele>
        <time>2022-03-21T15:12:25Z</time>
      </trkpt>
      <trkpt lat="46.11304" lon="6.75248">
        <ele>1151.8</ele>
        <time>2022-03-21T15:12:26Z</time>
      </trkpt>
      <trkpt lat="46.11303" lon="6.75245">
        <ele>1150.84</ele>
        <time>2022-03-21T15:12:27Z</time>
      </trkpt>
      <trkpt lat="46.11302" lon="6.75243">
        <ele>1150.35</ele>
        <time>2022-03-21T15:12:28Z</time>
      </trkpt>
      <trkpt lat="46.11301" lon="6.75241">
        <ele>1149.87</ele>
        <time>2022-03-21T15:12:29Z</time>
      </trkpt>
      <trkpt lat="46.113" lon="6.75237">
        <ele>1149.39</ele>
        <time>2022-03-21T15:12:30Z</time>
      </trkpt>
      <trkpt lat="46.11298" lon="6.75234">
        <ele>1148.91</ele>
        <time>2022-03-21T15:12:31Z</time>
      </trkpt>
      <trkpt lat="46.11297" lon="6.7523">
        <ele>1148.43</ele>
        <time>2022-03-21T15:12:32Z</time>
      </trkpt>
      <trkpt lat="46.11296" lon="6.75225">
        <ele>1146.99</ele>
        <time>2022-03-21T15:12:35Z</time>
      </trkpt>
      <trkpt lat="46.11287" lon="6.75204">
        <ele>1143.63</ele>
        <time>2022-03-21T15:12:48Z</time>
      </trkpt>
      <trkpt lat="46.11281" lon="6.75184">
        <ele>1140.74</ele>
        <time>2022-03-21T15:12:56Z</time>
      </trkpt>
      <trkpt lat="46.11276" lon="6.75173">
        <ele>1137.86</ele>
        <time>2022-03-21T15:13:06Z</time>
      </trkpt>
      <trkpt lat="46.11263" lon="6.75154">
        <ele>1134.49</ele>
        <time>2022-03-21T15:13:21Z</time>
      </trkpt>
      <trkpt lat="46.11258" lon="6.75146">
        <ele>1132.09</ele>
        <time>2022-03-21T15:13:29Z</time>
      </trkpt>
      <trkpt lat="46.11257" lon="6.75145">
        <ele>1132.09</ele>
        <time>2022-03-21T15:13:30Z</time>
      </trkpt>
      <trkpt lat="46.11255" lon="6.75143">
        <ele>1131.61</ele>
        <time>2022-03-21T15:13:31Z</time>
      </trkpt>
      <trkpt lat="46.11253" lon="6.75139">
        <ele>1131.13</ele>
        <time>2022-03-21T15:13:33Z</time>
      </trkpt>
      <trkpt lat="46.11252" lon="6.75133">
        <ele>1129.21</ele>
        <time>2022-03-21T15:13:39Z</time>
      </trkpt>
      <trkpt lat="46.11252" lon="6.75131">
        <ele>1129.21</ele>
        <time>2022-03-21T15:13:40Z</time>
      </trkpt>
      <trkpt lat="46.11252" lon="6.75128">
        <ele>1128.73</ele>
        <time>2022-03-21T15:13:41Z</time>
      </trkpt>
      <trkpt lat="46.11252" lon="6.75125">
        <ele>1128.73</ele>
        <time>2022-03-21T15:13:42Z</time>
      </trkpt>
      <trkpt lat="46.11251" lon="6.75123">
        <ele>1128.24</ele>
        <time>2022-03-21T15:13:43Z</time>
      </trkpt>
      <trkpt lat="46.1125" lon="6.75122">
        <ele>1127.76</ele>
        <time>2022-03-21T15:13:44Z</time>
      </trkpt>
      <trkpt lat="46.11249" lon="6.75121">
        <ele>1127.76</ele>
        <time>2022-03-21T15:13:45Z</time>
      </trkpt>
      <trkpt lat="46.1125" lon="6.75111">
        <ele>1126.8</ele>
        <time>2022-03-21T15:14:00Z</time>
      </trkpt>
      <trkpt lat="46.11246" lon="6.75112">
        <ele>1126.8</ele>
        <time>2022-03-21T15:14:16Z</time>
      </trkpt>
    </trkseg>
  </trk>
</gpx>